<?xml version="1.0" encoding="UTF-8" standalone="no" ?>
<gpx xmlns="http://www.topografix.com/GPX/1/1" xmlns:xsi="http://www.w3.org/2001/XMLSchema-instance" xsi:schemaLocation="http://www.topografix.com/GPX/1/1 http://www.topografix.com/GPX/1/1/gpx.xsd" version="1.1" creator="VisuGPX - https://www.visugpx.com">
  <metadata>
    <name>VTT - TransVerdon</name>
    <desc><![CDATA[VTT - Col d'Allos --> Thorame par Prenier / Autapie / Lignins / Peyresq - Relevé terrain:   2 000 m / -3 800 m / 73 km
CR 1001 Sentiers ici:<http://www.1001sentiers.fr/forum/viewtopic.php?f=35&t=2506>]]></desc>
  </metadata>
  <trk>
    <name><![CDATA[2011-07-10T06:23:16Z]]></name>
    <trkseg>
      <trkpt lat="44.29772" lon="6.59593">
        <ele>2242.148</ele>
        <time>2011-07-10T06:23:21Z</time>
      </trkpt>
      <trkpt lat="44.29772" lon="6.59593">
        <ele>2242.41</ele>
        <time>2011-07-10T06:23:27Z</time>
      </trkpt>
      <trkpt lat="44.2977" lon="6.59593">
        <ele>2239.579</ele>
        <time>2011-07-10T06:23:47Z</time>
      </trkpt>
      <trkpt lat="44.29769" lon="6.59591">
        <ele>2241.834</ele>
        <time>2011-07-10T06:24:20Z</time>
      </trkpt>
      <trkpt lat="44.29756" lon="6.59581">
        <ele>2241.738</ele>
        <time>2011-07-10T06:24:28Z</time>
      </trkpt>
      <trkpt lat="44.29743" lon="6.59575">
        <ele>2240.889</ele>
        <time>2011-07-10T06:24:33Z</time>
      </trkpt>
      <trkpt lat="44.29727" lon="6.59564">
        <ele>2241.263</ele>
        <time>2011-07-10T06:24:39Z</time>
      </trkpt>
      <trkpt lat="44.29714" lon="6.5955">
        <ele>2244.176</ele>
        <time>2011-07-10T06:24:45Z</time>
      </trkpt>
      <trkpt lat="44.297" lon="6.59536">
        <ele>2245.524</ele>
        <time>2011-07-10T06:24:52Z</time>
      </trkpt>
      <trkpt lat="44.29689" lon="6.59525">
        <ele>2246.804</ele>
        <time>2011-07-10T06:24:58Z</time>
      </trkpt>
      <trkpt lat="44.29677" lon="6.59511">
        <ele>2246.723</ele>
        <time>2011-07-10T06:25:05Z</time>
      </trkpt>
      <trkpt lat="44.29667" lon="6.5949">
        <ele>2247.877</ele>
        <time>2011-07-10T06:25:14Z</time>
      </trkpt>
      <trkpt lat="44.2967" lon="6.59472">
        <ele>2250.999</ele>
        <time>2011-07-10T06:25:20Z</time>
      </trkpt>
      <trkpt lat="44.29675" lon="6.59464">
        <ele>2251.336</ele>
        <time>2011-07-10T06:25:24Z</time>
      </trkpt>
      <trkpt lat="44.29675" lon="6.59456">
        <ele>2251.333</ele>
        <time>2011-07-10T06:25:28Z</time>
      </trkpt>
      <trkpt lat="44.29669" lon="6.59457">
        <ele>2250.337</ele>
        <time>2011-07-10T06:25:32Z</time>
      </trkpt>
      <trkpt lat="44.29666" lon="6.59459">
        <ele>2248.476</ele>
        <time>2011-07-10T06:25:38Z</time>
      </trkpt>
      <trkpt lat="44.29654" lon="6.59461">
        <ele>2247.387</ele>
        <time>2011-07-10T06:25:43Z</time>
      </trkpt>
      <trkpt lat="44.29637" lon="6.59461">
        <ele>2247.912</ele>
        <time>2011-07-10T06:25:50Z</time>
      </trkpt>
      <trkpt lat="44.29619" lon="6.59462">
        <ele>2248.772</ele>
        <time>2011-07-10T06:25:58Z</time>
      </trkpt>
      <trkpt lat="44.29599" lon="6.59463">
        <ele>2249.192</ele>
        <time>2011-07-10T06:26:07Z</time>
      </trkpt>
      <trkpt lat="44.29583" lon="6.59465">
        <ele>2250.143</ele>
        <time>2011-07-10T06:26:14Z</time>
      </trkpt>
      <trkpt lat="44.29572" lon="6.59464">
        <ele>2250.974</ele>
        <time>2011-07-10T06:26:19Z</time>
      </trkpt>
      <trkpt lat="44.29556" lon="6.59464">
        <ele>2252.904</ele>
        <time>2011-07-10T06:26:26Z</time>
      </trkpt>
      <trkpt lat="44.29552" lon="6.59464">
        <ele>2253.283</ele>
        <time>2011-07-10T06:26:28Z</time>
      </trkpt>
      <trkpt lat="44.29536" lon="6.59468">
        <ele>2254.251</ele>
        <time>2011-07-10T06:26:36Z</time>
      </trkpt>
      <trkpt lat="44.29524" lon="6.59464">
        <ele>2255.515</ele>
        <time>2011-07-10T06:26:42Z</time>
      </trkpt>
      <trkpt lat="44.2951" lon="6.5946">
        <ele>2256.753</ele>
        <time>2011-07-10T06:26:49Z</time>
      </trkpt>
      <trkpt lat="44.29501" lon="6.59462">
        <ele>2256.376</ele>
        <time>2011-07-10T06:26:53Z</time>
      </trkpt>
      <trkpt lat="44.2949" lon="6.59471">
        <ele>2255.577</ele>
        <time>2011-07-10T06:26:58Z</time>
      </trkpt>
      <trkpt lat="44.29475" lon="6.59474">
        <ele>2256.804</ele>
        <time>2011-07-10T06:27:05Z</time>
      </trkpt>
      <trkpt lat="44.29471" lon="6.59474">
        <ele>2257.608</ele>
        <time>2011-07-10T06:27:07Z</time>
      </trkpt>
      <trkpt lat="44.29464" lon="6.59469">
        <ele>2259.069</ele>
        <time>2011-07-10T06:27:12Z</time>
      </trkpt>
      <trkpt lat="44.29453" lon="6.59461">
        <ele>2260.766</ele>
        <time>2011-07-10T06:27:19Z</time>
      </trkpt>
      <trkpt lat="44.29443" lon="6.59458">
        <ele>2261.904</ele>
        <time>2011-07-10T06:27:24Z</time>
      </trkpt>
      <trkpt lat="44.29429" lon="6.59455">
        <ele>2262.662</ele>
        <time>2011-07-10T06:27:31Z</time>
      </trkpt>
      <trkpt lat="44.29416" lon="6.59461">
        <ele>2263.071</ele>
        <time>2011-07-10T06:27:36Z</time>
      </trkpt>
      <trkpt lat="44.29407" lon="6.59471">
        <ele>2263.692</ele>
        <time>2011-07-10T06:27:40Z</time>
      </trkpt>
      <trkpt lat="44.29405" lon="6.59471">
        <ele>2263.347</ele>
        <time>2011-07-10T06:27:44Z</time>
      </trkpt>
      <trkpt lat="44.29404" lon="6.5947">
        <ele>2264.99</ele>
        <time>2011-07-10T06:28:32Z</time>
      </trkpt>
      <trkpt lat="44.294" lon="6.59477">
        <ele>2266.221</ele>
        <time>2011-07-10T06:28:38Z</time>
      </trkpt>
      <trkpt lat="44.29393" lon="6.59482">
        <ele>2266.171</ele>
        <time>2011-07-10T06:28:43Z</time>
      </trkpt>
      <trkpt lat="44.29384" lon="6.59482">
        <ele>2266.512</ele>
        <time>2011-07-10T06:28:48Z</time>
      </trkpt>
      <trkpt lat="44.29375" lon="6.59478">
        <ele>2266.871</ele>
        <time>2011-07-10T06:28:54Z</time>
      </trkpt>
      <trkpt lat="44.29369" lon="6.59479">
        <ele>2267.321</ele>
        <time>2011-07-10T06:28:58Z</time>
      </trkpt>
      <trkpt lat="44.29358" lon="6.59485">
        <ele>2268.547</ele>
        <time>2011-07-10T06:29:04Z</time>
      </trkpt>
      <trkpt lat="44.29349" lon="6.59488">
        <ele>2268.77</ele>
        <time>2011-07-10T06:29:09Z</time>
      </trkpt>
      <trkpt lat="44.29334" lon="6.59492">
        <ele>2268.156</ele>
        <time>2011-07-10T06:29:16Z</time>
      </trkpt>
      <trkpt lat="44.29325" lon="6.59491">
        <ele>2267.989</ele>
        <time>2011-07-10T06:29:20Z</time>
      </trkpt>
      <trkpt lat="44.29318" lon="6.59498">
        <ele>2268.341</ele>
        <time>2011-07-10T06:29:24Z</time>
      </trkpt>
      <trkpt lat="44.29309" lon="6.59516">
        <ele>2268.721</ele>
        <time>2011-07-10T06:29:32Z</time>
      </trkpt>
      <trkpt lat="44.29301" lon="6.59531">
        <ele>2268.762</ele>
        <time>2011-07-10T06:29:38Z</time>
      </trkpt>
      <trkpt lat="44.29296" lon="6.59545">
        <ele>2270.412</ele>
        <time>2011-07-10T06:29:44Z</time>
      </trkpt>
      <trkpt lat="44.29284" lon="6.59554">
        <ele>2269.899</ele>
        <time>2011-07-10T06:29:51Z</time>
      </trkpt>
      <trkpt lat="44.29275" lon="6.59559">
        <ele>2269.711</ele>
        <time>2011-07-10T06:29:56Z</time>
      </trkpt>
      <trkpt lat="44.29267" lon="6.59562">
        <ele>2269.229</ele>
        <time>2011-07-10T06:30:01Z</time>
      </trkpt>
      <trkpt lat="44.29258" lon="6.59566">
        <ele>2269.019</ele>
        <time>2011-07-10T06:30:09Z</time>
      </trkpt>
      <trkpt lat="44.29254" lon="6.59566">
        <ele>2268.687</ele>
        <time>2011-07-10T06:30:11Z</time>
      </trkpt>
      <trkpt lat="44.29245" lon="6.59573">
        <ele>2268.369</ele>
        <time>2011-07-10T06:30:16Z</time>
      </trkpt>
      <trkpt lat="44.29233" lon="6.59577">
        <ele>2269.543</ele>
        <time>2011-07-10T06:30:21Z</time>
      </trkpt>
      <trkpt lat="44.29222" lon="6.59587">
        <ele>2270.212</ele>
        <time>2011-07-10T06:30:27Z</time>
      </trkpt>
      <trkpt lat="44.2922" lon="6.59588">
        <ele>2270.322</ele>
        <time>2011-07-10T06:30:28Z</time>
      </trkpt>
      <trkpt lat="44.29206" lon="6.59601">
        <ele>2271.482</ele>
        <time>2011-07-10T06:30:36Z</time>
      </trkpt>
      <trkpt lat="44.29196" lon="6.59612">
        <ele>2272.893</ele>
        <time>2011-07-10T06:30:42Z</time>
      </trkpt>
      <trkpt lat="44.29194" lon="6.59615">
        <ele>2273.484</ele>
        <time>2011-07-10T06:30:43Z</time>
      </trkpt>
      <trkpt lat="44.29188" lon="6.59627">
        <ele>2273.741</ele>
        <time>2011-07-10T06:30:49Z</time>
      </trkpt>
      <trkpt lat="44.29185" lon="6.59637">
        <ele>2271.884</ele>
        <time>2011-07-10T06:30:53Z</time>
      </trkpt>
      <trkpt lat="44.29183" lon="6.59647">
        <ele>2273.762</ele>
        <time>2011-07-10T06:30:57Z</time>
      </trkpt>
      <trkpt lat="44.29186" lon="6.59657">
        <ele>2274.942</ele>
        <time>2011-07-10T06:31:02Z</time>
      </trkpt>
      <trkpt lat="44.2919" lon="6.5968">
        <ele>2277.645</ele>
        <time>2011-07-10T06:31:11Z</time>
      </trkpt>
      <trkpt lat="44.2919" lon="6.59682">
        <ele>2277.965</ele>
        <time>2011-07-10T06:31:12Z</time>
      </trkpt>
      <trkpt lat="44.29196" lon="6.59697">
        <ele>2280.125</ele>
        <time>2011-07-10T06:31:18Z</time>
      </trkpt>
      <trkpt lat="44.29197" lon="6.59696">
        <ele>2282.021</ele>
        <time>2011-07-10T06:31:29Z</time>
      </trkpt>
      <trkpt lat="44.29197" lon="6.59696">
        <ele>2283.963</ele>
        <time>2011-07-10T06:31:34Z</time>
      </trkpt>
      <trkpt lat="44.29193" lon="6.59702">
        <ele>2285.679</ele>
        <time>2011-07-10T06:31:40Z</time>
      </trkpt>
      <trkpt lat="44.29188" lon="6.59708">
        <ele>2285.706</ele>
        <time>2011-07-10T06:31:46Z</time>
      </trkpt>
      <trkpt lat="44.29185" lon="6.59711">
        <ele>2284.803</ele>
        <time>2011-07-10T06:31:50Z</time>
      </trkpt>
      <trkpt lat="44.29184" lon="6.59715">
        <ele>2283.109</ele>
        <time>2011-07-10T06:31:57Z</time>
      </trkpt>
      <trkpt lat="44.29183" lon="6.59722">
        <ele>2282.564</ele>
        <time>2011-07-10T06:32:04Z</time>
      </trkpt>
      <trkpt lat="44.29183" lon="6.59731">
        <ele>2280.645</ele>
        <time>2011-07-10T06:32:09Z</time>
      </trkpt>
      <trkpt lat="44.29177" lon="6.59737">
        <ele>2280.548</ele>
        <time>2011-07-10T06:32:13Z</time>
      </trkpt>
      <trkpt lat="44.29167" lon="6.59742">
        <ele>2280.662</ele>
        <time>2011-07-10T06:32:17Z</time>
      </trkpt>
      <trkpt lat="44.29156" lon="6.59751">
        <ele>2281.243</ele>
        <time>2011-07-10T06:32:23Z</time>
      </trkpt>
      <trkpt lat="44.29148" lon="6.59764">
        <ele>2282.112</ele>
        <time>2011-07-10T06:32:29Z</time>
      </trkpt>
      <trkpt lat="44.29137" lon="6.59776">
        <ele>2281.704</ele>
        <time>2011-07-10T06:32:36Z</time>
      </trkpt>
      <trkpt lat="44.29136" lon="6.59777">
        <ele>2281.911</ele>
        <time>2011-07-10T06:32:40Z</time>
      </trkpt>
      <trkpt lat="44.29136" lon="6.59777">
        <ele>2282.392</ele>
        <time>2011-07-10T06:32:42Z</time>
      </trkpt>
      <trkpt lat="44.29132" lon="6.59781">
        <ele>2283.733</ele>
        <time>2011-07-10T06:32:48Z</time>
      </trkpt>
      <trkpt lat="44.29129" lon="6.59788">
        <ele>2283.852</ele>
        <time>2011-07-10T06:32:55Z</time>
      </trkpt>
      <trkpt lat="44.29126" lon="6.59793">
        <ele>2283.121</ele>
        <time>2011-07-10T06:33:01Z</time>
      </trkpt>
      <trkpt lat="44.29121" lon="6.59798">
        <ele>2285.156</ele>
        <time>2011-07-10T06:33:08Z</time>
      </trkpt>
      <trkpt lat="44.2912" lon="6.59799">
        <ele>2286.331</ele>
        <time>2011-07-10T06:33:14Z</time>
      </trkpt>
      <trkpt lat="44.29116" lon="6.59801">
        <ele>2288.178</ele>
        <time>2011-07-10T06:33:22Z</time>
      </trkpt>
      <trkpt lat="44.29101" lon="6.59807">
        <ele>2289.276</ele>
        <time>2011-07-10T06:33:30Z</time>
      </trkpt>
      <trkpt lat="44.29099" lon="6.5981">
        <ele>2289.627</ele>
        <time>2011-07-10T06:33:31Z</time>
      </trkpt>
      <trkpt lat="44.29092" lon="6.59814">
        <ele>2288.943</ele>
        <time>2011-07-10T06:33:34Z</time>
      </trkpt>
      <trkpt lat="44.29067" lon="6.59808">
        <ele>2287.564</ele>
        <time>2011-07-10T06:33:40Z</time>
      </trkpt>
      <trkpt lat="44.29056" lon="6.59809">
        <ele>2286.784</ele>
        <time>2011-07-10T06:33:43Z</time>
      </trkpt>
      <trkpt lat="44.29053" lon="6.59806">
        <ele>2286.948</ele>
        <time>2011-07-10T06:33:45Z</time>
      </trkpt>
      <trkpt lat="44.2905" lon="6.59802">
        <ele>2287.543</ele>
        <time>2011-07-10T06:33:47Z</time>
      </trkpt>
      <trkpt lat="44.29044" lon="6.598">
        <ele>2288.332</ele>
        <time>2011-07-10T06:33:53Z</time>
      </trkpt>
      <trkpt lat="44.29041" lon="6.59799">
        <ele>2289.775</ele>
        <time>2011-07-10T06:34:01Z</time>
      </trkpt>
      <trkpt lat="44.29036" lon="6.59796">
        <ele>2290.647</ele>
        <time>2011-07-10T06:34:06Z</time>
      </trkpt>
      <trkpt lat="44.29033" lon="6.59794">
        <ele>2292.315</ele>
        <time>2011-07-10T06:34:11Z</time>
      </trkpt>
      <trkpt lat="44.29024" lon="6.59792">
        <ele>2294.619</ele>
        <time>2011-07-10T06:34:16Z</time>
      </trkpt>
      <trkpt lat="44.29008" lon="6.59795">
        <ele>2296.835</ele>
        <time>2011-07-10T06:34:24Z</time>
      </trkpt>
      <trkpt lat="44.28996" lon="6.59804">
        <ele>2298.153</ele>
        <time>2011-07-10T06:34:31Z</time>
      </trkpt>
      <trkpt lat="44.28988" lon="6.59806">
        <ele>2299.005</ele>
        <time>2011-07-10T06:34:35Z</time>
      </trkpt>
      <trkpt lat="44.28976" lon="6.59816">
        <ele>2300.504</ele>
        <time>2011-07-10T06:34:43Z</time>
      </trkpt>
      <trkpt lat="44.28962" lon="6.59829">
        <ele>2302.055</ele>
        <time>2011-07-10T06:34:52Z</time>
      </trkpt>
      <trkpt lat="44.28951" lon="6.59841">
        <ele>2301.679</ele>
        <time>2011-07-10T06:34:58Z</time>
      </trkpt>
      <trkpt lat="44.28945" lon="6.59851">
        <ele>2302.432</ele>
        <time>2011-07-10T06:35:03Z</time>
      </trkpt>
      <trkpt lat="44.28935" lon="6.59863">
        <ele>2303.286</ele>
        <time>2011-07-10T06:35:10Z</time>
      </trkpt>
      <trkpt lat="44.28929" lon="6.59867">
        <ele>2306.173</ele>
        <time>2011-07-10T06:35:14Z</time>
      </trkpt>
      <trkpt lat="44.28925" lon="6.59869">
        <ele>2306.91</ele>
        <time>2011-07-10T06:35:16Z</time>
      </trkpt>
      <trkpt lat="44.28919" lon="6.5987">
        <ele>2306.551</ele>
        <time>2011-07-10T06:35:20Z</time>
      </trkpt>
      <trkpt lat="44.28922" lon="6.59872">
        <ele>2302.213</ele>
        <time>2011-07-10T06:37:11Z</time>
      </trkpt>
      <trkpt lat="44.28922" lon="6.59879">
        <ele>2303.265</ele>
        <time>2011-07-10T06:37:15Z</time>
      </trkpt>
      <trkpt lat="44.28918" lon="6.59883">
        <ele>2304.522</ele>
        <time>2011-07-10T06:37:21Z</time>
      </trkpt>
      <trkpt lat="44.28916" lon="6.59887">
        <ele>2304.981</ele>
        <time>2011-07-10T06:37:27Z</time>
      </trkpt>
      <trkpt lat="44.28913" lon="6.59893">
        <ele>2305.873</ele>
        <time>2011-07-10T06:37:34Z</time>
      </trkpt>
      <trkpt lat="44.28907" lon="6.59907">
        <ele>2307.326</ele>
        <time>2011-07-10T06:37:39Z</time>
      </trkpt>
      <trkpt lat="44.28903" lon="6.59929">
        <ele>2308.964</ele>
        <time>2011-07-10T06:37:46Z</time>
      </trkpt>
      <trkpt lat="44.28905" lon="6.59951">
        <ele>2310.848</ele>
        <time>2011-07-10T06:37:53Z</time>
      </trkpt>
      <trkpt lat="44.28904" lon="6.59969">
        <ele>2312.566</ele>
        <time>2011-07-10T06:37:59Z</time>
      </trkpt>
      <trkpt lat="44.28901" lon="6.59984">
        <ele>2313.817</ele>
        <time>2011-07-10T06:38:04Z</time>
      </trkpt>
      <trkpt lat="44.28905" lon="6.60002">
        <ele>2313.763</ele>
        <time>2011-07-10T06:38:09Z</time>
      </trkpt>
      <trkpt lat="44.28905" lon="6.60013">
        <ele>2315.43</ele>
        <time>2011-07-10T06:38:13Z</time>
      </trkpt>
      <trkpt lat="44.28913" lon="6.60023">
        <ele>2315.833</ele>
        <time>2011-07-10T06:38:18Z</time>
      </trkpt>
      <trkpt lat="44.28917" lon="6.60034">
        <ele>2315.495</ele>
        <time>2011-07-10T06:38:22Z</time>
      </trkpt>
      <trkpt lat="44.28917" lon="6.60035">
        <ele>2315.695</ele>
        <time>2011-07-10T06:38:23Z</time>
      </trkpt>
      <trkpt lat="44.2892" lon="6.60041">
        <ele>2316.333</ele>
        <time>2011-07-10T06:38:27Z</time>
      </trkpt>
      <trkpt lat="44.28919" lon="6.60045">
        <ele>2316.551</ele>
        <time>2011-07-10T06:38:32Z</time>
      </trkpt>
      <trkpt lat="44.28917" lon="6.60046">
        <ele>2308.221</ele>
        <time>2011-07-10T06:40:24Z</time>
      </trkpt>
      <trkpt lat="44.28915" lon="6.6005">
        <ele>2311.012</ele>
        <time>2011-07-10T06:40:31Z</time>
      </trkpt>
      <trkpt lat="44.2891" lon="6.60059">
        <ele>2311.274</ele>
        <time>2011-07-10T06:40:35Z</time>
      </trkpt>
      <trkpt lat="44.28908" lon="6.60074">
        <ele>2311.995</ele>
        <time>2011-07-10T06:40:41Z</time>
      </trkpt>
      <trkpt lat="44.28907" lon="6.60084">
        <ele>2311.661</ele>
        <time>2011-07-10T06:40:45Z</time>
      </trkpt>
      <trkpt lat="44.28893" lon="6.60099">
        <ele>2313.865</ele>
        <time>2011-07-10T06:40:54Z</time>
      </trkpt>
      <trkpt lat="44.28884" lon="6.60112">
        <ele>2313.801</ele>
        <time>2011-07-10T06:40:59Z</time>
      </trkpt>
      <trkpt lat="44.28879" lon="6.60131">
        <ele>2314.883</ele>
        <time>2011-07-10T06:41:05Z</time>
      </trkpt>
      <trkpt lat="44.28881" lon="6.6014">
        <ele>2315.533</ele>
        <time>2011-07-10T06:41:08Z</time>
      </trkpt>
      <trkpt lat="44.28891" lon="6.60155">
        <ele>2318.558</ele>
        <time>2011-07-10T06:41:14Z</time>
      </trkpt>
      <trkpt lat="44.28902" lon="6.6017">
        <ele>2320.175</ele>
        <time>2011-07-10T06:41:20Z</time>
      </trkpt>
      <trkpt lat="44.28905" lon="6.60182">
        <ele>2321.487</ele>
        <time>2011-07-10T06:41:24Z</time>
      </trkpt>
      <trkpt lat="44.28907" lon="6.60199">
        <ele>2323.017</ele>
        <time>2011-07-10T06:41:30Z</time>
      </trkpt>
      <trkpt lat="44.2891" lon="6.60216">
        <ele>2324.638</ele>
        <time>2011-07-10T06:41:36Z</time>
      </trkpt>
      <trkpt lat="44.28917" lon="6.60235">
        <ele>2324.83</ele>
        <time>2011-07-10T06:41:42Z</time>
      </trkpt>
      <trkpt lat="44.28919" lon="6.60244">
        <ele>2325.154</ele>
        <time>2011-07-10T06:41:45Z</time>
      </trkpt>
      <trkpt lat="44.28921" lon="6.60258">
        <ele>2325.164</ele>
        <time>2011-07-10T06:41:51Z</time>
      </trkpt>
      <trkpt lat="44.28919" lon="6.6027">
        <ele>2327.369</ele>
        <time>2011-07-10T06:41:57Z</time>
      </trkpt>
      <trkpt lat="44.28919" lon="6.60277">
        <ele>2327.975</ele>
        <time>2011-07-10T06:42:03Z</time>
      </trkpt>
      <trkpt lat="44.2892" lon="6.60285">
        <ele>2329.187</ele>
        <time>2011-07-10T06:42:09Z</time>
      </trkpt>
      <trkpt lat="44.28921" lon="6.60295">
        <ele>2331.295</ele>
        <time>2011-07-10T06:42:17Z</time>
      </trkpt>
      <trkpt lat="44.28923" lon="6.60303">
        <ele>2332.472</ele>
        <time>2011-07-10T06:42:25Z</time>
      </trkpt>
      <trkpt lat="44.28925" lon="6.60323">
        <ele>2331.682</ele>
        <time>2011-07-10T06:42:31Z</time>
      </trkpt>
      <trkpt lat="44.28924" lon="6.60338">
        <ele>2332.666</ele>
        <time>2011-07-10T06:42:37Z</time>
      </trkpt>
      <trkpt lat="44.28925" lon="6.60356">
        <ele>2332.172</ele>
        <time>2011-07-10T06:42:43Z</time>
      </trkpt>
      <trkpt lat="44.28927" lon="6.60373">
        <ele>2333.927</ele>
        <time>2011-07-10T06:42:50Z</time>
      </trkpt>
      <trkpt lat="44.28929" lon="6.60384">
        <ele>2335.627</ele>
        <time>2011-07-10T06:42:55Z</time>
      </trkpt>
      <trkpt lat="44.28935" lon="6.60401">
        <ele>2338.307</ele>
        <time>2011-07-10T06:43:02Z</time>
      </trkpt>
      <trkpt lat="44.2894" lon="6.60413">
        <ele>2338.619</ele>
        <time>2011-07-10T06:43:06Z</time>
      </trkpt>
      <trkpt lat="44.28938" lon="6.60424">
        <ele>2338.432</ele>
        <time>2011-07-10T06:43:10Z</time>
      </trkpt>
      <trkpt lat="44.28938" lon="6.60427">
        <ele>2338.444</ele>
        <time>2011-07-10T06:43:11Z</time>
      </trkpt>
      <trkpt lat="44.28941" lon="6.60441">
        <ele>2340.349</ele>
        <time>2011-07-10T06:43:17Z</time>
      </trkpt>
      <trkpt lat="44.28941" lon="6.60446">
        <ele>2341.57</ele>
        <time>2011-07-10T06:43:19Z</time>
      </trkpt>
      <trkpt lat="44.28938" lon="6.60455">
        <ele>2341.196</ele>
        <time>2011-07-10T06:43:25Z</time>
      </trkpt>
      <trkpt lat="44.28936" lon="6.6046">
        <ele>2339.442</ele>
        <time>2011-07-10T06:43:31Z</time>
      </trkpt>
      <trkpt lat="44.28934" lon="6.60462">
        <ele>2338.039</ele>
        <time>2011-07-10T06:43:36Z</time>
      </trkpt>
      <trkpt lat="44.28929" lon="6.60469">
        <ele>2333.104</ele>
        <time>2011-07-10T06:44:09Z</time>
      </trkpt>
      <trkpt lat="44.2893" lon="6.6047">
        <ele>2334.23</ele>
        <time>2011-07-10T06:44:16Z</time>
      </trkpt>
      <trkpt lat="44.28928" lon="6.60474">
        <ele>2338.791</ele>
        <time>2011-07-10T06:45:03Z</time>
      </trkpt>
      <trkpt lat="44.28918" lon="6.60485">
        <ele>2338.901</ele>
        <time>2011-07-10T06:45:08Z</time>
      </trkpt>
      <trkpt lat="44.28906" lon="6.60503">
        <ele>2340.412</ele>
        <time>2011-07-10T06:45:16Z</time>
      </trkpt>
      <trkpt lat="44.289" lon="6.60514">
        <ele>2340.502</ele>
        <time>2011-07-10T06:45:22Z</time>
      </trkpt>
      <trkpt lat="44.28895" lon="6.6053">
        <ele>2341.514</ele>
        <time>2011-07-10T06:45:29Z</time>
      </trkpt>
      <trkpt lat="44.28892" lon="6.60541">
        <ele>2342.473</ele>
        <time>2011-07-10T06:45:34Z</time>
      </trkpt>
      <trkpt lat="44.2889" lon="6.60559">
        <ele>2342.765</ele>
        <time>2011-07-10T06:45:41Z</time>
      </trkpt>
      <trkpt lat="44.2889" lon="6.60565">
        <ele>2342.734</ele>
        <time>2011-07-10T06:45:43Z</time>
      </trkpt>
      <trkpt lat="44.28891" lon="6.60568">
        <ele>2343.726</ele>
        <time>2011-07-10T06:45:46Z</time>
      </trkpt>
      <trkpt lat="44.28891" lon="6.6057">
        <ele>2345.585</ele>
        <time>2011-07-10T06:45:52Z</time>
      </trkpt>
      <trkpt lat="44.28889" lon="6.60575">
        <ele>2345.53</ele>
        <time>2011-07-10T06:45:58Z</time>
      </trkpt>
      <trkpt lat="44.28886" lon="6.6058">
        <ele>2345.512</ele>
        <time>2011-07-10T06:46:02Z</time>
      </trkpt>
      <trkpt lat="44.28875" lon="6.60592">
        <ele>2348.445</ele>
        <time>2011-07-10T06:46:09Z</time>
      </trkpt>
      <trkpt lat="44.28865" lon="6.60605">
        <ele>2349.684</ele>
        <time>2011-07-10T06:46:16Z</time>
      </trkpt>
      <trkpt lat="44.28862" lon="6.60612">
        <ele>2349.662</ele>
        <time>2011-07-10T06:46:20Z</time>
      </trkpt>
      <trkpt lat="44.28856" lon="6.60633">
        <ele>2350.995</ele>
        <time>2011-07-10T06:46:29Z</time>
      </trkpt>
      <trkpt lat="44.28852" lon="6.60652">
        <ele>2352.095</ele>
        <time>2011-07-10T06:46:37Z</time>
      </trkpt>
      <trkpt lat="44.28852" lon="6.60675">
        <ele>2354.758</ele>
        <time>2011-07-10T06:46:47Z</time>
      </trkpt>
      <trkpt lat="44.28852" lon="6.60693">
        <ele>2356.167</ele>
        <time>2011-07-10T06:46:55Z</time>
      </trkpt>
      <trkpt lat="44.28852" lon="6.60705">
        <ele>2359.645</ele>
        <time>2011-07-10T06:47:03Z</time>
      </trkpt>
      <trkpt lat="44.28852" lon="6.60705">
        <ele>2361.634</ele>
        <time>2011-07-10T06:47:11Z</time>
      </trkpt>
      <trkpt lat="44.28856" lon="6.60703">
        <ele>2360.332</ele>
        <time>2011-07-10T06:47:59Z</time>
      </trkpt>
      <trkpt lat="44.28856" lon="6.60704">
        <ele>2361.78</ele>
        <time>2011-07-10T06:48:39Z</time>
      </trkpt>
      <trkpt lat="44.28855" lon="6.60704">
        <ele>2362.124</ele>
        <time>2011-07-10T06:48:48Z</time>
      </trkpt>
      <trkpt lat="44.28854" lon="6.60703">
        <ele>2362.102</ele>
        <time>2011-07-10T06:48:51Z</time>
      </trkpt>
      <trkpt lat="44.2885" lon="6.60701">
        <ele>2361.981</ele>
        <time>2011-07-10T06:48:57Z</time>
      </trkpt>
      <trkpt lat="44.28848" lon="6.60702">
        <ele>2363.611</ele>
        <time>2011-07-10T06:49:25Z</time>
      </trkpt>
      <trkpt lat="44.28841" lon="6.60701">
        <ele>2362.587</ele>
        <time>2011-07-10T06:49:29Z</time>
      </trkpt>
      <trkpt lat="44.28829" lon="6.60689">
        <ele>2361.336</ele>
        <time>2011-07-10T06:49:33Z</time>
      </trkpt>
      <trkpt lat="44.28822" lon="6.60677">
        <ele>2359.342</ele>
        <time>2011-07-10T06:49:36Z</time>
      </trkpt>
      <trkpt lat="44.2881" lon="6.60668">
        <ele>2357.125</ele>
        <time>2011-07-10T06:49:40Z</time>
      </trkpt>
      <trkpt lat="44.28804" lon="6.60663">
        <ele>2356.63</ele>
        <time>2011-07-10T06:49:43Z</time>
      </trkpt>
      <trkpt lat="44.28789" lon="6.60647">
        <ele>2356.204</ele>
        <time>2011-07-10T06:49:50Z</time>
      </trkpt>
      <trkpt lat="44.28777" lon="6.60641">
        <ele>2356.552</ele>
        <time>2011-07-10T06:49:55Z</time>
      </trkpt>
      <trkpt lat="44.2876" lon="6.6063">
        <ele>2355.942</ele>
        <time>2011-07-10T06:50:01Z</time>
      </trkpt>
      <trkpt lat="44.28742" lon="6.60616">
        <ele>2355.256</ele>
        <time>2011-07-10T06:50:07Z</time>
      </trkpt>
      <trkpt lat="44.28739" lon="6.60612">
        <ele>2354.574</ele>
        <time>2011-07-10T06:50:08Z</time>
      </trkpt>
      <trkpt lat="44.28724" lon="6.60605">
        <ele>2353.88</ele>
        <time>2011-07-10T06:50:12Z</time>
      </trkpt>
      <trkpt lat="44.28711" lon="6.60601">
        <ele>2354.442</ele>
        <time>2011-07-10T06:50:16Z</time>
      </trkpt>
      <trkpt lat="44.28708" lon="6.606">
        <ele>2354.502</ele>
        <time>2011-07-10T06:50:17Z</time>
      </trkpt>
      <trkpt lat="44.28699" lon="6.60593">
        <ele>2355.023</ele>
        <time>2011-07-10T06:50:20Z</time>
      </trkpt>
      <trkpt lat="44.28669" lon="6.6058">
        <ele>2354.336</ele>
        <time>2011-07-10T06:50:27Z</time>
      </trkpt>
      <trkpt lat="44.28664" lon="6.60579">
        <ele>2354.067</ele>
        <time>2011-07-10T06:50:28Z</time>
      </trkpt>
      <trkpt lat="44.28645" lon="6.60567">
        <ele>2353.529</ele>
        <time>2011-07-10T06:50:33Z</time>
      </trkpt>
      <trkpt lat="44.28642" lon="6.60565">
        <ele>2353.278</ele>
        <time>2011-07-10T06:50:34Z</time>
      </trkpt>
      <trkpt lat="44.28617" lon="6.60556">
        <ele>2352.69</ele>
        <time>2011-07-10T06:50:40Z</time>
      </trkpt>
      <trkpt lat="44.28606" lon="6.60552">
        <ele>2352.529</ele>
        <time>2011-07-10T06:50:42Z</time>
      </trkpt>
      <trkpt lat="44.28557" lon="6.6055">
        <ele>2353.212</ele>
        <time>2011-07-10T06:50:49Z</time>
      </trkpt>
      <trkpt lat="44.28539" lon="6.60554">
        <ele>2354.312</ele>
        <time>2011-07-10T06:50:52Z</time>
      </trkpt>
      <trkpt lat="44.28519" lon="6.60556">
        <ele>2355.131</ele>
        <time>2011-07-10T06:50:56Z</time>
      </trkpt>
      <trkpt lat="44.28505" lon="6.60559">
        <ele>2356.314</ele>
        <time>2011-07-10T06:51:00Z</time>
      </trkpt>
      <trkpt lat="44.285" lon="6.60558">
        <ele>2355.911</ele>
        <time>2011-07-10T06:51:04Z</time>
      </trkpt>
      <trkpt lat="44.28503" lon="6.60559">
        <ele>2354.512</ele>
        <time>2011-07-10T06:51:58Z</time>
      </trkpt>
      <trkpt lat="44.28494" lon="6.60561">
        <ele>2355.773</ele>
        <time>2011-07-10T06:52:03Z</time>
      </trkpt>
      <trkpt lat="44.28492" lon="6.6056">
        <ele>2356.213</ele>
        <time>2011-07-10T06:52:04Z</time>
      </trkpt>
      <trkpt lat="44.28476" lon="6.60558">
        <ele>2360.348</ele>
        <time>2011-07-10T06:52:11Z</time>
      </trkpt>
      <trkpt lat="44.28465" lon="6.60562">
        <ele>2363.327</ele>
        <time>2011-07-10T06:52:17Z</time>
      </trkpt>
      <trkpt lat="44.28456" lon="6.60567">
        <ele>2367.168</ele>
        <time>2011-07-10T06:52:23Z</time>
      </trkpt>
      <trkpt lat="44.28453" lon="6.60567">
        <ele>2368.419</ele>
        <time>2011-07-10T06:52:25Z</time>
      </trkpt>
      <trkpt lat="44.28449" lon="6.60569">
        <ele>2369.577</ele>
        <time>2011-07-10T06:52:28Z</time>
      </trkpt>
      <trkpt lat="44.28434" lon="6.60574">
        <ele>2370.731</ele>
        <time>2011-07-10T06:52:35Z</time>
      </trkpt>
      <trkpt lat="44.28421" lon="6.6058">
        <ele>2371.101</ele>
        <time>2011-07-10T06:52:41Z</time>
      </trkpt>
      <trkpt lat="44.28404" lon="6.60587">
        <ele>2371.44</ele>
        <time>2011-07-10T06:52:48Z</time>
      </trkpt>
      <trkpt lat="44.28385" lon="6.60596">
        <ele>2371.52</ele>
        <time>2011-07-10T06:52:56Z</time>
      </trkpt>
      <trkpt lat="44.2838" lon="6.606">
        <ele>2371.51</ele>
        <time>2011-07-10T06:52:58Z</time>
      </trkpt>
      <trkpt lat="44.28371" lon="6.60607">
        <ele>2371.259</ele>
        <time>2011-07-10T06:53:03Z</time>
      </trkpt>
      <trkpt lat="44.28366" lon="6.60611">
        <ele>2370.689</ele>
        <time>2011-07-10T06:53:06Z</time>
      </trkpt>
      <trkpt lat="44.28365" lon="6.60614">
        <ele>2370.339</ele>
        <time>2011-07-10T06:53:10Z</time>
      </trkpt>
      <trkpt lat="44.28366" lon="6.60615">
        <ele>2367.362</ele>
        <time>2011-07-10T06:55:49Z</time>
      </trkpt>
      <trkpt lat="44.28354" lon="6.60614">
        <ele>2367.399</ele>
        <time>2011-07-10T06:55:56Z</time>
      </trkpt>
      <trkpt lat="44.28338" lon="6.60619">
        <ele>2367.12</ele>
        <time>2011-07-10T06:56:01Z</time>
      </trkpt>
      <trkpt lat="44.28319" lon="6.60626">
        <ele>2366.197</ele>
        <time>2011-07-10T06:56:06Z</time>
      </trkpt>
      <trkpt lat="44.28299" lon="6.60635">
        <ele>2364.644</ele>
        <time>2011-07-10T06:56:10Z</time>
      </trkpt>
      <trkpt lat="44.2828" lon="6.60646">
        <ele>2362.736</ele>
        <time>2011-07-10T06:56:15Z</time>
      </trkpt>
      <trkpt lat="44.2828" lon="6.60646">
        <ele>2362.62</ele>
        <time>2011-07-10T06:56:23Z</time>
      </trkpt>
      <trkpt lat="44.28281" lon="6.60646">
        <ele>2362.75</ele>
        <time>2011-07-10T06:56:49Z</time>
      </trkpt>
      <trkpt lat="44.28271" lon="6.6064">
        <ele>2361.662</ele>
        <time>2011-07-10T06:56:53Z</time>
      </trkpt>
      <trkpt lat="44.28258" lon="6.60625">
        <ele>2358.976</ele>
        <time>2011-07-10T06:56:56Z</time>
      </trkpt>
      <trkpt lat="44.28236" lon="6.60603">
        <ele>2353.469</ele>
        <time>2011-07-10T06:57:00Z</time>
      </trkpt>
      <trkpt lat="44.28225" lon="6.60591">
        <ele>2350.458</ele>
        <time>2011-07-10T06:57:02Z</time>
      </trkpt>
      <trkpt lat="44.28202" lon="6.60573">
        <ele>2345.242</ele>
        <time>2011-07-10T06:57:06Z</time>
      </trkpt>
      <trkpt lat="44.2819" lon="6.60564">
        <ele>2343.275</ele>
        <time>2011-07-10T06:57:08Z</time>
      </trkpt>
      <trkpt lat="44.28163" lon="6.60541">
        <ele>2338.82</ele>
        <time>2011-07-10T06:57:13Z</time>
      </trkpt>
      <trkpt lat="44.28138" lon="6.60535">
        <ele>2336.642</ele>
        <time>2011-07-10T06:57:17Z</time>
      </trkpt>
      <trkpt lat="44.28123" lon="6.60528">
        <ele>2335.435</ele>
        <time>2011-07-10T06:57:21Z</time>
      </trkpt>
      <trkpt lat="44.28115" lon="6.60524">
        <ele>2333.5</ele>
        <time>2011-07-10T06:57:24Z</time>
      </trkpt>
      <trkpt lat="44.28095" lon="6.60512">
        <ele>2329.766</ele>
        <time>2011-07-10T06:57:28Z</time>
      </trkpt>
      <trkpt lat="44.28062" lon="6.60495">
        <ele>2324.784</ele>
        <time>2011-07-10T06:57:33Z</time>
      </trkpt>
      <trkpt lat="44.28044" lon="6.60487">
        <ele>2322.5</ele>
        <time>2011-07-10T06:57:36Z</time>
      </trkpt>
      <trkpt lat="44.28042" lon="6.60493">
        <ele>2321.316</ele>
        <time>2011-07-10T06:57:40Z</time>
      </trkpt>
      <trkpt lat="44.28045" lon="6.60494">
        <ele>2321.551</ele>
        <time>2011-07-10T06:57:48Z</time>
      </trkpt>
      <trkpt lat="44.28046" lon="6.60496">
        <ele>2321.69</ele>
        <time>2011-07-10T06:58:01Z</time>
      </trkpt>
      <trkpt lat="44.28047" lon="6.60497">
        <ele>2323.351</ele>
        <time>2011-07-10T06:59:20Z</time>
      </trkpt>
      <trkpt lat="44.28046" lon="6.60496">
        <ele>2322.789</ele>
        <time>2011-07-10T06:59:32Z</time>
      </trkpt>
      <trkpt lat="44.28036" lon="6.60506">
        <ele>2318.347</ele>
        <time>2011-07-10T06:59:38Z</time>
      </trkpt>
      <trkpt lat="44.28028" lon="6.60508">
        <ele>2314.576</ele>
        <time>2011-07-10T06:59:42Z</time>
      </trkpt>
      <trkpt lat="44.28023" lon="6.60508">
        <ele>2312.766</ele>
        <time>2011-07-10T06:59:44Z</time>
      </trkpt>
      <trkpt lat="44.28014" lon="6.60504">
        <ele>2310.46</ele>
        <time>2011-07-10T06:59:48Z</time>
      </trkpt>
      <trkpt lat="44.28002" lon="6.60501">
        <ele>2307.437</ele>
        <time>2011-07-10T06:59:52Z</time>
      </trkpt>
      <trkpt lat="44.27987" lon="6.60506">
        <ele>2302.701</ele>
        <time>2011-07-10T06:59:56Z</time>
      </trkpt>
      <trkpt lat="44.2797" lon="6.6052">
        <ele>2298.032</ele>
        <time>2011-07-10T07:00:00Z</time>
      </trkpt>
      <trkpt lat="44.2795" lon="6.60545">
        <ele>2293.057</ele>
        <time>2011-07-10T07:00:06Z</time>
      </trkpt>
      <trkpt lat="44.27943" lon="6.60553">
        <ele>2291.497</ele>
        <time>2011-07-10T07:00:08Z</time>
      </trkpt>
      <trkpt lat="44.27927" lon="6.60571">
        <ele>2288.108</ele>
        <time>2011-07-10T07:00:13Z</time>
      </trkpt>
      <trkpt lat="44.27918" lon="6.60587">
        <ele>2285.33</ele>
        <time>2011-07-10T07:00:17Z</time>
      </trkpt>
      <trkpt lat="44.27912" lon="6.60592">
        <ele>2284.831</ele>
        <time>2011-07-10T07:00:19Z</time>
      </trkpt>
      <trkpt lat="44.27902" lon="6.60611">
        <ele>2280.69</ele>
        <time>2011-07-10T07:00:23Z</time>
      </trkpt>
      <trkpt lat="44.27889" lon="6.60627">
        <ele>2279.232</ele>
        <time>2011-07-10T07:00:27Z</time>
      </trkpt>
      <trkpt lat="44.2787" lon="6.60657">
        <ele>2277.984</ele>
        <time>2011-07-10T07:00:33Z</time>
      </trkpt>
      <trkpt lat="44.27859" lon="6.60673">
        <ele>2275.864</ele>
        <time>2011-07-10T07:00:37Z</time>
      </trkpt>
      <trkpt lat="44.27849" lon="6.60688">
        <ele>2274.895</ele>
        <time>2011-07-10T07:00:41Z</time>
      </trkpt>
      <trkpt lat="44.27832" lon="6.607">
        <ele>2272.844</ele>
        <time>2011-07-10T07:00:46Z</time>
      </trkpt>
      <trkpt lat="44.2783" lon="6.60704">
        <ele>2271.686</ele>
        <time>2011-07-10T07:00:49Z</time>
      </trkpt>
      <trkpt lat="44.27832" lon="6.60704">
        <ele>2271.077</ele>
        <time>2011-07-10T07:00:51Z</time>
      </trkpt>
      <trkpt lat="44.27841" lon="6.60709">
        <ele>2268.676</ele>
        <time>2011-07-10T07:00:58Z</time>
      </trkpt>
      <trkpt lat="44.27852" lon="6.60711">
        <ele>2265.959</ele>
        <time>2011-07-10T07:01:02Z</time>
      </trkpt>
      <trkpt lat="44.27852" lon="6.6071">
        <ele>2264.067</ele>
        <time>2011-07-10T07:01:07Z</time>
      </trkpt>
      <trkpt lat="44.27853" lon="6.60711">
        <ele>2259.3</ele>
        <time>2011-07-10T07:01:53Z</time>
      </trkpt>
      <trkpt lat="44.27863" lon="6.60712">
        <ele>2258.417</ele>
        <time>2011-07-10T07:01:58Z</time>
      </trkpt>
      <trkpt lat="44.27877" lon="6.6071">
        <ele>2256.892</ele>
        <time>2011-07-10T07:02:01Z</time>
      </trkpt>
      <trkpt lat="44.27897" lon="6.60696">
        <ele>2253.594</ele>
        <time>2011-07-10T07:02:06Z</time>
      </trkpt>
      <trkpt lat="44.27901" lon="6.60694">
        <ele>2252.827</ele>
        <time>2011-07-10T07:02:07Z</time>
      </trkpt>
      <trkpt lat="44.27912" lon="6.60686">
        <ele>2250.659</ele>
        <time>2011-07-10T07:02:11Z</time>
      </trkpt>
      <trkpt lat="44.27913" lon="6.60687">
        <ele>2252.589</ele>
        <time>2011-07-10T07:02:17Z</time>
      </trkpt>
      <trkpt lat="44.27919" lon="6.60683">
        <ele>2256.37</ele>
        <time>2011-07-10T07:02:49Z</time>
      </trkpt>
      <trkpt lat="44.2792" lon="6.60682">
        <ele>2256.029</ele>
        <time>2011-07-10T07:02:50Z</time>
      </trkpt>
      <trkpt lat="44.2792" lon="6.6069">
        <ele>2254.556</ele>
        <time>2011-07-10T07:02:54Z</time>
      </trkpt>
      <trkpt lat="44.27917" lon="6.60706">
        <ele>2253.345</ele>
        <time>2011-07-10T07:02:58Z</time>
      </trkpt>
      <trkpt lat="44.27916" lon="6.60708">
        <ele>2252.795</ele>
        <time>2011-07-10T07:02:59Z</time>
      </trkpt>
      <trkpt lat="44.27916" lon="6.60712">
        <ele>2251.846</ele>
        <time>2011-07-10T07:03:02Z</time>
      </trkpt>
      <trkpt lat="44.27917" lon="6.60712">
        <ele>2250.821</ele>
        <time>2011-07-10T07:03:04Z</time>
      </trkpt>
      <trkpt lat="44.27924" lon="6.60704">
        <ele>2249.57</ele>
        <time>2011-07-10T07:03:08Z</time>
      </trkpt>
      <trkpt lat="44.27935" lon="6.607">
        <ele>2248.362</ele>
        <time>2011-07-10T07:03:11Z</time>
      </trkpt>
      <trkpt lat="44.27939" lon="6.60696">
        <ele>2246.948</ele>
        <time>2011-07-10T07:03:15Z</time>
      </trkpt>
      <trkpt lat="44.27941" lon="6.60693">
        <ele>2246.075</ele>
        <time>2011-07-10T07:03:18Z</time>
      </trkpt>
      <trkpt lat="44.27939" lon="6.60705">
        <ele>2245.416</ele>
        <time>2011-07-10T07:03:23Z</time>
      </trkpt>
      <trkpt lat="44.27937" lon="6.60708">
        <ele>2245.285</ele>
        <time>2011-07-10T07:03:24Z</time>
      </trkpt>
      <trkpt lat="44.27923" lon="6.60735">
        <ele>2243.757</ele>
        <time>2011-07-10T07:03:31Z</time>
      </trkpt>
      <trkpt lat="44.27916" lon="6.60756">
        <ele>2241.355</ele>
        <time>2011-07-10T07:03:36Z</time>
      </trkpt>
      <trkpt lat="44.27906" lon="6.60771">
        <ele>2238.906</ele>
        <time>2011-07-10T07:03:41Z</time>
      </trkpt>
      <trkpt lat="44.27893" lon="6.60796">
        <ele>2238.258</ele>
        <time>2011-07-10T07:03:47Z</time>
      </trkpt>
      <trkpt lat="44.27888" lon="6.60804">
        <ele>2238.089</ele>
        <time>2011-07-10T07:03:49Z</time>
      </trkpt>
      <trkpt lat="44.27862" lon="6.6083">
        <ele>2235.818</ele>
        <time>2011-07-10T07:03:56Z</time>
      </trkpt>
      <trkpt lat="44.27852" lon="6.60841">
        <ele>2234.438</ele>
        <time>2011-07-10T07:03:59Z</time>
      </trkpt>
      <trkpt lat="44.27846" lon="6.60863">
        <ele>2228.669</ele>
        <time>2011-07-10T07:04:03Z</time>
      </trkpt>
      <trkpt lat="44.27844" lon="6.60874">
        <ele>2225.597</ele>
        <time>2011-07-10T07:04:05Z</time>
      </trkpt>
      <trkpt lat="44.27842" lon="6.60885">
        <ele>2220.169</ele>
        <time>2011-07-10T07:04:07Z</time>
      </trkpt>
      <trkpt lat="44.27839" lon="6.6091">
        <ele>2213.259</ele>
        <time>2011-07-10T07:04:11Z</time>
      </trkpt>
      <trkpt lat="44.27835" lon="6.60935">
        <ele>2205.933</ele>
        <time>2011-07-10T07:04:16Z</time>
      </trkpt>
      <trkpt lat="44.27838" lon="6.60946">
        <ele>2202.596</ele>
        <time>2011-07-10T07:04:19Z</time>
      </trkpt>
      <trkpt lat="44.27834" lon="6.60955">
        <ele>2198.589</ele>
        <time>2011-07-10T07:04:24Z</time>
      </trkpt>
      <trkpt lat="44.27827" lon="6.60952">
        <ele>2197.803</ele>
        <time>2011-07-10T07:04:28Z</time>
      </trkpt>
      <trkpt lat="44.27821" lon="6.6095">
        <ele>2196.422</ele>
        <time>2011-07-10T07:04:30Z</time>
      </trkpt>
      <trkpt lat="44.27814" lon="6.60957">
        <ele>2194.413</ele>
        <time>2011-07-10T07:04:34Z</time>
      </trkpt>
      <trkpt lat="44.27815" lon="6.60959">
        <ele>2194.214</ele>
        <time>2011-07-10T07:04:35Z</time>
      </trkpt>
      <trkpt lat="44.2783" lon="6.60979">
        <ele>2188.658</ele>
        <time>2011-07-10T07:04:41Z</time>
      </trkpt>
      <trkpt lat="44.27835" lon="6.6099">
        <ele>2186.641</ele>
        <time>2011-07-10T07:04:45Z</time>
      </trkpt>
      <trkpt lat="44.27842" lon="6.61005">
        <ele>2183.373</ele>
        <time>2011-07-10T07:04:50Z</time>
      </trkpt>
      <trkpt lat="44.27859" lon="6.61016">
        <ele>2179.788</ele>
        <time>2011-07-10T07:04:55Z</time>
      </trkpt>
      <trkpt lat="44.27889" lon="6.61023">
        <ele>2171.422</ele>
        <time>2011-07-10T07:05:02Z</time>
      </trkpt>
      <trkpt lat="44.27903" lon="6.61013">
        <ele>2167.916</ele>
        <time>2011-07-10T07:05:06Z</time>
      </trkpt>
      <trkpt lat="44.27914" lon="6.60995">
        <ele>2163.167</ele>
        <time>2011-07-10T07:05:10Z</time>
      </trkpt>
      <trkpt lat="44.27935" lon="6.60972">
        <ele>2158.725</ele>
        <time>2011-07-10T07:05:15Z</time>
      </trkpt>
      <trkpt lat="44.27951" lon="6.60966">
        <ele>2157.253</ele>
        <time>2011-07-10T07:05:19Z</time>
      </trkpt>
      <trkpt lat="44.2796" lon="6.60956">
        <ele>2158.569</ele>
        <time>2011-07-10T07:05:24Z</time>
      </trkpt>
      <trkpt lat="44.27965" lon="6.60956">
        <ele>2159.768</ele>
        <time>2011-07-10T07:05:29Z</time>
      </trkpt>
      <trkpt lat="44.2797" lon="6.6097">
        <ele>2160.068</ele>
        <time>2011-07-10T07:05:33Z</time>
      </trkpt>
      <trkpt lat="44.27973" lon="6.60978">
        <ele>2159.948</ele>
        <time>2011-07-10T07:05:36Z</time>
      </trkpt>
      <trkpt lat="44.27975" lon="6.60983">
        <ele>2158.118</ele>
        <time>2011-07-10T07:05:42Z</time>
      </trkpt>
      <trkpt lat="44.27976" lon="6.60984">
        <ele>2157.348</ele>
        <time>2011-07-10T07:05:49Z</time>
      </trkpt>
      <trkpt lat="44.27968" lon="6.6098">
        <ele>2156.178</ele>
        <time>2011-07-10T07:05:56Z</time>
      </trkpt>
      <trkpt lat="44.2796" lon="6.60988">
        <ele>2157.35</ele>
        <time>2011-07-10T07:06:02Z</time>
      </trkpt>
      <trkpt lat="44.27961" lon="6.60996">
        <ele>2157.85</ele>
        <time>2011-07-10T07:06:05Z</time>
      </trkpt>
      <trkpt lat="44.27951" lon="6.61015">
        <ele>2158.189</ele>
        <time>2011-07-10T07:06:10Z</time>
      </trkpt>
      <trkpt lat="44.27938" lon="6.61036">
        <ele>2157.969</ele>
        <time>2011-07-10T07:06:15Z</time>
      </trkpt>
      <trkpt lat="44.27929" lon="6.61059">
        <ele>2153.855</ele>
        <time>2011-07-10T07:06:19Z</time>
      </trkpt>
      <trkpt lat="44.27917" lon="6.61088">
        <ele>2154.227</ele>
        <time>2011-07-10T07:06:24Z</time>
      </trkpt>
      <trkpt lat="44.27909" lon="6.61109">
        <ele>2153.478</ele>
        <time>2011-07-10T07:06:27Z</time>
      </trkpt>
      <trkpt lat="44.27903" lon="6.61148">
        <ele>2147.205</ele>
        <time>2011-07-10T07:06:32Z</time>
      </trkpt>
      <trkpt lat="44.27891" lon="6.61151">
        <ele>2147.459</ele>
        <time>2011-07-10T07:06:36Z</time>
      </trkpt>
      <trkpt lat="44.2787" lon="6.61139">
        <ele>2148.365</ele>
        <time>2011-07-10T07:06:42Z</time>
      </trkpt>
      <trkpt lat="44.27864" lon="6.61134">
        <ele>2150.008</ele>
        <time>2011-07-10T07:06:45Z</time>
      </trkpt>
      <trkpt lat="44.2786" lon="6.61134">
        <ele>2148.983</ele>
        <time>2011-07-10T07:06:49Z</time>
      </trkpt>
      <trkpt lat="44.27853" lon="6.61146">
        <ele>2153.996</ele>
        <time>2011-07-10T07:06:55Z</time>
      </trkpt>
      <trkpt lat="44.2784" lon="6.61155">
        <ele>2153.883</ele>
        <time>2011-07-10T07:07:00Z</time>
      </trkpt>
      <trkpt lat="44.27824" lon="6.61158">
        <ele>2157.745</ele>
        <time>2011-07-10T07:07:05Z</time>
      </trkpt>
      <trkpt lat="44.27806" lon="6.61161">
        <ele>2161.396</ele>
        <time>2011-07-10T07:07:11Z</time>
      </trkpt>
      <trkpt lat="44.27789" lon="6.61165">
        <ele>2160.573</ele>
        <time>2011-07-10T07:07:16Z</time>
      </trkpt>
      <trkpt lat="44.27766" lon="6.6117">
        <ele>2156.951</ele>
        <time>2011-07-10T07:07:22Z</time>
      </trkpt>
      <trkpt lat="44.2775" lon="6.61168">
        <ele>2155.433</ele>
        <time>2011-07-10T07:07:26Z</time>
      </trkpt>
      <trkpt lat="44.27742" lon="6.61161">
        <ele>2156.232</ele>
        <time>2011-07-10T07:07:30Z</time>
      </trkpt>
      <trkpt lat="44.27732" lon="6.61164">
        <ele>2151.402</ele>
        <time>2011-07-10T07:07:35Z</time>
      </trkpt>
      <trkpt lat="44.27728" lon="6.6117">
        <ele>2151.542</ele>
        <time>2011-07-10T07:07:37Z</time>
      </trkpt>
      <trkpt lat="44.27711" lon="6.61175">
        <ele>2153.123</ele>
        <time>2011-07-10T07:07:43Z</time>
      </trkpt>
      <trkpt lat="44.277" lon="6.61184">
        <ele>2151.482</ele>
        <time>2011-07-10T07:07:47Z</time>
      </trkpt>
      <trkpt lat="44.27694" lon="6.61189">
        <ele>2151.382</ele>
        <time>2011-07-10T07:07:49Z</time>
      </trkpt>
      <trkpt lat="44.27689" lon="6.61188">
        <ele>2149.72</ele>
        <time>2011-07-10T07:07:53Z</time>
      </trkpt>
      <trkpt lat="44.2769" lon="6.61177">
        <ele>2147.299</ele>
        <time>2011-07-10T07:07:58Z</time>
      </trkpt>
      <trkpt lat="44.27696" lon="6.6116">
        <ele>2142.994</ele>
        <time>2011-07-10T07:08:03Z</time>
      </trkpt>
      <trkpt lat="44.27696" lon="6.61144">
        <ele>2141.546</ele>
        <time>2011-07-10T07:08:09Z</time>
      </trkpt>
      <trkpt lat="44.27693" lon="6.61135">
        <ele>2141.501</ele>
        <time>2011-07-10T07:08:18Z</time>
      </trkpt>
      <trkpt lat="44.27695" lon="6.61127">
        <ele>2142.599</ele>
        <time>2011-07-10T07:08:23Z</time>
      </trkpt>
      <trkpt lat="44.27695" lon="6.6111">
        <ele>2143.972</ele>
        <time>2011-07-10T07:08:28Z</time>
      </trkpt>
      <trkpt lat="44.27696" lon="6.61095">
        <ele>2144.482</ele>
        <time>2011-07-10T07:08:32Z</time>
      </trkpt>
      <trkpt lat="44.27689" lon="6.61077">
        <ele>2146.082</ele>
        <time>2011-07-10T07:08:38Z</time>
      </trkpt>
      <trkpt lat="44.27688" lon="6.61066">
        <ele>2147.349</ele>
        <time>2011-07-10T07:08:43Z</time>
      </trkpt>
      <trkpt lat="44.27684" lon="6.61061">
        <ele>2148.541</ele>
        <time>2011-07-10T07:08:48Z</time>
      </trkpt>
      <trkpt lat="44.27678" lon="6.61071">
        <ele>2151.493</ele>
        <time>2011-07-10T07:08:54Z</time>
      </trkpt>
      <trkpt lat="44.27674" lon="6.61086">
        <ele>2155.135</ele>
        <time>2011-07-10T07:09:00Z</time>
      </trkpt>
      <trkpt lat="44.27674" lon="6.61091">
        <ele>2155.904</ele>
        <time>2011-07-10T07:09:02Z</time>
      </trkpt>
      <trkpt lat="44.27663" lon="6.611">
        <ele>2156.615</ele>
        <time>2011-07-10T07:09:07Z</time>
      </trkpt>
      <trkpt lat="44.27651" lon="6.61098">
        <ele>2157.095</ele>
        <time>2011-07-10T07:09:12Z</time>
      </trkpt>
      <trkpt lat="44.27641" lon="6.61098">
        <ele>2158.456</ele>
        <time>2011-07-10T07:09:16Z</time>
      </trkpt>
      <trkpt lat="44.27637" lon="6.61096">
        <ele>2159.688</ele>
        <time>2011-07-10T07:09:18Z</time>
      </trkpt>
      <trkpt lat="44.27631" lon="6.61088">
        <ele>2159.866</ele>
        <time>2011-07-10T07:09:22Z</time>
      </trkpt>
      <trkpt lat="44.27628" lon="6.61082">
        <ele>2158.223</ele>
        <time>2011-07-10T07:09:27Z</time>
      </trkpt>
      <trkpt lat="44.27627" lon="6.61082">
        <ele>2153.009</ele>
        <time>2011-07-10T07:09:35Z</time>
      </trkpt>
      <trkpt lat="44.2762" lon="6.61076">
        <ele>2147.842</ele>
        <time>2011-07-10T07:09:40Z</time>
      </trkpt>
      <trkpt lat="44.27619" lon="6.61077">
        <ele>2147.42</ele>
        <time>2011-07-10T07:09:42Z</time>
      </trkpt>
      <trkpt lat="44.27619" lon="6.61079">
        <ele>2149.212</ele>
        <time>2011-07-10T07:09:49Z</time>
      </trkpt>
      <trkpt lat="44.27617" lon="6.61082">
        <ele>2151.142</ele>
        <time>2011-07-10T07:09:53Z</time>
      </trkpt>
      <trkpt lat="44.27612" lon="6.61097">
        <ele>2154.255</ele>
        <time>2011-07-10T07:09:59Z</time>
      </trkpt>
      <trkpt lat="44.27605" lon="6.6111">
        <ele>2159.138</ele>
        <time>2011-07-10T07:10:04Z</time>
      </trkpt>
      <trkpt lat="44.27597" lon="6.61123">
        <ele>2163.908</ele>
        <time>2011-07-10T07:10:09Z</time>
      </trkpt>
      <trkpt lat="44.27585" lon="6.61129">
        <ele>2164.708</ele>
        <time>2011-07-10T07:10:14Z</time>
      </trkpt>
      <trkpt lat="44.27565" lon="6.61122">
        <ele>2162.198</ele>
        <time>2011-07-10T07:10:21Z</time>
      </trkpt>
      <trkpt lat="44.27559" lon="6.61118">
        <ele>2162.386</ele>
        <time>2011-07-10T07:10:23Z</time>
      </trkpt>
      <trkpt lat="44.2755" lon="6.61124">
        <ele>2160.792</ele>
        <time>2011-07-10T07:10:27Z</time>
      </trkpt>
      <trkpt lat="44.27547" lon="6.61131">
        <ele>2162.343</ele>
        <time>2011-07-10T07:10:30Z</time>
      </trkpt>
      <trkpt lat="44.2754" lon="6.61138">
        <ele>2164.673</ele>
        <time>2011-07-10T07:10:34Z</time>
      </trkpt>
      <trkpt lat="44.27535" lon="6.61144">
        <ele>2167.264</ele>
        <time>2011-07-10T07:10:37Z</time>
      </trkpt>
      <trkpt lat="44.27521" lon="6.61145">
        <ele>2166.463</ele>
        <time>2011-07-10T07:10:43Z</time>
      </trkpt>
      <trkpt lat="44.27515" lon="6.61145">
        <ele>2167.254</ele>
        <time>2011-07-10T07:10:45Z</time>
      </trkpt>
      <trkpt lat="44.27511" lon="6.61148">
        <ele>2167.781</ele>
        <time>2011-07-10T07:10:51Z</time>
      </trkpt>
      <trkpt lat="44.27509" lon="6.61157">
        <ele>2166.82</ele>
        <time>2011-07-10T07:10:59Z</time>
      </trkpt>
      <trkpt lat="44.27509" lon="6.61158">
        <ele>2166.54</ele>
        <time>2011-07-10T07:11:00Z</time>
      </trkpt>
      <trkpt lat="44.27507" lon="6.61165">
        <ele>2167.23</ele>
        <time>2011-07-10T07:11:05Z</time>
      </trkpt>
      <trkpt lat="44.27497" lon="6.61175">
        <ele>2165.17</ele>
        <time>2011-07-10T07:11:10Z</time>
      </trkpt>
      <trkpt lat="44.27494" lon="6.61177">
        <ele>2160.339</ele>
        <time>2011-07-10T07:11:16Z</time>
      </trkpt>
      <trkpt lat="44.2749" lon="6.6118">
        <ele>2160.211</ele>
        <time>2011-07-10T07:11:20Z</time>
      </trkpt>
      <trkpt lat="44.27474" lon="6.61182">
        <ele>2163.477</ele>
        <time>2011-07-10T07:11:27Z</time>
      </trkpt>
      <trkpt lat="44.27458" lon="6.61186">
        <ele>2164.833</ele>
        <time>2011-07-10T07:11:34Z</time>
      </trkpt>
      <trkpt lat="44.27454" lon="6.61188">
        <ele>2164.24</ele>
        <time>2011-07-10T07:11:38Z</time>
      </trkpt>
      <trkpt lat="44.27453" lon="6.61193">
        <ele>2164.259</ele>
        <time>2011-07-10T07:11:45Z</time>
      </trkpt>
      <trkpt lat="44.27454" lon="6.61196">
        <ele>2164.952</ele>
        <time>2011-07-10T07:11:51Z</time>
      </trkpt>
      <trkpt lat="44.27458" lon="6.61197">
        <ele>2167.856</ele>
        <time>2011-07-10T07:11:57Z</time>
      </trkpt>
      <trkpt lat="44.27462" lon="6.61202">
        <ele>2166.922</ele>
        <time>2011-07-10T07:12:04Z</time>
      </trkpt>
      <trkpt lat="44.27463" lon="6.61204">
        <ele>2167.631</ele>
        <time>2011-07-10T07:12:07Z</time>
      </trkpt>
      <trkpt lat="44.27464" lon="6.61209">
        <ele>2165.387</ele>
        <time>2011-07-10T07:12:11Z</time>
      </trkpt>
      <trkpt lat="44.27471" lon="6.61225">
        <ele>2159.355</ele>
        <time>2011-07-10T07:12:17Z</time>
      </trkpt>
      <trkpt lat="44.27478" lon="6.61242">
        <ele>2158.167</ele>
        <time>2011-07-10T07:12:22Z</time>
      </trkpt>
      <trkpt lat="44.27483" lon="6.61261">
        <ele>2153.776</ele>
        <time>2011-07-10T07:12:27Z</time>
      </trkpt>
      <trkpt lat="44.27488" lon="6.61278">
        <ele>2153.538</ele>
        <time>2011-07-10T07:12:32Z</time>
      </trkpt>
      <trkpt lat="44.27491" lon="6.61302">
        <ele>2152.669</ele>
        <time>2011-07-10T07:12:39Z</time>
      </trkpt>
      <trkpt lat="44.27489" lon="6.6131">
        <ele>2157.443</ele>
        <time>2011-07-10T07:12:43Z</time>
      </trkpt>
      <trkpt lat="44.27486" lon="6.61312">
        <ele>2158.33</ele>
        <time>2011-07-10T07:12:46Z</time>
      </trkpt>
      <trkpt lat="44.27489" lon="6.61316">
        <ele>2157.48</ele>
        <time>2011-07-10T07:12:51Z</time>
      </trkpt>
      <trkpt lat="44.27493" lon="6.61321">
        <ele>2158.672</ele>
        <time>2011-07-10T07:12:57Z</time>
      </trkpt>
      <trkpt lat="44.27493" lon="6.61322">
        <ele>2159.393</ele>
        <time>2011-07-10T07:12:58Z</time>
      </trkpt>
      <trkpt lat="44.27487" lon="6.61329">
        <ele>2158.437</ele>
        <time>2011-07-10T07:13:04Z</time>
      </trkpt>
      <trkpt lat="44.27488" lon="6.61333">
        <ele>2158.402</ele>
        <time>2011-07-10T07:13:06Z</time>
      </trkpt>
      <trkpt lat="44.27501" lon="6.6134">
        <ele>2157.89</ele>
        <time>2011-07-10T07:13:12Z</time>
      </trkpt>
      <trkpt lat="44.27505" lon="6.61346">
        <ele>2157.941</ele>
        <time>2011-07-10T07:13:14Z</time>
      </trkpt>
      <trkpt lat="44.27511" lon="6.6137">
        <ele>2153.57</ele>
        <time>2011-07-10T07:13:20Z</time>
      </trkpt>
      <trkpt lat="44.27514" lon="6.61379">
        <ele>2153.05</ele>
        <time>2011-07-10T07:13:22Z</time>
      </trkpt>
      <trkpt lat="44.27517" lon="6.614">
        <ele>2151.919</ele>
        <time>2011-07-10T07:13:26Z</time>
      </trkpt>
      <trkpt lat="44.27518" lon="6.61424">
        <ele>2149.958</ele>
        <time>2011-07-10T07:13:31Z</time>
      </trkpt>
      <trkpt lat="44.27519" lon="6.61435">
        <ele>2149.668</ele>
        <time>2011-07-10T07:13:33Z</time>
      </trkpt>
      <trkpt lat="44.27515" lon="6.61463">
        <ele>2149.208</ele>
        <time>2011-07-10T07:13:39Z</time>
      </trkpt>
      <trkpt lat="44.27504" lon="6.61486">
        <ele>2151.312</ele>
        <time>2011-07-10T07:13:44Z</time>
      </trkpt>
      <trkpt lat="44.27484" lon="6.61508">
        <ele>2153.305</ele>
        <time>2011-07-10T07:13:51Z</time>
      </trkpt>
      <trkpt lat="44.27467" lon="6.61517">
        <ele>2153.781</ele>
        <time>2011-07-10T07:13:56Z</time>
      </trkpt>
      <trkpt lat="44.27456" lon="6.61526">
        <ele>2153.842</ele>
        <time>2011-07-10T07:14:00Z</time>
      </trkpt>
      <trkpt lat="44.2745" lon="6.61537">
        <ele>2149.869</ele>
        <time>2011-07-10T07:14:05Z</time>
      </trkpt>
      <trkpt lat="44.27441" lon="6.61549">
        <ele>2148.597</ele>
        <time>2011-07-10T07:14:11Z</time>
      </trkpt>
      <trkpt lat="44.27427" lon="6.6157">
        <ele>2148.278</ele>
        <time>2011-07-10T07:14:17Z</time>
      </trkpt>
      <trkpt lat="44.2742" lon="6.61583">
        <ele>2148.551</ele>
        <time>2011-07-10T07:14:22Z</time>
      </trkpt>
      <trkpt lat="44.27414" lon="6.61591">
        <ele>2148.361</ele>
        <time>2011-07-10T07:14:28Z</time>
      </trkpt>
      <trkpt lat="44.27409" lon="6.61597">
        <ele>2142.061</ele>
        <time>2011-07-10T07:15:33Z</time>
      </trkpt>
      <trkpt lat="44.27397" lon="6.61603">
        <ele>2141.419</ele>
        <time>2011-07-10T07:15:39Z</time>
      </trkpt>
      <trkpt lat="44.27387" lon="6.61607">
        <ele>2140.478</ele>
        <time>2011-07-10T07:15:43Z</time>
      </trkpt>
      <trkpt lat="44.27378" lon="6.61623">
        <ele>2138.917</ele>
        <time>2011-07-10T07:15:49Z</time>
      </trkpt>
      <trkpt lat="44.27381" lon="6.6163">
        <ele>2136.706</ele>
        <time>2011-07-10T07:15:53Z</time>
      </trkpt>
      <trkpt lat="44.27379" lon="6.61638">
        <ele>2135.096</ele>
        <time>2011-07-10T07:15:56Z</time>
      </trkpt>
      <trkpt lat="44.27378" lon="6.61641">
        <ele>2133.995</ele>
        <time>2011-07-10T07:15:58Z</time>
      </trkpt>
      <trkpt lat="44.27385" lon="6.61648">
        <ele>2132.467</ele>
        <time>2011-07-10T07:16:03Z</time>
      </trkpt>
      <trkpt lat="44.27378" lon="6.61653">
        <ele>2131.636</ele>
        <time>2011-07-10T07:16:06Z</time>
      </trkpt>
      <trkpt lat="44.27378" lon="6.61661">
        <ele>2128.887</ele>
        <time>2011-07-10T07:16:11Z</time>
      </trkpt>
      <trkpt lat="44.27388" lon="6.61669">
        <ele>2123.763</ele>
        <time>2011-07-10T07:16:15Z</time>
      </trkpt>
      <trkpt lat="44.2739" lon="6.6167">
        <ele>2122.334</ele>
        <time>2011-07-10T07:16:16Z</time>
      </trkpt>
      <trkpt lat="44.27386" lon="6.6168">
        <ele>2122.776</ele>
        <time>2011-07-10T07:16:20Z</time>
      </trkpt>
      <trkpt lat="44.27383" lon="6.61682">
        <ele>2122.477</ele>
        <time>2011-07-10T07:16:21Z</time>
      </trkpt>
      <trkpt lat="44.27378" lon="6.61686">
        <ele>2121.607</ele>
        <time>2011-07-10T07:16:23Z</time>
      </trkpt>
      <trkpt lat="44.27384" lon="6.61692">
        <ele>2117.392</ele>
        <time>2011-07-10T07:16:27Z</time>
      </trkpt>
      <trkpt lat="44.27403" lon="6.61701">
        <ele>2111.714</ele>
        <time>2011-07-10T07:16:32Z</time>
      </trkpt>
      <trkpt lat="44.27404" lon="6.61703">
        <ele>2112.403</ele>
        <time>2011-07-10T07:16:33Z</time>
      </trkpt>
      <trkpt lat="44.27399" lon="6.61709">
        <ele>2112.205</ele>
        <time>2011-07-10T07:16:36Z</time>
      </trkpt>
      <trkpt lat="44.27395" lon="6.61721">
        <ele>2107.603</ele>
        <time>2011-07-10T07:16:41Z</time>
      </trkpt>
      <trkpt lat="44.2739" lon="6.61726">
        <ele>2106.472</ele>
        <time>2011-07-10T07:16:43Z</time>
      </trkpt>
      <trkpt lat="44.27365" lon="6.61732">
        <ele>2102.443</ele>
        <time>2011-07-10T07:16:49Z</time>
      </trkpt>
      <trkpt lat="44.27348" lon="6.61735">
        <ele>2102.345</ele>
        <time>2011-07-10T07:16:54Z</time>
      </trkpt>
      <trkpt lat="44.27345" lon="6.61737">
        <ele>2102.036</ele>
        <time>2011-07-10T07:16:56Z</time>
      </trkpt>
      <trkpt lat="44.27346" lon="6.61756">
        <ele>2103.248</ele>
        <time>2011-07-10T07:17:00Z</time>
      </trkpt>
      <trkpt lat="44.27345" lon="6.61789">
        <ele>2109.113</ele>
        <time>2011-07-10T07:17:05Z</time>
      </trkpt>
      <trkpt lat="44.27343" lon="6.61806">
        <ele>2108.752</ele>
        <time>2011-07-10T07:17:08Z</time>
      </trkpt>
      <trkpt lat="44.27341" lon="6.61842">
        <ele>2109.923</ele>
        <time>2011-07-10T07:17:13Z</time>
      </trkpt>
      <trkpt lat="44.27333" lon="6.61869">
        <ele>2109.313</ele>
        <time>2011-07-10T07:17:17Z</time>
      </trkpt>
      <trkpt lat="44.27331" lon="6.61876">
        <ele>2109.663</ele>
        <time>2011-07-10T07:17:18Z</time>
      </trkpt>
      <trkpt lat="44.27324" lon="6.61911">
        <ele>2109.563</ele>
        <time>2011-07-10T07:17:23Z</time>
      </trkpt>
      <trkpt lat="44.27314" lon="6.61936">
        <ele>2108.744</ele>
        <time>2011-07-10T07:17:28Z</time>
      </trkpt>
      <trkpt lat="44.273" lon="6.61953">
        <ele>2110.194</ele>
        <time>2011-07-10T07:17:34Z</time>
      </trkpt>
      <trkpt lat="44.27289" lon="6.61966">
        <ele>2111.465</ele>
        <time>2011-07-10T07:17:39Z</time>
      </trkpt>
      <trkpt lat="44.27282" lon="6.6197">
        <ele>2112.036</ele>
        <time>2011-07-10T07:17:41Z</time>
      </trkpt>
      <trkpt lat="44.27279" lon="6.61976">
        <ele>2111.794</ele>
        <time>2011-07-10T07:17:43Z</time>
      </trkpt>
      <trkpt lat="44.27287" lon="6.61994">
        <ele>2110.404</ele>
        <time>2011-07-10T07:17:47Z</time>
      </trkpt>
      <trkpt lat="44.27288" lon="6.62011">
        <ele>2108.672</ele>
        <time>2011-07-10T07:17:50Z</time>
      </trkpt>
      <trkpt lat="44.27279" lon="6.62043">
        <ele>2101.966</ele>
        <time>2011-07-10T07:17:55Z</time>
      </trkpt>
      <trkpt lat="44.27279" lon="6.62049">
        <ele>2100.846</ele>
        <time>2011-07-10T07:17:56Z</time>
      </trkpt>
      <trkpt lat="44.27278" lon="6.62105">
        <ele>2095.264</ele>
        <time>2011-07-10T07:18:02Z</time>
      </trkpt>
      <trkpt lat="44.27277" lon="6.62143">
        <ele>2091.077</ele>
        <time>2011-07-10T07:18:07Z</time>
      </trkpt>
      <trkpt lat="44.2727" lon="6.6216">
        <ele>2085.015</ele>
        <time>2011-07-10T07:18:11Z</time>
      </trkpt>
      <trkpt lat="44.27261" lon="6.62184">
        <ele>2087.921</ele>
        <time>2011-07-10T07:18:16Z</time>
      </trkpt>
      <trkpt lat="44.27256" lon="6.62202">
        <ele>2084.81</ele>
        <time>2011-07-10T07:18:20Z</time>
      </trkpt>
      <trkpt lat="44.27241" lon="6.62228">
        <ele>2082.809</ele>
        <time>2011-07-10T07:18:25Z</time>
      </trkpt>
      <trkpt lat="44.27239" lon="6.62231">
        <ele>2081.248</ele>
        <time>2011-07-10T07:18:26Z</time>
      </trkpt>
      <trkpt lat="44.27231" lon="6.62254">
        <ele>2076.315</ele>
        <time>2011-07-10T07:18:31Z</time>
      </trkpt>
      <trkpt lat="44.27224" lon="6.62272">
        <ele>2072.636</ele>
        <time>2011-07-10T07:18:36Z</time>
      </trkpt>
      <trkpt lat="44.27221" lon="6.62282">
        <ele>2069.375</ele>
        <time>2011-07-10T07:18:39Z</time>
      </trkpt>
      <trkpt lat="44.27211" lon="6.62298">
        <ele>2056.432</ele>
        <time>2011-07-10T07:18:45Z</time>
      </trkpt>
      <trkpt lat="44.27201" lon="6.62315">
        <ele>2055.523</ele>
        <time>2011-07-10T07:18:49Z</time>
      </trkpt>
      <trkpt lat="44.27197" lon="6.62317">
        <ele>2054.582</ele>
        <time>2011-07-10T07:18:50Z</time>
      </trkpt>
      <trkpt lat="44.27185" lon="6.62326">
        <ele>2048.63</ele>
        <time>2011-07-10T07:18:53Z</time>
      </trkpt>
      <trkpt lat="44.27167" lon="6.62339">
        <ele>2047.782</ele>
        <time>2011-07-10T07:18:58Z</time>
      </trkpt>
      <trkpt lat="44.27157" lon="6.62348">
        <ele>2047.032</ele>
        <time>2011-07-10T07:19:01Z</time>
      </trkpt>
      <trkpt lat="44.27143" lon="6.62367">
        <ele>2046.473</ele>
        <time>2011-07-10T07:19:07Z</time>
      </trkpt>
      <trkpt lat="44.27132" lon="6.62378">
        <ele>2045.99</ele>
        <time>2011-07-10T07:19:12Z</time>
      </trkpt>
      <trkpt lat="44.27123" lon="6.62385">
        <ele>2041.988</ele>
        <time>2011-07-10T07:19:17Z</time>
      </trkpt>
      <trkpt lat="44.27117" lon="6.62389">
        <ele>2038.809</ele>
        <time>2011-07-10T07:19:22Z</time>
      </trkpt>
      <trkpt lat="44.27116" lon="6.6239">
        <ele>2038.54</ele>
        <time>2011-07-10T07:19:28Z</time>
      </trkpt>
      <trkpt lat="44.27116" lon="6.62391">
        <ele>2038.54</ele>
        <time>2011-07-10T07:19:29Z</time>
      </trkpt>
      <trkpt lat="44.27116" lon="6.62391">
        <ele>2039.212</ele>
        <time>2011-07-10T07:19:34Z</time>
      </trkpt>
      <trkpt lat="44.2711" lon="6.62388">
        <ele>2034.898</ele>
        <time>2011-07-10T07:19:40Z</time>
      </trkpt>
      <trkpt lat="44.27108" lon="6.62387">
        <ele>2035.241</ele>
        <time>2011-07-10T07:19:46Z</time>
      </trkpt>
      <trkpt lat="44.27107" lon="6.62389">
        <ele>2046.799</ele>
        <time>2011-07-10T07:22:35Z</time>
      </trkpt>
      <trkpt lat="44.27108" lon="6.62386">
        <ele>2023.451</ele>
        <time>2011-07-10T07:24:35Z</time>
      </trkpt>
      <trkpt lat="44.27096" lon="6.62389">
        <ele>2023.669</ele>
        <time>2011-07-10T07:24:40Z</time>
      </trkpt>
      <trkpt lat="44.27092" lon="6.62391">
        <ele>2024.732</ele>
        <time>2011-07-10T07:24:42Z</time>
      </trkpt>
      <trkpt lat="44.27086" lon="6.62394">
        <ele>2025.632</ele>
        <time>2011-07-10T07:24:46Z</time>
      </trkpt>
      <trkpt lat="44.27094" lon="6.62406">
        <ele>2021.996</ele>
        <time>2011-07-10T07:24:52Z</time>
      </trkpt>
      <trkpt lat="44.27097" lon="6.62408">
        <ele>2021.283</ele>
        <time>2011-07-10T07:24:53Z</time>
      </trkpt>
      <trkpt lat="44.27107" lon="6.62413">
        <ele>2017.516</ele>
        <time>2011-07-10T07:24:58Z</time>
      </trkpt>
      <trkpt lat="44.27114" lon="6.62415">
        <ele>2012.294</ele>
        <time>2011-07-10T07:25:02Z</time>
      </trkpt>
      <trkpt lat="44.27101" lon="6.62421">
        <ele>2011.43</ele>
        <time>2011-07-10T07:25:07Z</time>
      </trkpt>
      <trkpt lat="44.27097" lon="6.62423">
        <ele>2010.952</ele>
        <time>2011-07-10T07:25:08Z</time>
      </trkpt>
      <trkpt lat="44.27074" lon="6.62429">
        <ele>2008.824</ele>
        <time>2011-07-10T07:25:15Z</time>
      </trkpt>
      <trkpt lat="44.27057" lon="6.62419">
        <ele>2003.602</ele>
        <time>2011-07-10T07:25:20Z</time>
      </trkpt>
      <trkpt lat="44.27042" lon="6.6241">
        <ele>2004.045</ele>
        <time>2011-07-10T07:25:25Z</time>
      </trkpt>
      <trkpt lat="44.27036" lon="6.6241">
        <ele>2003.645</ele>
        <time>2011-07-10T07:25:27Z</time>
      </trkpt>
      <trkpt lat="44.27029" lon="6.62424">
        <ele>2002.917</ele>
        <time>2011-07-10T07:25:31Z</time>
      </trkpt>
      <trkpt lat="44.2702" lon="6.62439">
        <ele>2002.799</ele>
        <time>2011-07-10T07:25:35Z</time>
      </trkpt>
      <trkpt lat="44.27009" lon="6.62449">
        <ele>2004.681</ele>
        <time>2011-07-10T07:25:39Z</time>
      </trkpt>
      <trkpt lat="44.27006" lon="6.62455">
        <ele>2006.052</ele>
        <time>2011-07-10T07:25:43Z</time>
      </trkpt>
      <trkpt lat="44.27" lon="6.62458">
        <ele>2006.51</ele>
        <time>2011-07-10T07:25:47Z</time>
      </trkpt>
      <trkpt lat="44.26994" lon="6.62463">
        <ele>2006.69</ele>
        <time>2011-07-10T07:25:49Z</time>
      </trkpt>
      <trkpt lat="44.26963" lon="6.62483">
        <ele>2003.227</ele>
        <time>2011-07-10T07:25:56Z</time>
      </trkpt>
      <trkpt lat="44.26959" lon="6.62485">
        <ele>2002.325</ele>
        <time>2011-07-10T07:25:57Z</time>
      </trkpt>
      <trkpt lat="44.26937" lon="6.62484">
        <ele>2003.241</ele>
        <time>2011-07-10T07:26:02Z</time>
      </trkpt>
      <trkpt lat="44.26928" lon="6.62481">
        <ele>2003.141</ele>
        <time>2011-07-10T07:26:04Z</time>
      </trkpt>
      <trkpt lat="44.26903" lon="6.62469">
        <ele>1996.395</ele>
        <time>2011-07-10T07:26:09Z</time>
      </trkpt>
      <trkpt lat="44.26882" lon="6.62443">
        <ele>1982.048</ele>
        <time>2011-07-10T07:26:14Z</time>
      </trkpt>
      <trkpt lat="44.26865" lon="6.62421">
        <ele>1976.15</ele>
        <time>2011-07-10T07:26:19Z</time>
      </trkpt>
      <trkpt lat="44.26864" lon="6.62416">
        <ele>1975.531</ele>
        <time>2011-07-10T07:26:20Z</time>
      </trkpt>
      <trkpt lat="44.26851" lon="6.62399">
        <ele>1973.313</ele>
        <time>2011-07-10T07:26:25Z</time>
      </trkpt>
      <trkpt lat="44.2684" lon="6.62386">
        <ele>1971.605</ele>
        <time>2011-07-10T07:26:29Z</time>
      </trkpt>
      <trkpt lat="44.2683" lon="6.62375">
        <ele>1969.745</ele>
        <time>2011-07-10T07:26:34Z</time>
      </trkpt>
      <trkpt lat="44.26828" lon="6.62375">
        <ele>1968.884</ele>
        <time>2011-07-10T07:26:35Z</time>
      </trkpt>
      <trkpt lat="44.26821" lon="6.6237">
        <ele>1967.003</ele>
        <time>2011-07-10T07:26:39Z</time>
      </trkpt>
      <trkpt lat="44.26805" lon="6.62364">
        <ele>1963.002</ele>
        <time>2011-07-10T07:26:44Z</time>
      </trkpt>
      <trkpt lat="44.26789" lon="6.62355">
        <ele>1959.861</ele>
        <time>2011-07-10T07:26:48Z</time>
      </trkpt>
      <trkpt lat="44.26785" lon="6.62358">
        <ele>1956.172</ele>
        <time>2011-07-10T07:26:52Z</time>
      </trkpt>
      <trkpt lat="44.2678" lon="6.62366">
        <ele>1955.935</ele>
        <time>2011-07-10T07:26:55Z</time>
      </trkpt>
      <trkpt lat="44.26757" lon="6.62381">
        <ele>1956.068</ele>
        <time>2011-07-10T07:27:01Z</time>
      </trkpt>
      <trkpt lat="44.2674" lon="6.62385">
        <ele>1955.218</ele>
        <time>2011-07-10T07:27:05Z</time>
      </trkpt>
      <trkpt lat="44.26736" lon="6.62389">
        <ele>1954.436</ele>
        <time>2011-07-10T07:27:07Z</time>
      </trkpt>
      <trkpt lat="44.26722" lon="6.62413">
        <ele>1946.204</ele>
        <time>2011-07-10T07:27:13Z</time>
      </trkpt>
      <trkpt lat="44.26714" lon="6.62423">
        <ele>1947.997</ele>
        <time>2011-07-10T07:27:15Z</time>
      </trkpt>
      <trkpt lat="44.26682" lon="6.62442">
        <ele>1950</ele>
        <time>2011-07-10T07:27:21Z</time>
      </trkpt>
      <trkpt lat="44.26657" lon="6.62445">
        <ele>1952.642</ele>
        <time>2011-07-10T07:27:25Z</time>
      </trkpt>
      <trkpt lat="44.26622" lon="6.62446">
        <ele>1948.176</ele>
        <time>2011-07-10T07:27:30Z</time>
      </trkpt>
      <trkpt lat="44.26599" lon="6.62444">
        <ele>1940.522</ele>
        <time>2011-07-10T07:27:33Z</time>
      </trkpt>
      <trkpt lat="44.26583" lon="6.62438">
        <ele>1940.365</ele>
        <time>2011-07-10T07:27:36Z</time>
      </trkpt>
      <trkpt lat="44.26565" lon="6.62424">
        <ele>1935.895</ele>
        <time>2011-07-10T07:27:41Z</time>
      </trkpt>
      <trkpt lat="44.26556" lon="6.6242">
        <ele>1935.206</ele>
        <time>2011-07-10T07:27:43Z</time>
      </trkpt>
      <trkpt lat="44.26535" lon="6.6242">
        <ele>1934.307</ele>
        <time>2011-07-10T07:27:47Z</time>
      </trkpt>
      <trkpt lat="44.26523" lon="6.62421">
        <ele>1932.916</ele>
        <time>2011-07-10T07:27:49Z</time>
      </trkpt>
      <trkpt lat="44.26511" lon="6.62423">
        <ele>1930.252</ele>
        <time>2011-07-10T07:27:51Z</time>
      </trkpt>
      <trkpt lat="44.26493" lon="6.62425">
        <ele>1926.24</ele>
        <time>2011-07-10T07:27:55Z</time>
      </trkpt>
      <trkpt lat="44.26477" lon="6.62435">
        <ele>1920.911</ele>
        <time>2011-07-10T07:28:00Z</time>
      </trkpt>
      <trkpt lat="44.26475" lon="6.62435">
        <ele>1917.684</ele>
        <time>2011-07-10T07:28:04Z</time>
      </trkpt>
      <trkpt lat="44.26473" lon="6.62434">
        <ele>1918.583</ele>
        <time>2011-07-10T07:29:48Z</time>
      </trkpt>
      <trkpt lat="44.26477" lon="6.62435">
        <ele>1915.109</ele>
        <time>2011-07-10T07:29:55Z</time>
      </trkpt>
      <trkpt lat="44.26482" lon="6.62433">
        <ele>1907.82</ele>
        <time>2011-07-10T07:30:24Z</time>
      </trkpt>
      <trkpt lat="44.26481" lon="6.62444">
        <ele>1906.728</ele>
        <time>2011-07-10T07:30:29Z</time>
      </trkpt>
      <trkpt lat="44.26481" lon="6.62458">
        <ele>1906.538</ele>
        <time>2011-07-10T07:30:33Z</time>
      </trkpt>
      <trkpt lat="44.26471" lon="6.62457">
        <ele>1906.138</ele>
        <time>2011-07-10T07:30:36Z</time>
      </trkpt>
      <trkpt lat="44.26469" lon="6.62468">
        <ele>1903.986</ele>
        <time>2011-07-10T07:30:39Z</time>
      </trkpt>
      <trkpt lat="44.26476" lon="6.62486">
        <ele>1901.752</ele>
        <time>2011-07-10T07:30:42Z</time>
      </trkpt>
      <trkpt lat="44.26473" lon="6.62496">
        <ele>1899.309</ele>
        <time>2011-07-10T07:30:45Z</time>
      </trkpt>
      <trkpt lat="44.26463" lon="6.62497">
        <ele>1896.74</ele>
        <time>2011-07-10T07:30:49Z</time>
      </trkpt>
      <trkpt lat="44.26463" lon="6.625">
        <ele>1896.421</ele>
        <time>2011-07-10T07:30:50Z</time>
      </trkpt>
      <trkpt lat="44.26453" lon="6.62514">
        <ele>1891.437</ele>
        <time>2011-07-10T07:30:55Z</time>
      </trkpt>
      <trkpt lat="44.26443" lon="6.62519">
        <ele>1889.697</ele>
        <time>2011-07-10T07:30:58Z</time>
      </trkpt>
      <trkpt lat="44.26444" lon="6.62527">
        <ele>1888.503</ele>
        <time>2011-07-10T07:31:03Z</time>
      </trkpt>
      <trkpt lat="44.26446" lon="6.62531">
        <ele>1887.689</ele>
        <time>2011-07-10T07:31:27Z</time>
      </trkpt>
      <trkpt lat="44.26447" lon="6.62541">
        <ele>1887.167</ele>
        <time>2011-07-10T07:31:31Z</time>
      </trkpt>
      <trkpt lat="44.26453" lon="6.62549">
        <ele>1887.158</ele>
        <time>2011-07-10T07:31:33Z</time>
      </trkpt>
      <trkpt lat="44.26466" lon="6.62566">
        <ele>1885.614</ele>
        <time>2011-07-10T07:31:36Z</time>
      </trkpt>
      <trkpt lat="44.26482" lon="6.62578">
        <ele>1884.474</ele>
        <time>2011-07-10T07:31:39Z</time>
      </trkpt>
      <trkpt lat="44.26491" lon="6.62587">
        <ele>1883.495</ele>
        <time>2011-07-10T07:31:43Z</time>
      </trkpt>
      <trkpt lat="44.26487" lon="6.62589">
        <ele>1883.105</ele>
        <time>2011-07-10T07:31:44Z</time>
      </trkpt>
      <trkpt lat="44.26466" lon="6.62593">
        <ele>1880.961</ele>
        <time>2011-07-10T07:31:48Z</time>
      </trkpt>
      <trkpt lat="44.26437" lon="6.62605">
        <ele>1877.59</ele>
        <time>2011-07-10T07:31:53Z</time>
      </trkpt>
      <trkpt lat="44.26425" lon="6.6261">
        <ele>1875.347</ele>
        <time>2011-07-10T07:31:55Z</time>
      </trkpt>
      <trkpt lat="44.26394" lon="6.62608">
        <ele>1869.817</ele>
        <time>2011-07-10T07:32:00Z</time>
      </trkpt>
      <trkpt lat="44.26383" lon="6.62607">
        <ele>1868.248</ele>
        <time>2011-07-10T07:32:02Z</time>
      </trkpt>
      <trkpt lat="44.26379" lon="6.62616">
        <ele>1865.809</ele>
        <time>2011-07-10T07:32:05Z</time>
      </trkpt>
      <trkpt lat="44.26383" lon="6.62619">
        <ele>1865.21</ele>
        <time>2011-07-10T07:32:06Z</time>
      </trkpt>
      <trkpt lat="44.2641" lon="6.62634">
        <ele>1860.899</ele>
        <time>2011-07-10T07:32:11Z</time>
      </trkpt>
      <trkpt lat="44.26412" lon="6.62643">
        <ele>1858.47</ele>
        <time>2011-07-10T07:32:15Z</time>
      </trkpt>
      <trkpt lat="44.26383" lon="6.62648">
        <ele>1855.14</ele>
        <time>2011-07-10T07:32:20Z</time>
      </trkpt>
      <trkpt lat="44.26376" lon="6.62648">
        <ele>1854.38</ele>
        <time>2011-07-10T07:32:21Z</time>
      </trkpt>
      <trkpt lat="44.26349" lon="6.62647">
        <ele>1850.99</ele>
        <time>2011-07-10T07:32:25Z</time>
      </trkpt>
      <trkpt lat="44.26318" lon="6.62644">
        <ele>1844.647</ele>
        <time>2011-07-10T07:32:30Z</time>
      </trkpt>
      <trkpt lat="44.26304" lon="6.62645">
        <ele>1841.096</ele>
        <time>2011-07-10T07:32:32Z</time>
      </trkpt>
      <trkpt lat="44.26273" lon="6.62637">
        <ele>1833.683</ele>
        <time>2011-07-10T07:32:37Z</time>
      </trkpt>
      <trkpt lat="44.26257" lon="6.62631">
        <ele>1830.764</ele>
        <time>2011-07-10T07:32:40Z</time>
      </trkpt>
      <trkpt lat="44.26232" lon="6.62616">
        <ele>1826.997</ele>
        <time>2011-07-10T07:32:45Z</time>
      </trkpt>
      <trkpt lat="44.26203" lon="6.626">
        <ele>1822.828</ele>
        <time>2011-07-10T07:32:50Z</time>
      </trkpt>
      <trkpt lat="44.26171" lon="6.62574">
        <ele>1820.319</ele>
        <time>2011-07-10T07:32:55Z</time>
      </trkpt>
      <trkpt lat="44.26144" lon="6.6255">
        <ele>1818.091</ele>
        <time>2011-07-10T07:33:00Z</time>
      </trkpt>
      <trkpt lat="44.26122" lon="6.6252">
        <ele>1811.868</ele>
        <time>2011-07-10T07:33:05Z</time>
      </trkpt>
      <trkpt lat="44.26112" lon="6.62498">
        <ele>1806.96</ele>
        <time>2011-07-10T07:33:08Z</time>
      </trkpt>
      <trkpt lat="44.26106" lon="6.62475">
        <ele>1801.416</ele>
        <time>2011-07-10T07:33:12Z</time>
      </trkpt>
      <trkpt lat="44.26102" lon="6.62476">
        <ele>1798.966</ele>
        <time>2011-07-10T07:33:14Z</time>
      </trkpt>
      <trkpt lat="44.26101" lon="6.62487">
        <ele>1797.258</ele>
        <time>2011-07-10T07:33:16Z</time>
      </trkpt>
      <trkpt lat="44.26098" lon="6.62511">
        <ele>1794.441</ele>
        <time>2011-07-10T07:33:19Z</time>
      </trkpt>
      <trkpt lat="44.26094" lon="6.62544">
        <ele>1789.053</ele>
        <time>2011-07-10T07:33:23Z</time>
      </trkpt>
      <trkpt lat="44.26089" lon="6.6258">
        <ele>1783.946</ele>
        <time>2011-07-10T07:33:28Z</time>
      </trkpt>
      <trkpt lat="44.26089" lon="6.62587">
        <ele>1782.897</ele>
        <time>2011-07-10T07:33:29Z</time>
      </trkpt>
      <trkpt lat="44.26097" lon="6.62614">
        <ele>1779.628</ele>
        <time>2011-07-10T07:33:33Z</time>
      </trkpt>
      <trkpt lat="44.26099" lon="6.62622">
        <ele>1778.518</ele>
        <time>2011-07-10T07:33:35Z</time>
      </trkpt>
      <trkpt lat="44.26095" lon="6.6262">
        <ele>1777.721</ele>
        <time>2011-07-10T07:33:38Z</time>
      </trkpt>
      <trkpt lat="44.26093" lon="6.62618">
        <ele>1778.428</ele>
        <time>2011-07-10T07:33:43Z</time>
      </trkpt>
      <trkpt lat="44.26087" lon="6.62612">
        <ele>1778.255</ele>
        <time>2011-07-10T07:33:48Z</time>
      </trkpt>
      <trkpt lat="44.26079" lon="6.62607">
        <ele>1777.523</ele>
        <time>2011-07-10T07:33:50Z</time>
      </trkpt>
      <trkpt lat="44.26069" lon="6.62603">
        <ele>1776.922</ele>
        <time>2011-07-10T07:33:52Z</time>
      </trkpt>
      <trkpt lat="44.26052" lon="6.62602">
        <ele>1775.382</ele>
        <time>2011-07-10T07:33:55Z</time>
      </trkpt>
      <trkpt lat="44.26016" lon="6.62603">
        <ele>1769.494</ele>
        <time>2011-07-10T07:34:00Z</time>
      </trkpt>
      <trkpt lat="44.25983" lon="6.62612">
        <ele>1763.085</ele>
        <time>2011-07-10T07:34:05Z</time>
      </trkpt>
      <trkpt lat="44.25985" lon="6.6262">
        <ele>1759.367</ele>
        <time>2011-07-10T07:34:08Z</time>
      </trkpt>
      <trkpt lat="44.25997" lon="6.62624">
        <ele>1757.017</ele>
        <time>2011-07-10T07:34:10Z</time>
      </trkpt>
      <trkpt lat="44.26016" lon="6.62628">
        <ele>1755.861</ele>
        <time>2011-07-10T07:34:13Z</time>
      </trkpt>
      <trkpt lat="44.26039" lon="6.62643">
        <ele>1753.911</ele>
        <time>2011-07-10T07:34:17Z</time>
      </trkpt>
      <trkpt lat="44.26054" lon="6.62662">
        <ele>1751.298</ele>
        <time>2011-07-10T07:34:20Z</time>
      </trkpt>
      <trkpt lat="44.2606" lon="6.62699">
        <ele>1748.889</ele>
        <time>2011-07-10T07:34:24Z</time>
      </trkpt>
      <trkpt lat="44.26057" lon="6.62708">
        <ele>1747.817</ele>
        <time>2011-07-10T07:34:25Z</time>
      </trkpt>
      <trkpt lat="44.26051" lon="6.62727">
        <ele>1745.826</ele>
        <time>2011-07-10T07:34:27Z</time>
      </trkpt>
      <trkpt lat="44.26053" lon="6.62755">
        <ele>1741.626</ele>
        <time>2011-07-10T07:34:31Z</time>
      </trkpt>
      <trkpt lat="44.26057" lon="6.62763">
        <ele>1739.818</ele>
        <time>2011-07-10T07:34:34Z</time>
      </trkpt>
      <trkpt lat="44.26053" lon="6.62762">
        <ele>1738.763</ele>
        <time>2011-07-10T07:34:37Z</time>
      </trkpt>
      <trkpt lat="44.26049" lon="6.6276">
        <ele>1738.816</ele>
        <time>2011-07-10T07:34:39Z</time>
      </trkpt>
      <trkpt lat="44.26042" lon="6.62754">
        <ele>1739.078</ele>
        <time>2011-07-10T07:34:44Z</time>
      </trkpt>
      <trkpt lat="44.26042" lon="6.62754">
        <ele>1739.088</ele>
        <time>2011-07-10T07:34:47Z</time>
      </trkpt>
      <trkpt lat="44.26028" lon="6.62755">
        <ele>1736.423</ele>
        <time>2011-07-10T07:34:52Z</time>
      </trkpt>
      <trkpt lat="44.26023" lon="6.6276">
        <ele>1735.051</ele>
        <time>2011-07-10T07:34:54Z</time>
      </trkpt>
      <trkpt lat="44.26024" lon="6.62776">
        <ele>1730.62</ele>
        <time>2011-07-10T07:34:59Z</time>
      </trkpt>
      <trkpt lat="44.26021" lon="6.62783">
        <ele>1730.595</ele>
        <time>2011-07-10T07:35:03Z</time>
      </trkpt>
      <trkpt lat="44.26015" lon="6.62782">
        <ele>1730.739</ele>
        <time>2011-07-10T07:35:07Z</time>
      </trkpt>
      <trkpt lat="44.26015" lon="6.62783">
        <ele>1731.279</ele>
        <time>2011-07-10T07:35:09Z</time>
      </trkpt>
      <trkpt lat="44.26018" lon="6.62786">
        <ele>1731.519</ele>
        <time>2011-07-10T07:35:14Z</time>
      </trkpt>
      <trkpt lat="44.26024" lon="6.62793">
        <ele>1732.092</ele>
        <time>2011-07-10T07:35:24Z</time>
      </trkpt>
      <trkpt lat="44.26034" lon="6.62808">
        <ele>1733.271</ele>
        <time>2011-07-10T07:35:30Z</time>
      </trkpt>
      <trkpt lat="44.26045" lon="6.62833">
        <ele>1732.951</ele>
        <time>2011-07-10T07:35:36Z</time>
      </trkpt>
      <trkpt lat="44.26052" lon="6.62863">
        <ele>1732.85</ele>
        <time>2011-07-10T07:35:42Z</time>
      </trkpt>
      <trkpt lat="44.26064" lon="6.62903">
        <ele>1731.009</ele>
        <time>2011-07-10T07:35:49Z</time>
      </trkpt>
      <trkpt lat="44.26075" lon="6.62926">
        <ele>1730.98</ele>
        <time>2011-07-10T07:35:55Z</time>
      </trkpt>
      <trkpt lat="44.26085" lon="6.62946">
        <ele>1732.423</ele>
        <time>2011-07-10T07:36:02Z</time>
      </trkpt>
      <trkpt lat="44.26089" lon="6.62954">
        <ele>1733.014</ele>
        <time>2011-07-10T07:36:08Z</time>
      </trkpt>
      <trkpt lat="44.26089" lon="6.62957">
        <ele>1733.172</ele>
        <time>2011-07-10T07:36:15Z</time>
      </trkpt>
      <trkpt lat="44.2609" lon="6.62959">
        <ele>1733.712</ele>
        <time>2011-07-10T07:36:21Z</time>
      </trkpt>
      <trkpt lat="44.26081" lon="6.62962">
        <ele>1730.596</ele>
        <time>2011-07-10T07:36:27Z</time>
      </trkpt>
      <trkpt lat="44.2608" lon="6.62963">
        <ele>1729.226</ele>
        <time>2011-07-10T07:36:29Z</time>
      </trkpt>
      <trkpt lat="44.26078" lon="6.62967">
        <ele>1727.219</ele>
        <time>2011-07-10T07:36:34Z</time>
      </trkpt>
      <trkpt lat="44.26074" lon="6.62971">
        <ele>1725.698</ele>
        <time>2011-07-10T07:36:39Z</time>
      </trkpt>
      <trkpt lat="44.26069" lon="6.62972">
        <ele>1724.287</ele>
        <time>2011-07-10T07:36:43Z</time>
      </trkpt>
      <trkpt lat="44.26059" lon="6.62984">
        <ele>1721.176</ele>
        <time>2011-07-10T07:36:50Z</time>
      </trkpt>
      <trkpt lat="44.26059" lon="6.62987">
        <ele>1720.746</ele>
        <time>2011-07-10T07:36:51Z</time>
      </trkpt>
      <trkpt lat="44.26058" lon="6.62991">
        <ele>1718.777</ele>
        <time>2011-07-10T07:36:57Z</time>
      </trkpt>
      <trkpt lat="44.2606" lon="6.62993">
        <ele>1716.409</ele>
        <time>2011-07-10T07:37:05Z</time>
      </trkpt>
      <trkpt lat="44.26059" lon="6.62996">
        <ele>1714.368</ele>
        <time>2011-07-10T07:37:12Z</time>
      </trkpt>
      <trkpt lat="44.26058" lon="6.62998">
        <ele>1713.927</ele>
        <time>2011-07-10T07:37:19Z</time>
      </trkpt>
      <trkpt lat="44.26056" lon="6.63">
        <ele>1713.618</ele>
        <time>2011-07-10T07:37:23Z</time>
      </trkpt>
      <trkpt lat="44.26051" lon="6.62997">
        <ele>1715.082</ele>
        <time>2011-07-10T07:37:30Z</time>
      </trkpt>
      <trkpt lat="44.26046" lon="6.62995">
        <ele>1716.381</ele>
        <time>2011-07-10T07:37:39Z</time>
      </trkpt>
      <trkpt lat="44.26033" lon="6.62984">
        <ele>1716.979</ele>
        <time>2011-07-10T07:37:44Z</time>
      </trkpt>
      <trkpt lat="44.26021" lon="6.6297">
        <ele>1717.54</ele>
        <time>2011-07-10T07:37:49Z</time>
      </trkpt>
      <trkpt lat="44.26005" lon="6.62959">
        <ele>1714.054</ele>
        <time>2011-07-10T07:37:55Z</time>
      </trkpt>
      <trkpt lat="44.25998" lon="6.62952">
        <ele>1712.495</ele>
        <time>2011-07-10T07:37:59Z</time>
      </trkpt>
      <trkpt lat="44.25993" lon="6.62949">
        <ele>1712.196</ele>
        <time>2011-07-10T07:38:10Z</time>
      </trkpt>
      <trkpt lat="44.25984" lon="6.62942">
        <ele>1709.163</ele>
        <time>2011-07-10T07:38:14Z</time>
      </trkpt>
      <trkpt lat="44.25972" lon="6.6293">
        <ele>1704.98</ele>
        <time>2011-07-10T07:38:19Z</time>
      </trkpt>
      <trkpt lat="44.25948" lon="6.62909">
        <ele>1701.983</ele>
        <time>2011-07-10T07:38:25Z</time>
      </trkpt>
      <trkpt lat="44.25931" lon="6.62901">
        <ele>1700.655</ele>
        <time>2011-07-10T07:38:30Z</time>
      </trkpt>
      <trkpt lat="44.2593" lon="6.629">
        <ele>1699.684</ele>
        <time>2011-07-10T07:38:31Z</time>
      </trkpt>
      <trkpt lat="44.25921" lon="6.62894">
        <ele>1696.664</ele>
        <time>2011-07-10T07:38:36Z</time>
      </trkpt>
      <trkpt lat="44.25919" lon="6.62893">
        <ele>1696.019</ele>
        <time>2011-07-10T07:38:41Z</time>
      </trkpt>
      <trkpt lat="44.25913" lon="6.6289">
        <ele>1693.003</ele>
        <time>2011-07-10T07:39:04Z</time>
      </trkpt>
      <trkpt lat="44.25897" lon="6.62881">
        <ele>1694.043</ele>
        <time>2011-07-10T07:39:09Z</time>
      </trkpt>
      <trkpt lat="44.25884" lon="6.6288">
        <ele>1695.233</ele>
        <time>2011-07-10T07:39:14Z</time>
      </trkpt>
      <trkpt lat="44.25883" lon="6.6288">
        <ele>1694.93</ele>
        <time>2011-07-10T07:39:18Z</time>
      </trkpt>
      <trkpt lat="44.25882" lon="6.6288">
        <ele>1699.62</ele>
        <time>2011-07-10T07:42:17Z</time>
      </trkpt>
      <trkpt lat="44.25868" lon="6.6287">
        <ele>1696.437</ele>
        <time>2011-07-10T07:42:22Z</time>
      </trkpt>
      <trkpt lat="44.2586" lon="6.62864">
        <ele>1694.686</ele>
        <time>2011-07-10T07:42:24Z</time>
      </trkpt>
      <trkpt lat="44.2583" lon="6.62866">
        <ele>1688.39</ele>
        <time>2011-07-10T07:42:29Z</time>
      </trkpt>
      <trkpt lat="44.25818" lon="6.62869">
        <ele>1686.841</ele>
        <time>2011-07-10T07:42:31Z</time>
      </trkpt>
      <trkpt lat="44.258" lon="6.62869">
        <ele>1683.381</ele>
        <time>2011-07-10T07:42:34Z</time>
      </trkpt>
      <trkpt lat="44.25776" lon="6.62857">
        <ele>1677.608</ele>
        <time>2011-07-10T07:42:38Z</time>
      </trkpt>
      <trkpt lat="44.25763" lon="6.62848">
        <ele>1674.997</ele>
        <time>2011-07-10T07:42:40Z</time>
      </trkpt>
      <trkpt lat="44.25743" lon="6.62836">
        <ele>1671.417</ele>
        <time>2011-07-10T07:42:43Z</time>
      </trkpt>
      <trkpt lat="44.25715" lon="6.62802">
        <ele>1665.496</ele>
        <time>2011-07-10T07:42:48Z</time>
      </trkpt>
      <trkpt lat="44.25689" lon="6.62758">
        <ele>1660.385</ele>
        <time>2011-07-10T07:42:53Z</time>
      </trkpt>
      <trkpt lat="44.25685" lon="6.62748">
        <ele>1659.565</ele>
        <time>2011-07-10T07:42:54Z</time>
      </trkpt>
      <trkpt lat="44.2566" lon="6.62719">
        <ele>1656.677</ele>
        <time>2011-07-10T07:42:58Z</time>
      </trkpt>
      <trkpt lat="44.25646" lon="6.62709">
        <ele>1654.897</ele>
        <time>2011-07-10T07:43:00Z</time>
      </trkpt>
      <trkpt lat="44.25627" lon="6.62693">
        <ele>1652.319</ele>
        <time>2011-07-10T07:43:03Z</time>
      </trkpt>
      <trkpt lat="44.2558" lon="6.62662">
        <ele>1645.755</ele>
        <time>2011-07-10T07:43:09Z</time>
      </trkpt>
      <trkpt lat="44.25541" lon="6.62635">
        <ele>1639.21</ele>
        <time>2011-07-10T07:43:14Z</time>
      </trkpt>
      <trkpt lat="44.25533" lon="6.6263">
        <ele>1637.769</ele>
        <time>2011-07-10T07:43:15Z</time>
      </trkpt>
      <trkpt lat="44.25499" lon="6.62612">
        <ele>1631.623</ele>
        <time>2011-07-10T07:43:20Z</time>
      </trkpt>
      <trkpt lat="44.25484" lon="6.62599">
        <ele>1628.406</ele>
        <time>2011-07-10T07:43:24Z</time>
      </trkpt>
      <trkpt lat="44.25473" lon="6.62598">
        <ele>1625.476</ele>
        <time>2011-07-10T07:43:27Z</time>
      </trkpt>
      <trkpt lat="44.25467" lon="6.62596">
        <ele>1623.206</ele>
        <time>2011-07-10T07:43:29Z</time>
      </trkpt>
      <trkpt lat="44.25464" lon="6.62601">
        <ele>1621.008</ele>
        <time>2011-07-10T07:43:32Z</time>
      </trkpt>
      <trkpt lat="44.25465" lon="6.62603">
        <ele>1620.389</ele>
        <time>2011-07-10T07:43:33Z</time>
      </trkpt>
      <trkpt lat="44.25468" lon="6.62606">
        <ele>1619.411</ele>
        <time>2011-07-10T07:43:36Z</time>
      </trkpt>
      <trkpt lat="44.25473" lon="6.62613">
        <ele>1619.859</ele>
        <time>2011-07-10T07:43:42Z</time>
      </trkpt>
      <trkpt lat="44.25474" lon="6.62618">
        <ele>1620.26</ele>
        <time>2011-07-10T07:43:44Z</time>
      </trkpt>
      <trkpt lat="44.25477" lon="6.62618">
        <ele>1621.401</ele>
        <time>2011-07-10T07:43:48Z</time>
      </trkpt>
      <trkpt lat="44.25475" lon="6.62618">
        <ele>1621.76</ele>
        <time>2011-07-10T07:43:54Z</time>
      </trkpt>
      <trkpt lat="44.25473" lon="6.62616">
        <ele>1621.799</ele>
        <time>2011-07-10T07:44:03Z</time>
      </trkpt>
      <trkpt lat="44.25473" lon="6.62615">
        <ele>1622.27</ele>
        <time>2011-07-10T07:44:08Z</time>
      </trkpt>
      <trkpt lat="44.25473" lon="6.62615">
        <ele>1622.4</ele>
        <time>2011-07-10T07:44:09Z</time>
      </trkpt>
      <trkpt lat="44.25467" lon="6.6261">
        <ele>1621.598</ele>
        <time>2011-07-10T07:44:14Z</time>
      </trkpt>
      <trkpt lat="44.25463" lon="6.62611">
        <ele>1620.586</ele>
        <time>2011-07-10T07:44:16Z</time>
      </trkpt>
      <trkpt lat="44.25452" lon="6.62606">
        <ele>1617.283</ele>
        <time>2011-07-10T07:44:21Z</time>
      </trkpt>
      <trkpt lat="44.25439" lon="6.626">
        <ele>1613.06</ele>
        <time>2011-07-10T07:44:26Z</time>
      </trkpt>
      <trkpt lat="44.25416" lon="6.62593">
        <ele>1605.719</ele>
        <time>2011-07-10T07:44:33Z</time>
      </trkpt>
      <trkpt lat="44.25404" lon="6.6259">
        <ele>1602.14</ele>
        <time>2011-07-10T07:44:37Z</time>
      </trkpt>
      <trkpt lat="44.2539" lon="6.62584">
        <ele>1600.292</ele>
        <time>2011-07-10T07:44:42Z</time>
      </trkpt>
      <trkpt lat="44.25379" lon="6.62573">
        <ele>1597.761</ele>
        <time>2011-07-10T07:44:47Z</time>
      </trkpt>
      <trkpt lat="44.25368" lon="6.62565">
        <ele>1594.86</ele>
        <time>2011-07-10T07:44:51Z</time>
      </trkpt>
      <trkpt lat="44.25352" lon="6.62549">
        <ele>1590.798</ele>
        <time>2011-07-10T07:44:56Z</time>
      </trkpt>
      <trkpt lat="44.25346" lon="6.6255">
        <ele>1589.38</ele>
        <time>2011-07-10T07:45:00Z</time>
      </trkpt>
      <trkpt lat="44.25348" lon="6.62549">
        <ele>1588.197</ele>
        <time>2011-07-10T07:45:08Z</time>
      </trkpt>
      <trkpt lat="44.25349" lon="6.62546">
        <ele>1587.598</ele>
        <time>2011-07-10T07:45:13Z</time>
      </trkpt>
      <trkpt lat="44.25349" lon="6.62542">
        <ele>1587.852</ele>
        <time>2011-07-10T07:45:37Z</time>
      </trkpt>
      <trkpt lat="44.25348" lon="6.62542">
        <ele>1589.422</ele>
        <time>2011-07-10T07:45:41Z</time>
      </trkpt>
      <trkpt lat="44.25345" lon="6.62538">
        <ele>1590.11</ele>
        <time>2011-07-10T07:45:46Z</time>
      </trkpt>
      <trkpt lat="44.25344" lon="6.62522">
        <ele>1589.316</ele>
        <time>2011-07-10T07:45:51Z</time>
      </trkpt>
      <trkpt lat="44.25346" lon="6.62511">
        <ele>1588.454</ele>
        <time>2011-07-10T07:45:53Z</time>
      </trkpt>
      <trkpt lat="44.2534" lon="6.62503">
        <ele>1585.521</ele>
        <time>2011-07-10T07:45:58Z</time>
      </trkpt>
      <trkpt lat="44.25334" lon="6.62513">
        <ele>1583.16</ele>
        <time>2011-07-10T07:46:01Z</time>
      </trkpt>
      <trkpt lat="44.25329" lon="6.62532">
        <ele>1581.17</ele>
        <time>2011-07-10T07:46:04Z</time>
      </trkpt>
      <trkpt lat="44.25332" lon="6.6256">
        <ele>1579.242</ele>
        <time>2011-07-10T07:46:09Z</time>
      </trkpt>
      <trkpt lat="44.25333" lon="6.62577">
        <ele>1577.682</ele>
        <time>2011-07-10T07:46:12Z</time>
      </trkpt>
      <trkpt lat="44.25327" lon="6.62578">
        <ele>1576.953</ele>
        <time>2011-07-10T07:46:14Z</time>
      </trkpt>
      <trkpt lat="44.25322" lon="6.6257">
        <ele>1576.553</ele>
        <time>2011-07-10T07:46:16Z</time>
      </trkpt>
      <trkpt lat="44.25317" lon="6.6256">
        <ele>1576.434</ele>
        <time>2011-07-10T07:46:18Z</time>
      </trkpt>
      <trkpt lat="44.25302" lon="6.62561">
        <ele>1572.668</ele>
        <time>2011-07-10T07:46:23Z</time>
      </trkpt>
      <trkpt lat="44.25289" lon="6.62566">
        <ele>1568.685</ele>
        <time>2011-07-10T07:46:27Z</time>
      </trkpt>
      <trkpt lat="44.25274" lon="6.62569">
        <ele>1565.076</ele>
        <time>2011-07-10T07:46:31Z</time>
      </trkpt>
      <trkpt lat="44.25262" lon="6.6257">
        <ele>1561.687</ele>
        <time>2011-07-10T07:46:35Z</time>
      </trkpt>
      <trkpt lat="44.2525" lon="6.62572">
        <ele>1558.356</ele>
        <time>2011-07-10T07:46:39Z</time>
      </trkpt>
      <trkpt lat="44.25239" lon="6.62581">
        <ele>1555.079</ele>
        <time>2011-07-10T07:46:43Z</time>
      </trkpt>
      <trkpt lat="44.25237" lon="6.62586">
        <ele>1553.729</ele>
        <time>2011-07-10T07:46:45Z</time>
      </trkpt>
      <trkpt lat="44.25237" lon="6.62597">
        <ele>1551.64</ele>
        <time>2011-07-10T07:46:49Z</time>
      </trkpt>
      <trkpt lat="44.25236" lon="6.62603">
        <ele>1550.42</ele>
        <time>2011-07-10T07:46:51Z</time>
      </trkpt>
      <trkpt lat="44.25227" lon="6.62607">
        <ele>1548.414</ele>
        <time>2011-07-10T07:46:56Z</time>
      </trkpt>
      <trkpt lat="44.25225" lon="6.62606">
        <ele>1548.265</ele>
        <time>2011-07-10T07:46:57Z</time>
      </trkpt>
      <trkpt lat="44.25214" lon="6.62613">
        <ele>1546.785</ele>
        <time>2011-07-10T07:47:02Z</time>
      </trkpt>
      <trkpt lat="44.25203" lon="6.62607">
        <ele>1546.676</ele>
        <time>2011-07-10T07:47:06Z</time>
      </trkpt>
      <trkpt lat="44.2519" lon="6.62607">
        <ele>1546.376</ele>
        <time>2011-07-10T07:47:12Z</time>
      </trkpt>
      <trkpt lat="44.25184" lon="6.6261">
        <ele>1545.896</ele>
        <time>2011-07-10T07:47:16Z</time>
      </trkpt>
      <trkpt lat="44.25184" lon="6.6261">
        <ele>1545.176</ele>
        <time>2011-07-10T07:47:20Z</time>
      </trkpt>
      <trkpt lat="44.25182" lon="6.62607">
        <ele>1545.832</ele>
        <time>2011-07-10T07:47:58Z</time>
      </trkpt>
      <trkpt lat="44.25183" lon="6.62605">
        <ele>1545.95</ele>
        <time>2011-07-10T07:48:02Z</time>
      </trkpt>
      <trkpt lat="44.25174" lon="6.62609">
        <ele>1542.882</ele>
        <time>2011-07-10T07:48:07Z</time>
      </trkpt>
      <trkpt lat="44.25164" lon="6.6262">
        <ele>1539.619</ele>
        <time>2011-07-10T07:48:12Z</time>
      </trkpt>
      <trkpt lat="44.2515" lon="6.62629">
        <ele>1534.122</ele>
        <time>2011-07-10T07:48:16Z</time>
      </trkpt>
      <trkpt lat="44.25137" lon="6.62648">
        <ele>1531.004</ele>
        <time>2011-07-10T07:48:20Z</time>
      </trkpt>
      <trkpt lat="44.25127" lon="6.62663">
        <ele>1528.306</ele>
        <time>2011-07-10T07:48:25Z</time>
      </trkpt>
      <trkpt lat="44.25127" lon="6.62663">
        <ele>1524.829</ele>
        <time>2011-07-10T07:48:30Z</time>
      </trkpt>
      <trkpt lat="44.25128" lon="6.62663">
        <ele>1524.652</ele>
        <time>2011-07-10T07:48:31Z</time>
      </trkpt>
      <trkpt lat="44.25122" lon="6.62668">
        <ele>1522.13</ele>
        <time>2011-07-10T07:48:36Z</time>
      </trkpt>
      <trkpt lat="44.25121" lon="6.62667">
        <ele>1522.627</ele>
        <time>2011-07-10T07:48:40Z</time>
      </trkpt>
      <trkpt lat="44.25122" lon="6.62664">
        <ele>1522.488</ele>
        <time>2011-07-10T07:48:43Z</time>
      </trkpt>
      <trkpt lat="44.25114" lon="6.62654">
        <ele>1519.504</ele>
        <time>2011-07-10T07:48:47Z</time>
      </trkpt>
      <trkpt lat="44.25114" lon="6.62631">
        <ele>1516.703</ele>
        <time>2011-07-10T07:48:51Z</time>
      </trkpt>
      <trkpt lat="44.25115" lon="6.62629">
        <ele>1515.804</ele>
        <time>2011-07-10T07:48:54Z</time>
      </trkpt>
      <trkpt lat="44.25113" lon="6.62628">
        <ele>1516.94</ele>
        <time>2011-07-10T07:49:17Z</time>
      </trkpt>
      <trkpt lat="44.25111" lon="6.62621">
        <ele>1516.338</ele>
        <time>2011-07-10T07:49:21Z</time>
      </trkpt>
      <trkpt lat="44.25116" lon="6.6261">
        <ele>1514.897</ele>
        <time>2011-07-10T07:49:27Z</time>
      </trkpt>
      <trkpt lat="44.25122" lon="6.626">
        <ele>1514.106</ele>
        <time>2011-07-10T07:49:32Z</time>
      </trkpt>
      <trkpt lat="44.25135" lon="6.62582">
        <ele>1513.175</ele>
        <time>2011-07-10T07:49:37Z</time>
      </trkpt>
      <trkpt lat="44.25155" lon="6.62546">
        <ele>1511.022</ele>
        <time>2011-07-10T07:49:43Z</time>
      </trkpt>
      <trkpt lat="44.25163" lon="6.62531">
        <ele>1510.061</ele>
        <time>2011-07-10T07:49:45Z</time>
      </trkpt>
      <trkpt lat="44.25171" lon="6.62515">
        <ele>1509.461</ele>
        <time>2011-07-10T07:49:47Z</time>
      </trkpt>
      <trkpt lat="44.2518" lon="6.62488">
        <ele>1507.963</ele>
        <time>2011-07-10T07:49:51Z</time>
      </trkpt>
      <trkpt lat="44.25171" lon="6.62483">
        <ele>1506.554</ele>
        <time>2011-07-10T07:49:53Z</time>
      </trkpt>
      <trkpt lat="44.25162" lon="6.62493">
        <ele>1505.941</ele>
        <time>2011-07-10T07:49:55Z</time>
      </trkpt>
      <trkpt lat="44.25151" lon="6.62506">
        <ele>1504.359</ele>
        <time>2011-07-10T07:49:57Z</time>
      </trkpt>
      <trkpt lat="44.2512" lon="6.62541">
        <ele>1500.548</ele>
        <time>2011-07-10T07:50:02Z</time>
      </trkpt>
      <trkpt lat="44.25115" lon="6.62546">
        <ele>1499.477</ele>
        <time>2011-07-10T07:50:03Z</time>
      </trkpt>
      <trkpt lat="44.25099" lon="6.62564">
        <ele>1496.964</ele>
        <time>2011-07-10T07:50:07Z</time>
      </trkpt>
      <trkpt lat="44.25086" lon="6.62565">
        <ele>1494.638</ele>
        <time>2011-07-10T07:50:11Z</time>
      </trkpt>
      <trkpt lat="44.25078" lon="6.62553">
        <ele>1492.331</ele>
        <time>2011-07-10T07:50:16Z</time>
      </trkpt>
      <trkpt lat="44.25068" lon="6.62538">
        <ele>1491.195</ele>
        <time>2011-07-10T07:50:22Z</time>
      </trkpt>
      <trkpt lat="44.25057" lon="6.62522">
        <ele>1489.465</ele>
        <time>2011-07-10T07:50:27Z</time>
      </trkpt>
      <trkpt lat="44.2504" lon="6.62496">
        <ele>1488.214</ele>
        <time>2011-07-10T07:50:32Z</time>
      </trkpt>
      <trkpt lat="44.25016" lon="6.62474">
        <ele>1486.994</ele>
        <time>2011-07-10T07:50:37Z</time>
      </trkpt>
      <trkpt lat="44.25" lon="6.62457">
        <ele>1486.044</ele>
        <time>2011-07-10T07:50:40Z</time>
      </trkpt>
      <trkpt lat="44.24972" lon="6.62444">
        <ele>1484.192</ele>
        <time>2011-07-10T07:50:44Z</time>
      </trkpt>
      <trkpt lat="44.24964" lon="6.62446">
        <ele>1483.573</ele>
        <time>2011-07-10T07:50:45Z</time>
      </trkpt>
      <trkpt lat="44.24914" lon="6.62456">
        <ele>1477.69</ele>
        <time>2011-07-10T07:50:51Z</time>
      </trkpt>
      <trkpt lat="44.24885" lon="6.62441">
        <ele>1476.282</ele>
        <time>2011-07-10T07:50:55Z</time>
      </trkpt>
      <trkpt lat="44.24879" lon="6.62434">
        <ele>1476.463</ele>
        <time>2011-07-10T07:50:56Z</time>
      </trkpt>
      <trkpt lat="44.24849" lon="6.62396">
        <ele>1474.803</ele>
        <time>2011-07-10T07:51:01Z</time>
      </trkpt>
      <trkpt lat="44.24806" lon="6.62363">
        <ele>1471.631</ele>
        <time>2011-07-10T07:51:06Z</time>
      </trkpt>
      <trkpt lat="44.24756" lon="6.62338">
        <ele>1467.049</ele>
        <time>2011-07-10T07:51:11Z</time>
      </trkpt>
      <trkpt lat="44.24686" lon="6.62306">
        <ele>1460.68</ele>
        <time>2011-07-10T07:51:18Z</time>
      </trkpt>
      <trkpt lat="44.24636" lon="6.6229">
        <ele>1455.187</ele>
        <time>2011-07-10T07:51:23Z</time>
      </trkpt>
      <trkpt lat="44.24594" lon="6.62287">
        <ele>1450.897</ele>
        <time>2011-07-10T07:51:27Z</time>
      </trkpt>
      <trkpt lat="44.24574" lon="6.62287">
        <ele>1447.698</ele>
        <time>2011-07-10T07:51:30Z</time>
      </trkpt>
      <trkpt lat="44.24565" lon="6.62288">
        <ele>1445.94</ele>
        <time>2011-07-10T07:51:33Z</time>
      </trkpt>
      <trkpt lat="44.24562" lon="6.62304">
        <ele>1448.546</ele>
        <time>2011-07-10T07:51:39Z</time>
      </trkpt>
      <trkpt lat="44.24557" lon="6.62319">
        <ele>1449.797</ele>
        <time>2011-07-10T07:51:43Z</time>
      </trkpt>
      <trkpt lat="44.24548" lon="6.62346">
        <ele>1450.007</ele>
        <time>2011-07-10T07:51:48Z</time>
      </trkpt>
      <trkpt lat="44.24541" lon="6.62367">
        <ele>1449.847</ele>
        <time>2011-07-10T07:51:52Z</time>
      </trkpt>
      <trkpt lat="44.2453" lon="6.62412">
        <ele>1450.998</ele>
        <time>2011-07-10T07:52:00Z</time>
      </trkpt>
      <trkpt lat="44.24521" lon="6.62443">
        <ele>1453.351</ele>
        <time>2011-07-10T07:52:05Z</time>
      </trkpt>
      <trkpt lat="44.24501" lon="6.62463">
        <ele>1453.38</ele>
        <time>2011-07-10T07:52:10Z</time>
      </trkpt>
      <trkpt lat="44.24492" lon="6.62466">
        <ele>1453.119</ele>
        <time>2011-07-10T07:52:12Z</time>
      </trkpt>
      <trkpt lat="44.24464" lon="6.62467">
        <ele>1452.969</ele>
        <time>2011-07-10T07:52:19Z</time>
      </trkpt>
      <trkpt lat="44.24447" lon="6.62469">
        <ele>1452.487</ele>
        <time>2011-07-10T07:52:25Z</time>
      </trkpt>
      <trkpt lat="44.24441" lon="6.62473">
        <ele>1452.067</ele>
        <time>2011-07-10T07:52:27Z</time>
      </trkpt>
      <trkpt lat="44.24431" lon="6.62482">
        <ele>1448.826</ele>
        <time>2011-07-10T07:52:30Z</time>
      </trkpt>
      <trkpt lat="44.24405" lon="6.62499">
        <ele>1439.576</ele>
        <time>2011-07-10T07:52:36Z</time>
      </trkpt>
      <trkpt lat="44.24375" lon="6.62519">
        <ele>1433.716</ele>
        <time>2011-07-10T07:52:43Z</time>
      </trkpt>
      <trkpt lat="44.24339" lon="6.62546">
        <ele>1429.976</ele>
        <time>2011-07-10T07:52:51Z</time>
      </trkpt>
      <trkpt lat="44.24303" lon="6.62571">
        <ele>1427.947</ele>
        <time>2011-07-10T07:52:59Z</time>
      </trkpt>
      <trkpt lat="44.24277" lon="6.62588">
        <ele>1427.087</ele>
        <time>2011-07-10T07:53:05Z</time>
      </trkpt>
      <trkpt lat="44.24247" lon="6.62615">
        <ele>1426.627</ele>
        <time>2011-07-10T07:53:13Z</time>
      </trkpt>
      <trkpt lat="44.24224" lon="6.62643">
        <ele>1429.459</ele>
        <time>2011-07-10T07:53:20Z</time>
      </trkpt>
      <trkpt lat="44.2421" lon="6.62668">
        <ele>1433.58</ele>
        <time>2011-07-10T07:53:26Z</time>
      </trkpt>
      <trkpt lat="44.24201" lon="6.62679">
        <ele>1435.43</ele>
        <time>2011-07-10T07:53:29Z</time>
      </trkpt>
      <trkpt lat="44.24177" lon="6.62688">
        <ele>1438.419</ele>
        <time>2011-07-10T07:53:35Z</time>
      </trkpt>
      <trkpt lat="44.24157" lon="6.62685">
        <ele>1440.619</ele>
        <time>2011-07-10T07:53:40Z</time>
      </trkpt>
      <trkpt lat="44.24146" lon="6.62672">
        <ele>1440.588</ele>
        <time>2011-07-10T07:53:45Z</time>
      </trkpt>
      <trkpt lat="44.24142" lon="6.62669">
        <ele>1442.879</ele>
        <time>2011-07-10T07:53:49Z</time>
      </trkpt>
      <trkpt lat="44.24141" lon="6.62667">
        <ele>1444.288</ele>
        <time>2011-07-10T07:53:58Z</time>
      </trkpt>
      <trkpt lat="44.24135" lon="6.62657">
        <ele>1445.479</ele>
        <time>2011-07-10T07:54:05Z</time>
      </trkpt>
      <trkpt lat="44.24125" lon="6.62638">
        <ele>1445.938</ele>
        <time>2011-07-10T07:54:11Z</time>
      </trkpt>
      <trkpt lat="44.24111" lon="6.62619">
        <ele>1447.118</ele>
        <time>2011-07-10T07:54:17Z</time>
      </trkpt>
      <trkpt lat="44.24098" lon="6.6261">
        <ele>1448.489</ele>
        <time>2011-07-10T07:54:21Z</time>
      </trkpt>
      <trkpt lat="44.24096" lon="6.62597">
        <ele>1448.016</ele>
        <time>2011-07-10T07:54:24Z</time>
      </trkpt>
      <trkpt lat="44.24097" lon="6.62584">
        <ele>1446.725</ele>
        <time>2011-07-10T07:54:28Z</time>
      </trkpt>
      <trkpt lat="44.24098" lon="6.62567">
        <ele>1444.31</ele>
        <time>2011-07-10T07:54:32Z</time>
      </trkpt>
      <trkpt lat="44.24111" lon="6.62536">
        <ele>1438.302</ele>
        <time>2011-07-10T07:54:36Z</time>
      </trkpt>
      <trkpt lat="44.24137" lon="6.62489">
        <ele>1431.823</ele>
        <time>2011-07-10T07:54:41Z</time>
      </trkpt>
      <trkpt lat="44.24147" lon="6.62471">
        <ele>1430.185</ele>
        <time>2011-07-10T07:54:43Z</time>
      </trkpt>
      <trkpt lat="44.24155" lon="6.6244">
        <ele>1427.407</ele>
        <time>2011-07-10T07:54:47Z</time>
      </trkpt>
      <trkpt lat="44.24148" lon="6.6241">
        <ele>1424.811</ele>
        <time>2011-07-10T07:54:51Z</time>
      </trkpt>
      <trkpt lat="44.24145" lon="6.62404">
        <ele>1424.471</ele>
        <time>2011-07-10T07:54:52Z</time>
      </trkpt>
      <trkpt lat="44.24137" lon="6.62392">
        <ele>1423.892</ele>
        <time>2011-07-10T07:54:54Z</time>
      </trkpt>
      <trkpt lat="44.24112" lon="6.62352">
        <ele>1419.684</ele>
        <time>2011-07-10T07:55:01Z</time>
      </trkpt>
      <trkpt lat="44.24088" lon="6.62306">
        <ele>1419.996</ele>
        <time>2011-07-10T07:55:08Z</time>
      </trkpt>
      <trkpt lat="44.24066" lon="6.62263">
        <ele>1423.189</ele>
        <time>2011-07-10T07:55:15Z</time>
      </trkpt>
      <trkpt lat="44.24072" lon="6.62239">
        <ele>1424.87</ele>
        <time>2011-07-10T07:55:19Z</time>
      </trkpt>
      <trkpt lat="44.24077" lon="6.62235">
        <ele>1425.14</ele>
        <time>2011-07-10T07:55:20Z</time>
      </trkpt>
      <trkpt lat="44.24103" lon="6.62214">
        <ele>1426.978</ele>
        <time>2011-07-10T07:55:27Z</time>
      </trkpt>
      <trkpt lat="44.2411" lon="6.6221">
        <ele>1427.628</ele>
        <time>2011-07-10T07:55:29Z</time>
      </trkpt>
      <trkpt lat="44.24117" lon="6.62222">
        <ele>1426.999</ele>
        <time>2011-07-10T07:55:33Z</time>
      </trkpt>
      <trkpt lat="44.24123" lon="6.62254">
        <ele>1429.438</ele>
        <time>2011-07-10T07:55:39Z</time>
      </trkpt>
      <trkpt lat="44.24131" lon="6.62281">
        <ele>1431.219</ele>
        <time>2011-07-10T07:55:45Z</time>
      </trkpt>
      <trkpt lat="44.24143" lon="6.62282">
        <ele>1432.21</ele>
        <time>2011-07-10T07:55:49Z</time>
      </trkpt>
      <trkpt lat="44.24145" lon="6.62279">
        <ele>1432.09</ele>
        <time>2011-07-10T07:55:50Z</time>
      </trkpt>
      <trkpt lat="44.2415" lon="6.62256">
        <ele>1432.329</ele>
        <time>2011-07-10T07:55:57Z</time>
      </trkpt>
      <trkpt lat="44.24144" lon="6.62248">
        <ele>1432.048</ele>
        <time>2011-07-10T07:56:03Z</time>
      </trkpt>
      <trkpt lat="44.24139" lon="6.62248">
        <ele>1430.257</ele>
        <time>2011-07-10T07:56:08Z</time>
      </trkpt>
      <trkpt lat="44.24141" lon="6.62246">
        <ele>1424.895</ele>
        <time>2011-07-10T07:56:15Z</time>
      </trkpt>
      <trkpt lat="44.24133" lon="6.62243">
        <ele>1426.611</ele>
        <time>2011-07-10T07:57:47Z</time>
      </trkpt>
      <trkpt lat="44.24131" lon="6.62244">
        <ele>1424.503</ele>
        <time>2011-07-10T07:57:53Z</time>
      </trkpt>
      <trkpt lat="44.24129" lon="6.62242">
        <ele>1421.562</ele>
        <time>2011-07-10T07:58:27Z</time>
      </trkpt>
      <trkpt lat="44.24127" lon="6.62235">
        <ele>1421.616</ele>
        <time>2011-07-10T08:03:45Z</time>
      </trkpt>
      <trkpt lat="44.24126" lon="6.62222">
        <ele>1424.921</ele>
        <time>2011-07-10T08:03:53Z</time>
      </trkpt>
      <trkpt lat="44.24124" lon="6.62206">
        <ele>1428.362</ele>
        <time>2011-07-10T08:04:00Z</time>
      </trkpt>
      <trkpt lat="44.24122" lon="6.62184">
        <ele>1433.048</ele>
        <time>2011-07-10T08:04:07Z</time>
      </trkpt>
      <trkpt lat="44.24118" lon="6.62145">
        <ele>1439.766</ele>
        <time>2011-07-10T08:04:17Z</time>
      </trkpt>
      <trkpt lat="44.24113" lon="6.62107">
        <ele>1449.42</ele>
        <time>2011-07-10T08:04:27Z</time>
      </trkpt>
      <trkpt lat="44.24105" lon="6.62049">
        <ele>1462.737</ele>
        <time>2011-07-10T08:04:42Z</time>
      </trkpt>
      <trkpt lat="44.24099" lon="6.61995">
        <ele>1477.865</ele>
        <time>2011-07-10T08:04:57Z</time>
      </trkpt>
      <trkpt lat="44.24094" lon="6.61965">
        <ele>1486.086</ele>
        <time>2011-07-10T08:05:05Z</time>
      </trkpt>
      <trkpt lat="44.24089" lon="6.61935">
        <ele>1496.494</ele>
        <time>2011-07-10T08:05:13Z</time>
      </trkpt>
      <trkpt lat="44.24084" lon="6.61902">
        <ele>1507.045</ele>
        <time>2011-07-10T08:05:22Z</time>
      </trkpt>
      <trkpt lat="44.2408" lon="6.61877">
        <ele>1514.173</ele>
        <time>2011-07-10T08:05:29Z</time>
      </trkpt>
      <trkpt lat="44.24073" lon="6.61823">
        <ele>1523.847</ele>
        <time>2011-07-10T08:05:43Z</time>
      </trkpt>
      <trkpt lat="44.24066" lon="6.61766">
        <ele>1536.84</ele>
        <time>2011-07-10T08:05:58Z</time>
      </trkpt>
      <trkpt lat="44.24059" lon="6.61716">
        <ele>1546.57</ele>
        <time>2011-07-10T08:06:11Z</time>
      </trkpt>
      <trkpt lat="44.24053" lon="6.61693">
        <ele>1552.717</ele>
        <time>2011-07-10T08:06:17Z</time>
      </trkpt>
      <trkpt lat="44.24048" lon="6.61657">
        <ele>1549.458</ele>
        <time>2011-07-10T08:06:26Z</time>
      </trkpt>
      <trkpt lat="44.24045" lon="6.6164">
        <ele>1552.61</ele>
        <time>2011-07-10T08:06:33Z</time>
      </trkpt>
      <trkpt lat="44.24046" lon="6.61637">
        <ele>1552.038</ele>
        <time>2011-07-10T08:06:39Z</time>
      </trkpt>
      <trkpt lat="44.24046" lon="6.61631">
        <ele>1547.883</ele>
        <time>2011-07-10T08:06:46Z</time>
      </trkpt>
      <trkpt lat="44.24045" lon="6.61628">
        <ele>1547.655</ele>
        <time>2011-07-10T08:06:51Z</time>
      </trkpt>
      <trkpt lat="44.24044" lon="6.61624">
        <ele>1549.788</ele>
        <time>2011-07-10T08:06:56Z</time>
      </trkpt>
      <trkpt lat="44.24045" lon="6.6162">
        <ele>1551.227</ele>
        <time>2011-07-10T08:07:01Z</time>
      </trkpt>
      <trkpt lat="44.24044" lon="6.61612">
        <ele>1547.562</ele>
        <time>2011-07-10T08:07:11Z</time>
      </trkpt>
      <trkpt lat="44.24041" lon="6.61607">
        <ele>1542.874</ele>
        <time>2011-07-10T08:07:23Z</time>
      </trkpt>
      <trkpt lat="44.2404" lon="6.61604">
        <ele>1548.855</ele>
        <time>2011-07-10T08:07:44Z</time>
      </trkpt>
      <trkpt lat="44.24039" lon="6.61598">
        <ele>1546.364</ele>
        <time>2011-07-10T08:07:50Z</time>
      </trkpt>
      <trkpt lat="44.24041" lon="6.61594">
        <ele>1547.558</ele>
        <time>2011-07-10T08:08:00Z</time>
      </trkpt>
      <trkpt lat="44.24047" lon="6.61588">
        <ele>1545.362</ele>
        <time>2011-07-10T08:08:20Z</time>
      </trkpt>
      <trkpt lat="44.24051" lon="6.61586">
        <ele>1540.76</ele>
        <time>2011-07-10T08:08:26Z</time>
      </trkpt>
      <trkpt lat="44.24052" lon="6.61583">
        <ele>1537.54</ele>
        <time>2011-07-10T08:08:31Z</time>
      </trkpt>
      <trkpt lat="44.24054" lon="6.61581">
        <ele>1536.624</ele>
        <time>2011-07-10T08:08:38Z</time>
      </trkpt>
      <trkpt lat="44.24054" lon="6.6158">
        <ele>1536.924</ele>
        <time>2011-07-10T08:08:47Z</time>
      </trkpt>
      <trkpt lat="44.24051" lon="6.6158">
        <ele>1535.815</ele>
        <time>2011-07-10T08:08:53Z</time>
      </trkpt>
      <trkpt lat="44.24049" lon="6.61579">
        <ele>1533.211</ele>
        <time>2011-07-10T08:09:15Z</time>
      </trkpt>
      <trkpt lat="44.24051" lon="6.6158">
        <ele>1533.492</ele>
        <time>2011-07-10T08:09:18Z</time>
      </trkpt>
      <trkpt lat="44.24052" lon="6.61579">
        <ele>1530.821</ele>
        <time>2011-07-10T08:09:23Z</time>
      </trkpt>
      <trkpt lat="44.24053" lon="6.61581">
        <ele>1529.271</ele>
        <time>2011-07-10T08:09:30Z</time>
      </trkpt>
      <trkpt lat="44.2406" lon="6.61582">
        <ele>1530.995</ele>
        <time>2011-07-10T08:09:45Z</time>
      </trkpt>
      <trkpt lat="44.24057" lon="6.61576">
        <ele>1534.543</ele>
        <time>2011-07-10T08:10:06Z</time>
      </trkpt>
      <trkpt lat="44.24057" lon="6.61576">
        <ele>1528.842</ele>
        <time>2011-07-10T08:10:22Z</time>
      </trkpt>
      <trkpt lat="44.24061" lon="6.6158">
        <ele>1526.929</ele>
        <time>2011-07-10T08:10:36Z</time>
      </trkpt>
      <trkpt lat="44.24055" lon="6.61581">
        <ele>1526.222</ele>
        <time>2011-07-10T08:10:43Z</time>
      </trkpt>
      <trkpt lat="44.24055" lon="6.6158">
        <ele>1526.073</ele>
        <time>2011-07-10T08:10:48Z</time>
      </trkpt>
      <trkpt lat="44.24063" lon="6.61573">
        <ele>1530.207</ele>
        <time>2011-07-10T08:10:53Z</time>
      </trkpt>
      <trkpt lat="44.24057" lon="6.61576">
        <ele>1533.956</ele>
        <time>2011-07-10T08:12:15Z</time>
      </trkpt>
      <trkpt lat="44.2406" lon="6.61575">
        <ele>1535.507</ele>
        <time>2011-07-10T08:12:23Z</time>
      </trkpt>
      <trkpt lat="44.24066" lon="6.61574">
        <ele>1538.829</ele>
        <time>2011-07-10T08:12:31Z</time>
      </trkpt>
      <trkpt lat="44.24067" lon="6.61577">
        <ele>1537.594</ele>
        <time>2011-07-10T08:12:41Z</time>
      </trkpt>
      <trkpt lat="44.24062" lon="6.61576">
        <ele>1538.974</ele>
        <time>2011-07-10T08:12:51Z</time>
      </trkpt>
      <trkpt lat="44.24063" lon="6.61574">
        <ele>1541.825</ele>
        <time>2011-07-10T08:13:09Z</time>
      </trkpt>
      <trkpt lat="44.24065" lon="6.61576">
        <ele>1534.491</ele>
        <time>2011-07-10T08:13:29Z</time>
      </trkpt>
      <trkpt lat="44.24058" lon="6.61576">
        <ele>1535.644</ele>
        <time>2011-07-10T08:13:36Z</time>
      </trkpt>
      <trkpt lat="44.2406" lon="6.61581">
        <ele>1540.185</ele>
        <time>2011-07-10T08:13:58Z</time>
      </trkpt>
      <trkpt lat="44.24059" lon="6.61579">
        <ele>1537.334</ele>
        <time>2011-07-10T08:14:03Z</time>
      </trkpt>
      <trkpt lat="44.24056" lon="6.61576">
        <ele>1531.564</ele>
        <time>2011-07-10T08:14:33Z</time>
      </trkpt>
      <trkpt lat="44.24053" lon="6.61566">
        <ele>1530.934</ele>
        <time>2011-07-10T08:14:39Z</time>
      </trkpt>
      <trkpt lat="44.24056" lon="6.61562">
        <ele>1530.322</ele>
        <time>2011-07-10T08:14:41Z</time>
      </trkpt>
      <trkpt lat="44.24063" lon="6.61557">
        <ele>1529.22</ele>
        <time>2011-07-10T08:14:43Z</time>
      </trkpt>
      <trkpt lat="44.24085" lon="6.61554">
        <ele>1531.744</ele>
        <time>2011-07-10T08:14:47Z</time>
      </trkpt>
      <trkpt lat="44.24111" lon="6.61554">
        <ele>1534.951</ele>
        <time>2011-07-10T08:14:51Z</time>
      </trkpt>
      <trkpt lat="44.24142" lon="6.61544">
        <ele>1532.724</ele>
        <time>2011-07-10T08:14:56Z</time>
      </trkpt>
      <trkpt lat="44.24165" lon="6.61548">
        <ele>1533.565</ele>
        <time>2011-07-10T08:15:00Z</time>
      </trkpt>
      <trkpt lat="44.24169" lon="6.61546">
        <ele>1534.874</ele>
        <time>2011-07-10T08:15:03Z</time>
      </trkpt>
      <trkpt lat="44.24167" lon="6.61552">
        <ele>1527.263</ele>
        <time>2011-07-10T08:15:26Z</time>
      </trkpt>
      <trkpt lat="44.2417" lon="6.61555">
        <ele>1508.799</ele>
        <time>2011-07-10T08:16:52Z</time>
      </trkpt>
      <trkpt lat="44.24168" lon="6.6155">
        <ele>1509.914</ele>
        <time>2011-07-10T08:17:01Z</time>
      </trkpt>
      <trkpt lat="44.24162" lon="6.61552">
        <ele>1518.362</ele>
        <time>2011-07-10T08:17:07Z</time>
      </trkpt>
      <trkpt lat="44.24159" lon="6.61558">
        <ele>1515.993</ele>
        <time>2011-07-10T08:17:14Z</time>
      </trkpt>
      <trkpt lat="44.24158" lon="6.61558">
        <ele>1517.034</ele>
        <time>2011-07-10T08:17:17Z</time>
      </trkpt>
      <trkpt lat="44.24149" lon="6.61541">
        <ele>1520.287</ele>
        <time>2011-07-10T08:17:22Z</time>
      </trkpt>
      <trkpt lat="44.24133" lon="6.61527">
        <ele>1526.401</ele>
        <time>2011-07-10T08:17:27Z</time>
      </trkpt>
      <trkpt lat="44.24105" lon="6.61509">
        <ele>1532.973</ele>
        <time>2011-07-10T08:17:35Z</time>
      </trkpt>
      <trkpt lat="44.2408" lon="6.61496">
        <ele>1541.789</ele>
        <time>2011-07-10T08:17:43Z</time>
      </trkpt>
      <trkpt lat="44.24056" lon="6.61485">
        <ele>1551.119</ele>
        <time>2011-07-10T08:17:50Z</time>
      </trkpt>
      <trkpt lat="44.24026" lon="6.61469">
        <ele>1562.221</ele>
        <time>2011-07-10T08:17:59Z</time>
      </trkpt>
      <trkpt lat="44.23999" lon="6.61456">
        <ele>1569.421</ele>
        <time>2011-07-10T08:18:07Z</time>
      </trkpt>
      <trkpt lat="44.23972" lon="6.61444">
        <ele>1576.526</ele>
        <time>2011-07-10T08:18:15Z</time>
      </trkpt>
      <trkpt lat="44.23944" lon="6.61432">
        <ele>1586.21</ele>
        <time>2011-07-10T08:18:24Z</time>
      </trkpt>
      <trkpt lat="44.23912" lon="6.61416">
        <ele>1599.864</ele>
        <time>2011-07-10T08:18:34Z</time>
      </trkpt>
      <trkpt lat="44.23877" lon="6.61403">
        <ele>1612.241</ele>
        <time>2011-07-10T08:18:44Z</time>
      </trkpt>
      <trkpt lat="44.23848" lon="6.61391">
        <ele>1618.696</ele>
        <time>2011-07-10T08:18:53Z</time>
      </trkpt>
      <trkpt lat="44.23817" lon="6.61376">
        <ele>1621.623</ele>
        <time>2011-07-10T08:19:03Z</time>
      </trkpt>
      <trkpt lat="44.23783" lon="6.61364">
        <ele>1635.582</ele>
        <time>2011-07-10T08:19:13Z</time>
      </trkpt>
      <trkpt lat="44.23756" lon="6.61353">
        <ele>1643.707</ele>
        <time>2011-07-10T08:19:21Z</time>
      </trkpt>
      <trkpt lat="44.23717" lon="6.61335">
        <ele>1656.527</ele>
        <time>2011-07-10T08:19:33Z</time>
      </trkpt>
      <trkpt lat="44.23689" lon="6.61322">
        <ele>1665.946</ele>
        <time>2011-07-10T08:19:42Z</time>
      </trkpt>
      <trkpt lat="44.23663" lon="6.6131">
        <ele>1670.966</ele>
        <time>2011-07-10T08:19:50Z</time>
      </trkpt>
      <trkpt lat="44.23631" lon="6.61289">
        <ele>1685.653</ele>
        <time>2011-07-10T08:20:00Z</time>
      </trkpt>
      <trkpt lat="44.23594" lon="6.61267">
        <ele>1703.636</ele>
        <time>2011-07-10T08:20:12Z</time>
      </trkpt>
      <trkpt lat="44.23569" lon="6.61254">
        <ele>1716.667</ele>
        <time>2011-07-10T08:20:20Z</time>
      </trkpt>
      <trkpt lat="44.23552" lon="6.61244">
        <ele>1724.26</ele>
        <time>2011-07-10T08:20:26Z</time>
      </trkpt>
      <trkpt lat="44.23531" lon="6.61233">
        <ele>1737.823</ele>
        <time>2011-07-10T08:20:34Z</time>
      </trkpt>
      <trkpt lat="44.23505" lon="6.61222">
        <ele>1749.41</ele>
        <time>2011-07-10T08:20:42Z</time>
      </trkpt>
      <trkpt lat="44.2348" lon="6.6121">
        <ele>1759.937</ele>
        <time>2011-07-10T08:20:50Z</time>
      </trkpt>
      <trkpt lat="44.23452" lon="6.61195">
        <ele>1773.517</ele>
        <time>2011-07-10T08:20:59Z</time>
      </trkpt>
      <trkpt lat="44.23427" lon="6.61184">
        <ele>1788.214</ele>
        <time>2011-07-10T08:21:07Z</time>
      </trkpt>
      <trkpt lat="44.23404" lon="6.61172">
        <ele>1798.167</ele>
        <time>2011-07-10T08:21:14Z</time>
      </trkpt>
      <trkpt lat="44.2338" lon="6.6116">
        <ele>1815.971</ele>
        <time>2011-07-10T08:21:22Z</time>
      </trkpt>
      <trkpt lat="44.23358" lon="6.6115">
        <ele>1829.636</ele>
        <time>2011-07-10T08:21:29Z</time>
      </trkpt>
      <trkpt lat="44.23336" lon="6.61142">
        <ele>1839.595</ele>
        <time>2011-07-10T08:21:36Z</time>
      </trkpt>
      <trkpt lat="44.23312" lon="6.61135">
        <ele>1843.098</ele>
        <time>2011-07-10T08:21:43Z</time>
      </trkpt>
      <trkpt lat="44.23282" lon="6.6112">
        <ele>1847.514</ele>
        <time>2011-07-10T08:21:52Z</time>
      </trkpt>
      <trkpt lat="44.23252" lon="6.61105">
        <ele>1854.496</ele>
        <time>2011-07-10T08:22:01Z</time>
      </trkpt>
      <trkpt lat="44.23222" lon="6.61091">
        <ele>1863.978</ele>
        <time>2011-07-10T08:22:10Z</time>
      </trkpt>
      <trkpt lat="44.23191" lon="6.61076">
        <ele>1876.682</ele>
        <time>2011-07-10T08:22:19Z</time>
      </trkpt>
      <trkpt lat="44.23166" lon="6.61065">
        <ele>1886.361</ele>
        <time>2011-07-10T08:22:27Z</time>
      </trkpt>
      <trkpt lat="44.23141" lon="6.61052">
        <ele>1897.953</ele>
        <time>2011-07-10T08:22:35Z</time>
      </trkpt>
      <trkpt lat="44.23121" lon="6.61041">
        <ele>1908.771</ele>
        <time>2011-07-10T08:22:42Z</time>
      </trkpt>
      <trkpt lat="44.23104" lon="6.61034">
        <ele>1912.906</ele>
        <time>2011-07-10T08:22:47Z</time>
      </trkpt>
      <trkpt lat="44.23103" lon="6.61033">
        <ele>1917.117</ele>
        <time>2011-07-10T08:22:49Z</time>
      </trkpt>
      <trkpt lat="44.23089" lon="6.61018">
        <ele>1916.027</ele>
        <time>2011-07-10T08:22:56Z</time>
      </trkpt>
      <trkpt lat="44.23089" lon="6.61027">
        <ele>1915.956</ele>
        <time>2011-07-10T08:23:00Z</time>
      </trkpt>
      <trkpt lat="44.23091" lon="6.61031">
        <ele>1913.571</ele>
        <time>2011-07-10T08:23:07Z</time>
      </trkpt>
      <trkpt lat="44.23089" lon="6.61028">
        <ele>1902.631</ele>
        <time>2011-07-10T08:23:13Z</time>
      </trkpt>
      <trkpt lat="44.23089" lon="6.61025">
        <ele>1892.529</ele>
        <time>2011-07-10T08:23:20Z</time>
      </trkpt>
      <trkpt lat="44.23091" lon="6.61024">
        <ele>1893.456</ele>
        <time>2011-07-10T08:23:29Z</time>
      </trkpt>
      <trkpt lat="44.2309" lon="6.61027">
        <ele>1885.499</ele>
        <time>2011-07-10T08:23:34Z</time>
      </trkpt>
      <trkpt lat="44.23095" lon="6.61028">
        <ele>1884.567</ele>
        <time>2011-07-10T08:23:40Z</time>
      </trkpt>
      <trkpt lat="44.23095" lon="6.61033">
        <ele>1886.281</ele>
        <time>2011-07-10T08:23:46Z</time>
      </trkpt>
      <trkpt lat="44.23092" lon="6.61041">
        <ele>1894.097</ele>
        <time>2011-07-10T08:23:53Z</time>
      </trkpt>
      <trkpt lat="44.23089" lon="6.61035">
        <ele>1889.86</ele>
        <time>2011-07-10T08:24:09Z</time>
      </trkpt>
      <trkpt lat="44.23083" lon="6.61029">
        <ele>1873.776</ele>
        <time>2011-07-10T08:24:15Z</time>
      </trkpt>
      <trkpt lat="44.23072" lon="6.61027">
        <ele>1852.378</ele>
        <time>2011-07-10T08:24:22Z</time>
      </trkpt>
      <trkpt lat="44.23072" lon="6.61028">
        <ele>1862.636</ele>
        <time>2011-07-10T08:24:27Z</time>
      </trkpt>
      <trkpt lat="44.23074" lon="6.61018">
        <ele>1881.15</ele>
        <time>2011-07-10T08:24:33Z</time>
      </trkpt>
      <trkpt lat="44.2308" lon="6.61016">
        <ele>1895.388</ele>
        <time>2011-07-10T08:24:39Z</time>
      </trkpt>
      <trkpt lat="44.23083" lon="6.61014">
        <ele>1910.354</ele>
        <time>2011-07-10T08:24:56Z</time>
      </trkpt>
      <trkpt lat="44.23081" lon="6.61002">
        <ele>1917.317</ele>
        <time>2011-07-10T08:25:43Z</time>
      </trkpt>
      <trkpt lat="44.23076" lon="6.60984">
        <ele>1916.774</ele>
        <time>2011-07-10T08:25:49Z</time>
      </trkpt>
      <trkpt lat="44.23063" lon="6.60974">
        <ele>1917.225</ele>
        <time>2011-07-10T08:25:54Z</time>
      </trkpt>
      <trkpt lat="44.23045" lon="6.60971">
        <ele>1915.872</ele>
        <time>2011-07-10T08:26:00Z</time>
      </trkpt>
      <trkpt lat="44.23034" lon="6.60962">
        <ele>1914.98</ele>
        <time>2011-07-10T08:26:05Z</time>
      </trkpt>
      <trkpt lat="44.2303" lon="6.60954">
        <ele>1914.238</ele>
        <time>2011-07-10T08:26:07Z</time>
      </trkpt>
      <trkpt lat="44.23027" lon="6.60927">
        <ele>1912.497</ele>
        <time>2011-07-10T08:26:11Z</time>
      </trkpt>
      <trkpt lat="44.23017" lon="6.60878">
        <ele>1903.58</ele>
        <time>2011-07-10T08:26:17Z</time>
      </trkpt>
      <trkpt lat="44.23008" lon="6.60857">
        <ele>1899.837</ele>
        <time>2011-07-10T08:26:20Z</time>
      </trkpt>
      <trkpt lat="44.23" lon="6.60842">
        <ele>1898.458</ele>
        <time>2011-07-10T08:26:22Z</time>
      </trkpt>
      <trkpt lat="44.22973" lon="6.60834">
        <ele>1895.151</ele>
        <time>2011-07-10T08:26:26Z</time>
      </trkpt>
      <trkpt lat="44.22955" lon="6.60861">
        <ele>1897.116</ele>
        <time>2011-07-10T08:26:29Z</time>
      </trkpt>
      <trkpt lat="44.2295" lon="6.60896">
        <ele>1896.463</ele>
        <time>2011-07-10T08:26:32Z</time>
      </trkpt>
      <trkpt lat="44.2295" lon="6.60971">
        <ele>1881.183</ele>
        <time>2011-07-10T08:26:38Z</time>
      </trkpt>
      <trkpt lat="44.22944" lon="6.61047">
        <ele>1872.253</ele>
        <time>2011-07-10T08:26:44Z</time>
      </trkpt>
      <trkpt lat="44.22939" lon="6.61105">
        <ele>1870.102</ele>
        <time>2011-07-10T08:26:49Z</time>
      </trkpt>
      <trkpt lat="44.22943" lon="6.61135">
        <ele>1871.338</ele>
        <time>2011-07-10T08:26:53Z</time>
      </trkpt>
      <trkpt lat="44.22945" lon="6.61137">
        <ele>1872.05</ele>
        <time>2011-07-10T08:26:57Z</time>
      </trkpt>
      <trkpt lat="44.22946" lon="6.61135">
        <ele>1870.819</ele>
        <time>2011-07-10T08:27:04Z</time>
      </trkpt>
      <trkpt lat="44.22947" lon="6.61129">
        <ele>1865.558</ele>
        <time>2011-07-10T08:27:12Z</time>
      </trkpt>
      <trkpt lat="44.22949" lon="6.61129">
        <ele>1866.531</ele>
        <time>2011-07-10T08:27:19Z</time>
      </trkpt>
      <trkpt lat="44.22946" lon="6.61123">
        <ele>1858.258</ele>
        <time>2011-07-10T08:27:39Z</time>
      </trkpt>
      <trkpt lat="44.22943" lon="6.61118">
        <ele>1858.901</ele>
        <time>2011-07-10T08:27:46Z</time>
      </trkpt>
      <trkpt lat="44.22943" lon="6.61116">
        <ele>1855.789</ele>
        <time>2011-07-10T08:27:49Z</time>
      </trkpt>
      <trkpt lat="44.22944" lon="6.61106">
        <ele>1858.494</ele>
        <time>2011-07-10T08:27:54Z</time>
      </trkpt>
      <trkpt lat="44.22945" lon="6.61097">
        <ele>1864.367</ele>
        <time>2011-07-10T08:28:00Z</time>
      </trkpt>
      <trkpt lat="44.22947" lon="6.61087">
        <ele>1867.938</ele>
        <time>2011-07-10T08:28:06Z</time>
      </trkpt>
      <trkpt lat="44.22947" lon="6.61072">
        <ele>1875.817</ele>
        <time>2011-07-10T08:28:14Z</time>
      </trkpt>
      <trkpt lat="44.22948" lon="6.61053">
        <ele>1877.224</ele>
        <time>2011-07-10T08:28:23Z</time>
      </trkpt>
      <trkpt lat="44.22948" lon="6.61023">
        <ele>1878.904</ele>
        <time>2011-07-10T08:28:38Z</time>
      </trkpt>
      <trkpt lat="44.22948" lon="6.61">
        <ele>1879.413</ele>
        <time>2011-07-10T08:28:49Z</time>
      </trkpt>
      <trkpt lat="44.22949" lon="6.60981">
        <ele>1880.624</ele>
        <time>2011-07-10T08:28:59Z</time>
      </trkpt>
      <trkpt lat="44.22949" lon="6.60957">
        <ele>1883.995</ele>
        <time>2011-07-10T08:29:12Z</time>
      </trkpt>
      <trkpt lat="44.22949" lon="6.60935">
        <ele>1887.617</ele>
        <time>2011-07-10T08:29:23Z</time>
      </trkpt>
      <trkpt lat="44.22949" lon="6.60917">
        <ele>1892.237</ele>
        <time>2011-07-10T08:29:33Z</time>
      </trkpt>
      <trkpt lat="44.2295" lon="6.60894">
        <ele>1896.817</ele>
        <time>2011-07-10T08:29:45Z</time>
      </trkpt>
      <trkpt lat="44.2295" lon="6.60872">
        <ele>1899.817</ele>
        <time>2011-07-10T08:29:56Z</time>
      </trkpt>
      <trkpt lat="44.22949" lon="6.60855">
        <ele>1905.278</ele>
        <time>2011-07-10T08:30:05Z</time>
      </trkpt>
      <trkpt lat="44.22949" lon="6.60837">
        <ele>1911.029</ele>
        <time>2011-07-10T08:30:15Z</time>
      </trkpt>
      <trkpt lat="44.2295" lon="6.60818">
        <ele>1916.437</ele>
        <time>2011-07-10T08:30:25Z</time>
      </trkpt>
      <trkpt lat="44.2295" lon="6.60797">
        <ele>1923.719</ele>
        <time>2011-07-10T08:30:37Z</time>
      </trkpt>
      <trkpt lat="44.2295" lon="6.60779">
        <ele>1929.259</ele>
        <time>2011-07-10T08:30:47Z</time>
      </trkpt>
      <trkpt lat="44.2295" lon="6.60762">
        <ele>1934.841</ele>
        <time>2011-07-10T08:30:56Z</time>
      </trkpt>
      <trkpt lat="44.22949" lon="6.60735">
        <ele>1947.092</ele>
        <time>2011-07-10T08:31:11Z</time>
      </trkpt>
      <trkpt lat="44.22949" lon="6.60712">
        <ele>1956.872</ele>
        <time>2011-07-10T08:31:24Z</time>
      </trkpt>
      <trkpt lat="44.2295" lon="6.60685">
        <ele>1967.212</ele>
        <time>2011-07-10T08:31:40Z</time>
      </trkpt>
      <trkpt lat="44.2295" lon="6.60661">
        <ele>1979.112</ele>
        <time>2011-07-10T08:31:54Z</time>
      </trkpt>
      <trkpt lat="44.22951" lon="6.60643">
        <ele>1986.239</ele>
        <time>2011-07-10T08:32:05Z</time>
      </trkpt>
      <trkpt lat="44.2295" lon="6.60629">
        <ele>1992.983</ele>
        <time>2011-07-10T08:32:13Z</time>
      </trkpt>
      <trkpt lat="44.22949" lon="6.6061">
        <ele>2003.454</ele>
        <time>2011-07-10T08:32:23Z</time>
      </trkpt>
      <trkpt lat="44.22951" lon="6.60597">
        <ele>2006.351</ele>
        <time>2011-07-10T08:32:32Z</time>
      </trkpt>
      <trkpt lat="44.22951" lon="6.60579">
        <ele>2015.174</ele>
        <time>2011-07-10T08:32:43Z</time>
      </trkpt>
      <trkpt lat="44.22952" lon="6.60561">
        <ele>2022.981</ele>
        <time>2011-07-10T08:32:54Z</time>
      </trkpt>
      <trkpt lat="44.22953" lon="6.60541">
        <ele>2031.132</ele>
        <time>2011-07-10T08:33:05Z</time>
      </trkpt>
      <trkpt lat="44.22952" lon="6.60522">
        <ele>2036.535</ele>
        <time>2011-07-10T08:33:15Z</time>
      </trkpt>
      <trkpt lat="44.22953" lon="6.60501">
        <ele>2038.324</ele>
        <time>2011-07-10T08:33:26Z</time>
      </trkpt>
      <trkpt lat="44.22951" lon="6.60487">
        <ele>2043.346</ele>
        <time>2011-07-10T08:33:37Z</time>
      </trkpt>
      <trkpt lat="44.22951" lon="6.60466">
        <ele>2039.883</ele>
        <time>2011-07-10T08:33:46Z</time>
      </trkpt>
      <trkpt lat="44.22951" lon="6.60449">
        <ele>2042.454</ele>
        <time>2011-07-10T08:33:54Z</time>
      </trkpt>
      <trkpt lat="44.22952" lon="6.60433">
        <ele>2042.622</ele>
        <time>2011-07-10T08:34:02Z</time>
      </trkpt>
      <trkpt lat="44.22953" lon="6.60418">
        <ele>2043.181</ele>
        <time>2011-07-10T08:34:10Z</time>
      </trkpt>
      <trkpt lat="44.22953" lon="6.60405">
        <ele>2042.52</ele>
        <time>2011-07-10T08:34:17Z</time>
      </trkpt>
      <trkpt lat="44.22955" lon="6.60387">
        <ele>2044</ele>
        <time>2011-07-10T08:34:26Z</time>
      </trkpt>
      <trkpt lat="44.22955" lon="6.60365">
        <ele>2051.425</ele>
        <time>2011-07-10T08:34:37Z</time>
      </trkpt>
      <trkpt lat="44.22955" lon="6.60349">
        <ele>2057.667</ele>
        <time>2011-07-10T08:34:45Z</time>
      </trkpt>
      <trkpt lat="44.22954" lon="6.60339">
        <ele>2059.317</ele>
        <time>2011-07-10T08:34:54Z</time>
      </trkpt>
      <trkpt lat="44.22953" lon="6.60331">
        <ele>2063.418</ele>
        <time>2011-07-10T08:35:00Z</time>
      </trkpt>
      <trkpt lat="44.22954" lon="6.6032">
        <ele>2068.263</ele>
        <time>2011-07-10T08:35:07Z</time>
      </trkpt>
      <trkpt lat="44.22955" lon="6.60316">
        <ele>2071.009</ele>
        <time>2011-07-10T08:35:12Z</time>
      </trkpt>
      <trkpt lat="44.22957" lon="6.60294">
        <ele>2079.082</ele>
        <time>2011-07-10T08:35:24Z</time>
      </trkpt>
      <trkpt lat="44.22956" lon="6.60277">
        <ele>2089.784</ele>
        <time>2011-07-10T08:35:33Z</time>
      </trkpt>
      <trkpt lat="44.22956" lon="6.60262">
        <ele>2099.967</ele>
        <time>2011-07-10T08:35:43Z</time>
      </trkpt>
      <trkpt lat="44.22957" lon="6.6024">
        <ele>2113.516</ele>
        <time>2011-07-10T08:35:57Z</time>
      </trkpt>
      <trkpt lat="44.22955" lon="6.60224">
        <ele>2123.965</ele>
        <time>2011-07-10T08:36:06Z</time>
      </trkpt>
      <trkpt lat="44.22956" lon="6.60212">
        <ele>2129.852</ele>
        <time>2011-07-10T08:36:14Z</time>
      </trkpt>
      <trkpt lat="44.22957" lon="6.60199">
        <ele>2133.06</ele>
        <time>2011-07-10T08:36:22Z</time>
      </trkpt>
      <trkpt lat="44.22956" lon="6.60177">
        <ele>2140.231</ele>
        <time>2011-07-10T08:36:31Z</time>
      </trkpt>
      <trkpt lat="44.22953" lon="6.60166">
        <ele>2150.456</ele>
        <time>2011-07-10T08:36:39Z</time>
      </trkpt>
      <trkpt lat="44.22953" lon="6.60149">
        <ele>2157.404</ele>
        <time>2011-07-10T08:36:47Z</time>
      </trkpt>
      <trkpt lat="44.22953" lon="6.60129">
        <ele>2167.913</ele>
        <time>2011-07-10T08:36:59Z</time>
      </trkpt>
      <trkpt lat="44.22955" lon="6.60117">
        <ele>2167.997</ele>
        <time>2011-07-10T08:37:06Z</time>
      </trkpt>
      <trkpt lat="44.22957" lon="6.60105">
        <ele>2167.037</ele>
        <time>2011-07-10T08:37:10Z</time>
      </trkpt>
      <trkpt lat="44.2296" lon="6.60093">
        <ele>2168.196</ele>
        <time>2011-07-10T08:37:17Z</time>
      </trkpt>
      <trkpt lat="44.22961" lon="6.60072">
        <ele>2173.258</ele>
        <time>2011-07-10T08:37:29Z</time>
      </trkpt>
      <trkpt lat="44.22963" lon="6.60053">
        <ele>2175.406</ele>
        <time>2011-07-10T08:37:40Z</time>
      </trkpt>
      <trkpt lat="44.22962" lon="6.60026">
        <ele>2184.848</ele>
        <time>2011-07-10T08:37:55Z</time>
      </trkpt>
      <trkpt lat="44.22961" lon="6.60002">
        <ele>2195.786</ele>
        <time>2011-07-10T08:38:07Z</time>
      </trkpt>
      <trkpt lat="44.22962" lon="6.5998">
        <ele>2203.608</ele>
        <time>2011-07-10T08:38:19Z</time>
      </trkpt>
      <trkpt lat="44.22965" lon="6.59961">
        <ele>2208.067</ele>
        <time>2011-07-10T08:38:31Z</time>
      </trkpt>
      <trkpt lat="44.22967" lon="6.59946">
        <ele>2213.198</ele>
        <time>2011-07-10T08:38:41Z</time>
      </trkpt>
      <trkpt lat="44.22968" lon="6.59921">
        <ele>2223.49</ele>
        <time>2011-07-10T08:38:56Z</time>
      </trkpt>
      <trkpt lat="44.22968" lon="6.59897">
        <ele>2234.812</ele>
        <time>2011-07-10T08:39:10Z</time>
      </trkpt>
      <trkpt lat="44.2297" lon="6.59877">
        <ele>2244.78</ele>
        <time>2011-07-10T08:39:23Z</time>
      </trkpt>
      <trkpt lat="44.2297" lon="6.59854">
        <ele>2255.432</ele>
        <time>2011-07-10T08:39:37Z</time>
      </trkpt>
      <trkpt lat="44.22968" lon="6.59833">
        <ele>2265.189</ele>
        <time>2011-07-10T08:39:47Z</time>
      </trkpt>
      <trkpt lat="44.22967" lon="6.59815">
        <ele>2273.449</ele>
        <time>2011-07-10T08:39:57Z</time>
      </trkpt>
      <trkpt lat="44.22967" lon="6.59795">
        <ele>2280.177</ele>
        <time>2011-07-10T08:40:08Z</time>
      </trkpt>
      <trkpt lat="44.22968" lon="6.59772">
        <ele>2285.377</ele>
        <time>2011-07-10T08:40:20Z</time>
      </trkpt>
      <trkpt lat="44.22968" lon="6.59748">
        <ele>2292.497</ele>
        <time>2011-07-10T08:40:33Z</time>
      </trkpt>
      <trkpt lat="44.22967" lon="6.59723">
        <ele>2303.249</ele>
        <time>2011-07-10T08:40:45Z</time>
      </trkpt>
      <trkpt lat="44.22968" lon="6.59705">
        <ele>2306.667</ele>
        <time>2011-07-10T08:40:55Z</time>
      </trkpt>
      <trkpt lat="44.22969" lon="6.59683">
        <ele>2312.04</ele>
        <time>2011-07-10T08:41:07Z</time>
      </trkpt>
      <trkpt lat="44.2297" lon="6.59664">
        <ele>2317.698</ele>
        <time>2011-07-10T08:41:18Z</time>
      </trkpt>
      <trkpt lat="44.22971" lon="6.5964">
        <ele>2323.548</ele>
        <time>2011-07-10T08:41:31Z</time>
      </trkpt>
      <trkpt lat="44.22972" lon="6.59622">
        <ele>2328.717</ele>
        <time>2011-07-10T08:41:41Z</time>
      </trkpt>
      <trkpt lat="44.22972" lon="6.59601">
        <ele>2334.717</ele>
        <time>2011-07-10T08:41:53Z</time>
      </trkpt>
      <trkpt lat="44.22973" lon="6.59583">
        <ele>2339.887</ele>
        <time>2011-07-10T08:42:03Z</time>
      </trkpt>
      <trkpt lat="44.22973" lon="6.59561">
        <ele>2346.438</ele>
        <time>2011-07-10T08:42:15Z</time>
      </trkpt>
      <trkpt lat="44.22974" lon="6.59536">
        <ele>2354.357</ele>
        <time>2011-07-10T08:42:29Z</time>
      </trkpt>
      <trkpt lat="44.22972" lon="6.59516">
        <ele>2362.528</ele>
        <time>2011-07-10T08:42:38Z</time>
      </trkpt>
      <trkpt lat="44.2297" lon="6.59501">
        <ele>2370.866</ele>
        <time>2011-07-10T08:42:46Z</time>
      </trkpt>
      <trkpt lat="44.22969" lon="6.59489">
        <ele>2373.173</ele>
        <time>2011-07-10T08:42:52Z</time>
      </trkpt>
      <trkpt lat="44.22968" lon="6.5947">
        <ele>2376.131</ele>
        <time>2011-07-10T08:43:02Z</time>
      </trkpt>
      <trkpt lat="44.22969" lon="6.59466">
        <ele>2378.093</ele>
        <time>2011-07-10T08:43:07Z</time>
      </trkpt>
      <trkpt lat="44.22969" lon="6.59464">
        <ele>2377.638</ele>
        <time>2011-07-10T08:43:11Z</time>
      </trkpt>
      <trkpt lat="44.2297" lon="6.59461">
        <ele>2376.526</ele>
        <time>2011-07-10T08:43:14Z</time>
      </trkpt>
      <trkpt lat="44.22972" lon="6.59457">
        <ele>2373.986</ele>
        <time>2011-07-10T08:43:22Z</time>
      </trkpt>
      <trkpt lat="44.22973" lon="6.59455">
        <ele>2372.817</ele>
        <time>2011-07-10T08:44:19Z</time>
      </trkpt>
      <trkpt lat="44.22974" lon="6.59452">
        <ele>2371.486</ele>
        <time>2011-07-10T08:44:25Z</time>
      </trkpt>
      <trkpt lat="44.22972" lon="6.5945">
        <ele>2373.618</ele>
        <time>2011-07-10T08:44:59Z</time>
      </trkpt>
      <trkpt lat="44.22972" lon="6.59449">
        <ele>2373.827</ele>
        <time>2011-07-10T08:45:07Z</time>
      </trkpt>
      <trkpt lat="44.2297" lon="6.59445">
        <ele>2373.397</ele>
        <time>2011-07-10T08:45:14Z</time>
      </trkpt>
      <trkpt lat="44.22971" lon="6.59446">
        <ele>2373.567</ele>
        <time>2011-07-10T08:45:20Z</time>
      </trkpt>
      <trkpt lat="44.22969" lon="6.59443">
        <ele>2374.037</ele>
        <time>2011-07-10T08:45:47Z</time>
      </trkpt>
      <trkpt lat="44.22968" lon="6.59441">
        <ele>2374.189</ele>
        <time>2011-07-10T08:45:54Z</time>
      </trkpt>
      <trkpt lat="44.22968" lon="6.59441">
        <ele>2374.128</ele>
        <time>2011-07-10T08:46:10Z</time>
      </trkpt>
      <trkpt lat="44.22958" lon="6.59447">
        <ele>2373.707</ele>
        <time>2011-07-10T08:46:15Z</time>
      </trkpt>
      <trkpt lat="44.22942" lon="6.59464">
        <ele>2373.867</ele>
        <time>2011-07-10T08:46:23Z</time>
      </trkpt>
      <trkpt lat="44.22928" lon="6.59476">
        <ele>2373.276</ele>
        <time>2011-07-10T08:46:28Z</time>
      </trkpt>
      <trkpt lat="44.22914" lon="6.59487">
        <ele>2371.654</ele>
        <time>2011-07-10T08:46:33Z</time>
      </trkpt>
      <trkpt lat="44.22911" lon="6.59489">
        <ele>2371.183</ele>
        <time>2011-07-10T08:46:34Z</time>
      </trkpt>
      <trkpt lat="44.22888" lon="6.59486">
        <ele>2366.844</ele>
        <time>2011-07-10T08:46:39Z</time>
      </trkpt>
      <trkpt lat="44.22883" lon="6.59484">
        <ele>2365.41</ele>
        <time>2011-07-10T08:46:40Z</time>
      </trkpt>
      <trkpt lat="44.22839" lon="6.59467">
        <ele>2356.759</ele>
        <time>2011-07-10T08:46:47Z</time>
      </trkpt>
      <trkpt lat="44.22819" lon="6.59457">
        <ele>2352.357</ele>
        <time>2011-07-10T08:46:50Z</time>
      </trkpt>
      <trkpt lat="44.22788" lon="6.59453">
        <ele>2348.634</ele>
        <time>2011-07-10T08:46:54Z</time>
      </trkpt>
      <trkpt lat="44.22772" lon="6.59455">
        <ele>2348.485</ele>
        <time>2011-07-10T08:46:58Z</time>
      </trkpt>
      <trkpt lat="44.22756" lon="6.59454">
        <ele>2350.302</ele>
        <time>2011-07-10T08:47:04Z</time>
      </trkpt>
      <trkpt lat="44.22735" lon="6.59447">
        <ele>2352.621</ele>
        <time>2011-07-10T08:47:12Z</time>
      </trkpt>
      <trkpt lat="44.22711" lon="6.59437">
        <ele>2353.911</ele>
        <time>2011-07-10T08:47:20Z</time>
      </trkpt>
      <trkpt lat="44.22688" lon="6.59425">
        <ele>2355.44</ele>
        <time>2011-07-10T08:47:28Z</time>
      </trkpt>
      <trkpt lat="44.22667" lon="6.59415">
        <ele>2356.96</ele>
        <time>2011-07-10T08:47:36Z</time>
      </trkpt>
      <trkpt lat="44.22645" lon="6.59409">
        <ele>2356.898</ele>
        <time>2011-07-10T08:47:45Z</time>
      </trkpt>
      <trkpt lat="44.2263" lon="6.59407">
        <ele>2358.22</ele>
        <time>2011-07-10T08:47:52Z</time>
      </trkpt>
      <trkpt lat="44.22612" lon="6.59406">
        <ele>2360.27</ele>
        <time>2011-07-10T08:48:01Z</time>
      </trkpt>
      <trkpt lat="44.22593" lon="6.59406">
        <ele>2360.419</ele>
        <time>2011-07-10T08:48:09Z</time>
      </trkpt>
      <trkpt lat="44.22579" lon="6.59406">
        <ele>2360.468</ele>
        <time>2011-07-10T08:48:15Z</time>
      </trkpt>
      <trkpt lat="44.2256" lon="6.59409">
        <ele>2360.978</ele>
        <time>2011-07-10T08:48:24Z</time>
      </trkpt>
      <trkpt lat="44.22538" lon="6.59412">
        <ele>2362.058</ele>
        <time>2011-07-10T08:48:34Z</time>
      </trkpt>
      <trkpt lat="44.22514" lon="6.59415">
        <ele>2361.727</ele>
        <time>2011-07-10T08:48:44Z</time>
      </trkpt>
      <trkpt lat="44.22495" lon="6.59422">
        <ele>2361.328</ele>
        <time>2011-07-10T08:48:52Z</time>
      </trkpt>
      <trkpt lat="44.22481" lon="6.5943">
        <ele>2362.039</ele>
        <time>2011-07-10T08:48:59Z</time>
      </trkpt>
      <trkpt lat="44.22463" lon="6.59445">
        <ele>2363.219</ele>
        <time>2011-07-10T08:49:08Z</time>
      </trkpt>
      <trkpt lat="44.22445" lon="6.59462">
        <ele>2365.56</ele>
        <time>2011-07-10T08:49:17Z</time>
      </trkpt>
      <trkpt lat="44.22438" lon="6.59469">
        <ele>2366.289</ele>
        <time>2011-07-10T08:49:22Z</time>
      </trkpt>
      <trkpt lat="44.22438" lon="6.59469">
        <ele>2366.908</ele>
        <time>2011-07-10T08:49:28Z</time>
      </trkpt>
      <trkpt lat="44.22435" lon="6.59471">
        <ele>2367.298</ele>
        <time>2011-07-10T08:49:34Z</time>
      </trkpt>
      <trkpt lat="44.22426" lon="6.59479">
        <ele>2367.908</ele>
        <time>2011-07-10T08:49:40Z</time>
      </trkpt>
      <trkpt lat="44.22412" lon="6.59494">
        <ele>2367.767</ele>
        <time>2011-07-10T08:49:47Z</time>
      </trkpt>
      <trkpt lat="44.22398" lon="6.59514">
        <ele>2369.068</ele>
        <time>2011-07-10T08:49:55Z</time>
      </trkpt>
      <trkpt lat="44.22385" lon="6.59534">
        <ele>2370.039</ele>
        <time>2011-07-10T08:50:02Z</time>
      </trkpt>
      <trkpt lat="44.22365" lon="6.59563">
        <ele>2371.979</ele>
        <time>2011-07-10T08:50:13Z</time>
      </trkpt>
      <trkpt lat="44.22354" lon="6.59579">
        <ele>2372.579</ele>
        <time>2011-07-10T08:50:20Z</time>
      </trkpt>
      <trkpt lat="44.22343" lon="6.59596">
        <ele>2374.19</ele>
        <time>2011-07-10T08:50:27Z</time>
      </trkpt>
      <trkpt lat="44.22328" lon="6.59614">
        <ele>2375.57</ele>
        <time>2011-07-10T08:50:35Z</time>
      </trkpt>
      <trkpt lat="44.22318" lon="6.59626">
        <ele>2375.518</ele>
        <time>2011-07-10T08:50:42Z</time>
      </trkpt>
      <trkpt lat="44.22318" lon="6.59626">
        <ele>2376.407</ele>
        <time>2011-07-10T08:50:59Z</time>
      </trkpt>
      <trkpt lat="44.22315" lon="6.59627">
        <ele>2375.887</ele>
        <time>2011-07-10T08:51:05Z</time>
      </trkpt>
      <trkpt lat="44.22312" lon="6.5963">
        <ele>2375.627</ele>
        <time>2011-07-10T08:51:08Z</time>
      </trkpt>
      <trkpt lat="44.22304" lon="6.59634">
        <ele>2374.967</ele>
        <time>2011-07-10T08:51:13Z</time>
      </trkpt>
      <trkpt lat="44.22297" lon="6.5964">
        <ele>2374.467</ele>
        <time>2011-07-10T08:51:18Z</time>
      </trkpt>
      <trkpt lat="44.22296" lon="6.59641">
        <ele>2374.778</ele>
        <time>2011-07-10T08:51:23Z</time>
      </trkpt>
      <trkpt lat="44.22303" lon="6.59644">
        <ele>2372.4</ele>
        <time>2011-07-10T08:51:28Z</time>
      </trkpt>
      <trkpt lat="44.22301" lon="6.59647">
        <ele>2372.03</ele>
        <time>2011-07-10T08:51:29Z</time>
      </trkpt>
      <trkpt lat="44.22296" lon="6.5966">
        <ele>2370.801</ele>
        <time>2011-07-10T08:51:33Z</time>
      </trkpt>
      <trkpt lat="44.22296" lon="6.5966">
        <ele>2370.676</ele>
        <time>2011-07-10T08:51:37Z</time>
      </trkpt>
      <trkpt lat="44.2229" lon="6.59668">
        <ele>2368.665</ele>
        <time>2011-07-10T08:51:43Z</time>
      </trkpt>
      <trkpt lat="44.22288" lon="6.59676">
        <ele>2366.172</ele>
        <time>2011-07-10T08:51:48Z</time>
      </trkpt>
      <trkpt lat="44.2229" lon="6.59686">
        <ele>2367.801</ele>
        <time>2011-07-10T08:52:41Z</time>
      </trkpt>
      <trkpt lat="44.22302" lon="6.59699">
        <ele>2363.546</ele>
        <time>2011-07-10T08:52:45Z</time>
      </trkpt>
      <trkpt lat="44.22327" lon="6.59725">
        <ele>2352.625</ele>
        <time>2011-07-10T08:52:52Z</time>
      </trkpt>
      <trkpt lat="44.22345" lon="6.59747">
        <ele>2345.576</ele>
        <time>2011-07-10T08:52:56Z</time>
      </trkpt>
      <trkpt lat="44.22344" lon="6.59767">
        <ele>2341.903</ele>
        <time>2011-07-10T08:53:00Z</time>
      </trkpt>
      <trkpt lat="44.22332" lon="6.59766">
        <ele>2341.202</ele>
        <time>2011-07-10T08:53:03Z</time>
      </trkpt>
      <trkpt lat="44.22329" lon="6.59766">
        <ele>2341.354</ele>
        <time>2011-07-10T08:53:04Z</time>
      </trkpt>
      <trkpt lat="44.22308" lon="6.59767">
        <ele>2339.876</ele>
        <time>2011-07-10T08:53:11Z</time>
      </trkpt>
      <trkpt lat="44.223" lon="6.59769">
        <ele>2339.156</ele>
        <time>2011-07-10T08:53:13Z</time>
      </trkpt>
      <trkpt lat="44.22277" lon="6.59788">
        <ele>2333.606</ele>
        <time>2011-07-10T08:53:18Z</time>
      </trkpt>
      <trkpt lat="44.22271" lon="6.59793">
        <ele>2331.934</ele>
        <time>2011-07-10T08:53:19Z</time>
      </trkpt>
      <trkpt lat="44.22259" lon="6.59805">
        <ele>2330.356</ele>
        <time>2011-07-10T08:53:21Z</time>
      </trkpt>
      <trkpt lat="44.22236" lon="6.59812">
        <ele>2329.143</ele>
        <time>2011-07-10T08:53:25Z</time>
      </trkpt>
      <trkpt lat="44.22228" lon="6.59809">
        <ele>2329.888</ele>
        <time>2011-07-10T08:53:28Z</time>
      </trkpt>
      <trkpt lat="44.22208" lon="6.59797">
        <ele>2334.633</ele>
        <time>2011-07-10T08:53:38Z</time>
      </trkpt>
      <trkpt lat="44.22194" lon="6.59786">
        <ele>2338.041</ele>
        <time>2011-07-10T08:53:47Z</time>
      </trkpt>
      <trkpt lat="44.22182" lon="6.59778">
        <ele>2340.871</ele>
        <time>2011-07-10T08:53:54Z</time>
      </trkpt>
      <trkpt lat="44.22166" lon="6.5977">
        <ele>2344.388</ele>
        <time>2011-07-10T08:54:04Z</time>
      </trkpt>
      <trkpt lat="44.22151" lon="6.59767">
        <ele>2346.722</ele>
        <time>2011-07-10T08:54:13Z</time>
      </trkpt>
      <trkpt lat="44.22137" lon="6.59764">
        <ele>2346.871</ele>
        <time>2011-07-10T08:54:21Z</time>
      </trkpt>
      <trkpt lat="44.22116" lon="6.59759">
        <ele>2346.601</ele>
        <time>2011-07-10T08:54:33Z</time>
      </trkpt>
      <trkpt lat="44.22101" lon="6.59757">
        <ele>2346.53</ele>
        <time>2011-07-10T08:54:40Z</time>
      </trkpt>
      <trkpt lat="44.22083" lon="6.59755">
        <ele>2347.03</ele>
        <time>2011-07-10T08:54:49Z</time>
      </trkpt>
      <trkpt lat="44.22065" lon="6.59751">
        <ele>2347.52</ele>
        <time>2011-07-10T08:54:58Z</time>
      </trkpt>
      <trkpt lat="44.2205" lon="6.59745">
        <ele>2348.24</ele>
        <time>2011-07-10T08:55:06Z</time>
      </trkpt>
      <trkpt lat="44.22037" lon="6.59739">
        <ele>2349.571</ele>
        <time>2011-07-10T08:55:13Z</time>
      </trkpt>
      <trkpt lat="44.22023" lon="6.59731">
        <ele>2352.323</ele>
        <time>2011-07-10T08:55:21Z</time>
      </trkpt>
      <trkpt lat="44.22014" lon="6.59722">
        <ele>2354.572</ele>
        <time>2011-07-10T08:55:29Z</time>
      </trkpt>
      <trkpt lat="44.22013" lon="6.5972">
        <ele>2354.621</ele>
        <time>2011-07-10T08:55:30Z</time>
      </trkpt>
      <trkpt lat="44.22008" lon="6.59717">
        <ele>2355.751</ele>
        <time>2011-07-10T08:55:34Z</time>
      </trkpt>
      <trkpt lat="44.22007" lon="6.59715">
        <ele>2356.361</ele>
        <time>2011-07-10T08:55:36Z</time>
      </trkpt>
      <trkpt lat="44.22006" lon="6.59711">
        <ele>2358.21</ele>
        <time>2011-07-10T08:55:42Z</time>
      </trkpt>
      <trkpt lat="44.22001" lon="6.59703">
        <ele>2358.569</ele>
        <time>2011-07-10T08:55:49Z</time>
      </trkpt>
      <trkpt lat="44.22001" lon="6.59702">
        <ele>2359.419</ele>
        <time>2011-07-10T08:55:55Z</time>
      </trkpt>
      <trkpt lat="44.21997" lon="6.597">
        <ele>2361.151</ele>
        <time>2011-07-10T08:56:03Z</time>
      </trkpt>
      <trkpt lat="44.21989" lon="6.59697">
        <ele>2362.41</ele>
        <time>2011-07-10T08:56:11Z</time>
      </trkpt>
      <trkpt lat="44.21981" lon="6.59695">
        <ele>2364.7</ele>
        <time>2011-07-10T08:56:20Z</time>
      </trkpt>
      <trkpt lat="44.21972" lon="6.59692">
        <ele>2365.475</ele>
        <time>2011-07-10T08:56:29Z</time>
      </trkpt>
      <trkpt lat="44.21959" lon="6.59691">
        <ele>2364.359</ele>
        <time>2011-07-10T08:56:40Z</time>
      </trkpt>
      <trkpt lat="44.21951" lon="6.59695">
        <ele>2365.87</ele>
        <time>2011-07-10T08:56:49Z</time>
      </trkpt>
      <trkpt lat="44.21943" lon="6.59699">
        <ele>2368.722</ele>
        <time>2011-07-10T08:56:58Z</time>
      </trkpt>
      <trkpt lat="44.21933" lon="6.59704">
        <ele>2369.34</ele>
        <time>2011-07-10T08:57:06Z</time>
      </trkpt>
      <trkpt lat="44.21922" lon="6.59711">
        <ele>2370.611</ele>
        <time>2011-07-10T08:57:14Z</time>
      </trkpt>
      <trkpt lat="44.21916" lon="6.59718">
        <ele>2372.522</ele>
        <time>2011-07-10T08:57:21Z</time>
      </trkpt>
      <trkpt lat="44.21909" lon="6.59725">
        <ele>2374.49</ele>
        <time>2011-07-10T08:57:30Z</time>
      </trkpt>
      <trkpt lat="44.21909" lon="6.59727">
        <ele>2375.338</ele>
        <time>2011-07-10T08:57:35Z</time>
      </trkpt>
      <trkpt lat="44.21905" lon="6.59729">
        <ele>2375.388</ele>
        <time>2011-07-10T08:57:39Z</time>
      </trkpt>
      <trkpt lat="44.21901" lon="6.59729">
        <ele>2375.407</ele>
        <time>2011-07-10T08:57:45Z</time>
      </trkpt>
      <trkpt lat="44.21896" lon="6.59728">
        <ele>2376.119</ele>
        <time>2011-07-10T08:57:50Z</time>
      </trkpt>
      <trkpt lat="44.21883" lon="6.59725">
        <ele>2376.949</ele>
        <time>2011-07-10T08:57:57Z</time>
      </trkpt>
      <trkpt lat="44.2187" lon="6.59724">
        <ele>2377.429</ele>
        <time>2011-07-10T08:58:04Z</time>
      </trkpt>
      <trkpt lat="44.2186" lon="6.59726">
        <ele>2378.18</ele>
        <time>2011-07-10T08:58:10Z</time>
      </trkpt>
      <trkpt lat="44.21847" lon="6.59729">
        <ele>2379.879</ele>
        <time>2011-07-10T08:58:18Z</time>
      </trkpt>
      <trkpt lat="44.21836" lon="6.59732">
        <ele>2382.061</ele>
        <time>2011-07-10T08:58:26Z</time>
      </trkpt>
      <trkpt lat="44.21823" lon="6.59733">
        <ele>2383.58</ele>
        <time>2011-07-10T08:58:35Z</time>
      </trkpt>
      <trkpt lat="44.21808" lon="6.59728">
        <ele>2385.089</ele>
        <time>2011-07-10T08:58:44Z</time>
      </trkpt>
      <trkpt lat="44.21798" lon="6.59724">
        <ele>2387.031</ele>
        <time>2011-07-10T08:58:51Z</time>
      </trkpt>
      <trkpt lat="44.21797" lon="6.59722">
        <ele>2387.261</ele>
        <time>2011-07-10T08:58:52Z</time>
      </trkpt>
      <trkpt lat="44.21782" lon="6.5972">
        <ele>2390.381</ele>
        <time>2011-07-10T08:59:01Z</time>
      </trkpt>
      <trkpt lat="44.21769" lon="6.5972">
        <ele>2392.462</ele>
        <time>2011-07-10T08:59:09Z</time>
      </trkpt>
      <trkpt lat="44.21756" lon="6.59719">
        <ele>2394.211</ele>
        <time>2011-07-10T08:59:17Z</time>
      </trkpt>
      <trkpt lat="44.21744" lon="6.59721">
        <ele>2395.44</ele>
        <time>2011-07-10T08:59:24Z</time>
      </trkpt>
      <trkpt lat="44.21738" lon="6.59721">
        <ele>2396.008</ele>
        <time>2011-07-10T08:59:28Z</time>
      </trkpt>
      <trkpt lat="44.21732" lon="6.59723">
        <ele>2396.588</ele>
        <time>2011-07-10T08:59:32Z</time>
      </trkpt>
      <trkpt lat="44.21721" lon="6.59733">
        <ele>2397.518</ele>
        <time>2011-07-10T08:59:40Z</time>
      </trkpt>
      <trkpt lat="44.21714" lon="6.5974">
        <ele>2399.199</ele>
        <time>2011-07-10T08:59:47Z</time>
      </trkpt>
      <trkpt lat="44.2171" lon="6.59745">
        <ele>2400.75</ele>
        <time>2011-07-10T08:59:53Z</time>
      </trkpt>
      <trkpt lat="44.21704" lon="6.5975">
        <ele>2402.721</ele>
        <time>2011-07-10T09:00:01Z</time>
      </trkpt>
      <trkpt lat="44.21699" lon="6.59755">
        <ele>2404.89</ele>
        <time>2011-07-10T09:00:10Z</time>
      </trkpt>
      <trkpt lat="44.21693" lon="6.59761">
        <ele>2408.541</ele>
        <time>2011-07-10T09:00:21Z</time>
      </trkpt>
      <trkpt lat="44.21687" lon="6.59766">
        <ele>2410.96</ele>
        <time>2011-07-10T09:00:31Z</time>
      </trkpt>
      <trkpt lat="44.21681" lon="6.59773">
        <ele>2412.429</ele>
        <time>2011-07-10T09:00:41Z</time>
      </trkpt>
      <trkpt lat="44.21679" lon="6.59775">
        <ele>2412.406</ele>
        <time>2011-07-10T09:00:48Z</time>
      </trkpt>
      <trkpt lat="44.21679" lon="6.59776">
        <ele>2412.367</ele>
        <time>2011-07-10T09:00:52Z</time>
      </trkpt>
      <trkpt lat="44.21675" lon="6.59777">
        <ele>2413.419</ele>
        <time>2011-07-10T09:00:56Z</time>
      </trkpt>
      <trkpt lat="44.21663" lon="6.59785">
        <ele>2416.49</ele>
        <time>2011-07-10T09:01:08Z</time>
      </trkpt>
      <trkpt lat="44.21658" lon="6.5979">
        <ele>2417.457</ele>
        <time>2011-07-10T09:01:15Z</time>
      </trkpt>
      <trkpt lat="44.21653" lon="6.59793">
        <ele>2420.049</ele>
        <time>2011-07-10T09:01:47Z</time>
      </trkpt>
      <trkpt lat="44.21641" lon="6.59794">
        <ele>2420.287</ele>
        <time>2011-07-10T09:01:56Z</time>
      </trkpt>
      <trkpt lat="44.21637" lon="6.59794">
        <ele>2419.996</ele>
        <time>2011-07-10T09:02:02Z</time>
      </trkpt>
      <trkpt lat="44.2164" lon="6.59796">
        <ele>2419.57</ele>
        <time>2011-07-10T09:03:53Z</time>
      </trkpt>
      <trkpt lat="44.21634" lon="6.59804">
        <ele>2420.467</ele>
        <time>2011-07-10T09:04:01Z</time>
      </trkpt>
      <trkpt lat="44.21633" lon="6.59805">
        <ele>2420.508</ele>
        <time>2011-07-10T09:04:02Z</time>
      </trkpt>
      <trkpt lat="44.21624" lon="6.59815">
        <ele>2420.477</ele>
        <time>2011-07-10T09:04:09Z</time>
      </trkpt>
      <trkpt lat="44.21612" lon="6.59823">
        <ele>2422.313</ele>
        <time>2011-07-10T09:04:16Z</time>
      </trkpt>
      <trkpt lat="44.21604" lon="6.59829">
        <ele>2424.41</ele>
        <time>2011-07-10T09:04:22Z</time>
      </trkpt>
      <trkpt lat="44.21593" lon="6.59836">
        <ele>2425.459</ele>
        <time>2011-07-10T09:04:30Z</time>
      </trkpt>
      <trkpt lat="44.21584" lon="6.59843">
        <ele>2427.881</ele>
        <time>2011-07-10T09:04:38Z</time>
      </trkpt>
      <trkpt lat="44.21575" lon="6.59849">
        <ele>2429.679</ele>
        <time>2011-07-10T09:04:46Z</time>
      </trkpt>
      <trkpt lat="44.21563" lon="6.59844">
        <ele>2430.517</ele>
        <time>2011-07-10T09:04:54Z</time>
      </trkpt>
      <trkpt lat="44.21549" lon="6.59839">
        <ele>2430.175</ele>
        <time>2011-07-10T09:05:02Z</time>
      </trkpt>
      <trkpt lat="44.21534" lon="6.59834">
        <ele>2427.403</ele>
        <time>2011-07-10T09:05:09Z</time>
      </trkpt>
      <trkpt lat="44.21523" lon="6.59835">
        <ele>2426.596</ele>
        <time>2011-07-10T09:05:14Z</time>
      </trkpt>
      <trkpt lat="44.21508" lon="6.59837">
        <ele>2425.203</ele>
        <time>2011-07-10T09:05:21Z</time>
      </trkpt>
      <trkpt lat="44.21485" lon="6.59835">
        <ele>2425.307</ele>
        <time>2011-07-10T09:05:26Z</time>
      </trkpt>
      <trkpt lat="44.21464" lon="6.5983">
        <ele>2425.456</ele>
        <time>2011-07-10T09:05:33Z</time>
      </trkpt>
      <trkpt lat="44.21444" lon="6.59823">
        <ele>2424.707</ele>
        <time>2011-07-10T09:05:39Z</time>
      </trkpt>
      <trkpt lat="44.21433" lon="6.59819">
        <ele>2425.279</ele>
        <time>2011-07-10T09:05:44Z</time>
      </trkpt>
      <trkpt lat="44.21422" lon="6.59816">
        <ele>2426.139</ele>
        <time>2011-07-10T09:05:50Z</time>
      </trkpt>
      <trkpt lat="44.21409" lon="6.59805">
        <ele>2427.88</ele>
        <time>2011-07-10T09:05:59Z</time>
      </trkpt>
      <trkpt lat="44.21402" lon="6.59796">
        <ele>2429.821</ele>
        <time>2011-07-10T09:06:06Z</time>
      </trkpt>
      <trkpt lat="44.21401" lon="6.59796">
        <ele>2429.877</ele>
        <time>2011-07-10T09:06:13Z</time>
      </trkpt>
      <trkpt lat="44.21395" lon="6.5979">
        <ele>2431.169</ele>
        <time>2011-07-10T09:06:22Z</time>
      </trkpt>
      <trkpt lat="44.2139" lon="6.59783">
        <ele>2433.448</ele>
        <time>2011-07-10T09:06:32Z</time>
      </trkpt>
      <trkpt lat="44.21383" lon="6.59779">
        <ele>2436.33</ele>
        <time>2011-07-10T09:06:42Z</time>
      </trkpt>
      <trkpt lat="44.21375" lon="6.59778">
        <ele>2437.838</ele>
        <time>2011-07-10T09:06:51Z</time>
      </trkpt>
      <trkpt lat="44.21364" lon="6.59778">
        <ele>2440.279</ele>
        <time>2011-07-10T09:07:01Z</time>
      </trkpt>
      <trkpt lat="44.21363" lon="6.59778">
        <ele>2440.368</ele>
        <time>2011-07-10T09:07:02Z</time>
      </trkpt>
      <trkpt lat="44.21361" lon="6.59777">
        <ele>2442.587</ele>
        <time>2011-07-10T09:07:09Z</time>
      </trkpt>
      <trkpt lat="44.21359" lon="6.59774">
        <ele>2446.527</ele>
        <time>2011-07-10T09:08:43Z</time>
      </trkpt>
      <trkpt lat="44.21359" lon="6.59775">
        <ele>2441.637</ele>
        <time>2011-07-10T09:11:57Z</time>
      </trkpt>
      <trkpt lat="44.21357" lon="6.59774">
        <ele>2442.307</ele>
        <time>2011-07-10T09:12:03Z</time>
      </trkpt>
      <trkpt lat="44.21357" lon="6.59774">
        <ele>2442.166</ele>
        <time>2011-07-10T09:12:06Z</time>
      </trkpt>
      <trkpt lat="44.21347" lon="6.5978">
        <ele>2439.999</ele>
        <time>2011-07-10T09:12:10Z</time>
      </trkpt>
      <trkpt lat="44.21337" lon="6.5979">
        <ele>2437.884</ele>
        <time>2011-07-10T09:12:12Z</time>
      </trkpt>
      <trkpt lat="44.21326" lon="6.59802">
        <ele>2436.164</ele>
        <time>2011-07-10T09:12:14Z</time>
      </trkpt>
      <trkpt lat="44.21289" lon="6.59831">
        <ele>2429.187</ele>
        <time>2011-07-10T09:12:19Z</time>
      </trkpt>
      <trkpt lat="44.21251" lon="6.59857">
        <ele>2427.109</ele>
        <time>2011-07-10T09:12:24Z</time>
      </trkpt>
      <trkpt lat="44.21221" lon="6.59874">
        <ele>2426.644</ele>
        <time>2011-07-10T09:12:30Z</time>
      </trkpt>
      <trkpt lat="44.21187" lon="6.59887">
        <ele>2427.619</ele>
        <time>2011-07-10T09:12:37Z</time>
      </trkpt>
      <trkpt lat="44.21175" lon="6.59894">
        <ele>2429.391</ele>
        <time>2011-07-10T09:12:41Z</time>
      </trkpt>
      <trkpt lat="44.21165" lon="6.59898">
        <ele>2430.708</ele>
        <time>2011-07-10T09:12:46Z</time>
      </trkpt>
      <trkpt lat="44.21146" lon="6.59903">
        <ele>2431.388</ele>
        <time>2011-07-10T09:12:53Z</time>
      </trkpt>
      <trkpt lat="44.2113" lon="6.59907">
        <ele>2432.378</ele>
        <time>2011-07-10T09:13:00Z</time>
      </trkpt>
      <trkpt lat="44.21115" lon="6.59913">
        <ele>2432.847</ele>
        <time>2011-07-10T09:13:09Z</time>
      </trkpt>
      <trkpt lat="44.21103" lon="6.59918">
        <ele>2432.705</ele>
        <time>2011-07-10T09:13:17Z</time>
      </trkpt>
      <trkpt lat="44.21091" lon="6.59922">
        <ele>2431.763</ele>
        <time>2011-07-10T09:13:23Z</time>
      </trkpt>
      <trkpt lat="44.21087" lon="6.59923">
        <ele>2431.176</ele>
        <time>2011-07-10T09:13:28Z</time>
      </trkpt>
      <trkpt lat="44.21077" lon="6.59925">
        <ele>2428.021</ele>
        <time>2011-07-10T09:15:01Z</time>
      </trkpt>
      <trkpt lat="44.21058" lon="6.59932">
        <ele>2422.236</ele>
        <time>2011-07-10T09:15:07Z</time>
      </trkpt>
      <trkpt lat="44.21046" lon="6.59933">
        <ele>2416.719</ele>
        <time>2011-07-10T09:15:12Z</time>
      </trkpt>
      <trkpt lat="44.21041" lon="6.59932">
        <ele>2414.329</ele>
        <time>2011-07-10T09:15:14Z</time>
      </trkpt>
      <trkpt lat="44.2103" lon="6.59934">
        <ele>2409.017</ele>
        <time>2011-07-10T09:15:18Z</time>
      </trkpt>
      <trkpt lat="44.21014" lon="6.59939">
        <ele>2401.968</ele>
        <time>2011-07-10T09:15:24Z</time>
      </trkpt>
      <trkpt lat="44.20999" lon="6.5995">
        <ele>2395.12</ele>
        <time>2011-07-10T09:15:30Z</time>
      </trkpt>
      <trkpt lat="44.20986" lon="6.59955">
        <ele>2390.14</ele>
        <time>2011-07-10T09:15:35Z</time>
      </trkpt>
      <trkpt lat="44.20975" lon="6.59965">
        <ele>2385.348</ele>
        <time>2011-07-10T09:15:39Z</time>
      </trkpt>
      <trkpt lat="44.20959" lon="6.59978">
        <ele>2378.19</ele>
        <time>2011-07-10T09:15:44Z</time>
      </trkpt>
      <trkpt lat="44.20959" lon="6.59981">
        <ele>2376.08</ele>
        <time>2011-07-10T09:15:49Z</time>
      </trkpt>
      <trkpt lat="44.2096" lon="6.59979">
        <ele>2380.138</ele>
        <time>2011-07-10T09:17:11Z</time>
      </trkpt>
      <trkpt lat="44.20959" lon="6.59976">
        <ele>2379.426</ele>
        <time>2011-07-10T09:17:19Z</time>
      </trkpt>
      <trkpt lat="44.20952" lon="6.59976">
        <ele>2376.688</ele>
        <time>2011-07-10T09:17:23Z</time>
      </trkpt>
      <trkpt lat="44.20932" lon="6.5998">
        <ele>2368.288</ele>
        <time>2011-07-10T09:17:30Z</time>
      </trkpt>
      <trkpt lat="44.20929" lon="6.59981">
        <ele>2366.818</ele>
        <time>2011-07-10T09:17:31Z</time>
      </trkpt>
      <trkpt lat="44.20906" lon="6.59984">
        <ele>2358.086</ele>
        <time>2011-07-10T09:17:37Z</time>
      </trkpt>
      <trkpt lat="44.20902" lon="6.59985">
        <ele>2356.612</ele>
        <time>2011-07-10T09:17:38Z</time>
      </trkpt>
      <trkpt lat="44.20883" lon="6.59992">
        <ele>2351.237</ele>
        <time>2011-07-10T09:17:42Z</time>
      </trkpt>
      <trkpt lat="44.20873" lon="6.59999">
        <ele>2349.149</ele>
        <time>2011-07-10T09:17:44Z</time>
      </trkpt>
      <trkpt lat="44.20856" lon="6.60008">
        <ele>2346.483</ele>
        <time>2011-07-10T09:17:47Z</time>
      </trkpt>
      <trkpt lat="44.20831" lon="6.60031">
        <ele>2340.453</ele>
        <time>2011-07-10T09:17:54Z</time>
      </trkpt>
      <trkpt lat="44.20827" lon="6.60035">
        <ele>2339.553</ele>
        <time>2011-07-10T09:17:55Z</time>
      </trkpt>
      <trkpt lat="44.20813" lon="6.60049">
        <ele>2335.503</ele>
        <time>2011-07-10T09:18:00Z</time>
      </trkpt>
      <trkpt lat="44.20803" lon="6.60056">
        <ele>2331.95</ele>
        <time>2011-07-10T09:18:03Z</time>
      </trkpt>
      <trkpt lat="44.20786" lon="6.60069">
        <ele>2326.781</ele>
        <time>2011-07-10T09:18:08Z</time>
      </trkpt>
      <trkpt lat="44.20769" lon="6.60083">
        <ele>2321.351</ele>
        <time>2011-07-10T09:18:13Z</time>
      </trkpt>
      <trkpt lat="44.20746" lon="6.60089">
        <ele>2313.145</ele>
        <time>2011-07-10T09:18:20Z</time>
      </trkpt>
      <trkpt lat="44.20727" lon="6.60093">
        <ele>2306.867</ele>
        <time>2011-07-10T09:18:25Z</time>
      </trkpt>
      <trkpt lat="44.20707" lon="6.60093">
        <ele>2299.41</ele>
        <time>2011-07-10T09:18:30Z</time>
      </trkpt>
      <trkpt lat="44.20675" lon="6.60086">
        <ele>2290.194</ele>
        <time>2011-07-10T09:18:36Z</time>
      </trkpt>
      <trkpt lat="44.20657" lon="6.60083">
        <ele>2288.073</ele>
        <time>2011-07-10T09:18:39Z</time>
      </trkpt>
      <trkpt lat="44.20637" lon="6.60081">
        <ele>2286.619</ele>
        <time>2011-07-10T09:18:43Z</time>
      </trkpt>
      <trkpt lat="44.20613" lon="6.60075">
        <ele>2284.506</ele>
        <time>2011-07-10T09:18:48Z</time>
      </trkpt>
      <trkpt lat="44.20576" lon="6.60056">
        <ele>2280.314</ele>
        <time>2011-07-10T09:18:55Z</time>
      </trkpt>
      <trkpt lat="44.20548" lon="6.60042">
        <ele>2276.928</ele>
        <time>2011-07-10T09:19:01Z</time>
      </trkpt>
      <trkpt lat="44.20541" lon="6.60039">
        <ele>2276.218</ele>
        <time>2011-07-10T09:19:03Z</time>
      </trkpt>
      <trkpt lat="44.20519" lon="6.60036">
        <ele>2274.76</ele>
        <time>2011-07-10T09:19:08Z</time>
      </trkpt>
      <trkpt lat="44.20489" lon="6.60024">
        <ele>2272.039</ele>
        <time>2011-07-10T09:19:15Z</time>
      </trkpt>
      <trkpt lat="44.20485" lon="6.60022">
        <ele>2271.599</ele>
        <time>2011-07-10T09:19:16Z</time>
      </trkpt>
      <trkpt lat="44.20466" lon="6.60019">
        <ele>2269.587</ele>
        <time>2011-07-10T09:19:20Z</time>
      </trkpt>
      <trkpt lat="44.20436" lon="6.60017">
        <ele>2266.781</ele>
        <time>2011-07-10T09:19:26Z</time>
      </trkpt>
      <trkpt lat="44.20416" lon="6.60023">
        <ele>2265.852</ele>
        <time>2011-07-10T09:19:31Z</time>
      </trkpt>
      <trkpt lat="44.20397" lon="6.60035">
        <ele>2267.23</ele>
        <time>2011-07-10T09:19:36Z</time>
      </trkpt>
      <trkpt lat="44.20394" lon="6.60038">
        <ele>2267.596</ele>
        <time>2011-07-10T09:19:40Z</time>
      </trkpt>
      <trkpt lat="44.20391" lon="6.60038">
        <ele>2272.335</ele>
        <time>2011-07-10T09:20:20Z</time>
      </trkpt>
      <trkpt lat="44.20386" lon="6.60044">
        <ele>2271.853</ele>
        <time>2011-07-10T09:20:26Z</time>
      </trkpt>
      <trkpt lat="44.20377" lon="6.60053">
        <ele>2269.66</ele>
        <time>2011-07-10T09:20:31Z</time>
      </trkpt>
      <trkpt lat="44.20366" lon="6.60056">
        <ele>2265.694</ele>
        <time>2011-07-10T09:20:36Z</time>
      </trkpt>
      <trkpt lat="44.2035" lon="6.60056">
        <ele>2258.127</ele>
        <time>2011-07-10T09:20:42Z</time>
      </trkpt>
      <trkpt lat="44.20337" lon="6.60059">
        <ele>2251.543</ele>
        <time>2011-07-10T09:20:46Z</time>
      </trkpt>
      <trkpt lat="44.20313" lon="6.60067">
        <ele>2242.143</ele>
        <time>2011-07-10T09:20:52Z</time>
      </trkpt>
      <trkpt lat="44.20308" lon="6.60069">
        <ele>2240.714</ele>
        <time>2011-07-10T09:20:53Z</time>
      </trkpt>
      <trkpt lat="44.20289" lon="6.60073">
        <ele>2236.278</ele>
        <time>2011-07-10T09:20:57Z</time>
      </trkpt>
      <trkpt lat="44.20268" lon="6.60074">
        <ele>2232.031</ele>
        <time>2011-07-10T09:21:01Z</time>
      </trkpt>
      <trkpt lat="44.20235" lon="6.60075">
        <ele>2230.601</ele>
        <time>2011-07-10T09:21:06Z</time>
      </trkpt>
      <trkpt lat="44.20218" lon="6.6008">
        <ele>2232.439</ele>
        <time>2011-07-10T09:21:11Z</time>
      </trkpt>
      <trkpt lat="44.20213" lon="6.60084">
        <ele>2232.999</ele>
        <time>2011-07-10T09:21:13Z</time>
      </trkpt>
      <trkpt lat="44.20195" lon="6.60086">
        <ele>2232.874</ele>
        <time>2011-07-10T09:21:19Z</time>
      </trkpt>
      <trkpt lat="44.20174" lon="6.60092">
        <ele>2233.247</ele>
        <time>2011-07-10T09:21:24Z</time>
      </trkpt>
      <trkpt lat="44.20162" lon="6.60092">
        <ele>2234.389</ele>
        <time>2011-07-10T09:21:28Z</time>
      </trkpt>
      <trkpt lat="44.20144" lon="6.60094">
        <ele>2235.327</ele>
        <time>2011-07-10T09:21:34Z</time>
      </trkpt>
      <trkpt lat="44.20128" lon="6.60094">
        <ele>2236.759</ele>
        <time>2011-07-10T09:21:40Z</time>
      </trkpt>
      <trkpt lat="44.20118" lon="6.60088">
        <ele>2236.875</ele>
        <time>2011-07-10T09:21:44Z</time>
      </trkpt>
      <trkpt lat="44.20104" lon="6.60086">
        <ele>2236.385</ele>
        <time>2011-07-10T09:21:48Z</time>
      </trkpt>
      <trkpt lat="44.20094" lon="6.60082">
        <ele>2237.278</ele>
        <time>2011-07-10T09:21:52Z</time>
      </trkpt>
      <trkpt lat="44.20083" lon="6.60077">
        <ele>2238.237</ele>
        <time>2011-07-10T09:21:57Z</time>
      </trkpt>
      <trkpt lat="44.20079" lon="6.60077">
        <ele>2238.788</ele>
        <time>2011-07-10T09:21:59Z</time>
      </trkpt>
      <trkpt lat="44.20067" lon="6.60069">
        <ele>2238.775</ele>
        <time>2011-07-10T09:22:05Z</time>
      </trkpt>
      <trkpt lat="44.20062" lon="6.60067">
        <ele>2238.544</ele>
        <time>2011-07-10T09:22:07Z</time>
      </trkpt>
      <trkpt lat="44.20044" lon="6.6006">
        <ele>2238.015</ele>
        <time>2011-07-10T09:22:14Z</time>
      </trkpt>
      <trkpt lat="44.20031" lon="6.60055">
        <ele>2238.537</ele>
        <time>2011-07-10T09:22:20Z</time>
      </trkpt>
      <trkpt lat="44.20017" lon="6.60052">
        <ele>2238.152</ele>
        <time>2011-07-10T09:22:25Z</time>
      </trkpt>
      <trkpt lat="44.20011" lon="6.60052">
        <ele>2238.013</ele>
        <time>2011-07-10T09:22:28Z</time>
      </trkpt>
      <trkpt lat="44.20012" lon="6.60051">
        <ele>2237.185</ele>
        <time>2011-07-10T09:22:40Z</time>
      </trkpt>
      <trkpt lat="44.2001" lon="6.60049">
        <ele>2237.895</ele>
        <time>2011-07-10T09:23:33Z</time>
      </trkpt>
      <trkpt lat="44.20003" lon="6.60062">
        <ele>2235.979</ele>
        <time>2011-07-10T09:23:39Z</time>
      </trkpt>
      <trkpt lat="44.20001" lon="6.60074">
        <ele>2233.824</ele>
        <time>2011-07-10T09:23:41Z</time>
      </trkpt>
      <trkpt lat="44.2" lon="6.60108">
        <ele>2229.771</ele>
        <time>2011-07-10T09:23:45Z</time>
      </trkpt>
      <trkpt lat="44.19993" lon="6.60135">
        <ele>2226.239</ele>
        <time>2011-07-10T09:23:48Z</time>
      </trkpt>
      <trkpt lat="44.19984" lon="6.60166">
        <ele>2220.797</ele>
        <time>2011-07-10T09:23:52Z</time>
      </trkpt>
      <trkpt lat="44.19984" lon="6.60181">
        <ele>2217.086</ele>
        <time>2011-07-10T09:23:55Z</time>
      </trkpt>
      <trkpt lat="44.19977" lon="6.60198">
        <ele>2213.903</ele>
        <time>2011-07-10T09:23:59Z</time>
      </trkpt>
      <trkpt lat="44.19969" lon="6.60215">
        <ele>2211.532</ele>
        <time>2011-07-10T09:24:03Z</time>
      </trkpt>
      <trkpt lat="44.19964" lon="6.6023">
        <ele>2208.489</ele>
        <time>2011-07-10T09:24:07Z</time>
      </trkpt>
      <trkpt lat="44.19948" lon="6.6024">
        <ele>2205.184</ele>
        <time>2011-07-10T09:24:13Z</time>
      </trkpt>
      <trkpt lat="44.19944" lon="6.60242">
        <ele>2204.594</ele>
        <time>2011-07-10T09:24:14Z</time>
      </trkpt>
      <trkpt lat="44.19935" lon="6.60258">
        <ele>2202.456</ele>
        <time>2011-07-10T09:24:18Z</time>
      </trkpt>
      <trkpt lat="44.19927" lon="6.60285">
        <ele>2199.746</ele>
        <time>2011-07-10T09:24:23Z</time>
      </trkpt>
      <trkpt lat="44.19919" lon="6.60321">
        <ele>2195.345</ele>
        <time>2011-07-10T09:24:29Z</time>
      </trkpt>
      <trkpt lat="44.19914" lon="6.60339">
        <ele>2194.669</ele>
        <time>2011-07-10T09:24:34Z</time>
      </trkpt>
      <trkpt lat="44.19915" lon="6.60341">
        <ele>2194.313</ele>
        <time>2011-07-10T09:24:38Z</time>
      </trkpt>
      <trkpt lat="44.19915" lon="6.6034">
        <ele>2194.135</ele>
        <time>2011-07-10T09:24:42Z</time>
      </trkpt>
      <trkpt lat="44.19925" lon="6.60345">
        <ele>2191.54</ele>
        <time>2011-07-10T09:24:47Z</time>
      </trkpt>
      <trkpt lat="44.19945" lon="6.6035">
        <ele>2187.525</ele>
        <time>2011-07-10T09:24:53Z</time>
      </trkpt>
      <trkpt lat="44.19961" lon="6.6035">
        <ele>2183.214</ele>
        <time>2011-07-10T09:24:59Z</time>
      </trkpt>
      <trkpt lat="44.19964" lon="6.6035">
        <ele>2182.036</ele>
        <time>2011-07-10T09:25:01Z</time>
      </trkpt>
      <trkpt lat="44.19967" lon="6.60361">
        <ele>2179.418</ele>
        <time>2011-07-10T09:25:06Z</time>
      </trkpt>
      <trkpt lat="44.19969" lon="6.60367">
        <ele>2178.491</ele>
        <time>2011-07-10T09:25:11Z</time>
      </trkpt>
      <trkpt lat="44.19972" lon="6.60368">
        <ele>2178.283</ele>
        <time>2011-07-10T09:25:15Z</time>
      </trkpt>
      <trkpt lat="44.19976" lon="6.60377">
        <ele>2177.193</ele>
        <time>2011-07-10T09:25:22Z</time>
      </trkpt>
      <trkpt lat="44.19982" lon="6.60385">
        <ele>2175.59</ele>
        <time>2011-07-10T09:25:27Z</time>
      </trkpt>
      <trkpt lat="44.19986" lon="6.6039">
        <ele>2174.45</ele>
        <time>2011-07-10T09:25:31Z</time>
      </trkpt>
      <trkpt lat="44.19988" lon="6.60398">
        <ele>2174.011</ele>
        <time>2011-07-10T09:25:36Z</time>
      </trkpt>
      <trkpt lat="44.19992" lon="6.60402">
        <ele>2172.032</ele>
        <time>2011-07-10T09:25:41Z</time>
      </trkpt>
      <trkpt lat="44.19993" lon="6.60403">
        <ele>2171.421</ele>
        <time>2011-07-10T09:25:42Z</time>
      </trkpt>
      <trkpt lat="44.20002" lon="6.60416">
        <ele>2168.256</ele>
        <time>2011-07-10T09:25:48Z</time>
      </trkpt>
      <trkpt lat="44.20009" lon="6.60424">
        <ele>2163.283</ele>
        <time>2011-07-10T09:25:51Z</time>
      </trkpt>
      <trkpt lat="44.20015" lon="6.60426">
        <ele>2160.621</ele>
        <time>2011-07-10T09:25:53Z</time>
      </trkpt>
      <trkpt lat="44.20027" lon="6.60443">
        <ele>2155.754</ele>
        <time>2011-07-10T09:25:58Z</time>
      </trkpt>
      <trkpt lat="44.20031" lon="6.60455">
        <ele>2152.601</ele>
        <time>2011-07-10T09:26:01Z</time>
      </trkpt>
      <trkpt lat="44.20019" lon="6.60462">
        <ele>2148.133</ele>
        <time>2011-07-10T09:26:06Z</time>
      </trkpt>
      <trkpt lat="44.20015" lon="6.60463">
        <ele>2147.361</ele>
        <time>2011-07-10T09:26:07Z</time>
      </trkpt>
      <trkpt lat="44.20003" lon="6.60473">
        <ele>2144.404</ele>
        <time>2011-07-10T09:26:11Z</time>
      </trkpt>
      <trkpt lat="44.20003" lon="6.60497">
        <ele>2140.131</ele>
        <time>2011-07-10T09:26:16Z</time>
      </trkpt>
      <trkpt lat="44.20017" lon="6.60532">
        <ele>2129.761</ele>
        <time>2011-07-10T09:26:21Z</time>
      </trkpt>
      <trkpt lat="44.20018" lon="6.60537">
        <ele>2128.1</ele>
        <time>2011-07-10T09:26:22Z</time>
      </trkpt>
      <trkpt lat="44.2001" lon="6.60545">
        <ele>2122.945</ele>
        <time>2011-07-10T09:26:26Z</time>
      </trkpt>
      <trkpt lat="44.19986" lon="6.60552">
        <ele>2118.999</ele>
        <time>2011-07-10T09:26:31Z</time>
      </trkpt>
      <trkpt lat="44.19969" lon="6.60571">
        <ele>2115.839</ele>
        <time>2011-07-10T09:26:36Z</time>
      </trkpt>
      <trkpt lat="44.19947" lon="6.60575">
        <ele>2111.375</ele>
        <time>2011-07-10T09:26:42Z</time>
      </trkpt>
      <trkpt lat="44.19937" lon="6.60571">
        <ele>2108.797</ele>
        <time>2011-07-10T09:26:46Z</time>
      </trkpt>
      <trkpt lat="44.19931" lon="6.60569">
        <ele>2107.393</ele>
        <time>2011-07-10T09:26:51Z</time>
      </trkpt>
      <trkpt lat="44.19932" lon="6.60573">
        <ele>2106.083</ele>
        <time>2011-07-10T09:26:56Z</time>
      </trkpt>
      <trkpt lat="44.19935" lon="6.60578">
        <ele>2105.194</ele>
        <time>2011-07-10T09:27:02Z</time>
      </trkpt>
      <trkpt lat="44.19942" lon="6.60593">
        <ele>2103.449</ele>
        <time>2011-07-10T09:27:07Z</time>
      </trkpt>
      <trkpt lat="44.19952" lon="6.60606">
        <ele>2101.209</ele>
        <time>2011-07-10T09:27:12Z</time>
      </trkpt>
      <trkpt lat="44.19948" lon="6.60609">
        <ele>2100.09</ele>
        <time>2011-07-10T09:27:16Z</time>
      </trkpt>
      <trkpt lat="44.19931" lon="6.60602">
        <ele>2095.227</ele>
        <time>2011-07-10T09:27:22Z</time>
      </trkpt>
      <trkpt lat="44.19919" lon="6.60593">
        <ele>2093.147</ele>
        <time>2011-07-10T09:27:25Z</time>
      </trkpt>
      <trkpt lat="44.199" lon="6.60591">
        <ele>2089.387</ele>
        <time>2011-07-10T09:27:30Z</time>
      </trkpt>
      <trkpt lat="44.19897" lon="6.60606">
        <ele>2087.957</ele>
        <time>2011-07-10T09:27:33Z</time>
      </trkpt>
      <trkpt lat="44.19903" lon="6.60615">
        <ele>2087.577</ele>
        <time>2011-07-10T09:27:35Z</time>
      </trkpt>
      <trkpt lat="44.19914" lon="6.60636">
        <ele>2086.026</ele>
        <time>2011-07-10T09:27:38Z</time>
      </trkpt>
      <trkpt lat="44.19926" lon="6.60665">
        <ele>2082.766</ele>
        <time>2011-07-10T09:27:43Z</time>
      </trkpt>
      <trkpt lat="44.19926" lon="6.60676">
        <ele>2080.993</ele>
        <time>2011-07-10T09:27:45Z</time>
      </trkpt>
      <trkpt lat="44.19931" lon="6.607">
        <ele>2077.636</ele>
        <time>2011-07-10T09:27:49Z</time>
      </trkpt>
      <trkpt lat="44.1993" lon="6.60703">
        <ele>2074.504</ele>
        <time>2011-07-10T09:27:52Z</time>
      </trkpt>
      <trkpt lat="44.19933" lon="6.60701">
        <ele>2073.96</ele>
        <time>2011-07-10T09:27:54Z</time>
      </trkpt>
      <trkpt lat="44.19933" lon="6.60697">
        <ele>2075.124</ele>
        <time>2011-07-10T09:28:00Z</time>
      </trkpt>
      <trkpt lat="44.19931" lon="6.60694">
        <ele>2079.875</ele>
        <time>2011-07-10T09:28:43Z</time>
      </trkpt>
      <trkpt lat="44.1993" lon="6.60699">
        <ele>2075.974</ele>
        <time>2011-07-10T09:28:49Z</time>
      </trkpt>
      <trkpt lat="44.19927" lon="6.60702">
        <ele>2074.105</ele>
        <time>2011-07-10T09:28:56Z</time>
      </trkpt>
      <trkpt lat="44.19924" lon="6.60701">
        <ele>2076.224</ele>
        <time>2011-07-10T09:29:48Z</time>
      </trkpt>
      <trkpt lat="44.19922" lon="6.60706">
        <ele>2074.385</ele>
        <time>2011-07-10T09:30:02Z</time>
      </trkpt>
      <trkpt lat="44.19911" lon="6.60716">
        <ele>2074.445</ele>
        <time>2011-07-10T09:30:08Z</time>
      </trkpt>
      <trkpt lat="44.19897" lon="6.60736">
        <ele>2072.753</ele>
        <time>2011-07-10T09:30:15Z</time>
      </trkpt>
      <trkpt lat="44.19882" lon="6.60751">
        <ele>2071.424</ele>
        <time>2011-07-10T09:30:20Z</time>
      </trkpt>
      <trkpt lat="44.19868" lon="6.60773">
        <ele>2071.104</ele>
        <time>2011-07-10T09:30:25Z</time>
      </trkpt>
      <trkpt lat="44.19854" lon="6.60804">
        <ele>2071.976</ele>
        <time>2011-07-10T09:30:31Z</time>
      </trkpt>
      <trkpt lat="44.19832" lon="6.60827">
        <ele>2074.66</ele>
        <time>2011-07-10T09:30:37Z</time>
      </trkpt>
      <trkpt lat="44.19813" lon="6.60839">
        <ele>2078.164</ele>
        <time>2011-07-10T09:30:41Z</time>
      </trkpt>
      <trkpt lat="44.19802" lon="6.60846">
        <ele>2078.742</ele>
        <time>2011-07-10T09:30:43Z</time>
      </trkpt>
      <trkpt lat="44.19774" lon="6.60864">
        <ele>2077.379</ele>
        <time>2011-07-10T09:30:48Z</time>
      </trkpt>
      <trkpt lat="44.19741" lon="6.60889">
        <ele>2071.891</ele>
        <time>2011-07-10T09:30:54Z</time>
      </trkpt>
      <trkpt lat="44.19722" lon="6.60902">
        <ele>2067.36</ele>
        <time>2011-07-10T09:30:58Z</time>
      </trkpt>
      <trkpt lat="44.19715" lon="6.60909">
        <ele>2066.45</ele>
        <time>2011-07-10T09:31:00Z</time>
      </trkpt>
      <trkpt lat="44.19692" lon="6.60937">
        <ele>2064.18</ele>
        <time>2011-07-10T09:31:04Z</time>
      </trkpt>
      <trkpt lat="44.1969" lon="6.60961">
        <ele>2064.772</ele>
        <time>2011-07-10T09:31:07Z</time>
      </trkpt>
      <trkpt lat="44.19692" lon="6.60968">
        <ele>2064.713</ele>
        <time>2011-07-10T09:31:08Z</time>
      </trkpt>
      <trkpt lat="44.19694" lon="6.60982">
        <ele>2064.553</ele>
        <time>2011-07-10T09:31:10Z</time>
      </trkpt>
      <trkpt lat="44.19678" lon="6.60998">
        <ele>2061.691</ele>
        <time>2011-07-10T09:31:14Z</time>
      </trkpt>
      <trkpt lat="44.19674" lon="6.61001">
        <ele>2059.139</ele>
        <time>2011-07-10T09:31:15Z</time>
      </trkpt>
      <trkpt lat="44.19651" lon="6.61009">
        <ele>2054.448</ele>
        <time>2011-07-10T09:31:19Z</time>
      </trkpt>
      <trkpt lat="44.19629" lon="6.61019">
        <ele>2052.008</ele>
        <time>2011-07-10T09:31:23Z</time>
      </trkpt>
      <trkpt lat="44.19593" lon="6.61022">
        <ele>2047.769</ele>
        <time>2011-07-10T09:31:28Z</time>
      </trkpt>
      <trkpt lat="44.19578" lon="6.61017">
        <ele>2045.487</ele>
        <time>2011-07-10T09:31:30Z</time>
      </trkpt>
      <trkpt lat="44.19565" lon="6.6101">
        <ele>2042.684</ele>
        <time>2011-07-10T09:31:32Z</time>
      </trkpt>
      <trkpt lat="44.19542" lon="6.61003">
        <ele>2041.268</ele>
        <time>2011-07-10T09:31:36Z</time>
      </trkpt>
      <trkpt lat="44.19499" lon="6.61019">
        <ele>2034.722</ele>
        <time>2011-07-10T09:31:42Z</time>
      </trkpt>
      <trkpt lat="44.19492" lon="6.61033">
        <ele>2035.308</ele>
        <time>2011-07-10T09:31:46Z</time>
      </trkpt>
      <trkpt lat="44.19487" lon="6.61033">
        <ele>2038.684</ele>
        <time>2011-07-10T09:31:49Z</time>
      </trkpt>
      <trkpt lat="44.19495" lon="6.61042">
        <ele>2041.037</ele>
        <time>2011-07-10T09:31:54Z</time>
      </trkpt>
      <trkpt lat="44.19506" lon="6.61055">
        <ele>2042.478</ele>
        <time>2011-07-10T09:31:57Z</time>
      </trkpt>
      <trkpt lat="44.19515" lon="6.61076">
        <ele>2045.16</ele>
        <time>2011-07-10T09:32:01Z</time>
      </trkpt>
      <trkpt lat="44.19508" lon="6.6109">
        <ele>2046.79</ele>
        <time>2011-07-10T09:32:05Z</time>
      </trkpt>
      <trkpt lat="44.19507" lon="6.61094">
        <ele>2045.25</ele>
        <time>2011-07-10T09:32:06Z</time>
      </trkpt>
      <trkpt lat="44.19497" lon="6.61116">
        <ele>2040.386</ele>
        <time>2011-07-10T09:32:12Z</time>
      </trkpt>
      <trkpt lat="44.19483" lon="6.6113">
        <ele>2037.065</ele>
        <time>2011-07-10T09:32:16Z</time>
      </trkpt>
      <trkpt lat="44.19468" lon="6.61146">
        <ele>2034.084</ele>
        <time>2011-07-10T09:32:20Z</time>
      </trkpt>
      <trkpt lat="44.19451" lon="6.61159">
        <ele>2026.37</ele>
        <time>2011-07-10T09:32:25Z</time>
      </trkpt>
      <trkpt lat="44.1943" lon="6.61172">
        <ele>2020.186</ele>
        <time>2011-07-10T09:32:30Z</time>
      </trkpt>
      <trkpt lat="44.19406" lon="6.61194">
        <ele>2013.776</ele>
        <time>2011-07-10T09:32:35Z</time>
      </trkpt>
      <trkpt lat="44.19387" lon="6.61205">
        <ele>2008.057</ele>
        <time>2011-07-10T09:32:40Z</time>
      </trkpt>
      <trkpt lat="44.19368" lon="6.61209">
        <ele>2005.841</ele>
        <time>2011-07-10T09:32:46Z</time>
      </trkpt>
      <trkpt lat="44.19354" lon="6.61221">
        <ele>2005.462</ele>
        <time>2011-07-10T09:32:51Z</time>
      </trkpt>
      <trkpt lat="44.19352" lon="6.61223">
        <ele>2005.683</ele>
        <time>2011-07-10T09:32:52Z</time>
      </trkpt>
      <trkpt lat="44.19345" lon="6.61225">
        <ele>2006.867</ele>
        <time>2011-07-10T09:32:55Z</time>
      </trkpt>
      <trkpt lat="44.19332" lon="6.61236">
        <ele>2008.198</ele>
        <time>2011-07-10T09:33:01Z</time>
      </trkpt>
      <trkpt lat="44.19326" lon="6.6125">
        <ele>2006.293</ele>
        <time>2011-07-10T09:33:05Z</time>
      </trkpt>
      <trkpt lat="44.19318" lon="6.61266">
        <ele>2005.173</ele>
        <time>2011-07-10T09:33:08Z</time>
      </trkpt>
      <trkpt lat="44.19311" lon="6.61288">
        <ele>2004.554</ele>
        <time>2011-07-10T09:33:12Z</time>
      </trkpt>
      <trkpt lat="44.19303" lon="6.61317">
        <ele>2004.204</ele>
        <time>2011-07-10T09:33:17Z</time>
      </trkpt>
      <trkpt lat="44.19287" lon="6.61343">
        <ele>2002.012</ele>
        <time>2011-07-10T09:33:22Z</time>
      </trkpt>
      <trkpt lat="44.19272" lon="6.61365">
        <ele>1994.445</ele>
        <time>2011-07-10T09:33:27Z</time>
      </trkpt>
      <trkpt lat="44.19257" lon="6.61383">
        <ele>1992.007</ele>
        <time>2011-07-10T09:33:32Z</time>
      </trkpt>
      <trkpt lat="44.19244" lon="6.61391">
        <ele>1987.578</ele>
        <time>2011-07-10T09:33:36Z</time>
      </trkpt>
      <trkpt lat="44.19229" lon="6.61407">
        <ele>1985.007</ele>
        <time>2011-07-10T09:33:41Z</time>
      </trkpt>
      <trkpt lat="44.19215" lon="6.61427">
        <ele>1981.787</ele>
        <time>2011-07-10T09:33:46Z</time>
      </trkpt>
      <trkpt lat="44.19198" lon="6.6144">
        <ele>1977.338</ele>
        <time>2011-07-10T09:33:51Z</time>
      </trkpt>
      <trkpt lat="44.1921" lon="6.61442">
        <ele>1976.763</ele>
        <time>2011-07-10T09:33:55Z</time>
      </trkpt>
      <trkpt lat="44.19221" lon="6.61453">
        <ele>1976.724</ele>
        <time>2011-07-10T09:34:00Z</time>
      </trkpt>
      <trkpt lat="44.19235" lon="6.61453">
        <ele>1967.959</ele>
        <time>2011-07-10T09:34:03Z</time>
      </trkpt>
      <trkpt lat="44.19253" lon="6.61449">
        <ele>1961.514</ele>
        <time>2011-07-10T09:34:07Z</time>
      </trkpt>
      <trkpt lat="44.19261" lon="6.61447">
        <ele>1959.369</ele>
        <time>2011-07-10T09:34:10Z</time>
      </trkpt>
      <trkpt lat="44.19266" lon="6.61447">
        <ele>1957.672</ele>
        <time>2011-07-10T09:34:16Z</time>
      </trkpt>
      <trkpt lat="44.19268" lon="6.61448">
        <ele>1958.337</ele>
        <time>2011-07-10T09:34:22Z</time>
      </trkpt>
      <trkpt lat="44.19272" lon="6.6145">
        <ele>1959.768</ele>
        <time>2011-07-10T09:34:25Z</time>
      </trkpt>
      <trkpt lat="44.19276" lon="6.61454">
        <ele>1960.39</ele>
        <time>2011-07-10T09:34:27Z</time>
      </trkpt>
      <trkpt lat="44.19278" lon="6.61469">
        <ele>1956.78</ele>
        <time>2011-07-10T09:34:32Z</time>
      </trkpt>
      <trkpt lat="44.19266" lon="6.61493">
        <ele>1955.16</ele>
        <time>2011-07-10T09:34:37Z</time>
      </trkpt>
      <trkpt lat="44.19259" lon="6.61508">
        <ele>1954.39</ele>
        <time>2011-07-10T09:34:40Z</time>
      </trkpt>
      <trkpt lat="44.19243" lon="6.61533">
        <ele>1952.69</ele>
        <time>2011-07-10T09:34:45Z</time>
      </trkpt>
      <trkpt lat="44.1923" lon="6.61564">
        <ele>1948.891</ele>
        <time>2011-07-10T09:34:51Z</time>
      </trkpt>
      <trkpt lat="44.19226" lon="6.61566">
        <ele>1948.703</ele>
        <time>2011-07-10T09:34:55Z</time>
      </trkpt>
      <trkpt lat="44.1922" lon="6.61567">
        <ele>1942.504</ele>
        <time>2011-07-10T09:35:02Z</time>
      </trkpt>
      <trkpt lat="44.19218" lon="6.61569">
        <ele>1941.615</ele>
        <time>2011-07-10T09:35:07Z</time>
      </trkpt>
      <trkpt lat="44.19218" lon="6.61569">
        <ele>1941.666</ele>
        <time>2011-07-10T09:35:08Z</time>
      </trkpt>
      <trkpt lat="44.19201" lon="6.6157">
        <ele>1939.785</ele>
        <time>2011-07-10T09:35:14Z</time>
      </trkpt>
      <trkpt lat="44.19179" lon="6.61571">
        <ele>1936.732</ele>
        <time>2011-07-10T09:35:20Z</time>
      </trkpt>
      <trkpt lat="44.19163" lon="6.61585">
        <ele>1933.65</ele>
        <time>2011-07-10T09:35:24Z</time>
      </trkpt>
      <trkpt lat="44.19156" lon="6.61596">
        <ele>1931.872</ele>
        <time>2011-07-10T09:35:26Z</time>
      </trkpt>
      <trkpt lat="44.19148" lon="6.61616">
        <ele>1929.741</ele>
        <time>2011-07-10T09:35:29Z</time>
      </trkpt>
      <trkpt lat="44.19142" lon="6.61632">
        <ele>1929.984</ele>
        <time>2011-07-10T09:35:33Z</time>
      </trkpt>
      <trkpt lat="44.19139" lon="6.61635">
        <ele>1929.604</ele>
        <time>2011-07-10T09:35:35Z</time>
      </trkpt>
      <trkpt lat="44.19141" lon="6.61634">
        <ele>1928.405</ele>
        <time>2011-07-10T09:35:41Z</time>
      </trkpt>
      <trkpt lat="44.19143" lon="6.61634">
        <ele>1926.655</ele>
        <time>2011-07-10T09:35:46Z</time>
      </trkpt>
      <trkpt lat="44.19145" lon="6.61623">
        <ele>1924.823</ele>
        <time>2011-07-10T09:35:50Z</time>
      </trkpt>
      <trkpt lat="44.19138" lon="6.61584">
        <ele>1921.95</ele>
        <time>2011-07-10T09:35:56Z</time>
      </trkpt>
      <trkpt lat="44.19134" lon="6.61568">
        <ele>1920.88</ele>
        <time>2011-07-10T09:35:58Z</time>
      </trkpt>
      <trkpt lat="44.19132" lon="6.61551">
        <ele>1919.65</ele>
        <time>2011-07-10T09:36:00Z</time>
      </trkpt>
      <trkpt lat="44.19133" lon="6.61527">
        <ele>1917.548</ele>
        <time>2011-07-10T09:36:03Z</time>
      </trkpt>
      <trkpt lat="44.19131" lon="6.61513">
        <ele>1916.088</ele>
        <time>2011-07-10T09:36:05Z</time>
      </trkpt>
      <trkpt lat="44.19129" lon="6.61462">
        <ele>1910.025</ele>
        <time>2011-07-10T09:36:11Z</time>
      </trkpt>
      <trkpt lat="44.19128" lon="6.61453">
        <ele>1908.734</ele>
        <time>2011-07-10T09:36:12Z</time>
      </trkpt>
      <trkpt lat="44.19121" lon="6.61414">
        <ele>1904.124</ele>
        <time>2011-07-10T09:36:17Z</time>
      </trkpt>
      <trkpt lat="44.19103" lon="6.61374">
        <ele>1897.741</ele>
        <time>2011-07-10T09:36:23Z</time>
      </trkpt>
      <trkpt lat="44.19098" lon="6.61366">
        <ele>1896.872</ele>
        <time>2011-07-10T09:36:24Z</time>
      </trkpt>
      <trkpt lat="44.19077" lon="6.61339">
        <ele>1893.281</ele>
        <time>2011-07-10T09:36:28Z</time>
      </trkpt>
      <trkpt lat="44.19065" lon="6.61325">
        <ele>1890.15</ele>
        <time>2011-07-10T09:36:31Z</time>
      </trkpt>
      <trkpt lat="44.19057" lon="6.61319">
        <ele>1889.1</ele>
        <time>2011-07-10T09:36:33Z</time>
      </trkpt>
      <trkpt lat="44.19038" lon="6.613">
        <ele>1883.042</ele>
        <time>2011-07-10T09:36:39Z</time>
      </trkpt>
      <trkpt lat="44.19034" lon="6.61294">
        <ele>1881.414</ele>
        <time>2011-07-10T09:36:43Z</time>
      </trkpt>
      <trkpt lat="44.19039" lon="6.61311">
        <ele>1881.641</ele>
        <time>2011-07-10T09:36:48Z</time>
      </trkpt>
      <trkpt lat="44.1904" lon="6.61317">
        <ele>1881.854</ele>
        <time>2011-07-10T09:36:52Z</time>
      </trkpt>
      <trkpt lat="44.19044" lon="6.61324">
        <ele>1883.107</ele>
        <time>2011-07-10T09:36:58Z</time>
      </trkpt>
      <trkpt lat="44.19046" lon="6.61328">
        <ele>1885.067</ele>
        <time>2011-07-10T09:37:00Z</time>
      </trkpt>
      <trkpt lat="44.19054" lon="6.61353">
        <ele>1886.325</ele>
        <time>2011-07-10T09:37:05Z</time>
      </trkpt>
      <trkpt lat="44.1906" lon="6.61385">
        <ele>1884.551</ele>
        <time>2011-07-10T09:37:09Z</time>
      </trkpt>
      <trkpt lat="44.19067" lon="6.61424">
        <ele>1879.268</ele>
        <time>2011-07-10T09:37:14Z</time>
      </trkpt>
      <trkpt lat="44.19072" lon="6.6143">
        <ele>1874.773</ele>
        <time>2011-07-10T09:37:17Z</time>
      </trkpt>
      <trkpt lat="44.19077" lon="6.61445">
        <ele>1873.238</ele>
        <time>2011-07-10T09:37:22Z</time>
      </trkpt>
      <trkpt lat="44.19078" lon="6.61449">
        <ele>1872.506</ele>
        <time>2011-07-10T09:37:23Z</time>
      </trkpt>
      <trkpt lat="44.19082" lon="6.61463">
        <ele>1871.126</ele>
        <time>2011-07-10T09:37:26Z</time>
      </trkpt>
      <trkpt lat="44.19075" lon="6.61487">
        <ele>1867.586</ele>
        <time>2011-07-10T09:37:32Z</time>
      </trkpt>
      <trkpt lat="44.19071" lon="6.61508">
        <ele>1867.058</ele>
        <time>2011-07-10T09:37:36Z</time>
      </trkpt>
      <trkpt lat="44.19066" lon="6.61535">
        <ele>1865.168</ele>
        <time>2011-07-10T09:37:41Z</time>
      </trkpt>
      <trkpt lat="44.19062" lon="6.6156">
        <ele>1860.775</ele>
        <time>2011-07-10T09:37:45Z</time>
      </trkpt>
      <trkpt lat="44.19057" lon="6.61585">
        <ele>1857.375</ele>
        <time>2011-07-10T09:37:49Z</time>
      </trkpt>
      <trkpt lat="44.19045" lon="6.61625">
        <ele>1846.25</ele>
        <time>2011-07-10T09:37:56Z</time>
      </trkpt>
      <trkpt lat="44.19037" lon="6.6164">
        <ele>1842.55</ele>
        <time>2011-07-10T09:37:59Z</time>
      </trkpt>
      <trkpt lat="44.19026" lon="6.6166">
        <ele>1837.771</ele>
        <time>2011-07-10T09:38:03Z</time>
      </trkpt>
      <trkpt lat="44.19018" lon="6.61684">
        <ele>1833.618</ele>
        <time>2011-07-10T09:38:07Z</time>
      </trkpt>
      <trkpt lat="44.19009" lon="6.61713">
        <ele>1827.041</ele>
        <time>2011-07-10T09:38:12Z</time>
      </trkpt>
      <trkpt lat="44.19002" lon="6.61728">
        <ele>1824.692</ele>
        <time>2011-07-10T09:38:15Z</time>
      </trkpt>
      <trkpt lat="44.18995" lon="6.61744">
        <ele>1822.302</ele>
        <time>2011-07-10T09:38:18Z</time>
      </trkpt>
      <trkpt lat="44.18986" lon="6.61764">
        <ele>1820.347</ele>
        <time>2011-07-10T09:38:22Z</time>
      </trkpt>
      <trkpt lat="44.18983" lon="6.61797">
        <ele>1814.096</ele>
        <time>2011-07-10T09:38:28Z</time>
      </trkpt>
      <trkpt lat="44.18991" lon="6.61817">
        <ele>1810.716</ele>
        <time>2011-07-10T09:38:32Z</time>
      </trkpt>
      <trkpt lat="44.18997" lon="6.61837">
        <ele>1807.145</ele>
        <time>2011-07-10T09:38:36Z</time>
      </trkpt>
      <trkpt lat="44.18992" lon="6.61864">
        <ele>1805.526</ele>
        <time>2011-07-10T09:38:41Z</time>
      </trkpt>
      <trkpt lat="44.1898" lon="6.61884">
        <ele>1804.117</ele>
        <time>2011-07-10T09:38:45Z</time>
      </trkpt>
      <trkpt lat="44.18968" lon="6.619">
        <ele>1802.027</ele>
        <time>2011-07-10T09:38:48Z</time>
      </trkpt>
      <trkpt lat="44.1896" lon="6.61914">
        <ele>1798.857</ele>
        <time>2011-07-10T09:38:52Z</time>
      </trkpt>
      <trkpt lat="44.18956" lon="6.61918">
        <ele>1796.054</ele>
        <time>2011-07-10T09:38:55Z</time>
      </trkpt>
      <trkpt lat="44.18962" lon="6.61904">
        <ele>1791.435</ele>
        <time>2011-07-10T09:39:00Z</time>
      </trkpt>
      <trkpt lat="44.18966" lon="6.61892">
        <ele>1788.463</ele>
        <time>2011-07-10T09:39:02Z</time>
      </trkpt>
      <trkpt lat="44.18974" lon="6.6186">
        <ele>1779.303</ele>
        <time>2011-07-10T09:39:07Z</time>
      </trkpt>
      <trkpt lat="44.18964" lon="6.61834">
        <ele>1776.01</ele>
        <time>2011-07-10T09:39:11Z</time>
      </trkpt>
      <trkpt lat="44.18961" lon="6.61828">
        <ele>1775.159</ele>
        <time>2011-07-10T09:39:12Z</time>
      </trkpt>
      <trkpt lat="44.18951" lon="6.61811">
        <ele>1775.405</ele>
        <time>2011-07-10T09:39:15Z</time>
      </trkpt>
      <trkpt lat="44.18944" lon="6.6179">
        <ele>1772.032</ele>
        <time>2011-07-10T09:39:18Z</time>
      </trkpt>
      <trkpt lat="44.18935" lon="6.61768">
        <ele>1770.553</ele>
        <time>2011-07-10T09:39:21Z</time>
      </trkpt>
      <trkpt lat="44.18933" lon="6.61744">
        <ele>1765.922</ele>
        <time>2011-07-10T09:39:25Z</time>
      </trkpt>
      <trkpt lat="44.18942" lon="6.6172">
        <ele>1759.411</ele>
        <time>2011-07-10T09:39:30Z</time>
      </trkpt>
      <trkpt lat="44.18941" lon="6.6172">
        <ele>1758.602</ele>
        <time>2011-07-10T09:39:32Z</time>
      </trkpt>
      <trkpt lat="44.18944" lon="6.61712">
        <ele>1754.355</ele>
        <time>2011-07-10T09:39:37Z</time>
      </trkpt>
      <trkpt lat="44.18945" lon="6.61707">
        <ele>1752.834</ele>
        <time>2011-07-10T09:39:39Z</time>
      </trkpt>
      <trkpt lat="44.18945" lon="6.61689">
        <ele>1751.704</ele>
        <time>2011-07-10T09:39:45Z</time>
      </trkpt>
      <trkpt lat="44.18946" lon="6.61683">
        <ele>1753.981</ele>
        <time>2011-07-10T09:39:51Z</time>
      </trkpt>
      <trkpt lat="44.18946" lon="6.61678">
        <ele>1754.983</ele>
        <time>2011-07-10T09:39:55Z</time>
      </trkpt>
      <trkpt lat="44.18942" lon="6.61664">
        <ele>1759.949</ele>
        <time>2011-07-10T09:40:01Z</time>
      </trkpt>
      <trkpt lat="44.18941" lon="6.61648">
        <ele>1760.277</ele>
        <time>2011-07-10T09:40:05Z</time>
      </trkpt>
      <trkpt lat="44.18944" lon="6.61626">
        <ele>1758.954</ele>
        <time>2011-07-10T09:40:09Z</time>
      </trkpt>
      <trkpt lat="44.18952" lon="6.61614">
        <ele>1755.741</ele>
        <time>2011-07-10T09:40:12Z</time>
      </trkpt>
      <trkpt lat="44.18959" lon="6.61585">
        <ele>1750.488</ele>
        <time>2011-07-10T09:40:17Z</time>
      </trkpt>
      <trkpt lat="44.1896" lon="6.61571">
        <ele>1746.764</ele>
        <time>2011-07-10T09:40:20Z</time>
      </trkpt>
      <trkpt lat="44.18955" lon="6.61551">
        <ele>1744.074</ele>
        <time>2011-07-10T09:40:24Z</time>
      </trkpt>
      <trkpt lat="44.18953" lon="6.6153">
        <ele>1740.915</ele>
        <time>2011-07-10T09:40:28Z</time>
      </trkpt>
      <trkpt lat="44.18954" lon="6.61517">
        <ele>1738.563</ele>
        <time>2011-07-10T09:40:31Z</time>
      </trkpt>
      <trkpt lat="44.18938" lon="6.61507">
        <ele>1736.684</ele>
        <time>2011-07-10T09:40:35Z</time>
      </trkpt>
      <trkpt lat="44.18925" lon="6.61499">
        <ele>1736.027</ele>
        <time>2011-07-10T09:40:38Z</time>
      </trkpt>
      <trkpt lat="44.18913" lon="6.61492">
        <ele>1735.359</ele>
        <time>2011-07-10T09:40:42Z</time>
      </trkpt>
      <trkpt lat="44.18909" lon="6.61491">
        <ele>1734.389</ele>
        <time>2011-07-10T09:40:44Z</time>
      </trkpt>
      <trkpt lat="44.18904" lon="6.61494">
        <ele>1735.942</ele>
        <time>2011-07-10T09:40:48Z</time>
      </trkpt>
      <trkpt lat="44.18915" lon="6.61502">
        <ele>1739.408</ele>
        <time>2011-07-10T09:40:56Z</time>
      </trkpt>
      <trkpt lat="44.18917" lon="6.61506">
        <ele>1739.156</ele>
        <time>2011-07-10T09:40:59Z</time>
      </trkpt>
      <trkpt lat="44.18906" lon="6.61499">
        <ele>1735.411</ele>
        <time>2011-07-10T09:41:04Z</time>
      </trkpt>
      <trkpt lat="44.18895" lon="6.61494">
        <ele>1732.718</ele>
        <time>2011-07-10T09:41:07Z</time>
      </trkpt>
      <trkpt lat="44.18894" lon="6.61474">
        <ele>1728.517</ele>
        <time>2011-07-10T09:41:11Z</time>
      </trkpt>
      <trkpt lat="44.18897" lon="6.61452">
        <ele>1728.372</ele>
        <time>2011-07-10T09:41:16Z</time>
      </trkpt>
      <trkpt lat="44.1889" lon="6.61443">
        <ele>1728.404</ele>
        <time>2011-07-10T09:41:20Z</time>
      </trkpt>
      <trkpt lat="44.18885" lon="6.61429">
        <ele>1726.834</ele>
        <time>2011-07-10T09:41:24Z</time>
      </trkpt>
      <trkpt lat="44.18875" lon="6.61407">
        <ele>1725.133</ele>
        <time>2011-07-10T09:41:30Z</time>
      </trkpt>
      <trkpt lat="44.18872" lon="6.61391">
        <ele>1726.453</ele>
        <time>2011-07-10T09:41:34Z</time>
      </trkpt>
      <trkpt lat="44.18871" lon="6.61388">
        <ele>1726.744</ele>
        <time>2011-07-10T09:41:35Z</time>
      </trkpt>
      <trkpt lat="44.18872" lon="6.61385">
        <ele>1726.803</ele>
        <time>2011-07-10T09:41:37Z</time>
      </trkpt>
      <trkpt lat="44.18866" lon="6.61393">
        <ele>1730.177</ele>
        <time>2011-07-10T09:41:42Z</time>
      </trkpt>
      <trkpt lat="44.18849" lon="6.61393">
        <ele>1727.953</ele>
        <time>2011-07-10T09:41:46Z</time>
      </trkpt>
      <trkpt lat="44.18831" lon="6.61394">
        <ele>1723.187</ele>
        <time>2011-07-10T09:41:50Z</time>
      </trkpt>
      <trkpt lat="44.18811" lon="6.6139">
        <ele>1716.442</ele>
        <time>2011-07-10T09:41:54Z</time>
      </trkpt>
      <trkpt lat="44.18792" lon="6.61389">
        <ele>1710.449</ele>
        <time>2011-07-10T09:41:58Z</time>
      </trkpt>
      <trkpt lat="44.18777" lon="6.61382">
        <ele>1705.8</ele>
        <time>2011-07-10T09:42:02Z</time>
      </trkpt>
      <trkpt lat="44.1876" lon="6.61384">
        <ele>1701.26</ele>
        <time>2011-07-10T09:42:06Z</time>
      </trkpt>
      <trkpt lat="44.18742" lon="6.61378">
        <ele>1696.581</ele>
        <time>2011-07-10T09:42:10Z</time>
      </trkpt>
      <trkpt lat="44.18736" lon="6.6137">
        <ele>1694.241</ele>
        <time>2011-07-10T09:42:12Z</time>
      </trkpt>
      <trkpt lat="44.18717" lon="6.61346">
        <ele>1690.034</ele>
        <time>2011-07-10T09:42:18Z</time>
      </trkpt>
      <trkpt lat="44.1871" lon="6.61352">
        <ele>1688.849</ele>
        <time>2011-07-10T09:42:23Z</time>
      </trkpt>
      <trkpt lat="44.187" lon="6.61355">
        <ele>1687.949</ele>
        <time>2011-07-10T09:42:27Z</time>
      </trkpt>
      <trkpt lat="44.18688" lon="6.61358">
        <ele>1685.748</ele>
        <time>2011-07-10T09:42:30Z</time>
      </trkpt>
      <trkpt lat="44.1867" lon="6.61355">
        <ele>1682.148</ele>
        <time>2011-07-10T09:42:35Z</time>
      </trkpt>
      <trkpt lat="44.18668" lon="6.61355">
        <ele>1681.781</ele>
        <time>2011-07-10T09:42:38Z</time>
      </trkpt>
      <trkpt lat="44.18662" lon="6.61353">
        <ele>1681.673</ele>
        <time>2011-07-10T09:42:52Z</time>
      </trkpt>
      <trkpt lat="44.18659" lon="6.6135">
        <ele>1681.082</ele>
        <time>2011-07-10T09:42:54Z</time>
      </trkpt>
      <trkpt lat="44.18657" lon="6.61353">
        <ele>1681.233</ele>
        <time>2011-07-10T09:42:59Z</time>
      </trkpt>
      <trkpt lat="44.18657" lon="6.61354">
        <ele>1681.614</ele>
        <time>2011-07-10T09:43:02Z</time>
      </trkpt>
      <trkpt lat="44.18667" lon="6.61372">
        <ele>1679.58</ele>
        <time>2011-07-10T09:43:08Z</time>
      </trkpt>
      <trkpt lat="44.18675" lon="6.61377">
        <ele>1677.71</ele>
        <time>2011-07-10T09:43:11Z</time>
      </trkpt>
      <trkpt lat="44.18675" lon="6.6138">
        <ele>1675.638</ele>
        <time>2011-07-10T09:43:15Z</time>
      </trkpt>
      <trkpt lat="44.18657" lon="6.61371">
        <ele>1671.966</ele>
        <time>2011-07-10T09:43:20Z</time>
      </trkpt>
      <trkpt lat="44.18643" lon="6.61355">
        <ele>1667.645</ele>
        <time>2011-07-10T09:43:25Z</time>
      </trkpt>
      <trkpt lat="44.18638" lon="6.6135">
        <ele>1667.007</ele>
        <time>2011-07-10T09:43:27Z</time>
      </trkpt>
      <trkpt lat="44.18623" lon="6.61352">
        <ele>1664.218</ele>
        <time>2011-07-10T09:43:32Z</time>
      </trkpt>
      <trkpt lat="44.1861" lon="6.61349">
        <ele>1662.457</ele>
        <time>2011-07-10T09:43:35Z</time>
      </trkpt>
      <trkpt lat="44.18588" lon="6.61341">
        <ele>1660.177</ele>
        <time>2011-07-10T09:43:40Z</time>
      </trkpt>
      <trkpt lat="44.18565" lon="6.61326">
        <ele>1655.363</ele>
        <time>2011-07-10T09:43:45Z</time>
      </trkpt>
      <trkpt lat="44.18543" lon="6.61323">
        <ele>1653.077</ele>
        <time>2011-07-10T09:43:50Z</time>
      </trkpt>
      <trkpt lat="44.18535" lon="6.61322">
        <ele>1651.606</ele>
        <time>2011-07-10T09:43:52Z</time>
      </trkpt>
      <trkpt lat="44.1852" lon="6.61315">
        <ele>1647.424</ele>
        <time>2011-07-10T09:43:55Z</time>
      </trkpt>
      <trkpt lat="44.18496" lon="6.61299">
        <ele>1641.92</ele>
        <time>2011-07-10T09:44:00Z</time>
      </trkpt>
      <trkpt lat="44.18489" lon="6.61295">
        <ele>1638.293</ele>
        <time>2011-07-10T09:44:03Z</time>
      </trkpt>
      <trkpt lat="44.18491" lon="6.61305">
        <ele>1636.844</ele>
        <time>2011-07-10T09:44:06Z</time>
      </trkpt>
      <trkpt lat="44.18499" lon="6.61331">
        <ele>1635.233</ele>
        <time>2011-07-10T09:44:10Z</time>
      </trkpt>
      <trkpt lat="44.18511" lon="6.6137">
        <ele>1633.083</ele>
        <time>2011-07-10T09:44:15Z</time>
      </trkpt>
      <trkpt lat="44.18522" lon="6.6139">
        <ele>1630.652</ele>
        <time>2011-07-10T09:44:19Z</time>
      </trkpt>
      <trkpt lat="44.18521" lon="6.61397">
        <ele>1629.914</ele>
        <time>2011-07-10T09:44:22Z</time>
      </trkpt>
      <trkpt lat="44.18533" lon="6.61403">
        <ele>1630.432</ele>
        <time>2011-07-10T09:46:45Z</time>
      </trkpt>
      <trkpt lat="44.1852" lon="6.61391">
        <ele>1626.129</ele>
        <time>2011-07-10T09:46:51Z</time>
      </trkpt>
      <trkpt lat="44.18513" lon="6.61386">
        <ele>1625.84</ele>
        <time>2011-07-10T09:46:53Z</time>
      </trkpt>
      <trkpt lat="44.18496" lon="6.61358">
        <ele>1623.708</ele>
        <time>2011-07-10T09:46:59Z</time>
      </trkpt>
      <trkpt lat="44.18479" lon="6.61328">
        <ele>1621.877</ele>
        <time>2011-07-10T09:47:04Z</time>
      </trkpt>
      <trkpt lat="44.18465" lon="6.61308">
        <ele>1620.479</ele>
        <time>2011-07-10T09:47:09Z</time>
      </trkpt>
      <trkpt lat="44.18458" lon="6.613">
        <ele>1619.991</ele>
        <time>2011-07-10T09:47:15Z</time>
      </trkpt>
      <trkpt lat="44.18456" lon="6.61297">
        <ele>1619.902</ele>
        <time>2011-07-10T09:47:17Z</time>
      </trkpt>
      <trkpt lat="44.1844" lon="6.61277">
        <ele>1619.052</ele>
        <time>2011-07-10T09:47:23Z</time>
      </trkpt>
      <trkpt lat="44.18432" lon="6.61257">
        <ele>1619.832</ele>
        <time>2011-07-10T09:47:27Z</time>
      </trkpt>
      <trkpt lat="44.1842" lon="6.6123">
        <ele>1620.543</ele>
        <time>2011-07-10T09:47:32Z</time>
      </trkpt>
      <trkpt lat="44.18416" lon="6.61209">
        <ele>1619.384</ele>
        <time>2011-07-10T09:47:36Z</time>
      </trkpt>
      <trkpt lat="44.18416" lon="6.61204">
        <ele>1619.294</ele>
        <time>2011-07-10T09:47:37Z</time>
      </trkpt>
      <trkpt lat="44.18417" lon="6.61183">
        <ele>1618.393</ele>
        <time>2011-07-10T09:47:42Z</time>
      </trkpt>
      <trkpt lat="44.18415" lon="6.61172">
        <ele>1618.073</ele>
        <time>2011-07-10T09:47:44Z</time>
      </trkpt>
      <trkpt lat="44.18413" lon="6.61143">
        <ele>1616.623</ele>
        <time>2011-07-10T09:47:49Z</time>
      </trkpt>
      <trkpt lat="44.18412" lon="6.6113">
        <ele>1616.301</ele>
        <time>2011-07-10T09:47:51Z</time>
      </trkpt>
      <trkpt lat="44.18412" lon="6.61116">
        <ele>1615.872</ele>
        <time>2011-07-10T09:47:53Z</time>
      </trkpt>
      <trkpt lat="44.1842" lon="6.61098">
        <ele>1615.612</ele>
        <time>2011-07-10T09:47:57Z</time>
      </trkpt>
      <trkpt lat="44.18423" lon="6.61081">
        <ele>1614.059</ele>
        <time>2011-07-10T09:48:02Z</time>
      </trkpt>
      <trkpt lat="44.18412" lon="6.61057">
        <ele>1614.341</ele>
        <time>2011-07-10T09:48:06Z</time>
      </trkpt>
      <trkpt lat="44.18409" lon="6.61052">
        <ele>1614.44</ele>
        <time>2011-07-10T09:48:07Z</time>
      </trkpt>
      <trkpt lat="44.18405" lon="6.61029">
        <ele>1613.692</ele>
        <time>2011-07-10T09:48:12Z</time>
      </trkpt>
      <trkpt lat="44.18409" lon="6.61019">
        <ele>1613.452</ele>
        <time>2011-07-10T09:48:16Z</time>
      </trkpt>
      <trkpt lat="44.18409" lon="6.61014">
        <ele>1614.625</ele>
        <time>2011-07-10T09:48:20Z</time>
      </trkpt>
      <trkpt lat="44.18409" lon="6.61013">
        <ele>1615.074</ele>
        <time>2011-07-10T09:48:25Z</time>
      </trkpt>
      <trkpt lat="44.18412" lon="6.61012">
        <ele>1615.695</ele>
        <time>2011-07-10T09:48:31Z</time>
      </trkpt>
      <trkpt lat="44.1841" lon="6.61009">
        <ele>1615.635</ele>
        <time>2011-07-10T09:48:35Z</time>
      </trkpt>
      <trkpt lat="44.18409" lon="6.6101">
        <ele>1617.528</ele>
        <time>2011-07-10T09:48:38Z</time>
      </trkpt>
      <trkpt lat="44.18396" lon="6.61014">
        <ele>1618.15</ele>
        <time>2011-07-10T09:48:44Z</time>
      </trkpt>
      <trkpt lat="44.18393" lon="6.61015">
        <ele>1618.74</ele>
        <time>2011-07-10T09:48:45Z</time>
      </trkpt>
      <trkpt lat="44.18384" lon="6.61009">
        <ele>1619.911</ele>
        <time>2011-07-10T09:48:48Z</time>
      </trkpt>
      <trkpt lat="44.18355" lon="6.60997">
        <ele>1620.038</ele>
        <time>2011-07-10T09:48:54Z</time>
      </trkpt>
      <trkpt lat="44.1835" lon="6.60995">
        <ele>1619.798</ele>
        <time>2011-07-10T09:48:55Z</time>
      </trkpt>
      <trkpt lat="44.18336" lon="6.6099">
        <ele>1621.431</ele>
        <time>2011-07-10T09:48:59Z</time>
      </trkpt>
      <trkpt lat="44.18312" lon="6.6098">
        <ele>1619.029</ele>
        <time>2011-07-10T09:49:04Z</time>
      </trkpt>
      <trkpt lat="44.18303" lon="6.60977">
        <ele>1617.955</ele>
        <time>2011-07-10T09:49:06Z</time>
      </trkpt>
      <trkpt lat="44.18282" lon="6.60955">
        <ele>1615.23</ele>
        <time>2011-07-10T09:49:11Z</time>
      </trkpt>
      <trkpt lat="44.18269" lon="6.60949">
        <ele>1613.98</ele>
        <time>2011-07-10T09:49:13Z</time>
      </trkpt>
      <trkpt lat="44.18248" lon="6.60935">
        <ele>1609.737</ele>
        <time>2011-07-10T09:49:18Z</time>
      </trkpt>
      <trkpt lat="44.18243" lon="6.60926">
        <ele>1608.127</ele>
        <time>2011-07-10T09:49:20Z</time>
      </trkpt>
      <trkpt lat="44.18236" lon="6.60916">
        <ele>1607.528</ele>
        <time>2011-07-10T09:49:22Z</time>
      </trkpt>
      <trkpt lat="44.18222" lon="6.60901">
        <ele>1608.392</ele>
        <time>2011-07-10T09:49:25Z</time>
      </trkpt>
      <trkpt lat="44.18206" lon="6.60874">
        <ele>1606.66</ele>
        <time>2011-07-10T09:49:30Z</time>
      </trkpt>
      <trkpt lat="44.18196" lon="6.60866">
        <ele>1605.72</ele>
        <time>2011-07-10T09:49:34Z</time>
      </trkpt>
      <trkpt lat="44.18192" lon="6.60864">
        <ele>1605.69</ele>
        <time>2011-07-10T09:49:35Z</time>
      </trkpt>
      <trkpt lat="44.18174" lon="6.60848">
        <ele>1604.171</ele>
        <time>2011-07-10T09:49:39Z</time>
      </trkpt>
      <trkpt lat="44.18165" lon="6.60821">
        <ele>1600.738</ele>
        <time>2011-07-10T09:49:44Z</time>
      </trkpt>
      <trkpt lat="44.18161" lon="6.60801">
        <ele>1595.904</ele>
        <time>2011-07-10T09:49:48Z</time>
      </trkpt>
      <trkpt lat="44.18148" lon="6.60781">
        <ele>1594.537</ele>
        <time>2011-07-10T09:49:53Z</time>
      </trkpt>
      <trkpt lat="44.18133" lon="6.60752">
        <ele>1595.138</ele>
        <time>2011-07-10T09:49:58Z</time>
      </trkpt>
      <trkpt lat="44.18116" lon="6.60731">
        <ele>1596.121</ele>
        <time>2011-07-10T09:50:03Z</time>
      </trkpt>
      <trkpt lat="44.18106" lon="6.60713">
        <ele>1595.156</ele>
        <time>2011-07-10T09:50:07Z</time>
      </trkpt>
      <trkpt lat="44.18091" lon="6.60696">
        <ele>1591.024</ele>
        <time>2011-07-10T09:50:11Z</time>
      </trkpt>
      <trkpt lat="44.18076" lon="6.60691">
        <ele>1590.895</ele>
        <time>2011-07-10T09:50:14Z</time>
      </trkpt>
      <trkpt lat="44.18055" lon="6.60687">
        <ele>1592.098</ele>
        <time>2011-07-10T09:50:17Z</time>
      </trkpt>
      <trkpt lat="44.1803" lon="6.60683">
        <ele>1595.626</ele>
        <time>2011-07-10T09:50:21Z</time>
      </trkpt>
      <trkpt lat="44.18019" lon="6.60684">
        <ele>1596.987</ele>
        <time>2011-07-10T09:50:23Z</time>
      </trkpt>
      <trkpt lat="44.17988" lon="6.60689">
        <ele>1593.981</ele>
        <time>2011-07-10T09:50:29Z</time>
      </trkpt>
      <trkpt lat="44.17978" lon="6.60696">
        <ele>1595.344</ele>
        <time>2011-07-10T09:50:31Z</time>
      </trkpt>
      <trkpt lat="44.17946" lon="6.60695">
        <ele>1592.914</ele>
        <time>2011-07-10T09:50:36Z</time>
      </trkpt>
      <trkpt lat="44.17942" lon="6.60691">
        <ele>1592.243</ele>
        <time>2011-07-10T09:50:37Z</time>
      </trkpt>
      <trkpt lat="44.17937" lon="6.60685">
        <ele>1590.571</ele>
        <time>2011-07-10T09:50:39Z</time>
      </trkpt>
      <trkpt lat="44.1794" lon="6.60662">
        <ele>1586.927</ele>
        <time>2011-07-10T09:50:43Z</time>
      </trkpt>
      <trkpt lat="44.17945" lon="6.60635">
        <ele>1585.146</ele>
        <time>2011-07-10T09:50:47Z</time>
      </trkpt>
      <trkpt lat="44.17945" lon="6.60608">
        <ele>1582.093</ele>
        <time>2011-07-10T09:50:51Z</time>
      </trkpt>
      <trkpt lat="44.17943" lon="6.60581">
        <ele>1577.819</ele>
        <time>2011-07-10T09:50:56Z</time>
      </trkpt>
      <trkpt lat="44.17936" lon="6.60553">
        <ele>1579.464</ele>
        <time>2011-07-10T09:51:00Z</time>
      </trkpt>
      <trkpt lat="44.17932" lon="6.60543">
        <ele>1577.764</ele>
        <time>2011-07-10T09:51:02Z</time>
      </trkpt>
      <trkpt lat="44.17926" lon="6.60548">
        <ele>1578.409</ele>
        <time>2011-07-10T09:51:06Z</time>
      </trkpt>
      <trkpt lat="44.17926" lon="6.60553">
        <ele>1579.18</ele>
        <time>2011-07-10T09:51:07Z</time>
      </trkpt>
      <trkpt lat="44.17923" lon="6.60573">
        <ele>1581.634</ele>
        <time>2011-07-10T09:51:11Z</time>
      </trkpt>
      <trkpt lat="44.17922" lon="6.60577">
        <ele>1582.595</ele>
        <time>2011-07-10T09:51:13Z</time>
      </trkpt>
      <trkpt lat="44.17921" lon="6.60585">
        <ele>1583.356</ele>
        <time>2011-07-10T09:51:15Z</time>
      </trkpt>
      <trkpt lat="44.17911" lon="6.60622">
        <ele>1583.832</ele>
        <time>2011-07-10T09:51:20Z</time>
      </trkpt>
      <trkpt lat="44.17906" lon="6.60636">
        <ele>1582.85</ele>
        <time>2011-07-10T09:51:22Z</time>
      </trkpt>
      <trkpt lat="44.17898" lon="6.60669">
        <ele>1575.514</ele>
        <time>2011-07-10T09:51:27Z</time>
      </trkpt>
      <trkpt lat="44.17905" lon="6.60703">
        <ele>1562.767</ele>
        <time>2011-07-10T09:51:32Z</time>
      </trkpt>
      <trkpt lat="44.17907" lon="6.60709">
        <ele>1559.946</ele>
        <time>2011-07-10T09:51:33Z</time>
      </trkpt>
      <trkpt lat="44.17913" lon="6.60722">
        <ele>1556.166</ele>
        <time>2011-07-10T09:51:35Z</time>
      </trkpt>
      <trkpt lat="44.17919" lon="6.60746">
        <ele>1550.716</ele>
        <time>2011-07-10T09:51:38Z</time>
      </trkpt>
      <trkpt lat="44.17931" lon="6.60778">
        <ele>1545.216</ele>
        <time>2011-07-10T09:51:42Z</time>
      </trkpt>
      <trkpt lat="44.17941" lon="6.60797">
        <ele>1540.204</ele>
        <time>2011-07-10T09:51:45Z</time>
      </trkpt>
      <trkpt lat="44.17961" lon="6.60802">
        <ele>1534.305</ele>
        <time>2011-07-10T09:51:49Z</time>
      </trkpt>
      <trkpt lat="44.17974" lon="6.60807">
        <ele>1531.333</ele>
        <time>2011-07-10T09:51:52Z</time>
      </trkpt>
      <trkpt lat="44.18001" lon="6.60823">
        <ele>1524.065</ele>
        <time>2011-07-10T09:51:58Z</time>
      </trkpt>
      <trkpt lat="44.18017" lon="6.60837">
        <ele>1521.618</ele>
        <time>2011-07-10T09:52:02Z</time>
      </trkpt>
      <trkpt lat="44.1802" lon="6.60841">
        <ele>1520.658</ele>
        <time>2011-07-10T09:52:03Z</time>
      </trkpt>
      <trkpt lat="44.18029" lon="6.60879">
        <ele>1518.731</ele>
        <time>2011-07-10T09:52:09Z</time>
      </trkpt>
      <trkpt lat="44.18036" lon="6.60922">
        <ele>1519.037</ele>
        <time>2011-07-10T09:52:14Z</time>
      </trkpt>
      <trkpt lat="44.18037" lon="6.60919">
        <ele>1518.658</ele>
        <time>2011-07-10T09:52:17Z</time>
      </trkpt>
      <trkpt lat="44.18025" lon="6.6091">
        <ele>1516.987</ele>
        <time>2011-07-10T09:52:19Z</time>
      </trkpt>
      <trkpt lat="44.1801" lon="6.60891">
        <ele>1511.912</ele>
        <time>2011-07-10T09:52:24Z</time>
      </trkpt>
      <trkpt lat="44.17998" lon="6.60884">
        <ele>1510.674</ele>
        <time>2011-07-10T09:52:28Z</time>
      </trkpt>
      <trkpt lat="44.17985" lon="6.60878">
        <ele>1507.963</ele>
        <time>2011-07-10T09:52:32Z</time>
      </trkpt>
      <trkpt lat="44.17965" lon="6.60873">
        <ele>1506.958</ele>
        <time>2011-07-10T09:52:37Z</time>
      </trkpt>
      <trkpt lat="44.17954" lon="6.6087">
        <ele>1505.117</ele>
        <time>2011-07-10T09:52:40Z</time>
      </trkpt>
      <trkpt lat="44.17958" lon="6.60883">
        <ele>1503.826</ele>
        <time>2011-07-10T09:52:44Z</time>
      </trkpt>
      <trkpt lat="44.17961" lon="6.60888">
        <ele>1503.546</ele>
        <time>2011-07-10T09:52:45Z</time>
      </trkpt>
      <trkpt lat="44.17967" lon="6.60907">
        <ele>1503.498</ele>
        <time>2011-07-10T09:52:48Z</time>
      </trkpt>
      <trkpt lat="44.17975" lon="6.60944">
        <ele>1502.519</ele>
        <time>2011-07-10T09:52:53Z</time>
      </trkpt>
      <trkpt lat="44.17977" lon="6.60949">
        <ele>1501.93</ele>
        <time>2011-07-10T09:52:54Z</time>
      </trkpt>
      <trkpt lat="44.17982" lon="6.60963">
        <ele>1499.036</ele>
        <time>2011-07-10T09:52:56Z</time>
      </trkpt>
      <trkpt lat="44.17992" lon="6.60984">
        <ele>1495.574</ele>
        <time>2011-07-10T09:52:59Z</time>
      </trkpt>
      <trkpt lat="44.17998" lon="6.61015">
        <ele>1495.368</ele>
        <time>2011-07-10T09:53:03Z</time>
      </trkpt>
      <trkpt lat="44.18001" lon="6.6105">
        <ele>1489.754</ele>
        <time>2011-07-10T09:53:08Z</time>
      </trkpt>
      <trkpt lat="44.18019" lon="6.61081">
        <ele>1484.174</ele>
        <time>2011-07-10T09:53:13Z</time>
      </trkpt>
      <trkpt lat="44.18029" lon="6.61094">
        <ele>1482.483</ele>
        <time>2011-07-10T09:53:15Z</time>
      </trkpt>
      <trkpt lat="44.18046" lon="6.61119">
        <ele>1478.082</ele>
        <time>2011-07-10T09:53:19Z</time>
      </trkpt>
      <trkpt lat="44.18049" lon="6.61125">
        <ele>1476.562</ele>
        <time>2011-07-10T09:53:21Z</time>
      </trkpt>
      <trkpt lat="44.18039" lon="6.61129">
        <ele>1471.984</ele>
        <time>2011-07-10T09:53:25Z</time>
      </trkpt>
      <trkpt lat="44.18029" lon="6.61133">
        <ele>1471.884</ele>
        <time>2011-07-10T09:53:27Z</time>
      </trkpt>
      <trkpt lat="44.18005" lon="6.61136">
        <ele>1468.566</ele>
        <time>2011-07-10T09:53:32Z</time>
      </trkpt>
      <trkpt lat="44.17987" lon="6.61145">
        <ele>1464.894</ele>
        <time>2011-07-10T09:53:37Z</time>
      </trkpt>
      <trkpt lat="44.17971" lon="6.61143">
        <ele>1462.455</ele>
        <time>2011-07-10T09:53:40Z</time>
      </trkpt>
      <trkpt lat="44.17954" lon="6.61139">
        <ele>1459.433</ele>
        <time>2011-07-10T09:53:43Z</time>
      </trkpt>
      <trkpt lat="44.17967" lon="6.61156">
        <ele>1452.478</ele>
        <time>2011-07-10T09:53:47Z</time>
      </trkpt>
      <trkpt lat="44.17982" lon="6.61169">
        <ele>1449.458</ele>
        <time>2011-07-10T09:53:50Z</time>
      </trkpt>
      <trkpt lat="44.18006" lon="6.61183">
        <ele>1439.902</ele>
        <time>2011-07-10T09:53:55Z</time>
      </trkpt>
      <trkpt lat="44.18015" lon="6.61191">
        <ele>1437.083</ele>
        <time>2011-07-10T09:53:57Z</time>
      </trkpt>
      <trkpt lat="44.1802" lon="6.61195">
        <ele>1434.404</ele>
        <time>2011-07-10T09:54:00Z</time>
      </trkpt>
      <trkpt lat="44.1801" lon="6.61196">
        <ele>1434.844</ele>
        <time>2011-07-10T09:54:05Z</time>
      </trkpt>
      <trkpt lat="44.18007" lon="6.61196">
        <ele>1434.725</ele>
        <time>2011-07-10T09:54:06Z</time>
      </trkpt>
      <trkpt lat="44.17987" lon="6.61209">
        <ele>1438.021</ele>
        <time>2011-07-10T09:54:11Z</time>
      </trkpt>
      <trkpt lat="44.17979" lon="6.6121">
        <ele>1437.461</ele>
        <time>2011-07-10T09:54:15Z</time>
      </trkpt>
      <trkpt lat="44.17969" lon="6.61207">
        <ele>1434.308</ele>
        <time>2011-07-10T09:54:19Z</time>
      </trkpt>
      <trkpt lat="44.17959" lon="6.61211">
        <ele>1433.491</ele>
        <time>2011-07-10T09:54:23Z</time>
      </trkpt>
      <trkpt lat="44.17965" lon="6.61224">
        <ele>1434.615</ele>
        <time>2011-07-10T09:54:27Z</time>
      </trkpt>
      <trkpt lat="44.17976" lon="6.61239">
        <ele>1431.329</ele>
        <time>2011-07-10T09:54:31Z</time>
      </trkpt>
      <trkpt lat="44.17992" lon="6.61238">
        <ele>1426.868</ele>
        <time>2011-07-10T09:54:36Z</time>
      </trkpt>
      <trkpt lat="44.17992" lon="6.61239">
        <ele>1426.878</ele>
        <time>2011-07-10T09:54:37Z</time>
      </trkpt>
      <trkpt lat="44.17984" lon="6.61253">
        <ele>1428.065</ele>
        <time>2011-07-10T09:54:42Z</time>
      </trkpt>
      <trkpt lat="44.17978" lon="6.61258">
        <ele>1427.525</ele>
        <time>2011-07-10T09:54:44Z</time>
      </trkpt>
      <trkpt lat="44.17972" lon="6.61262">
        <ele>1427.786</ele>
        <time>2011-07-10T09:54:46Z</time>
      </trkpt>
      <trkpt lat="44.17961" lon="6.61269">
        <ele>1424.911</ele>
        <time>2011-07-10T09:54:50Z</time>
      </trkpt>
      <trkpt lat="44.17973" lon="6.61277">
        <ele>1417.004</ele>
        <time>2011-07-10T09:54:54Z</time>
      </trkpt>
      <trkpt lat="44.17975" lon="6.61282">
        <ele>1416.864</ele>
        <time>2011-07-10T09:54:56Z</time>
      </trkpt>
      <trkpt lat="44.17966" lon="6.61295">
        <ele>1412.694</ele>
        <time>2011-07-10T09:55:00Z</time>
      </trkpt>
      <trkpt lat="44.17959" lon="6.61315">
        <ele>1411.077</ele>
        <time>2011-07-10T09:55:04Z</time>
      </trkpt>
      <trkpt lat="44.17957" lon="6.6132">
        <ele>1410.266</ele>
        <time>2011-07-10T09:55:05Z</time>
      </trkpt>
      <trkpt lat="44.17955" lon="6.61328">
        <ele>1408.142</ele>
        <time>2011-07-10T09:55:07Z</time>
      </trkpt>
      <trkpt lat="44.17967" lon="6.61328">
        <ele>1404.996</ele>
        <time>2011-07-10T09:55:11Z</time>
      </trkpt>
      <trkpt lat="44.17969" lon="6.61336">
        <ele>1404.918</ele>
        <time>2011-07-10T09:55:14Z</time>
      </trkpt>
      <trkpt lat="44.1797" lon="6.61349">
        <ele>1404.028</ele>
        <time>2011-07-10T09:55:17Z</time>
      </trkpt>
      <trkpt lat="44.17971" lon="6.61354">
        <ele>1402.728</ele>
        <time>2011-07-10T09:55:19Z</time>
      </trkpt>
      <trkpt lat="44.17974" lon="6.61365">
        <ele>1395.253</ele>
        <time>2011-07-10T09:55:24Z</time>
      </trkpt>
      <trkpt lat="44.17974" lon="6.61381">
        <ele>1390.214</ele>
        <time>2011-07-10T09:55:29Z</time>
      </trkpt>
      <trkpt lat="44.17976" lon="6.61385">
        <ele>1389.588</ele>
        <time>2011-07-10T09:55:33Z</time>
      </trkpt>
      <trkpt lat="44.17978" lon="6.61387">
        <ele>1382.609</ele>
        <time>2011-07-10T09:55:46Z</time>
      </trkpt>
      <trkpt lat="44.17977" lon="6.61391">
        <ele>1392.532</ele>
        <time>2011-07-10T09:59:59Z</time>
      </trkpt>
      <trkpt lat="44.17984" lon="6.61401">
        <ele>1391.192</ele>
        <time>2011-07-10T10:00:04Z</time>
      </trkpt>
      <trkpt lat="44.17995" lon="6.61406">
        <ele>1389.641</ele>
        <time>2011-07-10T10:00:08Z</time>
      </trkpt>
      <trkpt lat="44.18002" lon="6.61424">
        <ele>1385.397</ele>
        <time>2011-07-10T10:00:14Z</time>
      </trkpt>
      <trkpt lat="44.18005" lon="6.61436">
        <ele>1383.086</ele>
        <time>2011-07-10T10:00:20Z</time>
      </trkpt>
      <trkpt lat="44.18007" lon="6.61447">
        <ele>1379.728</ele>
        <time>2011-07-10T10:00:25Z</time>
      </trkpt>
      <trkpt lat="44.18003" lon="6.61456">
        <ele>1376.587</ele>
        <time>2011-07-10T10:00:29Z</time>
      </trkpt>
      <trkpt lat="44.18007" lon="6.61462">
        <ele>1373.135</ele>
        <time>2011-07-10T10:00:32Z</time>
      </trkpt>
      <trkpt lat="44.18013" lon="6.61467">
        <ele>1366.054</ele>
        <time>2011-07-10T10:00:37Z</time>
      </trkpt>
      <trkpt lat="44.18011" lon="6.61479">
        <ele>1362.354</ele>
        <time>2011-07-10T10:00:42Z</time>
      </trkpt>
      <trkpt lat="44.18006" lon="6.61501">
        <ele>1358.603</ele>
        <time>2011-07-10T10:00:47Z</time>
      </trkpt>
      <trkpt lat="44.18012" lon="6.615">
        <ele>1354.422</ele>
        <time>2011-07-10T10:00:51Z</time>
      </trkpt>
      <trkpt lat="44.18015" lon="6.615">
        <ele>1352.253</ele>
        <time>2011-07-10T10:00:53Z</time>
      </trkpt>
      <trkpt lat="44.18014" lon="6.61503">
        <ele>1350.503</ele>
        <time>2011-07-10T10:00:55Z</time>
      </trkpt>
      <trkpt lat="44.18012" lon="6.61524">
        <ele>1345.663</ele>
        <time>2011-07-10T10:01:00Z</time>
      </trkpt>
      <trkpt lat="44.18003" lon="6.61536">
        <ele>1344.433</ele>
        <time>2011-07-10T10:01:04Z</time>
      </trkpt>
      <trkpt lat="44.17994" lon="6.61537">
        <ele>1343.225</ele>
        <time>2011-07-10T10:01:08Z</time>
      </trkpt>
      <trkpt lat="44.17991" lon="6.61535">
        <ele>1342.748</ele>
        <time>2011-07-10T10:01:11Z</time>
      </trkpt>
      <trkpt lat="44.17989" lon="6.61537">
        <ele>1341.18</ele>
        <time>2011-07-10T10:01:14Z</time>
      </trkpt>
      <trkpt lat="44.17995" lon="6.61548">
        <ele>1338.609</ele>
        <time>2011-07-10T10:01:18Z</time>
      </trkpt>
      <trkpt lat="44.18" lon="6.61555">
        <ele>1334.988</ele>
        <time>2011-07-10T10:01:22Z</time>
      </trkpt>
      <trkpt lat="44.18" lon="6.61558">
        <ele>1335.569</ele>
        <time>2011-07-10T10:01:24Z</time>
      </trkpt>
      <trkpt lat="44.17992" lon="6.6156">
        <ele>1334.069</ele>
        <time>2011-07-10T10:01:29Z</time>
      </trkpt>
      <trkpt lat="44.17989" lon="6.6156">
        <ele>1334.933</ele>
        <time>2011-07-10T10:01:33Z</time>
      </trkpt>
      <trkpt lat="44.17989" lon="6.61561">
        <ele>1334.983</ele>
        <time>2011-07-10T10:01:34Z</time>
      </trkpt>
      <trkpt lat="44.17992" lon="6.61569">
        <ele>1329.329</ele>
        <time>2011-07-10T10:01:39Z</time>
      </trkpt>
      <trkpt lat="44.17994" lon="6.61572">
        <ele>1327.159</ele>
        <time>2011-07-10T10:01:42Z</time>
      </trkpt>
      <trkpt lat="44.17997" lon="6.61578">
        <ele>1326.041</ele>
        <time>2011-07-10T10:01:47Z</time>
      </trkpt>
      <trkpt lat="44.17994" lon="6.61581">
        <ele>1323.989</ele>
        <time>2011-07-10T10:01:50Z</time>
      </trkpt>
      <trkpt lat="44.17997" lon="6.61584">
        <ele>1322.599</ele>
        <time>2011-07-10T10:01:52Z</time>
      </trkpt>
      <trkpt lat="44.18003" lon="6.61587">
        <ele>1320.607</ele>
        <time>2011-07-10T10:01:55Z</time>
      </trkpt>
      <trkpt lat="44.18003" lon="6.616">
        <ele>1316.123</ele>
        <time>2011-07-10T10:02:00Z</time>
      </trkpt>
      <trkpt lat="44.17993" lon="6.61607">
        <ele>1313.773</ele>
        <time>2011-07-10T10:02:04Z</time>
      </trkpt>
      <trkpt lat="44.17982" lon="6.61615">
        <ele>1311.106</ele>
        <time>2011-07-10T10:02:08Z</time>
      </trkpt>
      <trkpt lat="44.17982" lon="6.61628">
        <ele>1309.206</ele>
        <time>2011-07-10T10:02:11Z</time>
      </trkpt>
      <trkpt lat="44.17977" lon="6.61648">
        <ele>1304.754</ele>
        <time>2011-07-10T10:02:16Z</time>
      </trkpt>
      <trkpt lat="44.17972" lon="6.61655">
        <ele>1304.035</ele>
        <time>2011-07-10T10:02:18Z</time>
      </trkpt>
      <trkpt lat="44.1796" lon="6.61664">
        <ele>1304.065</ele>
        <time>2011-07-10T10:02:22Z</time>
      </trkpt>
      <trkpt lat="44.17955" lon="6.61668">
        <ele>1303.215</ele>
        <time>2011-07-10T10:02:24Z</time>
      </trkpt>
      <trkpt lat="44.17945" lon="6.61685">
        <ele>1297.195</ele>
        <time>2011-07-10T10:02:30Z</time>
      </trkpt>
      <trkpt lat="44.17941" lon="6.61695">
        <ele>1292.873</ele>
        <time>2011-07-10T10:02:34Z</time>
      </trkpt>
      <trkpt lat="44.17938" lon="6.61719">
        <ele>1289.604</ele>
        <time>2011-07-10T10:02:40Z</time>
      </trkpt>
      <trkpt lat="44.17937" lon="6.61737">
        <ele>1287.075</ele>
        <time>2011-07-10T10:02:44Z</time>
      </trkpt>
      <trkpt lat="44.17935" lon="6.61742">
        <ele>1284.854</ele>
        <time>2011-07-10T10:02:46Z</time>
      </trkpt>
      <trkpt lat="44.17941" lon="6.61747">
        <ele>1280.065</ele>
        <time>2011-07-10T10:02:52Z</time>
      </trkpt>
      <trkpt lat="44.17943" lon="6.61754">
        <ele>1277.313</ele>
        <time>2011-07-10T10:02:55Z</time>
      </trkpt>
      <trkpt lat="44.1794" lon="6.61767">
        <ele>1276.927</ele>
        <time>2011-07-10T10:03:00Z</time>
      </trkpt>
      <trkpt lat="44.17944" lon="6.61759">
        <ele>1276.259</ele>
        <time>2011-07-10T10:03:06Z</time>
      </trkpt>
      <trkpt lat="44.17945" lon="6.61758">
        <ele>1275.539</ele>
        <time>2011-07-10T10:03:08Z</time>
      </trkpt>
      <trkpt lat="44.17945" lon="6.61764">
        <ele>1276.051</ele>
        <time>2011-07-10T10:03:12Z</time>
      </trkpt>
      <trkpt lat="44.17945" lon="6.6177">
        <ele>1274.438</ele>
        <time>2011-07-10T10:03:14Z</time>
      </trkpt>
      <trkpt lat="44.1795" lon="6.61775">
        <ele>1271.458</ele>
        <time>2011-07-10T10:03:19Z</time>
      </trkpt>
      <trkpt lat="44.1795" lon="6.61779">
        <ele>1269.998</ele>
        <time>2011-07-10T10:03:22Z</time>
      </trkpt>
      <trkpt lat="44.1795" lon="6.61782">
        <ele>1270.511</ele>
        <time>2011-07-10T10:03:27Z</time>
      </trkpt>
      <trkpt lat="44.17951" lon="6.61783">
        <ele>1269.335</ele>
        <time>2011-07-10T10:03:49Z</time>
      </trkpt>
      <trkpt lat="44.17953" lon="6.61781">
        <ele>1268.705</ele>
        <time>2011-07-10T10:03:52Z</time>
      </trkpt>
      <trkpt lat="44.17956" lon="6.61798">
        <ele>1267.991</ele>
        <time>2011-07-10T10:03:57Z</time>
      </trkpt>
      <trkpt lat="44.17951" lon="6.61829">
        <ele>1267.149</ele>
        <time>2011-07-10T10:04:01Z</time>
      </trkpt>
      <trkpt lat="44.17944" lon="6.61848">
        <ele>1265.838</ele>
        <time>2011-07-10T10:04:03Z</time>
      </trkpt>
      <trkpt lat="44.17941" lon="6.61883">
        <ele>1262.787</ele>
        <time>2011-07-10T10:04:08Z</time>
      </trkpt>
      <trkpt lat="44.17951" lon="6.6193">
        <ele>1260.746</ele>
        <time>2011-07-10T10:04:13Z</time>
      </trkpt>
      <trkpt lat="44.17957" lon="6.61964">
        <ele>1258.767</ele>
        <time>2011-07-10T10:04:16Z</time>
      </trkpt>
      <trkpt lat="44.17968" lon="6.62048">
        <ele>1254.586</ele>
        <time>2011-07-10T10:04:23Z</time>
      </trkpt>
      <trkpt lat="44.17986" lon="6.62122">
        <ele>1252.258</ele>
        <time>2011-07-10T10:04:29Z</time>
      </trkpt>
      <trkpt lat="44.18008" lon="6.62193">
        <ele>1250.92</ele>
        <time>2011-07-10T10:04:35Z</time>
      </trkpt>
      <trkpt lat="44.18012" lon="6.6224">
        <ele>1250.121</ele>
        <time>2011-07-10T10:04:39Z</time>
      </trkpt>
      <trkpt lat="44.18011" lon="6.6225">
        <ele>1249.841</ele>
        <time>2011-07-10T10:04:40Z</time>
      </trkpt>
      <trkpt lat="44.18005" lon="6.62281">
        <ele>1248.162</ele>
        <time>2011-07-10T10:04:45Z</time>
      </trkpt>
      <trkpt lat="44.18001" lon="6.62295">
        <ele>1247.062</ele>
        <time>2011-07-10T10:04:49Z</time>
      </trkpt>
      <trkpt lat="44.17998" lon="6.62319">
        <ele>1250.257</ele>
        <time>2011-07-10T10:04:54Z</time>
      </trkpt>
      <trkpt lat="44.18" lon="6.62361">
        <ele>1253.039</ele>
        <time>2011-07-10T10:05:02Z</time>
      </trkpt>
      <trkpt lat="44.18" lon="6.62382">
        <ele>1252.287</ele>
        <time>2011-07-10T10:05:06Z</time>
      </trkpt>
      <trkpt lat="44.17994" lon="6.62404">
        <ele>1252.017</ele>
        <time>2011-07-10T10:05:10Z</time>
      </trkpt>
      <trkpt lat="44.17978" lon="6.62425">
        <ele>1249.845</ele>
        <time>2011-07-10T10:05:15Z</time>
      </trkpt>
      <trkpt lat="44.1797" lon="6.62434">
        <ele>1248.785</ele>
        <time>2011-07-10T10:05:17Z</time>
      </trkpt>
      <trkpt lat="44.17963" lon="6.62442">
        <ele>1248.455</ele>
        <time>2011-07-10T10:05:19Z</time>
      </trkpt>
      <trkpt lat="44.17954" lon="6.62459">
        <ele>1248.135</ele>
        <time>2011-07-10T10:05:22Z</time>
      </trkpt>
      <trkpt lat="44.17948" lon="6.625">
        <ele>1248.789</ele>
        <time>2011-07-10T10:05:28Z</time>
      </trkpt>
      <trkpt lat="44.17949" lon="6.62514">
        <ele>1248.878</ele>
        <time>2011-07-10T10:05:30Z</time>
      </trkpt>
      <trkpt lat="44.17953" lon="6.62534">
        <ele>1250.79</ele>
        <time>2011-07-10T10:05:33Z</time>
      </trkpt>
      <trkpt lat="44.17961" lon="6.62556">
        <ele>1252.59</ele>
        <time>2011-07-10T10:05:37Z</time>
      </trkpt>
      <trkpt lat="44.17978" lon="6.62575">
        <ele>1254.88</ele>
        <time>2011-07-10T10:05:42Z</time>
      </trkpt>
      <trkpt lat="44.18" lon="6.62582">
        <ele>1258.941</ele>
        <time>2011-07-10T10:05:47Z</time>
      </trkpt>
      <trkpt lat="44.1801" lon="6.62586">
        <ele>1258.66</ele>
        <time>2011-07-10T10:05:49Z</time>
      </trkpt>
      <trkpt lat="44.18039" lon="6.62596">
        <ele>1258.109</ele>
        <time>2011-07-10T10:05:55Z</time>
      </trkpt>
      <trkpt lat="44.18049" lon="6.62612">
        <ele>1257.988</ele>
        <time>2011-07-10T10:05:58Z</time>
      </trkpt>
      <trkpt lat="44.18058" lon="6.62638">
        <ele>1258.078</ele>
        <time>2011-07-10T10:06:02Z</time>
      </trkpt>
      <trkpt lat="44.18064" lon="6.62663">
        <ele>1259.718</ele>
        <time>2011-07-10T10:06:06Z</time>
      </trkpt>
      <trkpt lat="44.18066" lon="6.62676">
        <ele>1259.217</ele>
        <time>2011-07-10T10:06:08Z</time>
      </trkpt>
      <trkpt lat="44.18073" lon="6.62703">
        <ele>1256.954</ele>
        <time>2011-07-10T10:06:13Z</time>
      </trkpt>
      <trkpt lat="44.18083" lon="6.62726">
        <ele>1255.716</ele>
        <time>2011-07-10T10:06:19Z</time>
      </trkpt>
      <trkpt lat="44.18091" lon="6.62743">
        <ele>1256.867</ele>
        <time>2011-07-10T10:06:25Z</time>
      </trkpt>
      <trkpt lat="44.18093" lon="6.62745">
        <ele>1257.222</ele>
        <time>2011-07-10T10:06:26Z</time>
      </trkpt>
      <trkpt lat="44.18103" lon="6.62743">
        <ele>1257.726</ele>
        <time>2011-07-10T10:06:33Z</time>
      </trkpt>
      <trkpt lat="44.1809" lon="6.62732">
        <ele>1283.173</ele>
        <time>2011-07-10T10:07:14Z</time>
      </trkpt>
      <trkpt lat="44.18083" lon="6.6273">
        <ele>1289.714</ele>
        <time>2011-07-10T10:07:20Z</time>
      </trkpt>
      <trkpt lat="44.18063" lon="6.6272">
        <ele>1310.729</ele>
        <time>2011-07-10T10:09:26Z</time>
      </trkpt>
      <trkpt lat="44.18057" lon="6.62718">
        <ele>1310.979</ele>
        <time>2011-07-10T10:09:35Z</time>
      </trkpt>
      <trkpt lat="44.18064" lon="6.6272">
        <ele>1309.676</ele>
        <time>2011-07-10T10:09:47Z</time>
      </trkpt>
      <trkpt lat="44.1808" lon="6.62728">
        <ele>1307.884</ele>
        <time>2011-07-10T10:10:14Z</time>
      </trkpt>
      <trkpt lat="44.1809" lon="6.62724">
        <ele>1300.599</ele>
        <time>2011-07-10T10:10:31Z</time>
      </trkpt>
      <trkpt lat="44.18092" lon="6.62724">
        <ele>1299.567</ele>
        <time>2011-07-10T10:10:32Z</time>
      </trkpt>
      <trkpt lat="44.18101" lon="6.62729">
        <ele>1290.09</ele>
        <time>2011-07-10T10:10:38Z</time>
      </trkpt>
      <trkpt lat="44.18122" lon="6.62741">
        <ele>1269.627</ele>
        <time>2011-07-10T10:10:48Z</time>
      </trkpt>
      <trkpt lat="44.18115" lon="6.62741">
        <ele>1268.999</ele>
        <time>2011-07-10T10:10:54Z</time>
      </trkpt>
      <trkpt lat="44.18109" lon="6.62741">
        <ele>1269.184</ele>
        <time>2011-07-10T10:11:02Z</time>
      </trkpt>
      <trkpt lat="44.18122" lon="6.62736">
        <ele>1276.111</ele>
        <time>2011-07-10T10:11:52Z</time>
      </trkpt>
      <trkpt lat="44.18132" lon="6.62735">
        <ele>1270.293</ele>
        <time>2011-07-10T10:11:58Z</time>
      </trkpt>
      <trkpt lat="44.1813" lon="6.62734">
        <ele>1271.466</ele>
        <time>2011-07-10T10:12:04Z</time>
      </trkpt>
      <trkpt lat="44.18118" lon="6.62732">
        <ele>1279.951</ele>
        <time>2011-07-10T10:12:08Z</time>
      </trkpt>
      <trkpt lat="44.18106" lon="6.62729">
        <ele>1290.635</ele>
        <time>2011-07-10T10:12:15Z</time>
      </trkpt>
      <trkpt lat="44.18111" lon="6.62734">
        <ele>1287.028</ele>
        <time>2011-07-10T10:12:26Z</time>
      </trkpt>
      <trkpt lat="44.18129" lon="6.62747">
        <ele>1267.192</ele>
        <time>2011-07-10T10:13:40Z</time>
      </trkpt>
      <trkpt lat="44.18132" lon="6.62746">
        <ele>1264.322</ele>
        <time>2011-07-10T10:13:44Z</time>
      </trkpt>
      <trkpt lat="44.18115" lon="6.62747">
        <ele>1273.92</ele>
        <time>2011-07-10T10:13:57Z</time>
      </trkpt>
      <trkpt lat="44.18112" lon="6.62748">
        <ele>1276.329</ele>
        <time>2011-07-10T10:14:03Z</time>
      </trkpt>
      <trkpt lat="44.18098" lon="6.62738">
        <ele>1297.054</ele>
        <time>2011-07-10T10:14:54Z</time>
      </trkpt>
      <trkpt lat="44.18102" lon="6.62739">
        <ele>1294.889</ele>
        <time>2011-07-10T10:15:03Z</time>
      </trkpt>
      <trkpt lat="44.18105" lon="6.6274">
        <ele>1294.257</ele>
        <time>2011-07-10T10:15:11Z</time>
      </trkpt>
      <trkpt lat="44.18101" lon="6.62743">
        <ele>1281.353</ele>
        <time>2011-07-10T10:15:59Z</time>
      </trkpt>
      <trkpt lat="44.18103" lon="6.62742">
        <ele>1279.945</ele>
        <time>2011-07-10T10:16:06Z</time>
      </trkpt>
      <trkpt lat="44.18113" lon="6.62742">
        <ele>1278.413</ele>
        <time>2011-07-10T10:16:16Z</time>
      </trkpt>
      <trkpt lat="44.18103" lon="6.62733">
        <ele>1296.472</ele>
        <time>2011-07-10T10:16:52Z</time>
      </trkpt>
      <trkpt lat="44.18098" lon="6.62737">
        <ele>1293.737</ele>
        <time>2011-07-10T10:16:59Z</time>
      </trkpt>
      <trkpt lat="44.18097" lon="6.62742">
        <ele>1287.416</ele>
        <time>2011-07-10T10:17:10Z</time>
      </trkpt>
      <trkpt lat="44.18089" lon="6.62746">
        <ele>1284.465</ele>
        <time>2011-07-10T10:17:18Z</time>
      </trkpt>
      <trkpt lat="44.18095" lon="6.6275">
        <ele>1274.935</ele>
        <time>2011-07-10T10:17:38Z</time>
      </trkpt>
      <trkpt lat="44.18105" lon="6.62753">
        <ele>1269.199</ele>
        <time>2011-07-10T10:17:59Z</time>
      </trkpt>
      <trkpt lat="44.18106" lon="6.62751">
        <ele>1269.668</ele>
        <time>2011-07-10T10:18:05Z</time>
      </trkpt>
      <trkpt lat="44.18109" lon="6.62754">
        <ele>1266.522</ele>
        <time>2011-07-10T10:18:21Z</time>
      </trkpt>
      <trkpt lat="44.18108" lon="6.62751">
        <ele>1268.707</ele>
        <time>2011-07-10T10:18:28Z</time>
      </trkpt>
      <trkpt lat="44.18101" lon="6.62737">
        <ele>1286.259</ele>
        <time>2011-07-10T10:18:45Z</time>
      </trkpt>
      <trkpt lat="44.18099" lon="6.62737">
        <ele>1286.038</ele>
        <time>2011-07-10T10:18:52Z</time>
      </trkpt>
      <trkpt lat="44.18107" lon="6.62741">
        <ele>1282.326</ele>
        <time>2011-07-10T10:18:57Z</time>
      </trkpt>
      <trkpt lat="44.18112" lon="6.62745">
        <ele>1278.637</ele>
        <time>2011-07-10T10:19:03Z</time>
      </trkpt>
      <trkpt lat="44.18112" lon="6.62747">
        <ele>1276.216</ele>
        <time>2011-07-10T10:19:14Z</time>
      </trkpt>
      <trkpt lat="44.18109" lon="6.62741">
        <ele>1279.728</ele>
        <time>2011-07-10T10:19:30Z</time>
      </trkpt>
      <trkpt lat="44.18097" lon="6.62739">
        <ele>1282.918</ele>
        <time>2011-07-10T10:19:37Z</time>
      </trkpt>
      <trkpt lat="44.18082" lon="6.62731">
        <ele>1290.223</ele>
        <time>2011-07-10T10:19:59Z</time>
      </trkpt>
      <trkpt lat="44.18071" lon="6.62729">
        <ele>1297.782</ele>
        <time>2011-07-10T10:20:06Z</time>
      </trkpt>
      <trkpt lat="44.18071" lon="6.62726">
        <ele>1300.641</ele>
        <time>2011-07-10T10:20:10Z</time>
      </trkpt>
      <trkpt lat="44.18108" lon="6.62739">
        <ele>1281.541</ele>
        <time>2011-07-10T10:20:24Z</time>
      </trkpt>
      <trkpt lat="44.18118" lon="6.62741">
        <ele>1274.369</ele>
        <time>2011-07-10T10:20:31Z</time>
      </trkpt>
      <trkpt lat="44.18129" lon="6.62736">
        <ele>1270.166</ele>
        <time>2011-07-10T10:20:50Z</time>
      </trkpt>
      <trkpt lat="44.1812" lon="6.62741">
        <ele>1269.702</ele>
        <time>2011-07-10T10:21:10Z</time>
      </trkpt>
      <trkpt lat="44.18103" lon="6.62742">
        <ele>1270.767</ele>
        <time>2011-07-10T10:21:19Z</time>
      </trkpt>
      <trkpt lat="44.18094" lon="6.62737">
        <ele>1277.119</ele>
        <time>2011-07-10T10:21:42Z</time>
      </trkpt>
      <trkpt lat="44.18081" lon="6.62748">
        <ele>1265.474</ele>
        <time>2011-07-10T10:22:20Z</time>
      </trkpt>
      <trkpt lat="44.18092" lon="6.6275">
        <ele>1263.228</ele>
        <time>2011-07-10T10:22:25Z</time>
      </trkpt>
      <trkpt lat="44.18102" lon="6.62751">
        <ele>1260.562</ele>
        <time>2011-07-10T10:22:30Z</time>
      </trkpt>
      <trkpt lat="44.18109" lon="6.62738">
        <ele>1272.868</ele>
        <time>2011-07-10T10:23:10Z</time>
      </trkpt>
      <trkpt lat="44.18111" lon="6.6274">
        <ele>1269.695</ele>
        <time>2011-07-10T10:23:18Z</time>
      </trkpt>
      <trkpt lat="44.18104" lon="6.62741">
        <ele>1265.077</ele>
        <time>2011-07-10T10:23:30Z</time>
      </trkpt>
      <trkpt lat="44.18103" lon="6.62729">
        <ele>1266.388</ele>
        <time>2011-07-10T10:23:35Z</time>
      </trkpt>
      <trkpt lat="44.18098" lon="6.62722">
        <ele>1265.427</ele>
        <time>2011-07-10T10:23:39Z</time>
      </trkpt>
      <trkpt lat="44.18081" lon="6.62716">
        <ele>1272.894</ele>
        <time>2011-07-10T10:25:03Z</time>
      </trkpt>
      <trkpt lat="44.18082" lon="6.62718">
        <ele>1271.637</ele>
        <time>2011-07-10T10:25:06Z</time>
      </trkpt>
      <trkpt lat="44.18084" lon="6.62721">
        <ele>1269.164</ele>
        <time>2011-07-10T10:25:10Z</time>
      </trkpt>
      <trkpt lat="44.18078" lon="6.62709">
        <ele>1265.994</ele>
        <time>2011-07-10T10:25:15Z</time>
      </trkpt>
      <trkpt lat="44.18075" lon="6.62704">
        <ele>1265.704</ele>
        <time>2011-07-10T10:25:16Z</time>
      </trkpt>
      <trkpt lat="44.18066" lon="6.62668">
        <ele>1265.135</ele>
        <time>2011-07-10T10:25:21Z</time>
      </trkpt>
      <trkpt lat="44.18056" lon="6.62621">
        <ele>1266.719</ele>
        <time>2011-07-10T10:25:27Z</time>
      </trkpt>
      <trkpt lat="44.18052" lon="6.62609">
        <ele>1264.977</ele>
        <time>2011-07-10T10:25:30Z</time>
      </trkpt>
      <trkpt lat="44.18052" lon="6.62607">
        <ele>1264.928</ele>
        <time>2011-07-10T10:25:35Z</time>
      </trkpt>
      <trkpt lat="44.18054" lon="6.62607">
        <ele>1265.136</ele>
        <time>2011-07-10T10:25:45Z</time>
      </trkpt>
      <trkpt lat="44.18056" lon="6.62601">
        <ele>1265.307</ele>
        <time>2011-07-10T10:25:48Z</time>
      </trkpt>
      <trkpt lat="44.18056" lon="6.62597">
        <ele>1265.718</ele>
        <time>2011-07-10T10:25:52Z</time>
      </trkpt>
      <trkpt lat="44.18055" lon="6.62595">
        <ele>1262.827</ele>
        <time>2011-07-10T10:25:58Z</time>
      </trkpt>
      <trkpt lat="44.18048" lon="6.62593">
        <ele>1254.288</ele>
        <time>2011-07-10T10:31:50Z</time>
      </trkpt>
      <trkpt lat="44.18049" lon="6.62594">
        <ele>1251.527</ele>
        <time>2011-07-10T10:32:21Z</time>
      </trkpt>
      <trkpt lat="44.18039" lon="6.62592">
        <ele>1251.967</ele>
        <time>2011-07-10T10:32:29Z</time>
      </trkpt>
      <trkpt lat="44.18024" lon="6.62589">
        <ele>1253.499</ele>
        <time>2011-07-10T10:32:36Z</time>
      </trkpt>
      <trkpt lat="44.18003" lon="6.62584">
        <ele>1254.549</ele>
        <time>2011-07-10T10:32:44Z</time>
      </trkpt>
      <trkpt lat="44.17989" lon="6.62579">
        <ele>1255.076</ele>
        <time>2011-07-10T10:32:49Z</time>
      </trkpt>
      <trkpt lat="44.17971" lon="6.6257">
        <ele>1256.148</ele>
        <time>2011-07-10T10:32:55Z</time>
      </trkpt>
      <trkpt lat="44.17961" lon="6.62571">
        <ele>1255.959</ele>
        <time>2011-07-10T10:33:00Z</time>
      </trkpt>
      <trkpt lat="44.17954" lon="6.62575">
        <ele>1254.498</ele>
        <time>2011-07-10T10:33:06Z</time>
      </trkpt>
      <trkpt lat="44.1795" lon="6.62576">
        <ele>1254.449</ele>
        <time>2011-07-10T10:33:09Z</time>
      </trkpt>
      <trkpt lat="44.17934" lon="6.62577">
        <ele>1252.858</ele>
        <time>2011-07-10T10:33:16Z</time>
      </trkpt>
      <trkpt lat="44.17917" lon="6.62581">
        <ele>1253.197</ele>
        <time>2011-07-10T10:33:22Z</time>
      </trkpt>
      <trkpt lat="44.17905" lon="6.62585">
        <ele>1251.926</ele>
        <time>2011-07-10T10:33:27Z</time>
      </trkpt>
      <trkpt lat="44.17892" lon="6.62582">
        <ele>1250.125</ele>
        <time>2011-07-10T10:33:31Z</time>
      </trkpt>
      <trkpt lat="44.17888" lon="6.62568">
        <ele>1250.505</ele>
        <time>2011-07-10T10:33:34Z</time>
      </trkpt>
      <trkpt lat="44.17878" lon="6.62531">
        <ele>1250.954</ele>
        <time>2011-07-10T10:33:40Z</time>
      </trkpt>
      <trkpt lat="44.17865" lon="6.62479">
        <ele>1248.723</ele>
        <time>2011-07-10T10:33:47Z</time>
      </trkpt>
      <trkpt lat="44.17852" lon="6.62412">
        <ele>1247.353</ele>
        <time>2011-07-10T10:33:55Z</time>
      </trkpt>
      <trkpt lat="44.17846" lon="6.62376">
        <ele>1246.062</ele>
        <time>2011-07-10T10:33:59Z</time>
      </trkpt>
      <trkpt lat="44.17833" lon="6.62341">
        <ele>1245.314</ele>
        <time>2011-07-10T10:34:03Z</time>
      </trkpt>
      <trkpt lat="44.17817" lon="6.62321">
        <ele>1244.764</ele>
        <time>2011-07-10T10:34:06Z</time>
      </trkpt>
      <trkpt lat="44.17803" lon="6.62285">
        <ele>1245.195</ele>
        <time>2011-07-10T10:34:11Z</time>
      </trkpt>
      <trkpt lat="44.17787" lon="6.62234">
        <ele>1244.796</ele>
        <time>2011-07-10T10:34:18Z</time>
      </trkpt>
      <trkpt lat="44.17786" lon="6.62227">
        <ele>1244.486</ele>
        <time>2011-07-10T10:34:19Z</time>
      </trkpt>
      <trkpt lat="44.17788" lon="6.62205">
        <ele>1246.648</ele>
        <time>2011-07-10T10:34:23Z</time>
      </trkpt>
      <trkpt lat="44.1779" lon="6.62192">
        <ele>1252.767</ele>
        <time>2011-07-10T10:34:28Z</time>
      </trkpt>
      <trkpt lat="44.17776" lon="6.62182">
        <ele>1260.148</ele>
        <time>2011-07-10T10:34:35Z</time>
      </trkpt>
      <trkpt lat="44.17762" lon="6.6218">
        <ele>1260.663</ele>
        <time>2011-07-10T10:34:41Z</time>
      </trkpt>
      <trkpt lat="44.1775" lon="6.62174">
        <ele>1258.261</ele>
        <time>2011-07-10T10:34:46Z</time>
      </trkpt>
      <trkpt lat="44.17736" lon="6.62165">
        <ele>1261.163</ele>
        <time>2011-07-10T10:34:53Z</time>
      </trkpt>
      <trkpt lat="44.17724" lon="6.62161">
        <ele>1260.282</ele>
        <time>2011-07-10T10:35:00Z</time>
      </trkpt>
      <trkpt lat="44.17712" lon="6.62157">
        <ele>1261.032</ele>
        <time>2011-07-10T10:35:07Z</time>
      </trkpt>
      <trkpt lat="44.177" lon="6.62156">
        <ele>1262.013</ele>
        <time>2011-07-10T10:35:14Z</time>
      </trkpt>
      <trkpt lat="44.17691" lon="6.62152">
        <ele>1262.912</ele>
        <time>2011-07-10T10:35:19Z</time>
      </trkpt>
      <trkpt lat="44.17679" lon="6.62145">
        <ele>1264.029</ele>
        <time>2011-07-10T10:35:25Z</time>
      </trkpt>
      <trkpt lat="44.17671" lon="6.62135">
        <ele>1264.708</ele>
        <time>2011-07-10T10:35:30Z</time>
      </trkpt>
      <trkpt lat="44.17666" lon="6.62119">
        <ele>1265.359</ele>
        <time>2011-07-10T10:35:35Z</time>
      </trkpt>
      <trkpt lat="44.17665" lon="6.62115">
        <ele>1265.671</ele>
        <time>2011-07-10T10:35:36Z</time>
      </trkpt>
      <trkpt lat="44.17651" lon="6.62094">
        <ele>1267.77</ele>
        <time>2011-07-10T10:35:43Z</time>
      </trkpt>
      <trkpt lat="44.17644" lon="6.62075">
        <ele>1269.881</ele>
        <time>2011-07-10T10:35:48Z</time>
      </trkpt>
      <trkpt lat="44.17632" lon="6.62056">
        <ele>1268.716</ele>
        <time>2011-07-10T10:35:53Z</time>
      </trkpt>
      <trkpt lat="44.17607" lon="6.62038">
        <ele>1263.6</ele>
        <time>2011-07-10T10:35:58Z</time>
      </trkpt>
      <trkpt lat="44.17603" lon="6.62035">
        <ele>1263.02</ele>
        <time>2011-07-10T10:35:59Z</time>
      </trkpt>
      <trkpt lat="44.17588" lon="6.62041">
        <ele>1261.068</ele>
        <time>2011-07-10T10:36:03Z</time>
      </trkpt>
      <trkpt lat="44.1757" lon="6.62048">
        <ele>1258.718</ele>
        <time>2011-07-10T10:36:08Z</time>
      </trkpt>
      <trkpt lat="44.17562" lon="6.62044">
        <ele>1257.379</ele>
        <time>2011-07-10T10:36:10Z</time>
      </trkpt>
      <trkpt lat="44.17551" lon="6.62024">
        <ele>1254.259</ele>
        <time>2011-07-10T10:36:14Z</time>
      </trkpt>
      <trkpt lat="44.17531" lon="6.62003">
        <ele>1248.558</ele>
        <time>2011-07-10T10:36:20Z</time>
      </trkpt>
      <trkpt lat="44.17529" lon="6.62002">
        <ele>1246.842</ele>
        <time>2011-07-10T10:36:25Z</time>
      </trkpt>
      <trkpt lat="44.1753" lon="6.62001">
        <ele>1245.995</ele>
        <time>2011-07-10T10:36:33Z</time>
      </trkpt>
      <trkpt lat="44.1753" lon="6.61998">
        <ele>1246.375</ele>
        <time>2011-07-10T10:36:35Z</time>
      </trkpt>
      <trkpt lat="44.17517" lon="6.61972">
        <ele>1244.743</ele>
        <time>2011-07-10T10:36:41Z</time>
      </trkpt>
      <trkpt lat="44.17514" lon="6.61965">
        <ele>1244.042</ele>
        <time>2011-07-10T10:36:42Z</time>
      </trkpt>
      <trkpt lat="44.17501" lon="6.61932">
        <ele>1243.233</ele>
        <time>2011-07-10T10:36:46Z</time>
      </trkpt>
      <trkpt lat="44.17493" lon="6.61891">
        <ele>1241.902</ele>
        <time>2011-07-10T10:36:50Z</time>
      </trkpt>
      <trkpt lat="44.17488" lon="6.61873">
        <ele>1241.752</ele>
        <time>2011-07-10T10:36:52Z</time>
      </trkpt>
      <trkpt lat="44.17472" lon="6.61846">
        <ele>1240.952</ele>
        <time>2011-07-10T10:36:56Z</time>
      </trkpt>
      <trkpt lat="44.17459" lon="6.61836">
        <ele>1240.352</ele>
        <time>2011-07-10T10:36:58Z</time>
      </trkpt>
      <trkpt lat="44.17421" lon="6.61817">
        <ele>1239.614</ele>
        <time>2011-07-10T10:37:04Z</time>
      </trkpt>
      <trkpt lat="44.17415" lon="6.61816">
        <ele>1239.414</ele>
        <time>2011-07-10T10:37:05Z</time>
      </trkpt>
      <trkpt lat="44.17405" lon="6.61813">
        <ele>1237.944</ele>
        <time>2011-07-10T10:37:07Z</time>
      </trkpt>
      <trkpt lat="44.17388" lon="6.61811">
        <ele>1231.982</ele>
        <time>2011-07-10T10:37:10Z</time>
      </trkpt>
      <trkpt lat="44.17347" lon="6.61811">
        <ele>1227.972</ele>
        <time>2011-07-10T10:37:16Z</time>
      </trkpt>
      <trkpt lat="44.17306" lon="6.61819">
        <ele>1226.951</ele>
        <time>2011-07-10T10:37:22Z</time>
      </trkpt>
      <trkpt lat="44.17299" lon="6.61821">
        <ele>1226.691</ele>
        <time>2011-07-10T10:37:23Z</time>
      </trkpt>
      <trkpt lat="44.17265" lon="6.61815">
        <ele>1227.645</ele>
        <time>2011-07-10T10:37:28Z</time>
      </trkpt>
      <trkpt lat="44.17235" lon="6.61797">
        <ele>1231.089</ele>
        <time>2011-07-10T10:37:34Z</time>
      </trkpt>
      <trkpt lat="44.17226" lon="6.61793">
        <ele>1232.09</ele>
        <time>2011-07-10T10:37:36Z</time>
      </trkpt>
      <trkpt lat="44.17201" lon="6.61785">
        <ele>1235.099</ele>
        <time>2011-07-10T10:37:42Z</time>
      </trkpt>
      <trkpt lat="44.17176" lon="6.61785">
        <ele>1236.679</ele>
        <time>2011-07-10T10:37:49Z</time>
      </trkpt>
      <trkpt lat="44.17157" lon="6.61787">
        <ele>1236.65</ele>
        <time>2011-07-10T10:37:55Z</time>
      </trkpt>
      <trkpt lat="44.17137" lon="6.61789">
        <ele>1236.089</ele>
        <time>2011-07-10T10:38:02Z</time>
      </trkpt>
      <trkpt lat="44.17121" lon="6.61796">
        <ele>1232.967</ele>
        <time>2011-07-10T10:38:08Z</time>
      </trkpt>
      <trkpt lat="44.17106" lon="6.61806">
        <ele>1234.197</ele>
        <time>2011-07-10T10:38:15Z</time>
      </trkpt>
      <trkpt lat="44.17088" lon="6.61817">
        <ele>1234.747</ele>
        <time>2011-07-10T10:38:23Z</time>
      </trkpt>
      <trkpt lat="44.17073" lon="6.61822">
        <ele>1237.159</ele>
        <time>2011-07-10T10:38:30Z</time>
      </trkpt>
      <trkpt lat="44.17062" lon="6.61821">
        <ele>1239.85</ele>
        <time>2011-07-10T10:38:36Z</time>
      </trkpt>
      <trkpt lat="44.17059" lon="6.6182">
        <ele>1240.39</ele>
        <time>2011-07-10T10:38:38Z</time>
      </trkpt>
      <trkpt lat="44.17047" lon="6.61817">
        <ele>1241.909</ele>
        <time>2011-07-10T10:38:44Z</time>
      </trkpt>
      <trkpt lat="44.17045" lon="6.61816">
        <ele>1242.239</ele>
        <time>2011-07-10T10:38:45Z</time>
      </trkpt>
      <trkpt lat="44.17029" lon="6.61809">
        <ele>1245.34</ele>
        <time>2011-07-10T10:38:52Z</time>
      </trkpt>
      <trkpt lat="44.17025" lon="6.61807">
        <ele>1246.501</ele>
        <time>2011-07-10T10:38:55Z</time>
      </trkpt>
      <trkpt lat="44.17014" lon="6.61798">
        <ele>1250.021</ele>
        <time>2011-07-10T10:39:02Z</time>
      </trkpt>
      <trkpt lat="44.17009" lon="6.61794">
        <ele>1251.122</ele>
        <time>2011-07-10T10:39:05Z</time>
      </trkpt>
      <trkpt lat="44.17005" lon="6.61791">
        <ele>1252.562</ele>
        <time>2011-07-10T10:39:07Z</time>
      </trkpt>
      <trkpt lat="44.16995" lon="6.61787">
        <ele>1253.599</ele>
        <time>2011-07-10T10:39:13Z</time>
      </trkpt>
      <trkpt lat="44.16981" lon="6.61781">
        <ele>1255.839</ele>
        <time>2011-07-10T10:39:20Z</time>
      </trkpt>
      <trkpt lat="44.16965" lon="6.61779">
        <ele>1257.548</ele>
        <time>2011-07-10T10:39:27Z</time>
      </trkpt>
      <trkpt lat="44.16953" lon="6.61779">
        <ele>1257.268</ele>
        <time>2011-07-10T10:39:33Z</time>
      </trkpt>
      <trkpt lat="44.16935" lon="6.6178">
        <ele>1254.276</ele>
        <time>2011-07-10T10:39:40Z</time>
      </trkpt>
      <trkpt lat="44.16918" lon="6.61787">
        <ele>1250.013</ele>
        <time>2011-07-10T10:39:46Z</time>
      </trkpt>
      <trkpt lat="44.16902" lon="6.6179">
        <ele>1246.443</ele>
        <time>2011-07-10T10:39:52Z</time>
      </trkpt>
      <trkpt lat="44.16889" lon="6.61788">
        <ele>1249.108</ele>
        <time>2011-07-10T10:39:57Z</time>
      </trkpt>
      <trkpt lat="44.16869" lon="6.61781">
        <ele>1247.908</ele>
        <time>2011-07-10T10:40:03Z</time>
      </trkpt>
      <trkpt lat="44.16855" lon="6.61776">
        <ele>1247.277</ele>
        <time>2011-07-10T10:40:09Z</time>
      </trkpt>
      <trkpt lat="44.16837" lon="6.6177">
        <ele>1246.144</ele>
        <time>2011-07-10T10:40:16Z</time>
      </trkpt>
      <trkpt lat="44.16826" lon="6.61767">
        <ele>1244.441</ele>
        <time>2011-07-10T10:40:21Z</time>
      </trkpt>
      <trkpt lat="44.16822" lon="6.61762">
        <ele>1250.063</ele>
        <time>2011-07-10T10:41:30Z</time>
      </trkpt>
      <trkpt lat="44.16815" lon="6.61758">
        <ele>1248.153</ele>
        <time>2011-07-10T10:43:03Z</time>
      </trkpt>
      <trkpt lat="44.16818" lon="6.61761">
        <ele>1246.362</ele>
        <time>2011-07-10T10:43:17Z</time>
      </trkpt>
      <trkpt lat="44.16817" lon="6.61757">
        <ele>1248.774</ele>
        <time>2011-07-10T10:43:36Z</time>
      </trkpt>
      <trkpt lat="44.16813" lon="6.61751">
        <ele>1247.7</ele>
        <time>2011-07-10T10:43:41Z</time>
      </trkpt>
      <trkpt lat="44.16804" lon="6.61744">
        <ele>1249.844</ele>
        <time>2011-07-10T10:43:45Z</time>
      </trkpt>
      <trkpt lat="44.16793" lon="6.61742">
        <ele>1249.604</ele>
        <time>2011-07-10T10:43:49Z</time>
      </trkpt>
      <trkpt lat="44.16783" lon="6.61743">
        <ele>1250.415</ele>
        <time>2011-07-10T10:43:53Z</time>
      </trkpt>
      <trkpt lat="44.16773" lon="6.61747">
        <ele>1251.718</ele>
        <time>2011-07-10T10:43:58Z</time>
      </trkpt>
      <trkpt lat="44.16762" lon="6.6175">
        <ele>1254.732</ele>
        <time>2011-07-10T10:44:04Z</time>
      </trkpt>
      <trkpt lat="44.16748" lon="6.6175">
        <ele>1257.969</ele>
        <time>2011-07-10T10:44:11Z</time>
      </trkpt>
      <trkpt lat="44.16733" lon="6.61757">
        <ele>1261.622</ele>
        <time>2011-07-10T10:44:18Z</time>
      </trkpt>
      <trkpt lat="44.16723" lon="6.61765">
        <ele>1264.098</ele>
        <time>2011-07-10T10:44:24Z</time>
      </trkpt>
      <trkpt lat="44.16717" lon="6.61767">
        <ele>1263.777</ele>
        <time>2011-07-10T10:44:27Z</time>
      </trkpt>
      <trkpt lat="44.16704" lon="6.61766">
        <ele>1262.613</ele>
        <time>2011-07-10T10:44:34Z</time>
      </trkpt>
      <trkpt lat="44.16693" lon="6.61764">
        <ele>1265.216</ele>
        <time>2011-07-10T10:44:41Z</time>
      </trkpt>
      <trkpt lat="44.16684" lon="6.61758">
        <ele>1266.436</ele>
        <time>2011-07-10T10:44:47Z</time>
      </trkpt>
      <trkpt lat="44.16676" lon="6.6175">
        <ele>1271.199</ele>
        <time>2011-07-10T10:44:53Z</time>
      </trkpt>
      <trkpt lat="44.16666" lon="6.61744">
        <ele>1275.072</ele>
        <time>2011-07-10T10:45:00Z</time>
      </trkpt>
      <trkpt lat="44.16656" lon="6.61742">
        <ele>1271.968</ele>
        <time>2011-07-10T10:45:05Z</time>
      </trkpt>
      <trkpt lat="44.1665" lon="6.61742">
        <ele>1274.77</ele>
        <time>2011-07-10T10:45:10Z</time>
      </trkpt>
      <trkpt lat="44.16637" lon="6.61746">
        <ele>1271.515</ele>
        <time>2011-07-10T10:45:16Z</time>
      </trkpt>
      <trkpt lat="44.16623" lon="6.61747">
        <ele>1271.857</ele>
        <time>2011-07-10T10:45:23Z</time>
      </trkpt>
      <trkpt lat="44.16611" lon="6.6175">
        <ele>1273.749</ele>
        <time>2011-07-10T10:45:29Z</time>
      </trkpt>
      <trkpt lat="44.16599" lon="6.61753">
        <ele>1272.827</ele>
        <time>2011-07-10T10:45:35Z</time>
      </trkpt>
      <trkpt lat="44.16587" lon="6.61759">
        <ele>1274.628</ele>
        <time>2011-07-10T10:45:40Z</time>
      </trkpt>
      <trkpt lat="44.16575" lon="6.61768">
        <ele>1277.109</ele>
        <time>2011-07-10T10:45:46Z</time>
      </trkpt>
      <trkpt lat="44.16564" lon="6.61775">
        <ele>1279.209</ele>
        <time>2011-07-10T10:45:53Z</time>
      </trkpt>
      <trkpt lat="44.16556" lon="6.61775">
        <ele>1284.217</ele>
        <time>2011-07-10T10:46:00Z</time>
      </trkpt>
      <trkpt lat="44.16554" lon="6.61775">
        <ele>1284.777</ele>
        <time>2011-07-10T10:46:02Z</time>
      </trkpt>
      <trkpt lat="44.1655" lon="6.61772">
        <ele>1287.249</ele>
        <time>2011-07-10T10:46:05Z</time>
      </trkpt>
      <trkpt lat="44.16543" lon="6.61765">
        <ele>1291.201</ele>
        <time>2011-07-10T10:46:10Z</time>
      </trkpt>
      <trkpt lat="44.16531" lon="6.61758">
        <ele>1294.832</ele>
        <time>2011-07-10T10:46:17Z</time>
      </trkpt>
      <trkpt lat="44.16525" lon="6.61755">
        <ele>1294.699</ele>
        <time>2011-07-10T10:46:20Z</time>
      </trkpt>
      <trkpt lat="44.16512" lon="6.61745">
        <ele>1297.301</ele>
        <time>2011-07-10T10:46:28Z</time>
      </trkpt>
      <trkpt lat="44.16499" lon="6.61742">
        <ele>1297.681</ele>
        <time>2011-07-10T10:46:35Z</time>
      </trkpt>
      <trkpt lat="44.16492" lon="6.61739">
        <ele>1300.922</ele>
        <time>2011-07-10T10:46:41Z</time>
      </trkpt>
      <trkpt lat="44.16477" lon="6.61729">
        <ele>1300.644</ele>
        <time>2011-07-10T10:46:50Z</time>
      </trkpt>
      <trkpt lat="44.16471" lon="6.61726">
        <ele>1297.112</ele>
        <time>2011-07-10T10:46:54Z</time>
      </trkpt>
      <trkpt lat="44.1646" lon="6.61722">
        <ele>1293.733</ele>
        <time>2011-07-10T10:46:59Z</time>
      </trkpt>
      <trkpt lat="44.1644" lon="6.61712">
        <ele>1298.319</ele>
        <time>2011-07-10T10:47:08Z</time>
      </trkpt>
      <trkpt lat="44.16431" lon="6.61714">
        <ele>1299.898</ele>
        <time>2011-07-10T10:47:15Z</time>
      </trkpt>
      <trkpt lat="44.1643" lon="6.61714">
        <ele>1300.358</ele>
        <time>2011-07-10T10:47:16Z</time>
      </trkpt>
      <trkpt lat="44.16415" lon="6.6171">
        <ele>1302.168</ele>
        <time>2011-07-10T10:47:23Z</time>
      </trkpt>
      <trkpt lat="44.16404" lon="6.61701">
        <ele>1306.07</ele>
        <time>2011-07-10T10:47:31Z</time>
      </trkpt>
      <trkpt lat="44.16395" lon="6.61695">
        <ele>1308.359</ele>
        <time>2011-07-10T10:47:37Z</time>
      </trkpt>
      <trkpt lat="44.16383" lon="6.61689">
        <ele>1310.86</ele>
        <time>2011-07-10T10:47:45Z</time>
      </trkpt>
      <trkpt lat="44.16373" lon="6.61685">
        <ele>1313.189</ele>
        <time>2011-07-10T10:47:52Z</time>
      </trkpt>
      <trkpt lat="44.16367" lon="6.61681">
        <ele>1314.579</ele>
        <time>2011-07-10T10:47:57Z</time>
      </trkpt>
      <trkpt lat="44.16358" lon="6.61678">
        <ele>1316.981</ele>
        <time>2011-07-10T10:48:03Z</time>
      </trkpt>
      <trkpt lat="44.16346" lon="6.61675">
        <ele>1315.217</ele>
        <time>2011-07-10T10:48:09Z</time>
      </trkpt>
      <trkpt lat="44.16334" lon="6.61668">
        <ele>1313.147</ele>
        <time>2011-07-10T10:48:15Z</time>
      </trkpt>
      <trkpt lat="44.16321" lon="6.61658">
        <ele>1318.208</ele>
        <time>2011-07-10T10:48:23Z</time>
      </trkpt>
      <trkpt lat="44.16311" lon="6.61649">
        <ele>1321.827</ele>
        <time>2011-07-10T10:48:29Z</time>
      </trkpt>
      <trkpt lat="44.16299" lon="6.61645">
        <ele>1321.986</ele>
        <time>2011-07-10T10:48:36Z</time>
      </trkpt>
      <trkpt lat="44.16288" lon="6.61638">
        <ele>1324.509</ele>
        <time>2011-07-10T10:48:44Z</time>
      </trkpt>
      <trkpt lat="44.16273" lon="6.61628">
        <ele>1326.108</ele>
        <time>2011-07-10T10:48:51Z</time>
      </trkpt>
      <trkpt lat="44.16259" lon="6.61622">
        <ele>1326.589</ele>
        <time>2011-07-10T10:49:00Z</time>
      </trkpt>
      <trkpt lat="44.16244" lon="6.61621">
        <ele>1328.908</ele>
        <time>2011-07-10T10:49:07Z</time>
      </trkpt>
      <trkpt lat="44.16228" lon="6.61621">
        <ele>1326.205</ele>
        <time>2011-07-10T10:49:13Z</time>
      </trkpt>
      <trkpt lat="44.16215" lon="6.6161">
        <ele>1327.275</ele>
        <time>2011-07-10T10:49:18Z</time>
      </trkpt>
      <trkpt lat="44.1621" lon="6.61595">
        <ele>1329.598</ele>
        <time>2011-07-10T10:49:23Z</time>
      </trkpt>
      <trkpt lat="44.16208" lon="6.61579">
        <ele>1333.451</ele>
        <time>2011-07-10T10:49:28Z</time>
      </trkpt>
      <trkpt lat="44.16202" lon="6.61559">
        <ele>1336.281</ele>
        <time>2011-07-10T10:49:33Z</time>
      </trkpt>
      <trkpt lat="44.16196" lon="6.61545">
        <ele>1338.88</ele>
        <time>2011-07-10T10:49:37Z</time>
      </trkpt>
      <trkpt lat="44.16191" lon="6.61529">
        <ele>1344.952</ele>
        <time>2011-07-10T10:49:43Z</time>
      </trkpt>
      <trkpt lat="44.16182" lon="6.61516">
        <ele>1339.808</ele>
        <time>2011-07-10T10:49:48Z</time>
      </trkpt>
      <trkpt lat="44.16179" lon="6.61513">
        <ele>1338.077</ele>
        <time>2011-07-10T10:49:49Z</time>
      </trkpt>
      <trkpt lat="44.16159" lon="6.61499">
        <ele>1334.614</ele>
        <time>2011-07-10T10:49:54Z</time>
      </trkpt>
      <trkpt lat="44.16135" lon="6.61486">
        <ele>1330.75</ele>
        <time>2011-07-10T10:49:59Z</time>
      </trkpt>
      <trkpt lat="44.16109" lon="6.61472">
        <ele>1326.04</ele>
        <time>2011-07-10T10:50:06Z</time>
      </trkpt>
      <trkpt lat="44.16097" lon="6.61459">
        <ele>1325.865</ele>
        <time>2011-07-10T10:50:11Z</time>
      </trkpt>
      <trkpt lat="44.16077" lon="6.61449">
        <ele>1325.414</ele>
        <time>2011-07-10T10:50:16Z</time>
      </trkpt>
      <trkpt lat="44.16056" lon="6.61448">
        <ele>1319.942</ele>
        <time>2011-07-10T10:50:20Z</time>
      </trkpt>
      <trkpt lat="44.1603" lon="6.61455">
        <ele>1314.811</ele>
        <time>2011-07-10T10:50:26Z</time>
      </trkpt>
      <trkpt lat="44.16004" lon="6.61461">
        <ele>1312.911</ele>
        <time>2011-07-10T10:50:33Z</time>
      </trkpt>
      <trkpt lat="44.15986" lon="6.61454">
        <ele>1314.883</ele>
        <time>2011-07-10T10:50:39Z</time>
      </trkpt>
      <trkpt lat="44.15969" lon="6.61441">
        <ele>1313.463</ele>
        <time>2011-07-10T10:50:45Z</time>
      </trkpt>
      <trkpt lat="44.15959" lon="6.6143">
        <ele>1317.245</ele>
        <time>2011-07-10T10:50:51Z</time>
      </trkpt>
      <trkpt lat="44.15951" lon="6.6142">
        <ele>1321.587</ele>
        <time>2011-07-10T10:50:57Z</time>
      </trkpt>
      <trkpt lat="44.1594" lon="6.61407">
        <ele>1326.967</ele>
        <time>2011-07-10T10:51:05Z</time>
      </trkpt>
      <trkpt lat="44.15932" lon="6.61396">
        <ele>1331.569</ele>
        <time>2011-07-10T10:51:13Z</time>
      </trkpt>
      <trkpt lat="44.15921" lon="6.61382">
        <ele>1334.237</ele>
        <time>2011-07-10T10:51:21Z</time>
      </trkpt>
      <trkpt lat="44.15913" lon="6.61369">
        <ele>1335.586</ele>
        <time>2011-07-10T10:51:27Z</time>
      </trkpt>
      <trkpt lat="44.15904" lon="6.61357">
        <ele>1338.719</ele>
        <time>2011-07-10T10:51:34Z</time>
      </trkpt>
      <trkpt lat="44.15894" lon="6.61346">
        <ele>1340.878</ele>
        <time>2011-07-10T10:51:41Z</time>
      </trkpt>
      <trkpt lat="44.15884" lon="6.61336">
        <ele>1336.085</ele>
        <time>2011-07-10T10:51:48Z</time>
      </trkpt>
      <trkpt lat="44.15876" lon="6.61325">
        <ele>1339.098</ele>
        <time>2011-07-10T10:51:55Z</time>
      </trkpt>
      <trkpt lat="44.15864" lon="6.61311">
        <ele>1344.82</ele>
        <time>2011-07-10T10:52:03Z</time>
      </trkpt>
      <trkpt lat="44.1585" lon="6.61308">
        <ele>1340.594</ele>
        <time>2011-07-10T10:52:10Z</time>
      </trkpt>
      <trkpt lat="44.15838" lon="6.61309">
        <ele>1337.413</ele>
        <time>2011-07-10T10:52:16Z</time>
      </trkpt>
      <trkpt lat="44.15826" lon="6.61314">
        <ele>1334.321</ele>
        <time>2011-07-10T10:52:22Z</time>
      </trkpt>
      <trkpt lat="44.15817" lon="6.61317">
        <ele>1334.672</ele>
        <time>2011-07-10T10:52:28Z</time>
      </trkpt>
      <trkpt lat="44.15807" lon="6.61325">
        <ele>1336.374</ele>
        <time>2011-07-10T10:52:35Z</time>
      </trkpt>
      <trkpt lat="44.15793" lon="6.61329">
        <ele>1336.461</ele>
        <time>2011-07-10T10:52:43Z</time>
      </trkpt>
      <trkpt lat="44.15783" lon="6.61326">
        <ele>1336.961</ele>
        <time>2011-07-10T10:52:49Z</time>
      </trkpt>
      <trkpt lat="44.15776" lon="6.61322">
        <ele>1339.633</ele>
        <time>2011-07-10T10:52:55Z</time>
      </trkpt>
      <trkpt lat="44.15771" lon="6.61319">
        <ele>1342.786</ele>
        <time>2011-07-10T10:53:01Z</time>
      </trkpt>
      <trkpt lat="44.15763" lon="6.61313">
        <ele>1346.196</ele>
        <time>2011-07-10T10:53:07Z</time>
      </trkpt>
      <trkpt lat="44.15751" lon="6.61309">
        <ele>1347.543</ele>
        <time>2011-07-10T10:53:15Z</time>
      </trkpt>
      <trkpt lat="44.15742" lon="6.6131">
        <ele>1348.461</ele>
        <time>2011-07-10T10:53:21Z</time>
      </trkpt>
      <trkpt lat="44.1573" lon="6.61312">
        <ele>1346.071</ele>
        <time>2011-07-10T10:53:27Z</time>
      </trkpt>
      <trkpt lat="44.15724" lon="6.61308">
        <ele>1350.566</ele>
        <time>2011-07-10T10:53:33Z</time>
      </trkpt>
      <trkpt lat="44.15719" lon="6.61301">
        <ele>1354.827</ele>
        <time>2011-07-10T10:53:38Z</time>
      </trkpt>
      <trkpt lat="44.15715" lon="6.6129">
        <ele>1358.998</ele>
        <time>2011-07-10T10:53:45Z</time>
      </trkpt>
      <trkpt lat="44.1571" lon="6.61278">
        <ele>1362.87</ele>
        <time>2011-07-10T10:53:51Z</time>
      </trkpt>
      <trkpt lat="44.1571" lon="6.61275">
        <ele>1363.327</ele>
        <time>2011-07-10T10:53:54Z</time>
      </trkpt>
      <trkpt lat="44.15706" lon="6.61263">
        <ele>1365.178</ele>
        <time>2011-07-10T10:54:00Z</time>
      </trkpt>
      <trkpt lat="44.15696" lon="6.61244">
        <ele>1367.308</ele>
        <time>2011-07-10T10:54:07Z</time>
      </trkpt>
      <trkpt lat="44.15689" lon="6.61233">
        <ele>1369.099</ele>
        <time>2011-07-10T10:54:12Z</time>
      </trkpt>
      <trkpt lat="44.15677" lon="6.61226">
        <ele>1370.197</ele>
        <time>2011-07-10T10:54:18Z</time>
      </trkpt>
      <trkpt lat="44.1567" lon="6.61227">
        <ele>1367.713</ele>
        <time>2011-07-10T10:54:21Z</time>
      </trkpt>
      <trkpt lat="44.15654" lon="6.61234">
        <ele>1362.963</ele>
        <time>2011-07-10T10:54:28Z</time>
      </trkpt>
      <trkpt lat="44.15648" lon="6.61236">
        <ele>1363.293</ele>
        <time>2011-07-10T10:54:31Z</time>
      </trkpt>
      <trkpt lat="44.15636" lon="6.61239">
        <ele>1358.949</ele>
        <time>2011-07-10T10:54:36Z</time>
      </trkpt>
      <trkpt lat="44.15624" lon="6.61239">
        <ele>1356.609</ele>
        <time>2011-07-10T10:54:41Z</time>
      </trkpt>
      <trkpt lat="44.15609" lon="6.61234">
        <ele>1354.699</ele>
        <time>2011-07-10T10:54:48Z</time>
      </trkpt>
      <trkpt lat="44.15599" lon="6.61229">
        <ele>1358.003</ele>
        <time>2011-07-10T10:54:54Z</time>
      </trkpt>
      <trkpt lat="44.15586" lon="6.61233">
        <ele>1358.051</ele>
        <time>2011-07-10T10:55:00Z</time>
      </trkpt>
      <trkpt lat="44.15586" lon="6.61243">
        <ele>1360.233</ele>
        <time>2011-07-10T10:55:06Z</time>
      </trkpt>
      <trkpt lat="44.15588" lon="6.61244">
        <ele>1360.733</ele>
        <time>2011-07-10T10:55:07Z</time>
      </trkpt>
      <trkpt lat="44.15595" lon="6.61247">
        <ele>1362.252</ele>
        <time>2011-07-10T10:55:11Z</time>
      </trkpt>
      <trkpt lat="44.15598" lon="6.61246">
        <ele>1364.143</ele>
        <time>2011-07-10T10:55:13Z</time>
      </trkpt>
      <trkpt lat="44.1561" lon="6.61245">
        <ele>1370.307</ele>
        <time>2011-07-10T10:55:22Z</time>
      </trkpt>
      <trkpt lat="44.15621" lon="6.61243">
        <ele>1375.9</ele>
        <time>2011-07-10T10:55:30Z</time>
      </trkpt>
      <trkpt lat="44.1563" lon="6.61243">
        <ele>1382.111</ele>
        <time>2011-07-10T10:55:37Z</time>
      </trkpt>
      <trkpt lat="44.15643" lon="6.61253">
        <ele>1379.886</ele>
        <time>2011-07-10T10:55:43Z</time>
      </trkpt>
      <trkpt lat="44.15657" lon="6.61267">
        <ele>1378.035</ele>
        <time>2011-07-10T10:55:50Z</time>
      </trkpt>
      <trkpt lat="44.15664" lon="6.6128">
        <ele>1376.145</ele>
        <time>2011-07-10T10:55:56Z</time>
      </trkpt>
      <trkpt lat="44.1567" lon="6.61295">
        <ele>1375.194</ele>
        <time>2011-07-10T10:56:03Z</time>
      </trkpt>
      <trkpt lat="44.15677" lon="6.61309">
        <ele>1377.122</ele>
        <time>2011-07-10T10:56:11Z</time>
      </trkpt>
      <trkpt lat="44.15683" lon="6.61324">
        <ele>1380.083</ele>
        <time>2011-07-10T10:56:19Z</time>
      </trkpt>
      <trkpt lat="44.15688" lon="6.61336">
        <ele>1381.664</ele>
        <time>2011-07-10T10:56:26Z</time>
      </trkpt>
      <trkpt lat="44.15698" lon="6.61354">
        <ele>1379.441</ele>
        <time>2011-07-10T10:56:33Z</time>
      </trkpt>
      <trkpt lat="44.15703" lon="6.61363">
        <ele>1378.693</ele>
        <time>2011-07-10T10:56:36Z</time>
      </trkpt>
      <trkpt lat="44.15711" lon="6.61375">
        <ele>1379.604</ele>
        <time>2011-07-10T10:56:44Z</time>
      </trkpt>
      <trkpt lat="44.15718" lon="6.61384">
        <ele>1380.606</ele>
        <time>2011-07-10T10:56:50Z</time>
      </trkpt>
      <trkpt lat="44.15725" lon="6.61392">
        <ele>1383.035</ele>
        <time>2011-07-10T10:56:57Z</time>
      </trkpt>
      <trkpt lat="44.15733" lon="6.61396">
        <ele>1387.848</ele>
        <time>2011-07-10T10:57:04Z</time>
      </trkpt>
      <trkpt lat="44.15742" lon="6.61401">
        <ele>1393.711</ele>
        <time>2011-07-10T10:57:11Z</time>
      </trkpt>
      <trkpt lat="44.15752" lon="6.61407">
        <ele>1395.127</ele>
        <time>2011-07-10T10:57:18Z</time>
      </trkpt>
      <trkpt lat="44.15761" lon="6.61411">
        <ele>1396.374</ele>
        <time>2011-07-10T10:57:25Z</time>
      </trkpt>
      <trkpt lat="44.15774" lon="6.61419">
        <ele>1394.525</ele>
        <time>2011-07-10T10:57:32Z</time>
      </trkpt>
      <trkpt lat="44.15788" lon="6.61428">
        <ele>1393.694</ele>
        <time>2011-07-10T10:57:40Z</time>
      </trkpt>
      <trkpt lat="44.15805" lon="6.61442">
        <ele>1390.713</ele>
        <time>2011-07-10T10:57:48Z</time>
      </trkpt>
      <trkpt lat="44.15816" lon="6.61451">
        <ele>1391.083</ele>
        <time>2011-07-10T10:57:55Z</time>
      </trkpt>
      <trkpt lat="44.15824" lon="6.61464">
        <ele>1391.884</ele>
        <time>2011-07-10T10:58:03Z</time>
      </trkpt>
      <trkpt lat="44.15831" lon="6.61479">
        <ele>1391.373</ele>
        <time>2011-07-10T10:58:10Z</time>
      </trkpt>
      <trkpt lat="44.15836" lon="6.61493">
        <ele>1392.812</ele>
        <time>2011-07-10T10:58:17Z</time>
      </trkpt>
      <trkpt lat="44.15838" lon="6.61509">
        <ele>1394.423</ele>
        <time>2011-07-10T10:58:25Z</time>
      </trkpt>
      <trkpt lat="44.15839" lon="6.61526">
        <ele>1397.224</ele>
        <time>2011-07-10T10:58:34Z</time>
      </trkpt>
      <trkpt lat="44.1584" lon="6.61535">
        <ele>1400.406</ele>
        <time>2011-07-10T10:58:39Z</time>
      </trkpt>
      <trkpt lat="44.15848" lon="6.61556">
        <ele>1409.754</ele>
        <time>2011-07-10T10:58:48Z</time>
      </trkpt>
      <trkpt lat="44.15852" lon="6.6157">
        <ele>1412.976</ele>
        <time>2011-07-10T10:58:55Z</time>
      </trkpt>
      <trkpt lat="44.15853" lon="6.61582">
        <ele>1414.015</ele>
        <time>2011-07-10T10:59:01Z</time>
      </trkpt>
      <trkpt lat="44.15856" lon="6.61601">
        <ele>1417.667</ele>
        <time>2011-07-10T10:59:10Z</time>
      </trkpt>
      <trkpt lat="44.15856" lon="6.61614">
        <ele>1419.787</ele>
        <time>2011-07-10T10:59:16Z</time>
      </trkpt>
      <trkpt lat="44.15853" lon="6.61631">
        <ele>1421.176</ele>
        <time>2011-07-10T10:59:23Z</time>
      </trkpt>
      <trkpt lat="44.15851" lon="6.61636">
        <ele>1422.126</ele>
        <time>2011-07-10T10:59:26Z</time>
      </trkpt>
      <trkpt lat="44.15852" lon="6.61651">
        <ele>1425.706</ele>
        <time>2011-07-10T10:59:33Z</time>
      </trkpt>
      <trkpt lat="44.15852" lon="6.61656">
        <ele>1426.376</ele>
        <time>2011-07-10T10:59:35Z</time>
      </trkpt>
      <trkpt lat="44.15857" lon="6.61681">
        <ele>1422.652</ele>
        <time>2011-07-10T10:59:44Z</time>
      </trkpt>
      <trkpt lat="44.15858" lon="6.61687">
        <ele>1421.012</ele>
        <time>2011-07-10T10:59:46Z</time>
      </trkpt>
      <trkpt lat="44.15866" lon="6.61706">
        <ele>1421.405</ele>
        <time>2011-07-10T10:59:56Z</time>
      </trkpt>
      <trkpt lat="44.15876" lon="6.61715">
        <ele>1424.986</ele>
        <time>2011-07-10T11:00:04Z</time>
      </trkpt>
      <trkpt lat="44.15887" lon="6.61722">
        <ele>1429.71</ele>
        <time>2011-07-10T11:00:13Z</time>
      </trkpt>
      <trkpt lat="44.15897" lon="6.61729">
        <ele>1432.489</ele>
        <time>2011-07-10T11:00:20Z</time>
      </trkpt>
      <trkpt lat="44.15908" lon="6.6174">
        <ele>1431.035</ele>
        <time>2011-07-10T11:00:27Z</time>
      </trkpt>
      <trkpt lat="44.15917" lon="6.61749">
        <ele>1433.446</ele>
        <time>2011-07-10T11:00:34Z</time>
      </trkpt>
      <trkpt lat="44.15927" lon="6.6176">
        <ele>1435.474</ele>
        <time>2011-07-10T11:00:42Z</time>
      </trkpt>
      <trkpt lat="44.15934" lon="6.61769">
        <ele>1436.485</ele>
        <time>2011-07-10T11:00:48Z</time>
      </trkpt>
      <trkpt lat="44.15936" lon="6.61774">
        <ele>1437.806</ele>
        <time>2011-07-10T11:00:51Z</time>
      </trkpt>
      <trkpt lat="44.15938" lon="6.61781">
        <ele>1438.756</ele>
        <time>2011-07-10T11:00:55Z</time>
      </trkpt>
      <trkpt lat="44.15944" lon="6.61795">
        <ele>1438.123</ele>
        <time>2011-07-10T11:01:02Z</time>
      </trkpt>
      <trkpt lat="44.1595" lon="6.61809">
        <ele>1434.268</ele>
        <time>2011-07-10T11:01:08Z</time>
      </trkpt>
      <trkpt lat="44.15957" lon="6.61824">
        <ele>1429.495</ele>
        <time>2011-07-10T11:01:15Z</time>
      </trkpt>
      <trkpt lat="44.15964" lon="6.61841">
        <ele>1429.841</ele>
        <time>2011-07-10T11:01:22Z</time>
      </trkpt>
      <trkpt lat="44.15972" lon="6.61851">
        <ele>1432.294</ele>
        <time>2011-07-10T11:01:29Z</time>
      </trkpt>
      <trkpt lat="44.15978" lon="6.6186">
        <ele>1435.336</ele>
        <time>2011-07-10T11:01:35Z</time>
      </trkpt>
      <trkpt lat="44.15988" lon="6.61871">
        <ele>1438.307</ele>
        <time>2011-07-10T11:01:43Z</time>
      </trkpt>
      <trkpt lat="44.15993" lon="6.6188">
        <ele>1440.326</ele>
        <time>2011-07-10T11:01:49Z</time>
      </trkpt>
      <trkpt lat="44.16002" lon="6.61898">
        <ele>1443.576</ele>
        <time>2011-07-10T11:01:59Z</time>
      </trkpt>
      <trkpt lat="44.16006" lon="6.61913">
        <ele>1441.803</ele>
        <time>2011-07-10T11:02:05Z</time>
      </trkpt>
      <trkpt lat="44.16014" lon="6.61925">
        <ele>1445.849</ele>
        <time>2011-07-10T11:02:14Z</time>
      </trkpt>
      <trkpt lat="44.16023" lon="6.61931">
        <ele>1452.121</ele>
        <time>2011-07-10T11:02:22Z</time>
      </trkpt>
      <trkpt lat="44.16032" lon="6.61935">
        <ele>1457.383</ele>
        <time>2011-07-10T11:02:29Z</time>
      </trkpt>
      <trkpt lat="44.16046" lon="6.61937">
        <ele>1465.776</ele>
        <time>2011-07-10T11:02:38Z</time>
      </trkpt>
      <trkpt lat="44.1606" lon="6.61949">
        <ele>1465.744</ele>
        <time>2011-07-10T11:02:48Z</time>
      </trkpt>
      <trkpt lat="44.16073" lon="6.61951">
        <ele>1471.584</ele>
        <time>2011-07-10T11:02:56Z</time>
      </trkpt>
      <trkpt lat="44.16081" lon="6.61955">
        <ele>1477.196</ele>
        <time>2011-07-10T11:03:03Z</time>
      </trkpt>
      <trkpt lat="44.16092" lon="6.61964">
        <ele>1480.273</ele>
        <time>2011-07-10T11:03:11Z</time>
      </trkpt>
      <trkpt lat="44.16102" lon="6.61974">
        <ele>1483.313</ele>
        <time>2011-07-10T11:03:19Z</time>
      </trkpt>
      <trkpt lat="44.16112" lon="6.61991">
        <ele>1479.879</ele>
        <time>2011-07-10T11:03:27Z</time>
      </trkpt>
      <trkpt lat="44.16121" lon="6.62002">
        <ele>1478.858</ele>
        <time>2011-07-10T11:03:33Z</time>
      </trkpt>
      <trkpt lat="44.16137" lon="6.6201">
        <ele>1477.156</ele>
        <time>2011-07-10T11:03:42Z</time>
      </trkpt>
      <trkpt lat="44.16152" lon="6.62018">
        <ele>1472.966</ele>
        <time>2011-07-10T11:03:50Z</time>
      </trkpt>
      <trkpt lat="44.16166" lon="6.62025">
        <ele>1469.906</ele>
        <time>2011-07-10T11:03:57Z</time>
      </trkpt>
      <trkpt lat="44.16176" lon="6.62035">
        <ele>1470.037</ele>
        <time>2011-07-10T11:04:04Z</time>
      </trkpt>
      <trkpt lat="44.16179" lon="6.62046">
        <ele>1472.579</ele>
        <time>2011-07-10T11:04:11Z</time>
      </trkpt>
      <trkpt lat="44.16184" lon="6.6206">
        <ele>1469.423</ele>
        <time>2011-07-10T11:04:17Z</time>
      </trkpt>
      <trkpt lat="44.1619" lon="6.62075">
        <ele>1468.344</ele>
        <time>2011-07-10T11:04:24Z</time>
      </trkpt>
      <trkpt lat="44.16194" lon="6.62079">
        <ele>1469.027</ele>
        <time>2011-07-10T11:04:27Z</time>
      </trkpt>
      <trkpt lat="44.16198" lon="6.62089">
        <ele>1468.324</ele>
        <time>2011-07-10T11:04:32Z</time>
      </trkpt>
      <trkpt lat="44.16208" lon="6.62104">
        <ele>1469.395</ele>
        <time>2011-07-10T11:04:40Z</time>
      </trkpt>
      <trkpt lat="44.16215" lon="6.62111">
        <ele>1470.426</ele>
        <time>2011-07-10T11:04:45Z</time>
      </trkpt>
      <trkpt lat="44.16222" lon="6.62119">
        <ele>1472.606</ele>
        <time>2011-07-10T11:04:51Z</time>
      </trkpt>
      <trkpt lat="44.1623" lon="6.62127">
        <ele>1479.593</ele>
        <time>2011-07-10T11:04:59Z</time>
      </trkpt>
      <trkpt lat="44.16242" lon="6.62137">
        <ele>1482.452</ele>
        <time>2011-07-10T11:05:07Z</time>
      </trkpt>
      <trkpt lat="44.1625" lon="6.62145">
        <ele>1485.031</ele>
        <time>2011-07-10T11:05:14Z</time>
      </trkpt>
      <trkpt lat="44.16258" lon="6.62154">
        <ele>1488.182</ele>
        <time>2011-07-10T11:05:21Z</time>
      </trkpt>
      <trkpt lat="44.16268" lon="6.62168">
        <ele>1490.61</ele>
        <time>2011-07-10T11:05:30Z</time>
      </trkpt>
      <trkpt lat="44.16277" lon="6.62176">
        <ele>1493.141</ele>
        <time>2011-07-10T11:05:37Z</time>
      </trkpt>
      <trkpt lat="44.16285" lon="6.62178">
        <ele>1497.193</ele>
        <time>2011-07-10T11:05:43Z</time>
      </trkpt>
      <trkpt lat="44.16298" lon="6.62181">
        <ele>1496.88</ele>
        <time>2011-07-10T11:05:51Z</time>
      </trkpt>
      <trkpt lat="44.16316" lon="6.6219">
        <ele>1491.166</ele>
        <time>2011-07-10T11:06:00Z</time>
      </trkpt>
      <trkpt lat="44.16326" lon="6.62201">
        <ele>1488.581</ele>
        <time>2011-07-10T11:06:07Z</time>
      </trkpt>
      <trkpt lat="44.16328" lon="6.62215">
        <ele>1487.864</ele>
        <time>2011-07-10T11:06:13Z</time>
      </trkpt>
      <trkpt lat="44.1633" lon="6.62228">
        <ele>1488.135</ele>
        <time>2011-07-10T11:06:19Z</time>
      </trkpt>
      <trkpt lat="44.16329" lon="6.62245">
        <ele>1488.156</ele>
        <time>2011-07-10T11:06:28Z</time>
      </trkpt>
      <trkpt lat="44.16329" lon="6.62253">
        <ele>1487.754</ele>
        <time>2011-07-10T11:06:33Z</time>
      </trkpt>
      <trkpt lat="44.16328" lon="6.6226">
        <ele>1487.714</ele>
        <time>2011-07-10T11:06:40Z</time>
      </trkpt>
      <trkpt lat="44.16329" lon="6.62271">
        <ele>1492.027</ele>
        <time>2011-07-10T11:06:47Z</time>
      </trkpt>
      <trkpt lat="44.16331" lon="6.62281">
        <ele>1495.129</ele>
        <time>2011-07-10T11:06:53Z</time>
      </trkpt>
      <trkpt lat="44.16333" lon="6.62283">
        <ele>1496.889</ele>
        <time>2011-07-10T11:06:55Z</time>
      </trkpt>
      <trkpt lat="44.16338" lon="6.62291">
        <ele>1496.796</ele>
        <time>2011-07-10T11:06:59Z</time>
      </trkpt>
      <trkpt lat="44.16354" lon="6.62308">
        <ele>1500.036</ele>
        <time>2011-07-10T11:07:06Z</time>
      </trkpt>
      <trkpt lat="44.16364" lon="6.62316">
        <ele>1503.731</ele>
        <time>2011-07-10T11:07:12Z</time>
      </trkpt>
      <trkpt lat="44.16375" lon="6.62322">
        <ele>1504.659</ele>
        <time>2011-07-10T11:07:19Z</time>
      </trkpt>
      <trkpt lat="44.16387" lon="6.62325">
        <ele>1507.95</ele>
        <time>2011-07-10T11:07:27Z</time>
      </trkpt>
      <trkpt lat="44.16397" lon="6.62326">
        <ele>1511.691</ele>
        <time>2011-07-10T11:07:34Z</time>
      </trkpt>
      <trkpt lat="44.16407" lon="6.62321">
        <ele>1517.393</ele>
        <time>2011-07-10T11:07:41Z</time>
      </trkpt>
      <trkpt lat="44.1641" lon="6.6232">
        <ele>1517.481</ele>
        <time>2011-07-10T11:07:43Z</time>
      </trkpt>
      <trkpt lat="44.16422" lon="6.62317">
        <ele>1516.389</ele>
        <time>2011-07-10T11:07:50Z</time>
      </trkpt>
      <trkpt lat="44.16434" lon="6.62319">
        <ele>1516.39</ele>
        <time>2011-07-10T11:07:57Z</time>
      </trkpt>
      <trkpt lat="44.16446" lon="6.62321">
        <ele>1516.64</ele>
        <time>2011-07-10T11:08:04Z</time>
      </trkpt>
      <trkpt lat="44.16459" lon="6.62328">
        <ele>1519.35</ele>
        <time>2011-07-10T11:08:12Z</time>
      </trkpt>
      <trkpt lat="44.1647" lon="6.62339">
        <ele>1520.861</ele>
        <time>2011-07-10T11:08:20Z</time>
      </trkpt>
      <trkpt lat="44.16481" lon="6.6235">
        <ele>1522.591</ele>
        <time>2011-07-10T11:08:28Z</time>
      </trkpt>
      <trkpt lat="44.16495" lon="6.62363">
        <ele>1520.409</ele>
        <time>2011-07-10T11:08:36Z</time>
      </trkpt>
      <trkpt lat="44.16506" lon="6.62376">
        <ele>1518.976</ele>
        <time>2011-07-10T11:08:44Z</time>
      </trkpt>
      <trkpt lat="44.16515" lon="6.62387">
        <ele>1520.259</ele>
        <time>2011-07-10T11:08:52Z</time>
      </trkpt>
      <trkpt lat="44.16521" lon="6.62393">
        <ele>1522.56</ele>
        <time>2011-07-10T11:08:57Z</time>
      </trkpt>
      <trkpt lat="44.16526" lon="6.62399">
        <ele>1522.948</ele>
        <time>2011-07-10T11:09:01Z</time>
      </trkpt>
      <trkpt lat="44.16532" lon="6.62407">
        <ele>1523.107</ele>
        <time>2011-07-10T11:09:08Z</time>
      </trkpt>
      <trkpt lat="44.16539" lon="6.6242">
        <ele>1526.199</ele>
        <time>2011-07-10T11:09:16Z</time>
      </trkpt>
      <trkpt lat="44.16547" lon="6.62429">
        <ele>1529.44</ele>
        <time>2011-07-10T11:09:23Z</time>
      </trkpt>
      <trkpt lat="44.16554" lon="6.62441">
        <ele>1533.173</ele>
        <time>2011-07-10T11:09:31Z</time>
      </trkpt>
      <trkpt lat="44.16564" lon="6.62449">
        <ele>1538.744</ele>
        <time>2011-07-10T11:09:40Z</time>
      </trkpt>
      <trkpt lat="44.16569" lon="6.62457">
        <ele>1543.646</ele>
        <time>2011-07-10T11:09:47Z</time>
      </trkpt>
      <trkpt lat="44.16575" lon="6.62463">
        <ele>1543.821</ele>
        <time>2011-07-10T11:09:53Z</time>
      </trkpt>
      <trkpt lat="44.16583" lon="6.62473">
        <ele>1542.691</ele>
        <time>2011-07-10T11:10:00Z</time>
      </trkpt>
      <trkpt lat="44.16589" lon="6.62483">
        <ele>1542.86</ele>
        <time>2011-07-10T11:10:06Z</time>
      </trkpt>
      <trkpt lat="44.1659" lon="6.62484">
        <ele>1543.342</ele>
        <time>2011-07-10T11:10:07Z</time>
      </trkpt>
      <trkpt lat="44.16596" lon="6.62492">
        <ele>1543.96</ele>
        <time>2011-07-10T11:10:12Z</time>
      </trkpt>
      <trkpt lat="44.16606" lon="6.625">
        <ele>1547.471</ele>
        <time>2011-07-10T11:10:20Z</time>
      </trkpt>
      <trkpt lat="44.16617" lon="6.62505">
        <ele>1550.472</ele>
        <time>2011-07-10T11:10:28Z</time>
      </trkpt>
      <trkpt lat="44.16626" lon="6.62515">
        <ele>1552.933</ele>
        <time>2011-07-10T11:10:35Z</time>
      </trkpt>
      <trkpt lat="44.16636" lon="6.62523">
        <ele>1551.84</ele>
        <time>2011-07-10T11:10:40Z</time>
      </trkpt>
      <trkpt lat="44.16652" lon="6.62537">
        <ele>1545.926</ele>
        <time>2011-07-10T11:10:49Z</time>
      </trkpt>
      <trkpt lat="44.16665" lon="6.62544">
        <ele>1544.487</ele>
        <time>2011-07-10T11:10:56Z</time>
      </trkpt>
      <trkpt lat="44.1668" lon="6.62551">
        <ele>1542.307</ele>
        <time>2011-07-10T11:11:04Z</time>
      </trkpt>
      <trkpt lat="44.16694" lon="6.62559">
        <ele>1541.967</ele>
        <time>2011-07-10T11:11:12Z</time>
      </trkpt>
      <trkpt lat="44.16704" lon="6.6257">
        <ele>1542.89</ele>
        <time>2011-07-10T11:11:20Z</time>
      </trkpt>
      <trkpt lat="44.16714" lon="6.62578">
        <ele>1544.849</ele>
        <time>2011-07-10T11:11:26Z</time>
      </trkpt>
      <trkpt lat="44.16725" lon="6.62583">
        <ele>1547.379</ele>
        <time>2011-07-10T11:11:33Z</time>
      </trkpt>
      <trkpt lat="44.16738" lon="6.62599">
        <ele>1544.166</ele>
        <time>2011-07-10T11:11:41Z</time>
      </trkpt>
      <trkpt lat="44.16746" lon="6.62609">
        <ele>1544.387</ele>
        <time>2011-07-10T11:11:47Z</time>
      </trkpt>
      <trkpt lat="44.16754" lon="6.62622">
        <ele>1547.368</ele>
        <time>2011-07-10T11:11:55Z</time>
      </trkpt>
      <trkpt lat="44.16763" lon="6.62635">
        <ele>1549.981</ele>
        <time>2011-07-10T11:12:03Z</time>
      </trkpt>
      <trkpt lat="44.16771" lon="6.62646">
        <ele>1552.439</ele>
        <time>2011-07-10T11:12:10Z</time>
      </trkpt>
      <trkpt lat="44.16782" lon="6.62658">
        <ele>1552.656</ele>
        <time>2011-07-10T11:12:18Z</time>
      </trkpt>
      <trkpt lat="44.16793" lon="6.62673">
        <ele>1553.988</ele>
        <time>2011-07-10T11:12:27Z</time>
      </trkpt>
      <trkpt lat="44.16803" lon="6.62686">
        <ele>1556.759</ele>
        <time>2011-07-10T11:12:34Z</time>
      </trkpt>
      <trkpt lat="44.16814" lon="6.62699">
        <ele>1560.11</ele>
        <time>2011-07-10T11:12:42Z</time>
      </trkpt>
      <trkpt lat="44.16822" lon="6.62706">
        <ele>1564.787</ele>
        <time>2011-07-10T11:12:48Z</time>
      </trkpt>
      <trkpt lat="44.16832" lon="6.62715">
        <ele>1565.203</ele>
        <time>2011-07-10T11:12:54Z</time>
      </trkpt>
      <trkpt lat="44.16839" lon="6.62721">
        <ele>1566.903</ele>
        <time>2011-07-10T11:12:59Z</time>
      </trkpt>
      <trkpt lat="44.16854" lon="6.62732">
        <ele>1569.472</ele>
        <time>2011-07-10T11:13:07Z</time>
      </trkpt>
      <trkpt lat="44.16867" lon="6.62753">
        <ele>1563.986</ele>
        <time>2011-07-10T11:13:14Z</time>
      </trkpt>
      <trkpt lat="44.16876" lon="6.62764">
        <ele>1563.649</ele>
        <time>2011-07-10T11:13:21Z</time>
      </trkpt>
      <trkpt lat="44.16886" lon="6.6277">
        <ele>1564.961</ele>
        <time>2011-07-10T11:13:27Z</time>
      </trkpt>
      <trkpt lat="44.16898" lon="6.62782">
        <ele>1565.009</ele>
        <time>2011-07-10T11:13:34Z</time>
      </trkpt>
      <trkpt lat="44.16908" lon="6.62792">
        <ele>1563.308</ele>
        <time>2011-07-10T11:13:40Z</time>
      </trkpt>
      <trkpt lat="44.16916" lon="6.62803">
        <ele>1562.878</ele>
        <time>2011-07-10T11:13:46Z</time>
      </trkpt>
      <trkpt lat="44.16928" lon="6.62818">
        <ele>1563.83</ele>
        <time>2011-07-10T11:13:54Z</time>
      </trkpt>
      <trkpt lat="44.16936" lon="6.62831">
        <ele>1565.85</ele>
        <time>2011-07-10T11:14:01Z</time>
      </trkpt>
      <trkpt lat="44.16944" lon="6.62841">
        <ele>1569.555</ele>
        <time>2011-07-10T11:14:08Z</time>
      </trkpt>
      <trkpt lat="44.16955" lon="6.62853">
        <ele>1570.27</ele>
        <time>2011-07-10T11:14:15Z</time>
      </trkpt>
      <trkpt lat="44.16963" lon="6.62858">
        <ele>1573.734</ele>
        <time>2011-07-10T11:14:20Z</time>
      </trkpt>
      <trkpt lat="44.16973" lon="6.62864">
        <ele>1574.214</ele>
        <time>2011-07-10T11:14:26Z</time>
      </trkpt>
      <trkpt lat="44.16985" lon="6.6287">
        <ele>1578.155</ele>
        <time>2011-07-10T11:14:34Z</time>
      </trkpt>
      <trkpt lat="44.16994" lon="6.62883">
        <ele>1576.91</ele>
        <time>2011-07-10T11:14:41Z</time>
      </trkpt>
      <trkpt lat="44.17006" lon="6.62894">
        <ele>1575.89</ele>
        <time>2011-07-10T11:14:48Z</time>
      </trkpt>
      <trkpt lat="44.17017" lon="6.62907">
        <ele>1575.499</ele>
        <time>2011-07-10T11:14:55Z</time>
      </trkpt>
      <trkpt lat="44.17031" lon="6.62922">
        <ele>1574.64</ele>
        <time>2011-07-10T11:15:02Z</time>
      </trkpt>
      <trkpt lat="44.1704" lon="6.62935">
        <ele>1575.549</ele>
        <time>2011-07-10T11:15:09Z</time>
      </trkpt>
      <trkpt lat="44.17049" lon="6.62945">
        <ele>1581.674</ele>
        <time>2011-07-10T11:15:16Z</time>
      </trkpt>
      <trkpt lat="44.17051" lon="6.62954">
        <ele>1581.923</ele>
        <time>2011-07-10T11:15:19Z</time>
      </trkpt>
      <trkpt lat="44.17053" lon="6.6296">
        <ele>1583.544</ele>
        <time>2011-07-10T11:15:22Z</time>
      </trkpt>
      <trkpt lat="44.17055" lon="6.62973">
        <ele>1583.621</ele>
        <time>2011-07-10T11:15:27Z</time>
      </trkpt>
      <trkpt lat="44.17059" lon="6.62992">
        <ele>1582.887</ele>
        <time>2011-07-10T11:15:35Z</time>
      </trkpt>
      <trkpt lat="44.1706" lon="6.63011">
        <ele>1578.583</ele>
        <time>2011-07-10T11:15:41Z</time>
      </trkpt>
      <trkpt lat="44.17061" lon="6.6303">
        <ele>1576.077</ele>
        <time>2011-07-10T11:15:49Z</time>
      </trkpt>
      <trkpt lat="44.17062" lon="6.63047">
        <ele>1574.634</ele>
        <time>2011-07-10T11:15:55Z</time>
      </trkpt>
      <trkpt lat="44.17062" lon="6.63066">
        <ele>1575.234</ele>
        <time>2011-07-10T11:16:02Z</time>
      </trkpt>
      <trkpt lat="44.17062" lon="6.63082">
        <ele>1574.714</ele>
        <time>2011-07-10T11:16:09Z</time>
      </trkpt>
      <trkpt lat="44.17058" lon="6.63106">
        <ele>1573.973</ele>
        <time>2011-07-10T11:16:18Z</time>
      </trkpt>
      <trkpt lat="44.17052" lon="6.63128">
        <ele>1573.673</ele>
        <time>2011-07-10T11:16:27Z</time>
      </trkpt>
      <trkpt lat="44.1705" lon="6.63147">
        <ele>1576.508</ele>
        <time>2011-07-10T11:16:34Z</time>
      </trkpt>
      <trkpt lat="44.17047" lon="6.63165">
        <ele>1580.229</ele>
        <time>2011-07-10T11:16:41Z</time>
      </trkpt>
      <trkpt lat="44.1704" lon="6.63177">
        <ele>1583.238</ele>
        <time>2011-07-10T11:16:48Z</time>
      </trkpt>
      <trkpt lat="44.17038" lon="6.63181">
        <ele>1583.436</ele>
        <time>2011-07-10T11:16:50Z</time>
      </trkpt>
      <trkpt lat="44.17032" lon="6.63196">
        <ele>1586.44</ele>
        <time>2011-07-10T11:16:57Z</time>
      </trkpt>
      <trkpt lat="44.17028" lon="6.63209">
        <ele>1587.899</ele>
        <time>2011-07-10T11:17:03Z</time>
      </trkpt>
      <trkpt lat="44.17019" lon="6.63228">
        <ele>1587.935</ele>
        <time>2011-07-10T11:17:12Z</time>
      </trkpt>
      <trkpt lat="44.17013" lon="6.6324">
        <ele>1588.236</ele>
        <time>2011-07-10T11:17:18Z</time>
      </trkpt>
      <trkpt lat="44.17007" lon="6.6325">
        <ele>1588.756</ele>
        <time>2011-07-10T11:17:24Z</time>
      </trkpt>
      <trkpt lat="44.17001" lon="6.63261">
        <ele>1587.303</ele>
        <time>2011-07-10T11:17:30Z</time>
      </trkpt>
      <trkpt lat="44.16994" lon="6.63274">
        <ele>1587.544</ele>
        <time>2011-07-10T11:17:38Z</time>
      </trkpt>
      <trkpt lat="44.1699" lon="6.63277">
        <ele>1588.234</ele>
        <time>2011-07-10T11:17:43Z</time>
      </trkpt>
      <trkpt lat="44.16982" lon="6.63282">
        <ele>1589.115</ele>
        <time>2011-07-10T11:17:50Z</time>
      </trkpt>
      <trkpt lat="44.16971" lon="6.63288">
        <ele>1590.635</ele>
        <time>2011-07-10T11:17:57Z</time>
      </trkpt>
      <trkpt lat="44.16958" lon="6.63294">
        <ele>1592.377</ele>
        <time>2011-07-10T11:18:03Z</time>
      </trkpt>
      <trkpt lat="44.1694" lon="6.63306">
        <ele>1594.867</ele>
        <time>2011-07-10T11:18:13Z</time>
      </trkpt>
      <trkpt lat="44.16926" lon="6.63316">
        <ele>1595.857</ele>
        <time>2011-07-10T11:18:20Z</time>
      </trkpt>
      <trkpt lat="44.16915" lon="6.63324">
        <ele>1595.095</ele>
        <time>2011-07-10T11:18:26Z</time>
      </trkpt>
      <trkpt lat="44.16899" lon="6.63335">
        <ele>1597.076</ele>
        <time>2011-07-10T11:18:34Z</time>
      </trkpt>
      <trkpt lat="44.16884" lon="6.63345">
        <ele>1597.964</ele>
        <time>2011-07-10T11:18:41Z</time>
      </trkpt>
      <trkpt lat="44.16872" lon="6.6336">
        <ele>1602.339</ele>
        <time>2011-07-10T11:18:49Z</time>
      </trkpt>
      <trkpt lat="44.1687" lon="6.63362">
        <ele>1603.341</ele>
        <time>2011-07-10T11:18:50Z</time>
      </trkpt>
      <trkpt lat="44.16862" lon="6.63383">
        <ele>1608.429</ele>
        <time>2011-07-10T11:18:58Z</time>
      </trkpt>
      <trkpt lat="44.16846" lon="6.63402">
        <ele>1603.109</ele>
        <time>2011-07-10T11:19:06Z</time>
      </trkpt>
      <trkpt lat="44.16834" lon="6.63426">
        <ele>1602.679</ele>
        <time>2011-07-10T11:19:14Z</time>
      </trkpt>
      <trkpt lat="44.16821" lon="6.63448">
        <ele>1602.15</ele>
        <time>2011-07-10T11:19:21Z</time>
      </trkpt>
      <trkpt lat="44.16813" lon="6.63465">
        <ele>1601.729</ele>
        <time>2011-07-10T11:19:26Z</time>
      </trkpt>
      <trkpt lat="44.168" lon="6.63481">
        <ele>1599.418</ele>
        <time>2011-07-10T11:19:32Z</time>
      </trkpt>
      <trkpt lat="44.1679" lon="6.63496">
        <ele>1597.698</ele>
        <time>2011-07-10T11:19:37Z</time>
      </trkpt>
      <trkpt lat="44.16781" lon="6.63513">
        <ele>1596.099</ele>
        <time>2011-07-10T11:19:43Z</time>
      </trkpt>
      <trkpt lat="44.16773" lon="6.63536">
        <ele>1594.841</ele>
        <time>2011-07-10T11:19:49Z</time>
      </trkpt>
      <trkpt lat="44.16763" lon="6.63554">
        <ele>1596.093</ele>
        <time>2011-07-10T11:19:56Z</time>
      </trkpt>
      <trkpt lat="44.1675" lon="6.63581">
        <ele>1597.816</ele>
        <time>2011-07-10T11:20:05Z</time>
      </trkpt>
      <trkpt lat="44.16739" lon="6.63604">
        <ele>1597.285</ele>
        <time>2011-07-10T11:20:12Z</time>
      </trkpt>
      <trkpt lat="44.16729" lon="6.63628">
        <ele>1596.635</ele>
        <time>2011-07-10T11:20:19Z</time>
      </trkpt>
      <trkpt lat="44.16723" lon="6.63658">
        <ele>1597.315</ele>
        <time>2011-07-10T11:20:26Z</time>
      </trkpt>
      <trkpt lat="44.16716" lon="6.6369">
        <ele>1593.982</ele>
        <time>2011-07-10T11:20:34Z</time>
      </trkpt>
      <trkpt lat="44.16714" lon="6.63728">
        <ele>1592.545</ele>
        <time>2011-07-10T11:20:43Z</time>
      </trkpt>
      <trkpt lat="44.16716" lon="6.63746">
        <ele>1591.384</ele>
        <time>2011-07-10T11:20:48Z</time>
      </trkpt>
      <trkpt lat="44.16711" lon="6.63768">
        <ele>1591.947</ele>
        <time>2011-07-10T11:20:54Z</time>
      </trkpt>
      <trkpt lat="44.16701" lon="6.63791">
        <ele>1593.138</ele>
        <time>2011-07-10T11:21:02Z</time>
      </trkpt>
      <trkpt lat="44.16696" lon="6.63811">
        <ele>1594.048</ele>
        <time>2011-07-10T11:21:09Z</time>
      </trkpt>
      <trkpt lat="44.16689" lon="6.63835">
        <ele>1594.078</ele>
        <time>2011-07-10T11:21:17Z</time>
      </trkpt>
      <trkpt lat="44.16684" lon="6.63852">
        <ele>1598.552</ele>
        <time>2011-07-10T11:21:24Z</time>
      </trkpt>
      <trkpt lat="44.16677" lon="6.63871">
        <ele>1600.92</ele>
        <time>2011-07-10T11:21:32Z</time>
      </trkpt>
      <trkpt lat="44.16668" lon="6.63888">
        <ele>1601.979</ele>
        <time>2011-07-10T11:21:40Z</time>
      </trkpt>
      <trkpt lat="44.16661" lon="6.639">
        <ele>1604.249</ele>
        <time>2011-07-10T11:21:47Z</time>
      </trkpt>
      <trkpt lat="44.1665" lon="6.63918">
        <ele>1607.344</ele>
        <time>2011-07-10T11:21:56Z</time>
      </trkpt>
      <trkpt lat="44.16638" lon="6.63927">
        <ele>1609.579</ele>
        <time>2011-07-10T11:22:04Z</time>
      </trkpt>
      <trkpt lat="44.16631" lon="6.63941">
        <ele>1614.252</ele>
        <time>2011-07-10T11:22:12Z</time>
      </trkpt>
      <trkpt lat="44.16629" lon="6.63949">
        <ele>1619.245</ele>
        <time>2011-07-10T11:22:17Z</time>
      </trkpt>
      <trkpt lat="44.16631" lon="6.63955">
        <ele>1622.12</ele>
        <time>2011-07-10T11:22:20Z</time>
      </trkpt>
      <trkpt lat="44.16628" lon="6.63964">
        <ele>1619.788</ele>
        <time>2011-07-10T11:22:25Z</time>
      </trkpt>
      <trkpt lat="44.16623" lon="6.63985">
        <ele>1617.655</ele>
        <time>2011-07-10T11:22:34Z</time>
      </trkpt>
      <trkpt lat="44.16613" lon="6.63998">
        <ele>1615.265</ele>
        <time>2011-07-10T11:22:42Z</time>
      </trkpt>
      <trkpt lat="44.16603" lon="6.64008">
        <ele>1616.547</ele>
        <time>2011-07-10T11:22:50Z</time>
      </trkpt>
      <trkpt lat="44.16596" lon="6.64014">
        <ele>1618.794</ele>
        <time>2011-07-10T11:22:56Z</time>
      </trkpt>
      <trkpt lat="44.16587" lon="6.64024">
        <ele>1618.09</ele>
        <time>2011-07-10T11:23:03Z</time>
      </trkpt>
      <trkpt lat="44.16574" lon="6.64035">
        <ele>1618.769</ele>
        <time>2011-07-10T11:23:12Z</time>
      </trkpt>
      <trkpt lat="44.16559" lon="6.64041">
        <ele>1621.65</ele>
        <time>2011-07-10T11:23:21Z</time>
      </trkpt>
      <trkpt lat="44.16549" lon="6.64042">
        <ele>1624.301</ele>
        <time>2011-07-10T11:23:27Z</time>
      </trkpt>
      <trkpt lat="44.16532" lon="6.6405">
        <ele>1626.849</ele>
        <time>2011-07-10T11:23:35Z</time>
      </trkpt>
      <trkpt lat="44.16523" lon="6.64065">
        <ele>1630.271</ele>
        <time>2011-07-10T11:23:41Z</time>
      </trkpt>
      <trkpt lat="44.1651" lon="6.64085">
        <ele>1626.525</ele>
        <time>2011-07-10T11:23:48Z</time>
      </trkpt>
      <trkpt lat="44.16495" lon="6.641">
        <ele>1626.897</ele>
        <time>2011-07-10T11:23:55Z</time>
      </trkpt>
      <trkpt lat="44.16476" lon="6.64118">
        <ele>1629.109</ele>
        <time>2011-07-10T11:24:03Z</time>
      </trkpt>
      <trkpt lat="44.16464" lon="6.6413">
        <ele>1626.812</ele>
        <time>2011-07-10T11:24:08Z</time>
      </trkpt>
      <trkpt lat="44.1645" lon="6.6415">
        <ele>1627.736</ele>
        <time>2011-07-10T11:24:15Z</time>
      </trkpt>
      <trkpt lat="44.1644" lon="6.64171">
        <ele>1632.43</ele>
        <time>2011-07-10T11:24:22Z</time>
      </trkpt>
      <trkpt lat="44.16432" lon="6.64194">
        <ele>1631.859</ele>
        <time>2011-07-10T11:24:28Z</time>
      </trkpt>
      <trkpt lat="44.16425" lon="6.64212">
        <ele>1632.104</ele>
        <time>2011-07-10T11:24:33Z</time>
      </trkpt>
      <trkpt lat="44.16411" lon="6.64239">
        <ele>1631.861</ele>
        <time>2011-07-10T11:24:40Z</time>
      </trkpt>
      <trkpt lat="44.16395" lon="6.64264">
        <ele>1629.204</ele>
        <time>2011-07-10T11:24:47Z</time>
      </trkpt>
      <trkpt lat="44.16381" lon="6.64289">
        <ele>1623.22</ele>
        <time>2011-07-10T11:24:54Z</time>
      </trkpt>
      <trkpt lat="44.16376" lon="6.6431">
        <ele>1620.217</ele>
        <time>2011-07-10T11:24:59Z</time>
      </trkpt>
      <trkpt lat="44.16369" lon="6.64337">
        <ele>1618.77</ele>
        <time>2011-07-10T11:25:05Z</time>
      </trkpt>
      <trkpt lat="44.16358" lon="6.64363">
        <ele>1617.555</ele>
        <time>2011-07-10T11:25:11Z</time>
      </trkpt>
      <trkpt lat="44.16352" lon="6.64391">
        <ele>1618.685</ele>
        <time>2011-07-10T11:25:17Z</time>
      </trkpt>
      <trkpt lat="44.1634" lon="6.64422">
        <ele>1618.486</ele>
        <time>2011-07-10T11:25:24Z</time>
      </trkpt>
      <trkpt lat="44.16326" lon="6.64446">
        <ele>1618.454</ele>
        <time>2011-07-10T11:25:30Z</time>
      </trkpt>
      <trkpt lat="44.16316" lon="6.64472">
        <ele>1619.224</ele>
        <time>2011-07-10T11:25:36Z</time>
      </trkpt>
      <trkpt lat="44.16305" lon="6.64498">
        <ele>1619.583</ele>
        <time>2011-07-10T11:25:42Z</time>
      </trkpt>
      <trkpt lat="44.16293" lon="6.64522">
        <ele>1623.657</ele>
        <time>2011-07-10T11:25:48Z</time>
      </trkpt>
      <trkpt lat="44.16278" lon="6.6454">
        <ele>1623.214</ele>
        <time>2011-07-10T11:25:53Z</time>
      </trkpt>
      <trkpt lat="44.16261" lon="6.64564">
        <ele>1627.35</ele>
        <time>2011-07-10T11:26:00Z</time>
      </trkpt>
      <trkpt lat="44.1625" lon="6.64581">
        <ele>1627.244</ele>
        <time>2011-07-10T11:26:05Z</time>
      </trkpt>
      <trkpt lat="44.16238" lon="6.64597">
        <ele>1626.802</ele>
        <time>2011-07-10T11:26:10Z</time>
      </trkpt>
      <trkpt lat="44.16224" lon="6.64608">
        <ele>1625.969</ele>
        <time>2011-07-10T11:26:14Z</time>
      </trkpt>
      <trkpt lat="44.16207" lon="6.64632">
        <ele>1627.943</ele>
        <time>2011-07-10T11:26:20Z</time>
      </trkpt>
      <trkpt lat="44.16195" lon="6.6466">
        <ele>1628.625</ele>
        <time>2011-07-10T11:26:26Z</time>
      </trkpt>
      <trkpt lat="44.1618" lon="6.64685">
        <ele>1627.235</ele>
        <time>2011-07-10T11:26:32Z</time>
      </trkpt>
      <trkpt lat="44.16165" lon="6.64699">
        <ele>1625.975</ele>
        <time>2011-07-10T11:26:37Z</time>
      </trkpt>
      <trkpt lat="44.1615" lon="6.64721">
        <ele>1625.498</ele>
        <time>2011-07-10T11:26:43Z</time>
      </trkpt>
      <trkpt lat="44.16135" lon="6.6474">
        <ele>1625.609</ele>
        <time>2011-07-10T11:26:49Z</time>
      </trkpt>
      <trkpt lat="44.16117" lon="6.64756">
        <ele>1627.278</ele>
        <time>2011-07-10T11:26:56Z</time>
      </trkpt>
      <trkpt lat="44.16105" lon="6.6477">
        <ele>1629.792</ele>
        <time>2011-07-10T11:27:02Z</time>
      </trkpt>
      <trkpt lat="44.1609" lon="6.64786">
        <ele>1632.93</ele>
        <time>2011-07-10T11:27:10Z</time>
      </trkpt>
      <trkpt lat="44.16078" lon="6.64799">
        <ele>1635.201</ele>
        <time>2011-07-10T11:27:17Z</time>
      </trkpt>
      <trkpt lat="44.16067" lon="6.64811">
        <ele>1637.549</ele>
        <time>2011-07-10T11:27:23Z</time>
      </trkpt>
      <trkpt lat="44.16055" lon="6.64824">
        <ele>1636.412</ele>
        <time>2011-07-10T11:27:29Z</time>
      </trkpt>
      <trkpt lat="44.16043" lon="6.64833">
        <ele>1636.546</ele>
        <time>2011-07-10T11:27:35Z</time>
      </trkpt>
      <trkpt lat="44.16034" lon="6.64846">
        <ele>1639.012</ele>
        <time>2011-07-10T11:27:40Z</time>
      </trkpt>
      <trkpt lat="44.16021" lon="6.64863">
        <ele>1638.536</ele>
        <time>2011-07-10T11:27:46Z</time>
      </trkpt>
      <trkpt lat="44.16012" lon="6.64878">
        <ele>1638.682</ele>
        <time>2011-07-10T11:27:52Z</time>
      </trkpt>
      <trkpt lat="44.16003" lon="6.64892">
        <ele>1638.227</ele>
        <time>2011-07-10T11:27:57Z</time>
      </trkpt>
      <trkpt lat="44.1599" lon="6.64916">
        <ele>1640.634</ele>
        <time>2011-07-10T11:28:04Z</time>
      </trkpt>
      <trkpt lat="44.15982" lon="6.64931">
        <ele>1637.667</ele>
        <time>2011-07-10T11:28:09Z</time>
      </trkpt>
      <trkpt lat="44.1598" lon="6.64952">
        <ele>1636.297</ele>
        <time>2011-07-10T11:28:14Z</time>
      </trkpt>
      <trkpt lat="44.15977" lon="6.6498">
        <ele>1636.205</ele>
        <time>2011-07-10T11:28:21Z</time>
      </trkpt>
      <trkpt lat="44.15968" lon="6.64997">
        <ele>1636.424</ele>
        <time>2011-07-10T11:28:26Z</time>
      </trkpt>
      <trkpt lat="44.15957" lon="6.65011">
        <ele>1635.172</ele>
        <time>2011-07-10T11:28:31Z</time>
      </trkpt>
      <trkpt lat="44.15943" lon="6.65033">
        <ele>1635.151</ele>
        <time>2011-07-10T11:28:37Z</time>
      </trkpt>
      <trkpt lat="44.15929" lon="6.65055">
        <ele>1633.356</ele>
        <time>2011-07-10T11:28:43Z</time>
      </trkpt>
      <trkpt lat="44.15915" lon="6.65079">
        <ele>1630.988</ele>
        <time>2011-07-10T11:28:49Z</time>
      </trkpt>
      <trkpt lat="44.15901" lon="6.65102">
        <ele>1629.428</ele>
        <time>2011-07-10T11:28:55Z</time>
      </trkpt>
      <trkpt lat="44.15882" lon="6.65133">
        <ele>1629.062</ele>
        <time>2011-07-10T11:29:03Z</time>
      </trkpt>
      <trkpt lat="44.15872" lon="6.65156">
        <ele>1627.387</ele>
        <time>2011-07-10T11:29:08Z</time>
      </trkpt>
      <trkpt lat="44.1586" lon="6.6519">
        <ele>1626.561</ele>
        <time>2011-07-10T11:29:15Z</time>
      </trkpt>
      <trkpt lat="44.15857" lon="6.65195">
        <ele>1626.372</ele>
        <time>2011-07-10T11:29:16Z</time>
      </trkpt>
      <trkpt lat="44.1585" lon="6.65201">
        <ele>1626.031</ele>
        <time>2011-07-10T11:29:18Z</time>
      </trkpt>
      <trkpt lat="44.15839" lon="6.65217">
        <ele>1627.844</ele>
        <time>2011-07-10T11:29:22Z</time>
      </trkpt>
      <trkpt lat="44.15834" lon="6.65242">
        <ele>1626.916</ele>
        <time>2011-07-10T11:29:28Z</time>
      </trkpt>
      <trkpt lat="44.15831" lon="6.65267">
        <ele>1627.458</ele>
        <time>2011-07-10T11:29:34Z</time>
      </trkpt>
      <trkpt lat="44.15829" lon="6.65301">
        <ele>1628.002</ele>
        <time>2011-07-10T11:29:40Z</time>
      </trkpt>
      <trkpt lat="44.15825" lon="6.65329">
        <ele>1630.143</ele>
        <time>2011-07-10T11:29:46Z</time>
      </trkpt>
      <trkpt lat="44.15819" lon="6.65351">
        <ele>1632.891</ele>
        <time>2011-07-10T11:29:51Z</time>
      </trkpt>
      <trkpt lat="44.15811" lon="6.65371">
        <ele>1633.286</ele>
        <time>2011-07-10T11:29:56Z</time>
      </trkpt>
      <trkpt lat="44.15805" lon="6.65393">
        <ele>1634.491</ele>
        <time>2011-07-10T11:30:01Z</time>
      </trkpt>
      <trkpt lat="44.15797" lon="6.65419">
        <ele>1636.084</ele>
        <time>2011-07-10T11:30:07Z</time>
      </trkpt>
      <trkpt lat="44.15789" lon="6.65437">
        <ele>1635.45</ele>
        <time>2011-07-10T11:30:12Z</time>
      </trkpt>
      <trkpt lat="44.15781" lon="6.6545">
        <ele>1637.964</ele>
        <time>2011-07-10T11:30:17Z</time>
      </trkpt>
      <trkpt lat="44.15776" lon="6.65461">
        <ele>1639.914</ele>
        <time>2011-07-10T11:30:22Z</time>
      </trkpt>
      <trkpt lat="44.15767" lon="6.65479">
        <ele>1639.891</ele>
        <time>2011-07-10T11:30:29Z</time>
      </trkpt>
      <trkpt lat="44.15759" lon="6.65496">
        <ele>1640.298</ele>
        <time>2011-07-10T11:30:36Z</time>
      </trkpt>
      <trkpt lat="44.15747" lon="6.65513">
        <ele>1639.691</ele>
        <time>2011-07-10T11:30:44Z</time>
      </trkpt>
      <trkpt lat="44.1574" lon="6.65521">
        <ele>1639.037</ele>
        <time>2011-07-10T11:30:50Z</time>
      </trkpt>
      <trkpt lat="44.15738" lon="6.65526">
        <ele>1639.035</ele>
        <time>2011-07-10T11:30:54Z</time>
      </trkpt>
      <trkpt lat="44.15736" lon="6.65521">
        <ele>1642.81</ele>
        <time>2011-07-10T11:30:59Z</time>
      </trkpt>
      <trkpt lat="44.15736" lon="6.65518">
        <ele>1643.077</ele>
        <time>2011-07-10T11:31:05Z</time>
      </trkpt>
      <trkpt lat="44.15733" lon="6.65531">
        <ele>1644.942</ele>
        <time>2011-07-10T11:32:57Z</time>
      </trkpt>
      <trkpt lat="44.15736" lon="6.65533">
        <ele>1651.587</ele>
        <time>2011-07-10T11:33:04Z</time>
      </trkpt>
      <trkpt lat="44.15734" lon="6.65534">
        <ele>1653.937</ele>
        <time>2011-07-10T11:33:07Z</time>
      </trkpt>
      <trkpt lat="44.15739" lon="6.65538">
        <ele>1660.393</ele>
        <time>2011-07-10T11:33:16Z</time>
      </trkpt>
      <trkpt lat="44.15752" lon="6.65538">
        <ele>1650.876</ele>
        <time>2011-07-10T11:33:36Z</time>
      </trkpt>
      <trkpt lat="44.15745" lon="6.65539">
        <ele>1650.585</ele>
        <time>2011-07-10T11:33:45Z</time>
      </trkpt>
      <trkpt lat="44.15737" lon="6.65539">
        <ele>1655.426</ele>
        <time>2011-07-10T12:03:41Z</time>
      </trkpt>
      <trkpt lat="44.15732" lon="6.65534">
        <ele>1652.624</ele>
        <time>2011-07-10T12:03:48Z</time>
      </trkpt>
      <trkpt lat="44.1573" lon="6.65532">
        <ele>1650.024</ele>
        <time>2011-07-10T12:03:50Z</time>
      </trkpt>
      <trkpt lat="44.15725" lon="6.65531">
        <ele>1649.557</ele>
        <time>2011-07-10T12:03:58Z</time>
      </trkpt>
      <trkpt lat="44.15726" lon="6.65526">
        <ele>1653.53</ele>
        <time>2011-07-10T12:04:06Z</time>
      </trkpt>
      <trkpt lat="44.15722" lon="6.65531">
        <ele>1650.385</ele>
        <time>2011-07-10T12:04:21Z</time>
      </trkpt>
      <trkpt lat="44.15715" lon="6.65539">
        <ele>1647.196</ele>
        <time>2011-07-10T12:04:29Z</time>
      </trkpt>
      <trkpt lat="44.15712" lon="6.65545">
        <ele>1646.507</ele>
        <time>2011-07-10T12:04:35Z</time>
      </trkpt>
      <trkpt lat="44.15711" lon="6.65546">
        <ele>1646.207</ele>
        <time>2011-07-10T12:04:36Z</time>
      </trkpt>
      <trkpt lat="44.15707" lon="6.65554">
        <ele>1645.276</ele>
        <time>2011-07-10T12:04:43Z</time>
      </trkpt>
      <trkpt lat="44.15704" lon="6.65559">
        <ele>1642.285</ele>
        <time>2011-07-10T12:04:49Z</time>
      </trkpt>
      <trkpt lat="44.15705" lon="6.65556">
        <ele>1633.241</ele>
        <time>2011-07-10T12:05:01Z</time>
      </trkpt>
      <trkpt lat="44.15703" lon="6.65566">
        <ele>1632.564</ele>
        <time>2011-07-10T12:05:07Z</time>
      </trkpt>
      <trkpt lat="44.15702" lon="6.65568">
        <ele>1632.995</ele>
        <time>2011-07-10T12:05:08Z</time>
      </trkpt>
      <trkpt lat="44.15699" lon="6.65581">
        <ele>1637.679</ele>
        <time>2011-07-10T12:05:14Z</time>
      </trkpt>
      <trkpt lat="44.15698" lon="6.65598">
        <ele>1638.51</ele>
        <time>2011-07-10T12:05:21Z</time>
      </trkpt>
      <trkpt lat="44.15698" lon="6.6561">
        <ele>1642.092</ele>
        <time>2011-07-10T12:05:27Z</time>
      </trkpt>
      <trkpt lat="44.15695" lon="6.65628">
        <ele>1643.07</ele>
        <time>2011-07-10T12:05:34Z</time>
      </trkpt>
      <trkpt lat="44.15692" lon="6.65642">
        <ele>1645.199</ele>
        <time>2011-07-10T12:05:40Z</time>
      </trkpt>
      <trkpt lat="44.15687" lon="6.65658">
        <ele>1648.621</ele>
        <time>2011-07-10T12:05:47Z</time>
      </trkpt>
      <trkpt lat="44.15679" lon="6.65675">
        <ele>1648.479</ele>
        <time>2011-07-10T12:05:55Z</time>
      </trkpt>
      <trkpt lat="44.15677" lon="6.65679">
        <ele>1648.519</ele>
        <time>2011-07-10T12:05:57Z</time>
      </trkpt>
      <trkpt lat="44.15675" lon="6.65688">
        <ele>1648.84</ele>
        <time>2011-07-10T12:06:02Z</time>
      </trkpt>
      <trkpt lat="44.15671" lon="6.65696">
        <ele>1650.083</ele>
        <time>2011-07-10T12:06:08Z</time>
      </trkpt>
      <trkpt lat="44.15668" lon="6.65702">
        <ele>1653.321</ele>
        <time>2011-07-10T12:06:13Z</time>
      </trkpt>
      <trkpt lat="44.15665" lon="6.65708">
        <ele>1655.101</ele>
        <time>2011-07-10T12:06:17Z</time>
      </trkpt>
      <trkpt lat="44.15662" lon="6.65716">
        <ele>1654.101</ele>
        <time>2011-07-10T12:06:21Z</time>
      </trkpt>
      <trkpt lat="44.15653" lon="6.65729">
        <ele>1650.555</ele>
        <time>2011-07-10T12:06:29Z</time>
      </trkpt>
      <trkpt lat="44.15642" lon="6.65745">
        <ele>1647.365</ele>
        <time>2011-07-10T12:06:38Z</time>
      </trkpt>
      <trkpt lat="44.15633" lon="6.6576">
        <ele>1647.786</ele>
        <time>2011-07-10T12:06:46Z</time>
      </trkpt>
      <trkpt lat="44.15632" lon="6.65763">
        <ele>1648.887</ele>
        <time>2011-07-10T12:06:48Z</time>
      </trkpt>
      <trkpt lat="44.15625" lon="6.65773">
        <ele>1654.177</ele>
        <time>2011-07-10T12:06:53Z</time>
      </trkpt>
      <trkpt lat="44.15619" lon="6.65784">
        <ele>1656.277</ele>
        <time>2011-07-10T12:06:58Z</time>
      </trkpt>
      <trkpt lat="44.15606" lon="6.65794">
        <ele>1656.497</ele>
        <time>2011-07-10T12:07:05Z</time>
      </trkpt>
      <trkpt lat="44.15593" lon="6.65799">
        <ele>1657.688</ele>
        <time>2011-07-10T12:07:12Z</time>
      </trkpt>
      <trkpt lat="44.15583" lon="6.65799">
        <ele>1657.578</ele>
        <time>2011-07-10T12:07:18Z</time>
      </trkpt>
      <trkpt lat="44.15568" lon="6.65799">
        <ele>1656.158</ele>
        <time>2011-07-10T12:07:26Z</time>
      </trkpt>
      <trkpt lat="44.15558" lon="6.65803">
        <ele>1656.369</ele>
        <time>2011-07-10T12:07:32Z</time>
      </trkpt>
      <trkpt lat="44.15547" lon="6.65805">
        <ele>1657.718</ele>
        <time>2011-07-10T12:07:39Z</time>
      </trkpt>
      <trkpt lat="44.15538" lon="6.65808">
        <ele>1659.171</ele>
        <time>2011-07-10T12:07:45Z</time>
      </trkpt>
      <trkpt lat="44.15533" lon="6.65814">
        <ele>1660.62</ele>
        <time>2011-07-10T12:07:50Z</time>
      </trkpt>
      <trkpt lat="44.15527" lon="6.65826">
        <ele>1660.807</ele>
        <time>2011-07-10T12:07:58Z</time>
      </trkpt>
      <trkpt lat="44.1552" lon="6.65835">
        <ele>1661.148</ele>
        <time>2011-07-10T12:08:04Z</time>
      </trkpt>
      <trkpt lat="44.15516" lon="6.6585">
        <ele>1663.309</ele>
        <time>2011-07-10T12:08:11Z</time>
      </trkpt>
      <trkpt lat="44.15513" lon="6.65864">
        <ele>1662.389</ele>
        <time>2011-07-10T12:08:17Z</time>
      </trkpt>
      <trkpt lat="44.15509" lon="6.65881">
        <ele>1665.632</ele>
        <time>2011-07-10T12:08:25Z</time>
      </trkpt>
      <trkpt lat="44.15508" lon="6.65897">
        <ele>1668.51</ele>
        <time>2011-07-10T12:08:31Z</time>
      </trkpt>
      <trkpt lat="44.15507" lon="6.65922">
        <ele>1669.319</ele>
        <time>2011-07-10T12:08:39Z</time>
      </trkpt>
      <trkpt lat="44.15508" lon="6.6594">
        <ele>1670.369</ele>
        <time>2011-07-10T12:08:45Z</time>
      </trkpt>
      <trkpt lat="44.15511" lon="6.65969">
        <ele>1671.459</ele>
        <time>2011-07-10T12:08:54Z</time>
      </trkpt>
      <trkpt lat="44.15516" lon="6.65995">
        <ele>1670.36</ele>
        <time>2011-07-10T12:09:02Z</time>
      </trkpt>
      <trkpt lat="44.15521" lon="6.6602">
        <ele>1670.058</ele>
        <time>2011-07-10T12:09:10Z</time>
      </trkpt>
      <trkpt lat="44.15523" lon="6.66049">
        <ele>1672.03</ele>
        <time>2011-07-10T12:09:19Z</time>
      </trkpt>
      <trkpt lat="44.15525" lon="6.66071">
        <ele>1676.382</ele>
        <time>2011-07-10T12:09:27Z</time>
      </trkpt>
      <trkpt lat="44.15527" lon="6.66089">
        <ele>1679.863</ele>
        <time>2011-07-10T12:09:34Z</time>
      </trkpt>
      <trkpt lat="44.15527" lon="6.66105">
        <ele>1681.702</ele>
        <time>2011-07-10T12:09:40Z</time>
      </trkpt>
      <trkpt lat="44.15525" lon="6.66122">
        <ele>1682.629</ele>
        <time>2011-07-10T12:09:47Z</time>
      </trkpt>
      <trkpt lat="44.15519" lon="6.6614">
        <ele>1683.469</ele>
        <time>2011-07-10T12:09:54Z</time>
      </trkpt>
      <trkpt lat="44.15513" lon="6.66155">
        <ele>1686.75</ele>
        <time>2011-07-10T12:10:01Z</time>
      </trkpt>
      <trkpt lat="44.15507" lon="6.66168">
        <ele>1688.619</ele>
        <time>2011-07-10T12:10:06Z</time>
      </trkpt>
      <trkpt lat="44.15497" lon="6.66188">
        <ele>1686.045</ele>
        <time>2011-07-10T12:10:13Z</time>
      </trkpt>
      <trkpt lat="44.15482" lon="6.66213">
        <ele>1681.703</ele>
        <time>2011-07-10T12:10:19Z</time>
      </trkpt>
      <trkpt lat="44.1547" lon="6.66226">
        <ele>1677.231</ele>
        <time>2011-07-10T12:10:23Z</time>
      </trkpt>
      <trkpt lat="44.15456" lon="6.66241">
        <ele>1671.83</ele>
        <time>2011-07-10T12:10:29Z</time>
      </trkpt>
      <trkpt lat="44.15439" lon="6.66263">
        <ele>1669.261</ele>
        <time>2011-07-10T12:10:36Z</time>
      </trkpt>
      <trkpt lat="44.15422" lon="6.66284">
        <ele>1669.026</ele>
        <time>2011-07-10T12:10:43Z</time>
      </trkpt>
      <trkpt lat="44.15405" lon="6.66306">
        <ele>1670.178</ele>
        <time>2011-07-10T12:10:51Z</time>
      </trkpt>
      <trkpt lat="44.15388" lon="6.6633">
        <ele>1671.079</ele>
        <time>2011-07-10T12:10:59Z</time>
      </trkpt>
      <trkpt lat="44.15373" lon="6.6635">
        <ele>1672.169</ele>
        <time>2011-07-10T12:11:06Z</time>
      </trkpt>
      <trkpt lat="44.15361" lon="6.66368">
        <ele>1672.869</ele>
        <time>2011-07-10T12:11:12Z</time>
      </trkpt>
      <trkpt lat="44.15345" lon="6.66386">
        <ele>1675.6</ele>
        <time>2011-07-10T12:11:20Z</time>
      </trkpt>
      <trkpt lat="44.15334" lon="6.66399">
        <ele>1675.259</ele>
        <time>2011-07-10T12:11:26Z</time>
      </trkpt>
      <trkpt lat="44.15323" lon="6.66411">
        <ele>1676.29</ele>
        <time>2011-07-10T12:11:32Z</time>
      </trkpt>
      <trkpt lat="44.15317" lon="6.66416">
        <ele>1677.45</ele>
        <time>2011-07-10T12:11:36Z</time>
      </trkpt>
      <trkpt lat="44.15318" lon="6.66432">
        <ele>1676.669</ele>
        <time>2011-07-10T12:11:43Z</time>
      </trkpt>
      <trkpt lat="44.15319" lon="6.66448">
        <ele>1677.68</ele>
        <time>2011-07-10T12:11:48Z</time>
      </trkpt>
      <trkpt lat="44.15317" lon="6.66467">
        <ele>1676.178</ele>
        <time>2011-07-10T12:11:55Z</time>
      </trkpt>
      <trkpt lat="44.15317" lon="6.6649">
        <ele>1676.049</ele>
        <time>2011-07-10T12:12:01Z</time>
      </trkpt>
      <trkpt lat="44.15318" lon="6.66515">
        <ele>1679.749</ele>
        <time>2011-07-10T12:12:08Z</time>
      </trkpt>
      <trkpt lat="44.15323" lon="6.6653">
        <ele>1682.442</ele>
        <time>2011-07-10T12:12:13Z</time>
      </trkpt>
      <trkpt lat="44.1532" lon="6.66545">
        <ele>1683.951</ele>
        <time>2011-07-10T12:12:19Z</time>
      </trkpt>
      <trkpt lat="44.15316" lon="6.66554">
        <ele>1685.171</ele>
        <time>2011-07-10T12:12:23Z</time>
      </trkpt>
      <trkpt lat="44.15314" lon="6.66572">
        <ele>1686.199</ele>
        <time>2011-07-10T12:12:30Z</time>
      </trkpt>
      <trkpt lat="44.15315" lon="6.66587">
        <ele>1685.621</ele>
        <time>2011-07-10T12:12:36Z</time>
      </trkpt>
      <trkpt lat="44.15316" lon="6.66605">
        <ele>1687.833</ele>
        <time>2011-07-10T12:12:43Z</time>
      </trkpt>
      <trkpt lat="44.15313" lon="6.66626">
        <ele>1687.493</ele>
        <time>2011-07-10T12:12:52Z</time>
      </trkpt>
      <trkpt lat="44.1531" lon="6.66642">
        <ele>1687.441</ele>
        <time>2011-07-10T12:12:59Z</time>
      </trkpt>
      <trkpt lat="44.15305" lon="6.66662">
        <ele>1685.787</ele>
        <time>2011-07-10T12:13:08Z</time>
      </trkpt>
      <trkpt lat="44.153" lon="6.66676">
        <ele>1690.292</ele>
        <time>2011-07-10T12:13:15Z</time>
      </trkpt>
      <trkpt lat="44.15299" lon="6.66694">
        <ele>1691.581</ele>
        <time>2011-07-10T12:13:21Z</time>
      </trkpt>
      <trkpt lat="44.15298" lon="6.66713">
        <ele>1695.934</ele>
        <time>2011-07-10T12:13:28Z</time>
      </trkpt>
      <trkpt lat="44.15284" lon="6.66737">
        <ele>1694.789</ele>
        <time>2011-07-10T12:13:36Z</time>
      </trkpt>
      <trkpt lat="44.15267" lon="6.66751">
        <ele>1696.018</ele>
        <time>2011-07-10T12:13:42Z</time>
      </trkpt>
      <trkpt lat="44.15256" lon="6.66771">
        <ele>1694.538</ele>
        <time>2011-07-10T12:13:48Z</time>
      </trkpt>
      <trkpt lat="44.15257" lon="6.66789">
        <ele>1693.207</ele>
        <time>2011-07-10T12:13:52Z</time>
      </trkpt>
      <trkpt lat="44.15255" lon="6.66805">
        <ele>1694.708</ele>
        <time>2011-07-10T12:13:57Z</time>
      </trkpt>
      <trkpt lat="44.15247" lon="6.66829">
        <ele>1694.368</ele>
        <time>2011-07-10T12:14:02Z</time>
      </trkpt>
      <trkpt lat="44.15225" lon="6.66864">
        <ele>1698.944</ele>
        <time>2011-07-10T12:14:08Z</time>
      </trkpt>
      <trkpt lat="44.15207" lon="6.66892">
        <ele>1702.925</ele>
        <time>2011-07-10T12:14:14Z</time>
      </trkpt>
      <trkpt lat="44.15193" lon="6.66914">
        <ele>1710.64</ele>
        <time>2011-07-10T12:14:21Z</time>
      </trkpt>
      <trkpt lat="44.15181" lon="6.66931">
        <ele>1714.014</ele>
        <time>2011-07-10T12:14:27Z</time>
      </trkpt>
      <trkpt lat="44.15168" lon="6.66953">
        <ele>1714.371</ele>
        <time>2011-07-10T12:14:34Z</time>
      </trkpt>
      <trkpt lat="44.15158" lon="6.66974">
        <ele>1709.596</ele>
        <time>2011-07-10T12:14:40Z</time>
      </trkpt>
      <trkpt lat="44.15148" lon="6.66995">
        <ele>1707.877</ele>
        <time>2011-07-10T12:14:47Z</time>
      </trkpt>
      <trkpt lat="44.15136" lon="6.67021">
        <ele>1709.432</ele>
        <time>2011-07-10T12:14:55Z</time>
      </trkpt>
      <trkpt lat="44.15131" lon="6.6704">
        <ele>1711.242</ele>
        <time>2011-07-10T12:15:02Z</time>
      </trkpt>
      <trkpt lat="44.15132" lon="6.67053">
        <ele>1711.821</ele>
        <time>2011-07-10T12:15:07Z</time>
      </trkpt>
      <trkpt lat="44.15137" lon="6.67065">
        <ele>1711.822</ele>
        <time>2011-07-10T12:15:13Z</time>
      </trkpt>
      <trkpt lat="44.15142" lon="6.67073">
        <ele>1715.094</ele>
        <time>2011-07-10T12:15:19Z</time>
      </trkpt>
      <trkpt lat="44.15151" lon="6.67083">
        <ele>1715.022</ele>
        <time>2011-07-10T12:15:27Z</time>
      </trkpt>
      <trkpt lat="44.1516" lon="6.67093">
        <ele>1717.783</ele>
        <time>2011-07-10T12:15:35Z</time>
      </trkpt>
      <trkpt lat="44.15166" lon="6.67108">
        <ele>1726.107</ele>
        <time>2011-07-10T12:15:44Z</time>
      </trkpt>
      <trkpt lat="44.15167" lon="6.67118">
        <ele>1731.847</ele>
        <time>2011-07-10T12:15:51Z</time>
      </trkpt>
      <trkpt lat="44.1517" lon="6.67134">
        <ele>1726.697</ele>
        <time>2011-07-10T12:15:57Z</time>
      </trkpt>
      <trkpt lat="44.15167" lon="6.67155">
        <ele>1721.808</ele>
        <time>2011-07-10T12:16:06Z</time>
      </trkpt>
      <trkpt lat="44.15161" lon="6.67172">
        <ele>1723.123</ele>
        <time>2011-07-10T12:16:15Z</time>
      </trkpt>
      <trkpt lat="44.15157" lon="6.67189">
        <ele>1726.275</ele>
        <time>2011-07-10T12:16:24Z</time>
      </trkpt>
      <trkpt lat="44.15159" lon="6.67206">
        <ele>1729.044</ele>
        <time>2011-07-10T12:16:32Z</time>
      </trkpt>
      <trkpt lat="44.15164" lon="6.67218">
        <ele>1731.134</ele>
        <time>2011-07-10T12:16:39Z</time>
      </trkpt>
      <trkpt lat="44.15171" lon="6.67221">
        <ele>1734.156</ele>
        <time>2011-07-10T12:16:44Z</time>
      </trkpt>
      <trkpt lat="44.15182" lon="6.67215">
        <ele>1733.955</ele>
        <time>2011-07-10T12:16:51Z</time>
      </trkpt>
      <trkpt lat="44.15197" lon="6.67198">
        <ele>1740.42</ele>
        <time>2011-07-10T12:17:00Z</time>
      </trkpt>
      <trkpt lat="44.15207" lon="6.67181">
        <ele>1738.385</ele>
        <time>2011-07-10T12:17:07Z</time>
      </trkpt>
      <trkpt lat="44.15212" lon="6.67173">
        <ele>1739.815</ele>
        <time>2011-07-10T12:17:12Z</time>
      </trkpt>
      <trkpt lat="44.1522" lon="6.67157">
        <ele>1740.758</ele>
        <time>2011-07-10T12:17:19Z</time>
      </trkpt>
      <trkpt lat="44.15228" lon="6.67138">
        <ele>1743.056</ele>
        <time>2011-07-10T12:17:27Z</time>
      </trkpt>
      <trkpt lat="44.15231" lon="6.67121">
        <ele>1752.592</ele>
        <time>2011-07-10T12:17:36Z</time>
      </trkpt>
      <trkpt lat="44.15233" lon="6.6711">
        <ele>1756.148</ele>
        <time>2011-07-10T12:17:42Z</time>
      </trkpt>
      <trkpt lat="44.15236" lon="6.67101">
        <ele>1757.368</ele>
        <time>2011-07-10T12:17:49Z</time>
      </trkpt>
      <trkpt lat="44.15237" lon="6.67088">
        <ele>1757.025</ele>
        <time>2011-07-10T12:17:55Z</time>
      </trkpt>
      <trkpt lat="44.15239" lon="6.67084">
        <ele>1755.653</ele>
        <time>2011-07-10T12:17:57Z</time>
      </trkpt>
      <trkpt lat="44.15244" lon="6.67076">
        <ele>1752.29</ele>
        <time>2011-07-10T12:18:02Z</time>
      </trkpt>
      <trkpt lat="44.15249" lon="6.67064">
        <ele>1748.478</ele>
        <time>2011-07-10T12:18:09Z</time>
      </trkpt>
      <trkpt lat="44.15251" lon="6.67057">
        <ele>1746.339</ele>
        <time>2011-07-10T12:18:13Z</time>
      </trkpt>
      <trkpt lat="44.15252" lon="6.67043">
        <ele>1743.398</ele>
        <time>2011-07-10T12:18:19Z</time>
      </trkpt>
      <trkpt lat="44.15256" lon="6.67037">
        <ele>1744.7</ele>
        <time>2011-07-10T12:18:23Z</time>
      </trkpt>
      <trkpt lat="44.1526" lon="6.67034">
        <ele>1744.439</ele>
        <time>2011-07-10T12:18:27Z</time>
      </trkpt>
      <trkpt lat="44.15264" lon="6.67026">
        <ele>1746.633</ele>
        <time>2011-07-10T12:18:32Z</time>
      </trkpt>
      <trkpt lat="44.15265" lon="6.67022">
        <ele>1748.094</ele>
        <time>2011-07-10T12:18:36Z</time>
      </trkpt>
      <trkpt lat="44.15268" lon="6.67017">
        <ele>1750.475</ele>
        <time>2011-07-10T12:18:40Z</time>
      </trkpt>
      <trkpt lat="44.15274" lon="6.67012">
        <ele>1754.637</ele>
        <time>2011-07-10T12:18:44Z</time>
      </trkpt>
      <trkpt lat="44.15278" lon="6.67012">
        <ele>1757.378</ele>
        <time>2011-07-10T12:18:48Z</time>
      </trkpt>
      <trkpt lat="44.15288" lon="6.67008">
        <ele>1764.098</ele>
        <time>2011-07-10T12:18:57Z</time>
      </trkpt>
      <trkpt lat="44.15296" lon="6.66998">
        <ele>1766.886</ele>
        <time>2011-07-10T12:19:05Z</time>
      </trkpt>
      <trkpt lat="44.15301" lon="6.66992">
        <ele>1768.645</ele>
        <time>2011-07-10T12:19:10Z</time>
      </trkpt>
      <trkpt lat="44.1531" lon="6.66976">
        <ele>1774.678</ele>
        <time>2011-07-10T12:19:20Z</time>
      </trkpt>
      <trkpt lat="44.15316" lon="6.66959">
        <ele>1776.596</ele>
        <time>2011-07-10T12:19:29Z</time>
      </trkpt>
      <trkpt lat="44.15324" lon="6.66958">
        <ele>1782.004</ele>
        <time>2011-07-10T12:19:35Z</time>
      </trkpt>
      <trkpt lat="44.15328" lon="6.66967">
        <ele>1782.453</ele>
        <time>2011-07-10T12:19:40Z</time>
      </trkpt>
      <trkpt lat="44.15327" lon="6.66971">
        <ele>1783.754</ele>
        <time>2011-07-10T12:19:42Z</time>
      </trkpt>
      <trkpt lat="44.15325" lon="6.66986">
        <ele>1786.622</ele>
        <time>2011-07-10T12:19:51Z</time>
      </trkpt>
      <trkpt lat="44.15327" lon="6.67001">
        <ele>1784.008</ele>
        <time>2011-07-10T12:19:58Z</time>
      </trkpt>
      <trkpt lat="44.15327" lon="6.67016">
        <ele>1782.037</ele>
        <time>2011-07-10T12:20:05Z</time>
      </trkpt>
      <trkpt lat="44.15328" lon="6.67027">
        <ele>1780.368</ele>
        <time>2011-07-10T12:20:11Z</time>
      </trkpt>
      <trkpt lat="44.15326" lon="6.67039">
        <ele>1781.25</ele>
        <time>2011-07-10T12:20:18Z</time>
      </trkpt>
      <trkpt lat="44.15321" lon="6.67052">
        <ele>1784.933</ele>
        <time>2011-07-10T12:20:26Z</time>
      </trkpt>
      <trkpt lat="44.1532" lon="6.67055">
        <ele>1785.784</ele>
        <time>2011-07-10T12:20:28Z</time>
      </trkpt>
      <trkpt lat="44.15318" lon="6.67068">
        <ele>1790.735</ele>
        <time>2011-07-10T12:20:36Z</time>
      </trkpt>
      <trkpt lat="44.15319" lon="6.67079">
        <ele>1790.744</ele>
        <time>2011-07-10T12:20:42Z</time>
      </trkpt>
      <trkpt lat="44.15319" lon="6.67082">
        <ele>1790.714</ele>
        <time>2011-07-10T12:20:43Z</time>
      </trkpt>
      <trkpt lat="44.15317" lon="6.67092">
        <ele>1793.092</ele>
        <time>2011-07-10T12:20:48Z</time>
      </trkpt>
      <trkpt lat="44.15315" lon="6.67107">
        <ele>1794.301</ele>
        <time>2011-07-10T12:20:56Z</time>
      </trkpt>
      <trkpt lat="44.15316" lon="6.6711">
        <ele>1793.27</ele>
        <time>2011-07-10T12:20:58Z</time>
      </trkpt>
      <trkpt lat="44.15313" lon="6.67123">
        <ele>1794.93</ele>
        <time>2011-07-10T12:21:06Z</time>
      </trkpt>
      <trkpt lat="44.15308" lon="6.67141">
        <ele>1795.297</ele>
        <time>2011-07-10T12:21:15Z</time>
      </trkpt>
      <trkpt lat="44.15304" lon="6.6715">
        <ele>1795.328</ele>
        <time>2011-07-10T12:21:21Z</time>
      </trkpt>
      <trkpt lat="44.153" lon="6.67159">
        <ele>1797.15</ele>
        <time>2011-07-10T12:21:27Z</time>
      </trkpt>
      <trkpt lat="44.15296" lon="6.67173">
        <ele>1801.093</ele>
        <time>2011-07-10T12:21:34Z</time>
      </trkpt>
      <trkpt lat="44.15298" lon="6.67183">
        <ele>1794.589</ele>
        <time>2011-07-10T12:21:40Z</time>
      </trkpt>
      <trkpt lat="44.15298" lon="6.67186">
        <ele>1792.488</ele>
        <time>2011-07-10T12:21:42Z</time>
      </trkpt>
      <trkpt lat="44.15296" lon="6.672">
        <ele>1796.711</ele>
        <time>2011-07-10T12:21:50Z</time>
      </trkpt>
      <trkpt lat="44.15295" lon="6.67213">
        <ele>1799.772</ele>
        <time>2011-07-10T12:21:57Z</time>
      </trkpt>
      <trkpt lat="44.15291" lon="6.67227">
        <ele>1801.461</ele>
        <time>2011-07-10T12:22:05Z</time>
      </trkpt>
      <trkpt lat="44.15289" lon="6.6724">
        <ele>1802.239</ele>
        <time>2011-07-10T12:22:13Z</time>
      </trkpt>
      <trkpt lat="44.15288" lon="6.67248">
        <ele>1806.431</ele>
        <time>2011-07-10T12:22:20Z</time>
      </trkpt>
      <trkpt lat="44.15286" lon="6.67255">
        <ele>1792.016</ele>
        <time>2011-07-10T12:24:09Z</time>
      </trkpt>
      <trkpt lat="44.15292" lon="6.67249">
        <ele>1788.377</ele>
        <time>2011-07-10T12:25:45Z</time>
      </trkpt>
      <trkpt lat="44.1529" lon="6.67255">
        <ele>1788.108</ele>
        <time>2011-07-10T12:25:52Z</time>
      </trkpt>
      <trkpt lat="44.15273" lon="6.67259">
        <ele>1805.056</ele>
        <time>2011-07-10T12:27:17Z</time>
      </trkpt>
      <trkpt lat="44.15275" lon="6.67263">
        <ele>1803.606</ele>
        <time>2011-07-10T12:27:20Z</time>
      </trkpt>
      <trkpt lat="44.15278" lon="6.67272">
        <ele>1799.424</ele>
        <time>2011-07-10T12:27:27Z</time>
      </trkpt>
      <trkpt lat="44.1528" lon="6.67285">
        <ele>1796.826</ele>
        <time>2011-07-10T12:27:35Z</time>
      </trkpt>
      <trkpt lat="44.15279" lon="6.67296">
        <ele>1794.826</ele>
        <time>2011-07-10T12:27:42Z</time>
      </trkpt>
      <trkpt lat="44.15279" lon="6.67297">
        <ele>1794.386</ele>
        <time>2011-07-10T12:27:43Z</time>
      </trkpt>
      <trkpt lat="44.15278" lon="6.67304">
        <ele>1793.689</ele>
        <time>2011-07-10T12:27:48Z</time>
      </trkpt>
      <trkpt lat="44.15278" lon="6.67318">
        <ele>1793.44</ele>
        <time>2011-07-10T12:27:57Z</time>
      </trkpt>
      <trkpt lat="44.15277" lon="6.6733">
        <ele>1791.727</ele>
        <time>2011-07-10T12:28:05Z</time>
      </trkpt>
      <trkpt lat="44.15278" lon="6.67332">
        <ele>1791.637</ele>
        <time>2011-07-10T12:28:07Z</time>
      </trkpt>
      <trkpt lat="44.15277" lon="6.67339">
        <ele>1791.918</ele>
        <time>2011-07-10T12:28:12Z</time>
      </trkpt>
      <trkpt lat="44.15272" lon="6.67353">
        <ele>1795.351</ele>
        <time>2011-07-10T12:28:22Z</time>
      </trkpt>
      <trkpt lat="44.15267" lon="6.67362">
        <ele>1796.461</ele>
        <time>2011-07-10T12:28:30Z</time>
      </trkpt>
      <trkpt lat="44.15261" lon="6.67378">
        <ele>1795.91</ele>
        <time>2011-07-10T12:28:41Z</time>
      </trkpt>
      <trkpt lat="44.15258" lon="6.67386">
        <ele>1798.89</ele>
        <time>2011-07-10T12:28:49Z</time>
      </trkpt>
      <trkpt lat="44.15255" lon="6.67393">
        <ele>1800.31</ele>
        <time>2011-07-10T12:28:55Z</time>
      </trkpt>
      <trkpt lat="44.1525" lon="6.67412">
        <ele>1801.981</ele>
        <time>2011-07-10T12:29:04Z</time>
      </trkpt>
      <trkpt lat="44.15242" lon="6.67427">
        <ele>1803.03</ele>
        <time>2011-07-10T12:29:12Z</time>
      </trkpt>
      <trkpt lat="44.15232" lon="6.67443">
        <ele>1803.51</ele>
        <time>2011-07-10T12:29:21Z</time>
      </trkpt>
      <trkpt lat="44.15225" lon="6.67453">
        <ele>1804.239</ele>
        <time>2011-07-10T12:29:28Z</time>
      </trkpt>
      <trkpt lat="44.15218" lon="6.67465">
        <ele>1805.07</ele>
        <time>2011-07-10T12:29:35Z</time>
      </trkpt>
      <trkpt lat="44.15213" lon="6.67476">
        <ele>1806.131</ele>
        <time>2011-07-10T12:29:42Z</time>
      </trkpt>
      <trkpt lat="44.15211" lon="6.67478">
        <ele>1806.599</ele>
        <time>2011-07-10T12:29:49Z</time>
      </trkpt>
      <trkpt lat="44.15209" lon="6.67479">
        <ele>1807.241</ele>
        <time>2011-07-10T12:29:51Z</time>
      </trkpt>
      <trkpt lat="44.15208" lon="6.67481">
        <ele>1811.464</ele>
        <time>2011-07-10T12:29:59Z</time>
      </trkpt>
      <trkpt lat="44.15211" lon="6.67483">
        <ele>1807.749</ele>
        <time>2011-07-10T12:30:23Z</time>
      </trkpt>
      <trkpt lat="44.15208" lon="6.67493">
        <ele>1804.75</ele>
        <time>2011-07-10T12:30:30Z</time>
      </trkpt>
      <trkpt lat="44.15203" lon="6.67502">
        <ele>1808.022</ele>
        <time>2011-07-10T12:30:41Z</time>
      </trkpt>
      <trkpt lat="44.15199" lon="6.67509">
        <ele>1812.874</ele>
        <time>2011-07-10T12:30:50Z</time>
      </trkpt>
      <trkpt lat="44.15198" lon="6.67516">
        <ele>1817.568</ele>
        <time>2011-07-10T12:30:59Z</time>
      </trkpt>
      <trkpt lat="44.15196" lon="6.67521">
        <ele>1819.473</ele>
        <time>2011-07-10T12:31:04Z</time>
      </trkpt>
      <trkpt lat="44.15193" lon="6.67528">
        <ele>1822.122</ele>
        <time>2011-07-10T12:31:12Z</time>
      </trkpt>
      <trkpt lat="44.15192" lon="6.67534">
        <ele>1824.521</ele>
        <time>2011-07-10T12:31:20Z</time>
      </trkpt>
      <trkpt lat="44.15186" lon="6.67532">
        <ele>1833.104</ele>
        <time>2011-07-10T12:31:29Z</time>
      </trkpt>
      <trkpt lat="44.15184" lon="6.67539">
        <ele>1832.739</ele>
        <time>2011-07-10T12:31:35Z</time>
      </trkpt>
      <trkpt lat="44.15184" lon="6.67542">
        <ele>1831.651</ele>
        <time>2011-07-10T12:31:38Z</time>
      </trkpt>
      <trkpt lat="44.15183" lon="6.67547">
        <ele>1832.932</ele>
        <time>2011-07-10T12:31:45Z</time>
      </trkpt>
      <trkpt lat="44.15179" lon="6.67553">
        <ele>1835.423</ele>
        <time>2011-07-10T12:31:54Z</time>
      </trkpt>
      <trkpt lat="44.15175" lon="6.67563">
        <ele>1832.628</ele>
        <time>2011-07-10T12:32:03Z</time>
      </trkpt>
      <trkpt lat="44.15172" lon="6.67565">
        <ele>1833.561</ele>
        <time>2011-07-10T12:32:09Z</time>
      </trkpt>
      <trkpt lat="44.1517" lon="6.67569">
        <ele>1834.551</ele>
        <time>2011-07-10T12:32:17Z</time>
      </trkpt>
      <trkpt lat="44.15168" lon="6.67572">
        <ele>1835.742</ele>
        <time>2011-07-10T12:32:25Z</time>
      </trkpt>
      <trkpt lat="44.15167" lon="6.67583">
        <ele>1832.733</ele>
        <time>2011-07-10T12:32:39Z</time>
      </trkpt>
      <trkpt lat="44.15165" lon="6.67588">
        <ele>1836.033</ele>
        <time>2011-07-10T12:32:47Z</time>
      </trkpt>
      <trkpt lat="44.15159" lon="6.67593">
        <ele>1840.743</ele>
        <time>2011-07-10T12:32:54Z</time>
      </trkpt>
      <trkpt lat="44.15155" lon="6.67599">
        <ele>1842.795</ele>
        <time>2011-07-10T12:33:02Z</time>
      </trkpt>
      <trkpt lat="44.15153" lon="6.67603">
        <ele>1841.671</ele>
        <time>2011-07-10T12:33:10Z</time>
      </trkpt>
      <trkpt lat="44.15154" lon="6.67605">
        <ele>1838.39</ele>
        <time>2011-07-10T12:33:17Z</time>
      </trkpt>
      <trkpt lat="44.15151" lon="6.67616">
        <ele>1840.772</ele>
        <time>2011-07-10T12:33:25Z</time>
      </trkpt>
      <trkpt lat="44.1515" lon="6.67625">
        <ele>1839.733</ele>
        <time>2011-07-10T12:33:33Z</time>
      </trkpt>
      <trkpt lat="44.1515" lon="6.67634">
        <ele>1836.99</ele>
        <time>2011-07-10T12:33:40Z</time>
      </trkpt>
      <trkpt lat="44.15146" lon="6.67644">
        <ele>1839.273</ele>
        <time>2011-07-10T12:33:48Z</time>
      </trkpt>
      <trkpt lat="44.15144" lon="6.67653">
        <ele>1844.144</ele>
        <time>2011-07-10T12:33:55Z</time>
      </trkpt>
      <trkpt lat="44.15144" lon="6.67663">
        <ele>1849.033</ele>
        <time>2011-07-10T12:34:04Z</time>
      </trkpt>
      <trkpt lat="44.15144" lon="6.67672">
        <ele>1850.033</ele>
        <time>2011-07-10T12:34:11Z</time>
      </trkpt>
      <trkpt lat="44.15142" lon="6.67681">
        <ele>1853.43</ele>
        <time>2011-07-10T12:34:19Z</time>
      </trkpt>
      <trkpt lat="44.15141" lon="6.67687">
        <ele>1856.351</ele>
        <time>2011-07-10T12:34:26Z</time>
      </trkpt>
      <trkpt lat="44.15139" lon="6.67688">
        <ele>1856.85</ele>
        <time>2011-07-10T12:34:31Z</time>
      </trkpt>
      <trkpt lat="44.15143" lon="6.6769">
        <ele>1859.292</ele>
        <time>2011-07-10T12:34:42Z</time>
      </trkpt>
      <trkpt lat="44.15142" lon="6.67689">
        <ele>1859.852</ele>
        <time>2011-07-10T12:34:45Z</time>
      </trkpt>
      <trkpt lat="44.15138" lon="6.67684">
        <ele>1860.793</ele>
        <time>2011-07-10T12:34:52Z</time>
      </trkpt>
      <trkpt lat="44.15134" lon="6.67684">
        <ele>1857.559</ele>
        <time>2011-07-10T12:34:58Z</time>
      </trkpt>
      <trkpt lat="44.15123" lon="6.67685">
        <ele>1855.818</ele>
        <time>2011-07-10T12:35:02Z</time>
      </trkpt>
      <trkpt lat="44.15098" lon="6.67693">
        <ele>1848.071</ele>
        <time>2011-07-10T12:35:08Z</time>
      </trkpt>
      <trkpt lat="44.15084" lon="6.67697">
        <ele>1845.583</ele>
        <time>2011-07-10T12:35:12Z</time>
      </trkpt>
      <trkpt lat="44.15063" lon="6.677">
        <ele>1841.922</ele>
        <time>2011-07-10T12:35:16Z</time>
      </trkpt>
      <trkpt lat="44.15035" lon="6.67689">
        <ele>1839.57</ele>
        <time>2011-07-10T12:35:21Z</time>
      </trkpt>
      <trkpt lat="44.15016" lon="6.67695">
        <ele>1833.478</ele>
        <time>2011-07-10T12:35:24Z</time>
      </trkpt>
      <trkpt lat="44.14991" lon="6.67698">
        <ele>1830.08</ele>
        <time>2011-07-10T12:35:29Z</time>
      </trkpt>
      <trkpt lat="44.14982" lon="6.677">
        <ele>1830.964</ele>
        <time>2011-07-10T12:35:31Z</time>
      </trkpt>
      <trkpt lat="44.14972" lon="6.67712">
        <ele>1820.907</ele>
        <time>2011-07-10T12:35:35Z</time>
      </trkpt>
      <trkpt lat="44.14972" lon="6.67711">
        <ele>1822.135</ele>
        <time>2011-07-10T12:35:40Z</time>
      </trkpt>
      <trkpt lat="44.14969" lon="6.67706">
        <ele>1835.182</ele>
        <time>2011-07-10T12:36:18Z</time>
      </trkpt>
      <trkpt lat="44.14961" lon="6.67702">
        <ele>1851.13</ele>
        <time>2011-07-10T12:36:48Z</time>
      </trkpt>
      <trkpt lat="44.14952" lon="6.67707">
        <ele>1851.73</ele>
        <time>2011-07-10T12:36:54Z</time>
      </trkpt>
      <trkpt lat="44.14948" lon="6.6771">
        <ele>1853.602</ele>
        <time>2011-07-10T12:36:58Z</time>
      </trkpt>
      <trkpt lat="44.14945" lon="6.67711">
        <ele>1853.49</ele>
        <time>2011-07-10T12:37:04Z</time>
      </trkpt>
      <trkpt lat="44.1494" lon="6.67714">
        <ele>1851.9</ele>
        <time>2011-07-10T12:37:21Z</time>
      </trkpt>
      <trkpt lat="44.14931" lon="6.67721">
        <ele>1851.923</ele>
        <time>2011-07-10T12:37:29Z</time>
      </trkpt>
      <trkpt lat="44.14928" lon="6.67732">
        <ele>1846.802</ele>
        <time>2011-07-10T12:37:36Z</time>
      </trkpt>
      <trkpt lat="44.14927" lon="6.6774">
        <ele>1845.311</ele>
        <time>2011-07-10T12:37:39Z</time>
      </trkpt>
      <trkpt lat="44.14921" lon="6.67755">
        <ele>1841.389</ele>
        <time>2011-07-10T12:37:47Z</time>
      </trkpt>
      <trkpt lat="44.14919" lon="6.67759">
        <ele>1840.51</ele>
        <time>2011-07-10T12:37:50Z</time>
      </trkpt>
      <trkpt lat="44.14912" lon="6.67769">
        <ele>1840.271</ele>
        <time>2011-07-10T12:37:56Z</time>
      </trkpt>
      <trkpt lat="44.14907" lon="6.67778">
        <ele>1842.954</ele>
        <time>2011-07-10T12:38:04Z</time>
      </trkpt>
      <trkpt lat="44.14902" lon="6.67784">
        <ele>1844.643</ele>
        <time>2011-07-10T12:38:09Z</time>
      </trkpt>
      <trkpt lat="44.149" lon="6.67785">
        <ele>1846.525</ele>
        <time>2011-07-10T12:38:11Z</time>
      </trkpt>
      <trkpt lat="44.14893" lon="6.67791">
        <ele>1850.145</ele>
        <time>2011-07-10T12:38:18Z</time>
      </trkpt>
      <trkpt lat="44.14887" lon="6.67799">
        <ele>1849.963</ele>
        <time>2011-07-10T12:38:23Z</time>
      </trkpt>
      <trkpt lat="44.14877" lon="6.67812">
        <ele>1847.99</ele>
        <time>2011-07-10T12:38:30Z</time>
      </trkpt>
      <trkpt lat="44.14876" lon="6.67814">
        <ele>1849.032</ele>
        <time>2011-07-10T12:38:31Z</time>
      </trkpt>
      <trkpt lat="44.1487" lon="6.67825">
        <ele>1846.911</ele>
        <time>2011-07-10T12:38:38Z</time>
      </trkpt>
      <trkpt lat="44.14869" lon="6.67827">
        <ele>1846.42</ele>
        <time>2011-07-10T12:38:39Z</time>
      </trkpt>
      <trkpt lat="44.1486" lon="6.67836">
        <ele>1848.08</ele>
        <time>2011-07-10T12:38:46Z</time>
      </trkpt>
      <trkpt lat="44.14853" lon="6.67843">
        <ele>1852.842</ele>
        <time>2011-07-10T12:38:53Z</time>
      </trkpt>
      <trkpt lat="44.14847" lon="6.67852">
        <ele>1857.37</ele>
        <time>2011-07-10T12:39:01Z</time>
      </trkpt>
      <trkpt lat="44.14839" lon="6.6786">
        <ele>1862.4</ele>
        <time>2011-07-10T12:39:08Z</time>
      </trkpt>
      <trkpt lat="44.14833" lon="6.67863">
        <ele>1868.163</ele>
        <time>2011-07-10T12:39:12Z</time>
      </trkpt>
      <trkpt lat="44.14827" lon="6.67868">
        <ele>1876.406</ele>
        <time>2011-07-10T12:39:19Z</time>
      </trkpt>
      <trkpt lat="44.14824" lon="6.67869">
        <ele>1879.196</ele>
        <time>2011-07-10T12:39:24Z</time>
      </trkpt>
      <trkpt lat="44.14823" lon="6.6787">
        <ele>1878.905</ele>
        <time>2011-07-10T12:39:25Z</time>
      </trkpt>
      <trkpt lat="44.14818" lon="6.67876">
        <ele>1877.951</ele>
        <time>2011-07-10T12:39:31Z</time>
      </trkpt>
      <trkpt lat="44.14819" lon="6.67879">
        <ele>1873.8</ele>
        <time>2011-07-10T12:39:43Z</time>
      </trkpt>
      <trkpt lat="44.14815" lon="6.67884">
        <ele>1870.96</ele>
        <time>2011-07-10T12:39:50Z</time>
      </trkpt>
      <trkpt lat="44.1481" lon="6.67886">
        <ele>1870.481</ele>
        <time>2011-07-10T12:39:57Z</time>
      </trkpt>
      <trkpt lat="44.14803" lon="6.67888">
        <ele>1871.483</ele>
        <time>2011-07-10T12:40:05Z</time>
      </trkpt>
      <trkpt lat="44.14798" lon="6.67895">
        <ele>1870.56</ele>
        <time>2011-07-10T12:40:12Z</time>
      </trkpt>
      <trkpt lat="44.1479" lon="6.67904">
        <ele>1875.043</ele>
        <time>2011-07-10T12:40:21Z</time>
      </trkpt>
      <trkpt lat="44.14783" lon="6.67905">
        <ele>1875.572</ele>
        <time>2011-07-10T12:40:29Z</time>
      </trkpt>
      <trkpt lat="44.14781" lon="6.67904">
        <ele>1876.492</ele>
        <time>2011-07-10T12:40:36Z</time>
      </trkpt>
      <trkpt lat="44.1478" lon="6.67904">
        <ele>1877.461</ele>
        <time>2011-07-10T12:40:43Z</time>
      </trkpt>
      <trkpt lat="44.1478" lon="6.67904">
        <ele>1878.062</ele>
        <time>2011-07-10T12:40:44Z</time>
      </trkpt>
      <trkpt lat="44.14778" lon="6.67906">
        <ele>1879.601</ele>
        <time>2011-07-10T12:40:52Z</time>
      </trkpt>
      <trkpt lat="44.14776" lon="6.67908">
        <ele>1880.271</ele>
        <time>2011-07-10T12:40:58Z</time>
      </trkpt>
      <trkpt lat="44.14775" lon="6.67911">
        <ele>1880.672</ele>
        <time>2011-07-10T12:41:04Z</time>
      </trkpt>
      <trkpt lat="44.14772" lon="6.67922">
        <ele>1881.502</ele>
        <time>2011-07-10T12:41:14Z</time>
      </trkpt>
      <trkpt lat="44.14769" lon="6.67935">
        <ele>1882.342</ele>
        <time>2011-07-10T12:41:24Z</time>
      </trkpt>
      <trkpt lat="44.14762" lon="6.67944">
        <ele>1883.942</ele>
        <time>2011-07-10T12:41:34Z</time>
      </trkpt>
      <trkpt lat="44.14754" lon="6.6795">
        <ele>1883.94</ele>
        <time>2011-07-10T12:41:44Z</time>
      </trkpt>
      <trkpt lat="44.14749" lon="6.67953">
        <ele>1884.742</ele>
        <time>2011-07-10T12:41:51Z</time>
      </trkpt>
      <trkpt lat="44.14749" lon="6.67953">
        <ele>1884.972</ele>
        <time>2011-07-10T12:41:52Z</time>
      </trkpt>
      <trkpt lat="44.14747" lon="6.67959">
        <ele>1885.511</ele>
        <time>2011-07-10T12:41:57Z</time>
      </trkpt>
      <trkpt lat="44.14741" lon="6.6797">
        <ele>1884.95</ele>
        <time>2011-07-10T12:42:07Z</time>
      </trkpt>
      <trkpt lat="44.14732" lon="6.67976">
        <ele>1888.004</ele>
        <time>2011-07-10T12:42:16Z</time>
      </trkpt>
      <trkpt lat="44.14729" lon="6.67978">
        <ele>1889.093</ele>
        <time>2011-07-10T12:42:21Z</time>
      </trkpt>
      <trkpt lat="44.14722" lon="6.67985">
        <ele>1891.023</ele>
        <time>2011-07-10T12:42:29Z</time>
      </trkpt>
      <trkpt lat="44.14712" lon="6.67995">
        <ele>1892.452</ele>
        <time>2011-07-10T12:42:40Z</time>
      </trkpt>
      <trkpt lat="44.14705" lon="6.68001">
        <ele>1893.082</ele>
        <time>2011-07-10T12:42:47Z</time>
      </trkpt>
      <trkpt lat="44.14696" lon="6.6801">
        <ele>1893.012</ele>
        <time>2011-07-10T12:42:57Z</time>
      </trkpt>
      <trkpt lat="44.14692" lon="6.68012">
        <ele>1893.873</ele>
        <time>2011-07-10T12:43:02Z</time>
      </trkpt>
      <trkpt lat="44.14685" lon="6.6802">
        <ele>1897.434</ele>
        <time>2011-07-10T12:43:13Z</time>
      </trkpt>
      <trkpt lat="44.14678" lon="6.68023">
        <ele>1899.864</ele>
        <time>2011-07-10T12:43:22Z</time>
      </trkpt>
      <trkpt lat="44.14676" lon="6.68025">
        <ele>1900.774</ele>
        <time>2011-07-10T12:43:25Z</time>
      </trkpt>
      <trkpt lat="44.14673" lon="6.68028">
        <ele>1902.362</ele>
        <time>2011-07-10T12:43:29Z</time>
      </trkpt>
      <trkpt lat="44.14671" lon="6.68032">
        <ele>1902.423</ele>
        <time>2011-07-10T12:43:33Z</time>
      </trkpt>
      <trkpt lat="44.14667" lon="6.68034">
        <ele>1905.485</ele>
        <time>2011-07-10T12:43:42Z</time>
      </trkpt>
      <trkpt lat="44.14664" lon="6.6803">
        <ele>1907.523</ele>
        <time>2011-07-10T12:43:50Z</time>
      </trkpt>
      <trkpt lat="44.14664" lon="6.6803">
        <ele>1907.572</ele>
        <time>2011-07-10T12:43:52Z</time>
      </trkpt>
      <trkpt lat="44.1466" lon="6.68034">
        <ele>1907.091</ele>
        <time>2011-07-10T12:43:57Z</time>
      </trkpt>
      <trkpt lat="44.14659" lon="6.68035">
        <ele>1906.31</ele>
        <time>2011-07-10T12:43:58Z</time>
      </trkpt>
      <trkpt lat="44.14653" lon="6.68043">
        <ele>1903.16</ele>
        <time>2011-07-10T12:44:07Z</time>
      </trkpt>
      <trkpt lat="44.14649" lon="6.68048">
        <ele>1903.391</ele>
        <time>2011-07-10T12:44:13Z</time>
      </trkpt>
      <trkpt lat="44.14643" lon="6.68053">
        <ele>1905.272</ele>
        <time>2011-07-10T12:44:20Z</time>
      </trkpt>
      <trkpt lat="44.14634" lon="6.6806">
        <ele>1907.473</ele>
        <time>2011-07-10T12:44:29Z</time>
      </trkpt>
      <trkpt lat="44.14629" lon="6.68071">
        <ele>1909.383</ele>
        <time>2011-07-10T12:44:38Z</time>
      </trkpt>
      <trkpt lat="44.14622" lon="6.68085">
        <ele>1908.442</ele>
        <time>2011-07-10T12:44:48Z</time>
      </trkpt>
      <trkpt lat="44.14618" lon="6.68096">
        <ele>1912.814</ele>
        <time>2011-07-10T12:44:58Z</time>
      </trkpt>
      <trkpt lat="44.14609" lon="6.68102">
        <ele>1918.204</ele>
        <time>2011-07-10T12:45:06Z</time>
      </trkpt>
      <trkpt lat="44.14604" lon="6.68103">
        <ele>1920.303</ele>
        <time>2011-07-10T12:45:10Z</time>
      </trkpt>
      <trkpt lat="44.14598" lon="6.68102">
        <ele>1922.843</ele>
        <time>2011-07-10T12:45:17Z</time>
      </trkpt>
      <trkpt lat="44.14591" lon="6.68103">
        <ele>1924.975</ele>
        <time>2011-07-10T12:45:25Z</time>
      </trkpt>
      <trkpt lat="44.14585" lon="6.68106">
        <ele>1924.682</ele>
        <time>2011-07-10T12:45:32Z</time>
      </trkpt>
      <trkpt lat="44.14584" lon="6.68106">
        <ele>1927.115</ele>
        <time>2011-07-10T12:45:36Z</time>
      </trkpt>
      <trkpt lat="44.14579" lon="6.68108">
        <ele>1926.665</ele>
        <time>2011-07-10T12:45:41Z</time>
      </trkpt>
      <trkpt lat="44.14574" lon="6.68107">
        <ele>1926.362</ele>
        <time>2011-07-10T12:45:48Z</time>
      </trkpt>
      <trkpt lat="44.14569" lon="6.68107">
        <ele>1931.016</ele>
        <time>2011-07-10T12:45:57Z</time>
      </trkpt>
      <trkpt lat="44.14561" lon="6.68114">
        <ele>1932.574</ele>
        <time>2011-07-10T12:46:04Z</time>
      </trkpt>
      <trkpt lat="44.14551" lon="6.68126">
        <ele>1931.012</ele>
        <time>2011-07-10T12:46:11Z</time>
      </trkpt>
      <trkpt lat="44.14544" lon="6.68133">
        <ele>1930.531</ele>
        <time>2011-07-10T12:46:16Z</time>
      </trkpt>
      <trkpt lat="44.14536" lon="6.68143">
        <ele>1928.68</ele>
        <time>2011-07-10T12:46:23Z</time>
      </trkpt>
      <trkpt lat="44.14536" lon="6.68145">
        <ele>1929.942</ele>
        <time>2011-07-10T12:46:25Z</time>
      </trkpt>
      <trkpt lat="44.14524" lon="6.68149">
        <ele>1937.023</ele>
        <time>2011-07-10T12:46:33Z</time>
      </trkpt>
      <trkpt lat="44.14515" lon="6.68156">
        <ele>1937.133</ele>
        <time>2011-07-10T12:46:40Z</time>
      </trkpt>
      <trkpt lat="44.1451" lon="6.68162">
        <ele>1934.929</ele>
        <time>2011-07-10T12:46:45Z</time>
      </trkpt>
      <trkpt lat="44.14499" lon="6.68167">
        <ele>1935.249</ele>
        <time>2011-07-10T12:46:51Z</time>
      </trkpt>
      <trkpt lat="44.14492" lon="6.68171">
        <ele>1940.826</ele>
        <time>2011-07-10T12:46:57Z</time>
      </trkpt>
      <trkpt lat="44.14487" lon="6.68177">
        <ele>1939.243</ele>
        <time>2011-07-10T12:47:02Z</time>
      </trkpt>
      <trkpt lat="44.14476" lon="6.68183">
        <ele>1938.222</ele>
        <time>2011-07-10T12:47:09Z</time>
      </trkpt>
      <trkpt lat="44.14463" lon="6.68194">
        <ele>1939.911</ele>
        <time>2011-07-10T12:47:16Z</time>
      </trkpt>
      <trkpt lat="44.14459" lon="6.68203">
        <ele>1938.551</ele>
        <time>2011-07-10T12:47:21Z</time>
      </trkpt>
      <trkpt lat="44.14456" lon="6.68209">
        <ele>1937.038</ele>
        <time>2011-07-10T12:47:24Z</time>
      </trkpt>
      <trkpt lat="44.14447" lon="6.68223">
        <ele>1933.539</ele>
        <time>2011-07-10T12:47:31Z</time>
      </trkpt>
      <trkpt lat="44.14437" lon="6.68234">
        <ele>1936.222</ele>
        <time>2011-07-10T12:47:38Z</time>
      </trkpt>
      <trkpt lat="44.14425" lon="6.68244">
        <ele>1939.322</ele>
        <time>2011-07-10T12:47:44Z</time>
      </trkpt>
      <trkpt lat="44.14411" lon="6.68259">
        <ele>1939.711</ele>
        <time>2011-07-10T12:47:52Z</time>
      </trkpt>
      <trkpt lat="44.14397" lon="6.68282">
        <ele>1937.589</ele>
        <time>2011-07-10T12:48:00Z</time>
      </trkpt>
      <trkpt lat="44.14382" lon="6.68294">
        <ele>1939.07</ele>
        <time>2011-07-10T12:48:07Z</time>
      </trkpt>
      <trkpt lat="44.14364" lon="6.68306">
        <ele>1940.512</ele>
        <time>2011-07-10T12:48:15Z</time>
      </trkpt>
      <trkpt lat="44.14353" lon="6.68317">
        <ele>1940.421</ele>
        <time>2011-07-10T12:48:21Z</time>
      </trkpt>
      <trkpt lat="44.14341" lon="6.68337">
        <ele>1940.562</ele>
        <time>2011-07-10T12:48:30Z</time>
      </trkpt>
      <trkpt lat="44.1434" lon="6.68339">
        <ele>1940.391</ele>
        <time>2011-07-10T12:48:31Z</time>
      </trkpt>
      <trkpt lat="44.14327" lon="6.68345">
        <ele>1941.69</ele>
        <time>2011-07-10T12:48:38Z</time>
      </trkpt>
      <trkpt lat="44.14319" lon="6.68344">
        <ele>1942.843</ele>
        <time>2011-07-10T12:48:42Z</time>
      </trkpt>
      <trkpt lat="44.14319" lon="6.68344">
        <ele>1942.942</ele>
        <time>2011-07-10T12:48:43Z</time>
      </trkpt>
      <trkpt lat="44.14316" lon="6.68345">
        <ele>1944.712</ele>
        <time>2011-07-10T12:48:49Z</time>
      </trkpt>
      <trkpt lat="44.14312" lon="6.68341">
        <ele>1949.133</ele>
        <time>2011-07-10T12:49:07Z</time>
      </trkpt>
      <trkpt lat="44.14309" lon="6.68342">
        <ele>1949.372</ele>
        <time>2011-07-10T12:49:14Z</time>
      </trkpt>
      <trkpt lat="44.14305" lon="6.68342">
        <ele>1951.344</ele>
        <time>2011-07-10T12:49:28Z</time>
      </trkpt>
      <trkpt lat="44.14297" lon="6.68345">
        <ele>1952.234</ele>
        <time>2011-07-10T12:49:37Z</time>
      </trkpt>
      <trkpt lat="44.1429" lon="6.68349">
        <ele>1952.774</ele>
        <time>2011-07-10T12:49:46Z</time>
      </trkpt>
      <trkpt lat="44.14283" lon="6.68352">
        <ele>1954.744</ele>
        <time>2011-07-10T12:49:54Z</time>
      </trkpt>
      <trkpt lat="44.14273" lon="6.68353">
        <ele>1954.752</ele>
        <time>2011-07-10T12:50:04Z</time>
      </trkpt>
      <trkpt lat="44.14268" lon="6.68352">
        <ele>1955.292</ele>
        <time>2011-07-10T12:50:09Z</time>
      </trkpt>
      <trkpt lat="44.14257" lon="6.68352">
        <ele>1957.001</ele>
        <time>2011-07-10T12:50:18Z</time>
      </trkpt>
      <trkpt lat="44.14252" lon="6.68354">
        <ele>1958.482</ele>
        <time>2011-07-10T12:50:25Z</time>
      </trkpt>
      <trkpt lat="44.14246" lon="6.68356">
        <ele>1958.411</ele>
        <time>2011-07-10T12:50:30Z</time>
      </trkpt>
      <trkpt lat="44.14228" lon="6.6836">
        <ele>1958.62</ele>
        <time>2011-07-10T12:50:39Z</time>
      </trkpt>
      <trkpt lat="44.14224" lon="6.6836">
        <ele>1958.01</ele>
        <time>2011-07-10T12:50:44Z</time>
      </trkpt>
      <trkpt lat="44.14222" lon="6.6836">
        <ele>1960.112</ele>
        <time>2011-07-10T12:50:56Z</time>
      </trkpt>
      <trkpt lat="44.14214" lon="6.68364">
        <ele>1960.091</ele>
        <time>2011-07-10T12:51:01Z</time>
      </trkpt>
      <trkpt lat="44.14198" lon="6.68374">
        <ele>1957.74</ele>
        <time>2011-07-10T12:51:08Z</time>
      </trkpt>
      <trkpt lat="44.14185" lon="6.68381">
        <ele>1956.258</ele>
        <time>2011-07-10T12:51:14Z</time>
      </trkpt>
      <trkpt lat="44.1417" lon="6.68391">
        <ele>1955.046</ele>
        <time>2011-07-10T12:51:20Z</time>
      </trkpt>
      <trkpt lat="44.14169" lon="6.68392">
        <ele>1954.748</ele>
        <time>2011-07-10T12:51:23Z</time>
      </trkpt>
      <trkpt lat="44.14169" lon="6.68393">
        <ele>1954.888</ele>
        <time>2011-07-10T12:51:25Z</time>
      </trkpt>
      <trkpt lat="44.14156" lon="6.68397">
        <ele>1953.668</ele>
        <time>2011-07-10T12:51:31Z</time>
      </trkpt>
      <trkpt lat="44.14142" lon="6.684">
        <ele>1952.268</ele>
        <time>2011-07-10T12:51:36Z</time>
      </trkpt>
      <trkpt lat="44.14132" lon="6.68403">
        <ele>1951.057</ele>
        <time>2011-07-10T12:51:40Z</time>
      </trkpt>
      <trkpt lat="44.14115" lon="6.68403">
        <ele>1949.538</ele>
        <time>2011-07-10T12:51:45Z</time>
      </trkpt>
      <trkpt lat="44.14104" lon="6.68409">
        <ele>1948.318</ele>
        <time>2011-07-10T12:51:49Z</time>
      </trkpt>
      <trkpt lat="44.14091" lon="6.68409">
        <ele>1948.67</ele>
        <time>2011-07-10T12:51:54Z</time>
      </trkpt>
      <trkpt lat="44.14079" lon="6.68412">
        <ele>1948.651</ele>
        <time>2011-07-10T12:51:59Z</time>
      </trkpt>
      <trkpt lat="44.14064" lon="6.68419">
        <ele>1949.59</ele>
        <time>2011-07-10T12:52:05Z</time>
      </trkpt>
      <trkpt lat="44.14048" lon="6.68429">
        <ele>1948.128</ele>
        <time>2011-07-10T12:52:11Z</time>
      </trkpt>
      <trkpt lat="44.14044" lon="6.68431">
        <ele>1947.828</ele>
        <time>2011-07-10T12:52:12Z</time>
      </trkpt>
      <trkpt lat="44.1403" lon="6.68437">
        <ele>1946.327</ele>
        <time>2011-07-10T12:52:16Z</time>
      </trkpt>
      <trkpt lat="44.14014" lon="6.68436">
        <ele>1945.308</ele>
        <time>2011-07-10T12:52:22Z</time>
      </trkpt>
      <trkpt lat="44.13999" lon="6.68436">
        <ele>1945.5</ele>
        <time>2011-07-10T12:52:27Z</time>
      </trkpt>
      <trkpt lat="44.13977" lon="6.68443">
        <ele>1945.441</ele>
        <time>2011-07-10T12:52:35Z</time>
      </trkpt>
      <trkpt lat="44.13966" lon="6.68451">
        <ele>1945.691</ele>
        <time>2011-07-10T12:52:40Z</time>
      </trkpt>
      <trkpt lat="44.13947" lon="6.6846">
        <ele>1948.234</ele>
        <time>2011-07-10T12:52:48Z</time>
      </trkpt>
      <trkpt lat="44.13937" lon="6.68472">
        <ele>1948.494</ele>
        <time>2011-07-10T12:52:54Z</time>
      </trkpt>
      <trkpt lat="44.13929" lon="6.6849">
        <ele>1947.2</ele>
        <time>2011-07-10T12:53:02Z</time>
      </trkpt>
      <trkpt lat="44.13922" lon="6.68496">
        <ele>1950.384</ele>
        <time>2011-07-10T12:53:07Z</time>
      </trkpt>
      <trkpt lat="44.1391" lon="6.68499">
        <ele>1952.754</ele>
        <time>2011-07-10T12:53:13Z</time>
      </trkpt>
      <trkpt lat="44.13898" lon="6.68504">
        <ele>1953.042</ele>
        <time>2011-07-10T12:53:19Z</time>
      </trkpt>
      <trkpt lat="44.13883" lon="6.68509">
        <ele>1951.57</ele>
        <time>2011-07-10T12:53:25Z</time>
      </trkpt>
      <trkpt lat="44.13865" lon="6.68517">
        <ele>1951.461</ele>
        <time>2011-07-10T12:53:33Z</time>
      </trkpt>
      <trkpt lat="44.13851" lon="6.68528">
        <ele>1951.481</ele>
        <time>2011-07-10T12:53:40Z</time>
      </trkpt>
      <trkpt lat="44.1384" lon="6.68538">
        <ele>1955.464</ele>
        <time>2011-07-10T12:53:47Z</time>
      </trkpt>
      <trkpt lat="44.13824" lon="6.68552">
        <ele>1957.783</ele>
        <time>2011-07-10T12:53:55Z</time>
      </trkpt>
      <trkpt lat="44.13817" lon="6.68558">
        <ele>1957.059</ele>
        <time>2011-07-10T12:54:00Z</time>
      </trkpt>
      <trkpt lat="44.13808" lon="6.68561">
        <ele>1954.878</ele>
        <time>2011-07-10T12:54:05Z</time>
      </trkpt>
      <trkpt lat="44.138" lon="6.68565">
        <ele>1955.171</ele>
        <time>2011-07-10T12:54:10Z</time>
      </trkpt>
      <trkpt lat="44.13796" lon="6.68564">
        <ele>1955</ele>
        <time>2011-07-10T12:54:12Z</time>
      </trkpt>
      <trkpt lat="44.13794" lon="6.68564">
        <ele>1954.8</ele>
        <time>2011-07-10T12:54:17Z</time>
      </trkpt>
      <trkpt lat="44.13793" lon="6.68566">
        <ele>1951.131</ele>
        <time>2011-07-10T12:57:31Z</time>
      </trkpt>
      <trkpt lat="44.13791" lon="6.68566">
        <ele>1951.55</ele>
        <time>2011-07-10T12:57:43Z</time>
      </trkpt>
      <trkpt lat="44.1379" lon="6.68567">
        <ele>1952.662</ele>
        <time>2011-07-10T12:57:56Z</time>
      </trkpt>
      <trkpt lat="44.13786" lon="6.68569">
        <ele>1956.674</ele>
        <time>2011-07-10T12:58:01Z</time>
      </trkpt>
      <trkpt lat="44.13778" lon="6.68575">
        <ele>1957.633</ele>
        <time>2011-07-10T12:58:11Z</time>
      </trkpt>
      <trkpt lat="44.13773" lon="6.6858">
        <ele>1957.872</ele>
        <time>2011-07-10T12:58:18Z</time>
      </trkpt>
      <trkpt lat="44.13765" lon="6.68587">
        <ele>1962.724</ele>
        <time>2011-07-10T12:58:26Z</time>
      </trkpt>
      <trkpt lat="44.1376" lon="6.68596">
        <ele>1962.372</ele>
        <time>2011-07-10T12:58:36Z</time>
      </trkpt>
      <trkpt lat="44.13755" lon="6.68604">
        <ele>1963.543</ele>
        <time>2011-07-10T12:58:44Z</time>
      </trkpt>
      <trkpt lat="44.13752" lon="6.68615">
        <ele>1962.071</ele>
        <time>2011-07-10T12:58:53Z</time>
      </trkpt>
      <trkpt lat="44.1375" lon="6.68618">
        <ele>1961.832</ele>
        <time>2011-07-10T12:58:57Z</time>
      </trkpt>
      <trkpt lat="44.13747" lon="6.68621">
        <ele>1960.8</ele>
        <time>2011-07-10T12:59:04Z</time>
      </trkpt>
      <trkpt lat="44.13746" lon="6.68621">
        <ele>1962.841</ele>
        <time>2011-07-10T12:59:22Z</time>
      </trkpt>
      <trkpt lat="44.13739" lon="6.68631">
        <ele>1964.833</ele>
        <time>2011-07-10T12:59:30Z</time>
      </trkpt>
      <trkpt lat="44.1373" lon="6.68645">
        <ele>1967.753</ele>
        <time>2011-07-10T12:59:40Z</time>
      </trkpt>
      <trkpt lat="44.13723" lon="6.68659">
        <ele>1969.913</ele>
        <time>2011-07-10T12:59:50Z</time>
      </trkpt>
      <trkpt lat="44.13715" lon="6.68667">
        <ele>1970.152</ele>
        <time>2011-07-10T12:59:59Z</time>
      </trkpt>
      <trkpt lat="44.13707" lon="6.68677">
        <ele>1969.923</ele>
        <time>2011-07-10T13:00:08Z</time>
      </trkpt>
      <trkpt lat="44.13699" lon="6.68686">
        <ele>1971.513</ele>
        <time>2011-07-10T13:00:17Z</time>
      </trkpt>
      <trkpt lat="44.13693" lon="6.68693">
        <ele>1972.394</ele>
        <time>2011-07-10T13:00:27Z</time>
      </trkpt>
      <trkpt lat="44.13687" lon="6.687">
        <ele>1974.173</ele>
        <time>2011-07-10T13:00:35Z</time>
      </trkpt>
      <trkpt lat="44.13681" lon="6.6871">
        <ele>1974.483</ele>
        <time>2011-07-10T13:00:48Z</time>
      </trkpt>
      <trkpt lat="44.13673" lon="6.68717">
        <ele>1977.514</ele>
        <time>2011-07-10T13:01:00Z</time>
      </trkpt>
      <trkpt lat="44.13663" lon="6.68721">
        <ele>1983.969</ele>
        <time>2011-07-10T13:01:08Z</time>
      </trkpt>
      <trkpt lat="44.13658" lon="6.68729">
        <ele>1980.881</ele>
        <time>2011-07-10T13:01:17Z</time>
      </trkpt>
      <trkpt lat="44.13652" lon="6.68734">
        <ele>1981.012</ele>
        <time>2011-07-10T13:01:26Z</time>
      </trkpt>
      <trkpt lat="44.13647" lon="6.68736">
        <ele>1981.602</ele>
        <time>2011-07-10T13:01:36Z</time>
      </trkpt>
      <trkpt lat="44.13637" lon="6.6874">
        <ele>1985.165</ele>
        <time>2011-07-10T13:01:42Z</time>
      </trkpt>
      <trkpt lat="44.13629" lon="6.68742">
        <ele>1987.355</ele>
        <time>2011-07-10T13:01:47Z</time>
      </trkpt>
      <trkpt lat="44.13616" lon="6.68752">
        <ele>1994.407</ele>
        <time>2011-07-10T13:01:55Z</time>
      </trkpt>
      <trkpt lat="44.13603" lon="6.68766">
        <ele>1992.47</ele>
        <time>2011-07-10T13:02:03Z</time>
      </trkpt>
      <trkpt lat="44.13584" lon="6.68781">
        <ele>1991.87</ele>
        <time>2011-07-10T13:02:12Z</time>
      </trkpt>
      <trkpt lat="44.13576" lon="6.68791">
        <ele>1990.359</ele>
        <time>2011-07-10T13:02:17Z</time>
      </trkpt>
      <trkpt lat="44.13566" lon="6.68802">
        <ele>1988.457</ele>
        <time>2011-07-10T13:02:23Z</time>
      </trkpt>
      <trkpt lat="44.13553" lon="6.68813">
        <ele>1989.951</ele>
        <time>2011-07-10T13:02:31Z</time>
      </trkpt>
      <trkpt lat="44.13546" lon="6.68817">
        <ele>1990.682</ele>
        <time>2011-07-10T13:02:36Z</time>
      </trkpt>
      <trkpt lat="44.13538" lon="6.68824">
        <ele>1991.423</ele>
        <time>2011-07-10T13:02:42Z</time>
      </trkpt>
      <trkpt lat="44.13531" lon="6.68827">
        <ele>1992.502</ele>
        <time>2011-07-10T13:02:48Z</time>
      </trkpt>
      <trkpt lat="44.13521" lon="6.68834">
        <ele>1993.831</ele>
        <time>2011-07-10T13:02:54Z</time>
      </trkpt>
      <trkpt lat="44.13509" lon="6.68842">
        <ele>1991.439</ele>
        <time>2011-07-10T13:03:01Z</time>
      </trkpt>
      <trkpt lat="44.13499" lon="6.68845">
        <ele>1992.942</ele>
        <time>2011-07-10T13:03:06Z</time>
      </trkpt>
      <trkpt lat="44.13486" lon="6.68852">
        <ele>1998.356</ele>
        <time>2011-07-10T13:03:14Z</time>
      </trkpt>
      <trkpt lat="44.13474" lon="6.68858">
        <ele>2003.759</ele>
        <time>2011-07-10T13:03:21Z</time>
      </trkpt>
      <trkpt lat="44.13461" lon="6.68867">
        <ele>2007.527</ele>
        <time>2011-07-10T13:03:29Z</time>
      </trkpt>
      <trkpt lat="44.13455" lon="6.6887">
        <ele>2010.657</ele>
        <time>2011-07-10T13:03:34Z</time>
      </trkpt>
      <trkpt lat="44.13451" lon="6.68874">
        <ele>2012.756</ele>
        <time>2011-07-10T13:03:38Z</time>
      </trkpt>
      <trkpt lat="44.13444" lon="6.68879">
        <ele>2013.565</ele>
        <time>2011-07-10T13:03:42Z</time>
      </trkpt>
      <trkpt lat="44.13438" lon="6.68886">
        <ele>2010.94</ele>
        <time>2011-07-10T13:03:47Z</time>
      </trkpt>
      <trkpt lat="44.13432" lon="6.68893">
        <ele>2011.572</ele>
        <time>2011-07-10T13:03:53Z</time>
      </trkpt>
      <trkpt lat="44.13423" lon="6.68901">
        <ele>2011.079</ele>
        <time>2011-07-10T13:04:00Z</time>
      </trkpt>
      <trkpt lat="44.13418" lon="6.68905">
        <ele>2012.702</ele>
        <time>2011-07-10T13:04:05Z</time>
      </trkpt>
      <trkpt lat="44.13409" lon="6.68912">
        <ele>2016.244</ele>
        <time>2011-07-10T13:04:11Z</time>
      </trkpt>
      <trkpt lat="44.13402" lon="6.68922">
        <ele>2012.869</ele>
        <time>2011-07-10T13:04:18Z</time>
      </trkpt>
      <trkpt lat="44.13401" lon="6.68923">
        <ele>2013.119</ele>
        <time>2011-07-10T13:04:19Z</time>
      </trkpt>
      <trkpt lat="44.13396" lon="6.68927">
        <ele>2013.831</ele>
        <time>2011-07-10T13:04:24Z</time>
      </trkpt>
      <trkpt lat="44.13387" lon="6.68932">
        <ele>2017.074</ele>
        <time>2011-07-10T13:04:30Z</time>
      </trkpt>
      <trkpt lat="44.13376" lon="6.68941">
        <ele>2016.661</ele>
        <time>2011-07-10T13:04:39Z</time>
      </trkpt>
      <trkpt lat="44.13374" lon="6.68944">
        <ele>2016.781</ele>
        <time>2011-07-10T13:04:41Z</time>
      </trkpt>
      <trkpt lat="44.13372" lon="6.68944">
        <ele>2017.082</ele>
        <time>2011-07-10T13:04:43Z</time>
      </trkpt>
      <trkpt lat="44.13364" lon="6.68949">
        <ele>2017.383</ele>
        <time>2011-07-10T13:04:49Z</time>
      </trkpt>
      <trkpt lat="44.13356" lon="6.68956">
        <ele>2015.319</ele>
        <time>2011-07-10T13:04:56Z</time>
      </trkpt>
      <trkpt lat="44.13352" lon="6.6896">
        <ele>2015.83</ele>
        <time>2011-07-10T13:04:59Z</time>
      </trkpt>
      <trkpt lat="44.13342" lon="6.68969">
        <ele>2019.894</ele>
        <time>2011-07-10T13:05:05Z</time>
      </trkpt>
      <trkpt lat="44.13328" lon="6.68981">
        <ele>2023.793</ele>
        <time>2011-07-10T13:05:15Z</time>
      </trkpt>
      <trkpt lat="44.13318" lon="6.68993">
        <ele>2025.16</ele>
        <time>2011-07-10T13:05:23Z</time>
      </trkpt>
      <trkpt lat="44.13308" lon="6.69002">
        <ele>2026.902</ele>
        <time>2011-07-10T13:05:29Z</time>
      </trkpt>
      <trkpt lat="44.13302" lon="6.69011">
        <ele>2027.722</ele>
        <time>2011-07-10T13:05:35Z</time>
      </trkpt>
      <trkpt lat="44.13297" lon="6.69014">
        <ele>2025.64</ele>
        <time>2011-07-10T13:05:41Z</time>
      </trkpt>
      <trkpt lat="44.13294" lon="6.69016">
        <ele>2024.909</ele>
        <time>2011-07-10T13:05:43Z</time>
      </trkpt>
      <trkpt lat="44.13278" lon="6.69028">
        <ele>2025.299</ele>
        <time>2011-07-10T13:05:52Z</time>
      </trkpt>
      <trkpt lat="44.13267" lon="6.69039">
        <ele>2022.916</ele>
        <time>2011-07-10T13:05:59Z</time>
      </trkpt>
      <trkpt lat="44.13254" lon="6.6905">
        <ele>2020.245</ele>
        <time>2011-07-10T13:06:07Z</time>
      </trkpt>
      <trkpt lat="44.13239" lon="6.69061">
        <ele>2019.527</ele>
        <time>2011-07-10T13:06:15Z</time>
      </trkpt>
      <trkpt lat="44.13226" lon="6.69068">
        <ele>2024.272</ele>
        <time>2011-07-10T13:06:22Z</time>
      </trkpt>
      <trkpt lat="44.13213" lon="6.6908">
        <ele>2029.564</ele>
        <time>2011-07-10T13:06:30Z</time>
      </trkpt>
      <trkpt lat="44.13202" lon="6.69088">
        <ele>2031.174</ele>
        <time>2011-07-10T13:06:36Z</time>
      </trkpt>
      <trkpt lat="44.13188" lon="6.69097">
        <ele>2028.711</ele>
        <time>2011-07-10T13:06:44Z</time>
      </trkpt>
      <trkpt lat="44.13175" lon="6.69107">
        <ele>2024.912</ele>
        <time>2011-07-10T13:06:52Z</time>
      </trkpt>
      <trkpt lat="44.13159" lon="6.69118">
        <ele>2030.073</ele>
        <time>2011-07-10T13:07:00Z</time>
      </trkpt>
      <trkpt lat="44.13148" lon="6.69126">
        <ele>2036.137</ele>
        <time>2011-07-10T13:07:07Z</time>
      </trkpt>
      <trkpt lat="44.13136" lon="6.69134">
        <ele>2036.522</ele>
        <time>2011-07-10T13:07:14Z</time>
      </trkpt>
      <trkpt lat="44.13121" lon="6.69143">
        <ele>2039.152</ele>
        <time>2011-07-10T13:07:23Z</time>
      </trkpt>
      <trkpt lat="44.1311" lon="6.69151">
        <ele>2038.44</ele>
        <time>2011-07-10T13:07:32Z</time>
      </trkpt>
      <trkpt lat="44.13099" lon="6.69159">
        <ele>2040.992</ele>
        <time>2011-07-10T13:07:40Z</time>
      </trkpt>
      <trkpt lat="44.13092" lon="6.69164">
        <ele>2040.562</ele>
        <time>2011-07-10T13:07:46Z</time>
      </trkpt>
      <trkpt lat="44.13081" lon="6.69171">
        <ele>2041.932</ele>
        <time>2011-07-10T13:07:54Z</time>
      </trkpt>
      <trkpt lat="44.13071" lon="6.69175">
        <ele>2043.003</ele>
        <time>2011-07-10T13:08:01Z</time>
      </trkpt>
      <trkpt lat="44.13068" lon="6.69176">
        <ele>2043.223</ele>
        <time>2011-07-10T13:08:03Z</time>
      </trkpt>
      <trkpt lat="44.13054" lon="6.69182">
        <ele>2043.172</ele>
        <time>2011-07-10T13:08:10Z</time>
      </trkpt>
      <trkpt lat="44.13039" lon="6.69185">
        <ele>2042.882</ele>
        <time>2011-07-10T13:08:19Z</time>
      </trkpt>
      <trkpt lat="44.13019" lon="6.69185">
        <ele>2043.703</ele>
        <time>2011-07-10T13:08:30Z</time>
      </trkpt>
      <trkpt lat="44.13016" lon="6.69187">
        <ele>2042.3</ele>
        <time>2011-07-10T13:08:35Z</time>
      </trkpt>
      <trkpt lat="44.13008" lon="6.69183">
        <ele>2050.981</ele>
        <time>2011-07-10T13:12:43Z</time>
      </trkpt>
      <trkpt lat="44.13007" lon="6.69182">
        <ele>2051.86</ele>
        <time>2011-07-10T13:12:52Z</time>
      </trkpt>
      <trkpt lat="44.12995" lon="6.69179">
        <ele>2049.534</ele>
        <time>2011-07-10T13:12:58Z</time>
      </trkpt>
      <trkpt lat="44.12988" lon="6.69177">
        <ele>2048.365</ele>
        <time>2011-07-10T13:13:00Z</time>
      </trkpt>
      <trkpt lat="44.12979" lon="6.69182">
        <ele>2046.558</ele>
        <time>2011-07-10T13:13:04Z</time>
      </trkpt>
      <trkpt lat="44.12979" lon="6.69182">
        <ele>2044.768</ele>
        <time>2011-07-10T13:13:09Z</time>
      </trkpt>
      <trkpt lat="44.12978" lon="6.69184">
        <ele>2044.358</ele>
        <time>2011-07-10T13:13:11Z</time>
      </trkpt>
      <trkpt lat="44.12974" lon="6.69186">
        <ele>2045.05</ele>
        <time>2011-07-10T13:13:16Z</time>
      </trkpt>
      <trkpt lat="44.12958" lon="6.6919">
        <ele>2043.96</ele>
        <time>2011-07-10T13:13:24Z</time>
      </trkpt>
      <trkpt lat="44.12948" lon="6.69194">
        <ele>2043.972</ele>
        <time>2011-07-10T13:13:29Z</time>
      </trkpt>
      <trkpt lat="44.12937" lon="6.692">
        <ele>2042.589</ele>
        <time>2011-07-10T13:13:34Z</time>
      </trkpt>
      <trkpt lat="44.12927" lon="6.69205">
        <ele>2043.161</ele>
        <time>2011-07-10T13:13:39Z</time>
      </trkpt>
      <trkpt lat="44.12916" lon="6.6921">
        <ele>2043.111</ele>
        <time>2011-07-10T13:13:46Z</time>
      </trkpt>
      <trkpt lat="44.12908" lon="6.69216">
        <ele>2045.895</ele>
        <time>2011-07-10T13:13:51Z</time>
      </trkpt>
      <trkpt lat="44.129" lon="6.69221">
        <ele>2046.693</ele>
        <time>2011-07-10T13:13:59Z</time>
      </trkpt>
      <trkpt lat="44.12898" lon="6.69222">
        <ele>2044.959</ele>
        <time>2011-07-10T13:14:05Z</time>
      </trkpt>
      <trkpt lat="44.12894" lon="6.69225">
        <ele>2044.098</ele>
        <time>2011-07-10T13:14:13Z</time>
      </trkpt>
      <trkpt lat="44.12884" lon="6.69229">
        <ele>2049.684</ele>
        <time>2011-07-10T13:14:23Z</time>
      </trkpt>
      <trkpt lat="44.12881" lon="6.6923">
        <ele>2050.563</ele>
        <time>2011-07-10T13:14:27Z</time>
      </trkpt>
      <trkpt lat="44.12872" lon="6.69235">
        <ele>2055.146</ele>
        <time>2011-07-10T13:14:35Z</time>
      </trkpt>
      <trkpt lat="44.12866" lon="6.69242">
        <ele>2056.081</ele>
        <time>2011-07-10T13:14:43Z</time>
      </trkpt>
      <trkpt lat="44.12864" lon="6.69243">
        <ele>2056.881</ele>
        <time>2011-07-10T13:14:47Z</time>
      </trkpt>
      <trkpt lat="44.12863" lon="6.69243">
        <ele>2057.781</ele>
        <time>2011-07-10T13:14:50Z</time>
      </trkpt>
      <trkpt lat="44.12858" lon="6.69254">
        <ele>2056.589</ele>
        <time>2011-07-10T13:14:57Z</time>
      </trkpt>
      <trkpt lat="44.12854" lon="6.69258">
        <ele>2056.438</ele>
        <time>2011-07-10T13:15:01Z</time>
      </trkpt>
      <trkpt lat="44.12853" lon="6.6926">
        <ele>2056.78</ele>
        <time>2011-07-10T13:15:09Z</time>
      </trkpt>
      <trkpt lat="44.12854" lon="6.69262">
        <ele>2052.789</ele>
        <time>2011-07-10T13:15:30Z</time>
      </trkpt>
      <trkpt lat="44.12843" lon="6.69266">
        <ele>2051.48</ele>
        <time>2011-07-10T13:15:38Z</time>
      </trkpt>
      <trkpt lat="44.12832" lon="6.69277">
        <ele>2053.933</ele>
        <time>2011-07-10T13:15:45Z</time>
      </trkpt>
      <trkpt lat="44.12821" lon="6.69287">
        <ele>2059.785</ele>
        <time>2011-07-10T13:15:53Z</time>
      </trkpt>
      <trkpt lat="44.12811" lon="6.69296">
        <ele>2059.149</ele>
        <time>2011-07-10T13:16:02Z</time>
      </trkpt>
      <trkpt lat="44.12802" lon="6.69305">
        <ele>2060.6</ele>
        <time>2011-07-10T13:16:10Z</time>
      </trkpt>
      <trkpt lat="44.12794" lon="6.69314">
        <ele>2057.806</ele>
        <time>2011-07-10T13:16:18Z</time>
      </trkpt>
      <trkpt lat="44.12783" lon="6.6932">
        <ele>2061.251</ele>
        <time>2011-07-10T13:16:26Z</time>
      </trkpt>
      <trkpt lat="44.12774" lon="6.69326">
        <ele>2066.264</ele>
        <time>2011-07-10T13:16:34Z</time>
      </trkpt>
      <trkpt lat="44.12771" lon="6.69331">
        <ele>2063.219</ele>
        <time>2011-07-10T13:16:40Z</time>
      </trkpt>
      <trkpt lat="44.12767" lon="6.69337">
        <ele>2063.291</ele>
        <time>2011-07-10T13:16:49Z</time>
      </trkpt>
      <trkpt lat="44.12762" lon="6.69344">
        <ele>2066.092</ele>
        <time>2011-07-10T13:16:56Z</time>
      </trkpt>
      <trkpt lat="44.1276" lon="6.69347">
        <ele>2065.471</ele>
        <time>2011-07-10T13:16:59Z</time>
      </trkpt>
      <trkpt lat="44.12749" lon="6.69359">
        <ele>2064.97</ele>
        <time>2011-07-10T13:17:06Z</time>
      </trkpt>
      <trkpt lat="44.12738" lon="6.69373">
        <ele>2067.232</ele>
        <time>2011-07-10T13:17:13Z</time>
      </trkpt>
      <trkpt lat="44.1273" lon="6.69381">
        <ele>2067.452</ele>
        <time>2011-07-10T13:17:19Z</time>
      </trkpt>
      <trkpt lat="44.12725" lon="6.69387">
        <ele>2063.937</ele>
        <time>2011-07-10T13:17:24Z</time>
      </trkpt>
      <trkpt lat="44.12718" lon="6.69398">
        <ele>2063.718</ele>
        <time>2011-07-10T13:17:30Z</time>
      </trkpt>
      <trkpt lat="44.12715" lon="6.69402">
        <ele>2064.249</ele>
        <time>2011-07-10T13:17:32Z</time>
      </trkpt>
      <trkpt lat="44.12703" lon="6.69419">
        <ele>2064.307</ele>
        <time>2011-07-10T13:17:40Z</time>
      </trkpt>
      <trkpt lat="44.127" lon="6.69426">
        <ele>2062.807</ele>
        <time>2011-07-10T13:17:44Z</time>
      </trkpt>
      <trkpt lat="44.12698" lon="6.69429">
        <ele>2060.585</ele>
        <time>2011-07-10T13:17:48Z</time>
      </trkpt>
      <trkpt lat="44.12689" lon="6.69441">
        <ele>2059.157</ele>
        <time>2011-07-10T13:17:54Z</time>
      </trkpt>
      <trkpt lat="44.12688" lon="6.69442">
        <ele>2059.367</ele>
        <time>2011-07-10T13:17:55Z</time>
      </trkpt>
      <trkpt lat="44.12677" lon="6.69452">
        <ele>2061.16</ele>
        <time>2011-07-10T13:18:01Z</time>
      </trkpt>
      <trkpt lat="44.12668" lon="6.69457">
        <ele>2061.79</ele>
        <time>2011-07-10T13:18:07Z</time>
      </trkpt>
      <trkpt lat="44.12667" lon="6.69457">
        <ele>2061.149</ele>
        <time>2011-07-10T13:18:14Z</time>
      </trkpt>
      <trkpt lat="44.12658" lon="6.69454">
        <ele>2060.18</ele>
        <time>2011-07-10T13:18:20Z</time>
      </trkpt>
      <trkpt lat="44.1265" lon="6.69455">
        <ele>2058.889</ele>
        <time>2011-07-10T13:18:24Z</time>
      </trkpt>
      <trkpt lat="44.12634" lon="6.69455">
        <ele>2057.218</ele>
        <time>2011-07-10T13:18:29Z</time>
      </trkpt>
      <trkpt lat="44.12624" lon="6.6946">
        <ele>2055.907</ele>
        <time>2011-07-10T13:18:33Z</time>
      </trkpt>
      <trkpt lat="44.12622" lon="6.6946">
        <ele>2055.627</ele>
        <time>2011-07-10T13:18:34Z</time>
      </trkpt>
      <trkpt lat="44.1262" lon="6.69462">
        <ele>2054.638</ele>
        <time>2011-07-10T13:18:38Z</time>
      </trkpt>
      <trkpt lat="44.12619" lon="6.69466">
        <ele>2053.267</ele>
        <time>2011-07-10T13:18:43Z</time>
      </trkpt>
      <trkpt lat="44.12614" lon="6.69483">
        <ele>2051.686</ele>
        <time>2011-07-10T13:18:48Z</time>
      </trkpt>
      <trkpt lat="44.126" lon="6.69496">
        <ele>2050.865</ele>
        <time>2011-07-10T13:18:53Z</time>
      </trkpt>
      <trkpt lat="44.12577" lon="6.69507">
        <ele>2052.479</ele>
        <time>2011-07-10T13:19:01Z</time>
      </trkpt>
      <trkpt lat="44.12561" lon="6.69518">
        <ele>2051.648</ele>
        <time>2011-07-10T13:19:07Z</time>
      </trkpt>
      <trkpt lat="44.12548" lon="6.69521">
        <ele>2051.859</ele>
        <time>2011-07-10T13:19:13Z</time>
      </trkpt>
      <trkpt lat="44.12532" lon="6.69522">
        <ele>2052.432</ele>
        <time>2011-07-10T13:19:19Z</time>
      </trkpt>
      <trkpt lat="44.12516" lon="6.69525">
        <ele>2051.67</ele>
        <time>2011-07-10T13:19:25Z</time>
      </trkpt>
      <trkpt lat="44.12497" lon="6.69531">
        <ele>2050.51</ele>
        <time>2011-07-10T13:19:32Z</time>
      </trkpt>
      <trkpt lat="44.1248" lon="6.69542">
        <ele>2054.073</ele>
        <time>2011-07-10T13:19:39Z</time>
      </trkpt>
      <trkpt lat="44.12463" lon="6.69549">
        <ele>2057.775</ele>
        <time>2011-07-10T13:19:46Z</time>
      </trkpt>
      <trkpt lat="44.12448" lon="6.69558">
        <ele>2058.713</ele>
        <time>2011-07-10T13:19:53Z</time>
      </trkpt>
      <trkpt lat="44.12432" lon="6.69569">
        <ele>2060.732</ele>
        <time>2011-07-10T13:20:01Z</time>
      </trkpt>
      <trkpt lat="44.12417" lon="6.69577">
        <ele>2062.142</ele>
        <time>2011-07-10T13:20:09Z</time>
      </trkpt>
      <trkpt lat="44.12404" lon="6.69584">
        <ele>2061.871</ele>
        <time>2011-07-10T13:20:17Z</time>
      </trkpt>
      <trkpt lat="44.12398" lon="6.69593">
        <ele>2061.96</ele>
        <time>2011-07-10T13:20:22Z</time>
      </trkpt>
      <trkpt lat="44.12392" lon="6.69599">
        <ele>2060.398</ele>
        <time>2011-07-10T13:20:27Z</time>
      </trkpt>
      <trkpt lat="44.12379" lon="6.69606">
        <ele>2061.321</ele>
        <time>2011-07-10T13:20:34Z</time>
      </trkpt>
      <trkpt lat="44.12365" lon="6.69605">
        <ele>2061.221</ele>
        <time>2011-07-10T13:20:41Z</time>
      </trkpt>
      <trkpt lat="44.1235" lon="6.69602">
        <ele>2060.881</ele>
        <time>2011-07-10T13:20:47Z</time>
      </trkpt>
      <trkpt lat="44.12337" lon="6.69603">
        <ele>2059.61</ele>
        <time>2011-07-10T13:20:53Z</time>
      </trkpt>
      <trkpt lat="44.12324" lon="6.69611">
        <ele>2059.891</ele>
        <time>2011-07-10T13:20:59Z</time>
      </trkpt>
      <trkpt lat="44.12307" lon="6.69625">
        <ele>2064.263</ele>
        <time>2011-07-10T13:21:06Z</time>
      </trkpt>
      <trkpt lat="44.12292" lon="6.69631">
        <ele>2069.767</ele>
        <time>2011-07-10T13:21:11Z</time>
      </trkpt>
      <trkpt lat="44.12284" lon="6.69633">
        <ele>2070.385</ele>
        <time>2011-07-10T13:21:16Z</time>
      </trkpt>
      <trkpt lat="44.12276" lon="6.69638">
        <ele>2064.99</ele>
        <time>2011-07-10T13:21:23Z</time>
      </trkpt>
      <trkpt lat="44.12265" lon="6.69643">
        <ele>2065.22</ele>
        <time>2011-07-10T13:21:28Z</time>
      </trkpt>
      <trkpt lat="44.12253" lon="6.69646">
        <ele>2065.35</ele>
        <time>2011-07-10T13:21:33Z</time>
      </trkpt>
      <trkpt lat="44.12238" lon="6.69652">
        <ele>2064.89</ele>
        <time>2011-07-10T13:21:40Z</time>
      </trkpt>
      <trkpt lat="44.12223" lon="6.69658">
        <ele>2065.671</ele>
        <time>2011-07-10T13:21:48Z</time>
      </trkpt>
      <trkpt lat="44.12207" lon="6.69664">
        <ele>2067.382</ele>
        <time>2011-07-10T13:21:56Z</time>
      </trkpt>
      <trkpt lat="44.12197" lon="6.69665">
        <ele>2067.821</ele>
        <time>2011-07-10T13:22:02Z</time>
      </trkpt>
      <trkpt lat="44.12192" lon="6.69663">
        <ele>2067.76</ele>
        <time>2011-07-10T13:22:07Z</time>
      </trkpt>
      <trkpt lat="44.12181" lon="6.69665">
        <ele>2067.841</ele>
        <time>2011-07-10T13:22:13Z</time>
      </trkpt>
      <trkpt lat="44.12172" lon="6.6967">
        <ele>2067.639</ele>
        <time>2011-07-10T13:22:20Z</time>
      </trkpt>
      <trkpt lat="44.12169" lon="6.69671">
        <ele>2068.049</ele>
        <time>2011-07-10T13:22:22Z</time>
      </trkpt>
      <trkpt lat="44.12163" lon="6.69675">
        <ele>2070.452</ele>
        <time>2011-07-10T13:22:27Z</time>
      </trkpt>
      <trkpt lat="44.12164" lon="6.69678">
        <ele>2070.311</ele>
        <time>2011-07-10T13:22:28Z</time>
      </trkpt>
      <trkpt lat="44.12155" lon="6.69688">
        <ele>2071.822</ele>
        <time>2011-07-10T13:22:34Z</time>
      </trkpt>
      <trkpt lat="44.12142" lon="6.69692">
        <ele>2077.154</ele>
        <time>2011-07-10T13:22:42Z</time>
      </trkpt>
      <trkpt lat="44.12136" lon="6.69696">
        <ele>2079.415</ele>
        <time>2011-07-10T13:22:48Z</time>
      </trkpt>
      <trkpt lat="44.12137" lon="6.69698">
        <ele>2078.01</ele>
        <time>2011-07-10T13:22:54Z</time>
      </trkpt>
      <trkpt lat="44.12135" lon="6.697">
        <ele>2071.71</ele>
        <time>2011-07-10T13:23:43Z</time>
      </trkpt>
      <trkpt lat="44.12137" lon="6.69703">
        <ele>2071.94</ele>
        <time>2011-07-10T13:25:03Z</time>
      </trkpt>
      <trkpt lat="44.12139" lon="6.69709">
        <ele>2066.68</ele>
        <time>2011-07-10T13:25:43Z</time>
      </trkpt>
      <trkpt lat="44.12133" lon="6.6972">
        <ele>2068.011</ele>
        <time>2011-07-10T13:25:52Z</time>
      </trkpt>
      <trkpt lat="44.12131" lon="6.69729">
        <ele>2070.912</ele>
        <time>2011-07-10T13:26:00Z</time>
      </trkpt>
      <trkpt lat="44.12128" lon="6.69732">
        <ele>2074.044</ele>
        <time>2011-07-10T13:26:05Z</time>
      </trkpt>
      <trkpt lat="44.12128" lon="6.69733">
        <ele>2075.064</ele>
        <time>2011-07-10T13:26:06Z</time>
      </trkpt>
      <trkpt lat="44.12123" lon="6.69738">
        <ele>2082.837</ele>
        <time>2011-07-10T13:26:13Z</time>
      </trkpt>
      <trkpt lat="44.12121" lon="6.69742">
        <ele>2083.552</ele>
        <time>2011-07-10T13:26:21Z</time>
      </trkpt>
      <trkpt lat="44.12117" lon="6.69749">
        <ele>2083.782</ele>
        <time>2011-07-10T13:26:30Z</time>
      </trkpt>
      <trkpt lat="44.12113" lon="6.69754">
        <ele>2084.332</ele>
        <time>2011-07-10T13:26:37Z</time>
      </trkpt>
      <trkpt lat="44.12108" lon="6.69762">
        <ele>2085.232</ele>
        <time>2011-07-10T13:26:46Z</time>
      </trkpt>
      <trkpt lat="44.12103" lon="6.69771">
        <ele>2086.603</ele>
        <time>2011-07-10T13:26:55Z</time>
      </trkpt>
      <trkpt lat="44.12102" lon="6.69772">
        <ele>2087.044</ele>
        <time>2011-07-10T13:26:56Z</time>
      </trkpt>
      <trkpt lat="44.12102" lon="6.69774">
        <ele>2087.223</ele>
        <time>2011-07-10T13:27:02Z</time>
      </trkpt>
      <trkpt lat="44.12108" lon="6.69776">
        <ele>2088.609</ele>
        <time>2011-07-10T13:27:08Z</time>
      </trkpt>
      <trkpt lat="44.12116" lon="6.69783">
        <ele>2089.649</ele>
        <time>2011-07-10T13:27:14Z</time>
      </trkpt>
      <trkpt lat="44.1211" lon="6.69787">
        <ele>2091.032</ele>
        <time>2011-07-10T13:27:21Z</time>
      </trkpt>
      <trkpt lat="44.12101" lon="6.69795">
        <ele>2092.953</ele>
        <time>2011-07-10T13:27:33Z</time>
      </trkpt>
      <trkpt lat="44.12097" lon="6.69801">
        <ele>2095.163</ele>
        <time>2011-07-10T13:27:42Z</time>
      </trkpt>
      <trkpt lat="44.1209" lon="6.69808">
        <ele>2096.352</ele>
        <time>2011-07-10T13:27:50Z</time>
      </trkpt>
      <trkpt lat="44.12083" lon="6.69815">
        <ele>2098.202</ele>
        <time>2011-07-10T13:27:59Z</time>
      </trkpt>
      <trkpt lat="44.12079" lon="6.69821">
        <ele>2100.433</ele>
        <time>2011-07-10T13:28:07Z</time>
      </trkpt>
      <trkpt lat="44.12075" lon="6.69823">
        <ele>2101.632</ele>
        <time>2011-07-10T13:28:12Z</time>
      </trkpt>
      <trkpt lat="44.12074" lon="6.69825">
        <ele>2101.972</ele>
        <time>2011-07-10T13:28:14Z</time>
      </trkpt>
      <trkpt lat="44.12074" lon="6.69827">
        <ele>2102.343</ele>
        <time>2011-07-10T13:28:16Z</time>
      </trkpt>
      <trkpt lat="44.12078" lon="6.69825">
        <ele>2105.415</ele>
        <time>2011-07-10T13:28:23Z</time>
      </trkpt>
      <trkpt lat="44.12083" lon="6.69826">
        <ele>2107.294</ele>
        <time>2011-07-10T13:28:28Z</time>
      </trkpt>
      <trkpt lat="44.12091" lon="6.69825">
        <ele>2110.775</ele>
        <time>2011-07-10T13:28:36Z</time>
      </trkpt>
      <trkpt lat="44.12093" lon="6.6982">
        <ele>2114.276</ele>
        <time>2011-07-10T13:28:43Z</time>
      </trkpt>
      <trkpt lat="44.12103" lon="6.69827">
        <ele>2114.002</ele>
        <time>2011-07-10T13:28:51Z</time>
      </trkpt>
      <trkpt lat="44.1211" lon="6.69832">
        <ele>2116.644</ele>
        <time>2011-07-10T13:28:57Z</time>
      </trkpt>
      <trkpt lat="44.1211" lon="6.69836">
        <ele>2120.965</ele>
        <time>2011-07-10T13:29:03Z</time>
      </trkpt>
      <trkpt lat="44.1211" lon="6.69841">
        <ele>2120.613</ele>
        <time>2011-07-10T13:29:09Z</time>
      </trkpt>
      <trkpt lat="44.12105" lon="6.69844">
        <ele>2122.443</ele>
        <time>2011-07-10T13:29:14Z</time>
      </trkpt>
      <trkpt lat="44.12105" lon="6.69846">
        <ele>2122.833</ele>
        <time>2011-07-10T13:29:16Z</time>
      </trkpt>
      <trkpt lat="44.12099" lon="6.69849">
        <ele>2128.816</ele>
        <time>2011-07-10T13:29:23Z</time>
      </trkpt>
      <trkpt lat="44.12089" lon="6.6985">
        <ele>2127.892</ele>
        <time>2011-07-10T13:29:34Z</time>
      </trkpt>
      <trkpt lat="44.12088" lon="6.69852">
        <ele>2126.3</ele>
        <time>2011-07-10T13:29:36Z</time>
      </trkpt>
      <trkpt lat="44.12089" lon="6.69855">
        <ele>2125.259</ele>
        <time>2011-07-10T13:29:38Z</time>
      </trkpt>
      <trkpt lat="44.12084" lon="6.69861">
        <ele>2124.311</ele>
        <time>2011-07-10T13:29:47Z</time>
      </trkpt>
      <trkpt lat="44.12084" lon="6.69862">
        <ele>2124.221</ele>
        <time>2011-07-10T13:29:48Z</time>
      </trkpt>
      <trkpt lat="44.12081" lon="6.69867">
        <ele>2124.512</ele>
        <time>2011-07-10T13:29:55Z</time>
      </trkpt>
      <trkpt lat="44.12081" lon="6.69869">
        <ele>2125.412</ele>
        <time>2011-07-10T13:29:57Z</time>
      </trkpt>
      <trkpt lat="44.12081" lon="6.69873">
        <ele>2128.434</ele>
        <time>2011-07-10T13:30:03Z</time>
      </trkpt>
      <trkpt lat="44.12079" lon="6.69876">
        <ele>2131.495</ele>
        <time>2011-07-10T13:30:06Z</time>
      </trkpt>
      <trkpt lat="44.12077" lon="6.69873">
        <ele>2132.302</ele>
        <time>2011-07-10T13:30:13Z</time>
      </trkpt>
      <trkpt lat="44.12077" lon="6.69874">
        <ele>2131.662</ele>
        <time>2011-07-10T13:30:14Z</time>
      </trkpt>
      <trkpt lat="44.12071" lon="6.69879">
        <ele>2129.721</ele>
        <time>2011-07-10T13:30:21Z</time>
      </trkpt>
      <trkpt lat="44.12069" lon="6.69887">
        <ele>2127.769</ele>
        <time>2011-07-10T13:30:28Z</time>
      </trkpt>
      <trkpt lat="44.12063" lon="6.69896">
        <ele>2130.883</ele>
        <time>2011-07-10T13:30:37Z</time>
      </trkpt>
      <trkpt lat="44.12056" lon="6.69907">
        <ele>2133.622</ele>
        <time>2011-07-10T13:30:48Z</time>
      </trkpt>
      <trkpt lat="44.12048" lon="6.69917">
        <ele>2138.624</ele>
        <time>2011-07-10T13:30:58Z</time>
      </trkpt>
      <trkpt lat="44.12049" lon="6.6992">
        <ele>2138.523</ele>
        <time>2011-07-10T13:31:00Z</time>
      </trkpt>
      <trkpt lat="44.12045" lon="6.69927">
        <ele>2140.012</ele>
        <time>2011-07-10T13:31:10Z</time>
      </trkpt>
      <trkpt lat="44.12044" lon="6.69927">
        <ele>2140.322</ele>
        <time>2011-07-10T13:31:13Z</time>
      </trkpt>
      <trkpt lat="44.12038" lon="6.69929">
        <ele>2140.481</ele>
        <time>2011-07-10T13:31:22Z</time>
      </trkpt>
      <trkpt lat="44.12038" lon="6.69929">
        <ele>2141.202</ele>
        <time>2011-07-10T13:31:23Z</time>
      </trkpt>
      <trkpt lat="44.12034" lon="6.69933">
        <ele>2149.648</ele>
        <time>2011-07-10T13:31:28Z</time>
      </trkpt>
      <trkpt lat="44.12032" lon="6.69934">
        <ele>2150.105</ele>
        <time>2011-07-10T13:31:33Z</time>
      </trkpt>
      <trkpt lat="44.1203" lon="6.69935">
        <ele>2149.883</ele>
        <time>2011-07-10T13:31:36Z</time>
      </trkpt>
      <trkpt lat="44.12031" lon="6.6994">
        <ele>2150.453</ele>
        <time>2011-07-10T13:31:43Z</time>
      </trkpt>
      <trkpt lat="44.12028" lon="6.69941">
        <ele>2148.11</ele>
        <time>2011-07-10T13:31:50Z</time>
      </trkpt>
      <trkpt lat="44.12027" lon="6.69941">
        <ele>2148.181</ele>
        <time>2011-07-10T13:31:51Z</time>
      </trkpt>
      <trkpt lat="44.12026" lon="6.69943">
        <ele>2148.781</ele>
        <time>2011-07-10T13:31:54Z</time>
      </trkpt>
      <trkpt lat="44.12021" lon="6.69948">
        <ele>2153.134</ele>
        <time>2011-07-10T13:32:01Z</time>
      </trkpt>
      <trkpt lat="44.12018" lon="6.69948">
        <ele>2153.773</ele>
        <time>2011-07-10T13:32:05Z</time>
      </trkpt>
      <trkpt lat="44.12015" lon="6.69951">
        <ele>2152.891</ele>
        <time>2011-07-10T13:32:12Z</time>
      </trkpt>
      <trkpt lat="44.12013" lon="6.69955">
        <ele>2152.351</ele>
        <time>2011-07-10T13:32:19Z</time>
      </trkpt>
      <trkpt lat="44.1201" lon="6.69958">
        <ele>2159.845</ele>
        <time>2011-07-10T13:32:25Z</time>
      </trkpt>
      <trkpt lat="44.12008" lon="6.69961">
        <ele>2160.703</ele>
        <time>2011-07-10T13:32:31Z</time>
      </trkpt>
      <trkpt lat="44.12006" lon="6.69963">
        <ele>2160.873</ele>
        <time>2011-07-10T13:32:38Z</time>
      </trkpt>
      <trkpt lat="44.12006" lon="6.69964">
        <ele>2160.842</ele>
        <time>2011-07-10T13:32:40Z</time>
      </trkpt>
      <trkpt lat="44.12003" lon="6.69969">
        <ele>2164.114</ele>
        <time>2011-07-10T13:32:47Z</time>
      </trkpt>
      <trkpt lat="44.11995" lon="6.69971">
        <ele>2174.681</ele>
        <time>2011-07-10T13:32:53Z</time>
      </trkpt>
      <trkpt lat="44.11989" lon="6.69975">
        <ele>2173.522</ele>
        <time>2011-07-10T13:33:03Z</time>
      </trkpt>
      <trkpt lat="44.11989" lon="6.6998">
        <ele>2167.718</ele>
        <time>2011-07-10T13:33:13Z</time>
      </trkpt>
      <trkpt lat="44.11987" lon="6.69984">
        <ele>2162.089</ele>
        <time>2011-07-10T13:33:27Z</time>
      </trkpt>
      <trkpt lat="44.11979" lon="6.69987">
        <ele>2161.591</ele>
        <time>2011-07-10T13:33:38Z</time>
      </trkpt>
      <trkpt lat="44.1198" lon="6.69992">
        <ele>2162.102</ele>
        <time>2011-07-10T13:33:44Z</time>
      </trkpt>
      <trkpt lat="44.11979" lon="6.69996">
        <ele>2164.122</ele>
        <time>2011-07-10T13:33:50Z</time>
      </trkpt>
      <trkpt lat="44.11976" lon="6.69997">
        <ele>2164.812</ele>
        <time>2011-07-10T13:33:55Z</time>
      </trkpt>
      <trkpt lat="44.11969" lon="6.70001">
        <ele>2164.882</ele>
        <time>2011-07-10T13:34:05Z</time>
      </trkpt>
      <trkpt lat="44.11969" lon="6.70003">
        <ele>2169.825</ele>
        <time>2011-07-10T13:34:11Z</time>
      </trkpt>
      <trkpt lat="44.11966" lon="6.70006">
        <ele>2171.935</ele>
        <time>2011-07-10T13:34:17Z</time>
      </trkpt>
      <trkpt lat="44.11958" lon="6.70004">
        <ele>2172.321</ele>
        <time>2011-07-10T13:34:25Z</time>
      </trkpt>
      <trkpt lat="44.11951" lon="6.70003">
        <ele>2172.331</ele>
        <time>2011-07-10T13:34:34Z</time>
      </trkpt>
      <trkpt lat="44.11948" lon="6.70005">
        <ele>2172.593</ele>
        <time>2011-07-10T13:34:44Z</time>
      </trkpt>
      <trkpt lat="44.11945" lon="6.70009">
        <ele>2175.914</ele>
        <time>2011-07-10T13:34:51Z</time>
      </trkpt>
      <trkpt lat="44.11944" lon="6.70015">
        <ele>2180.587</ele>
        <time>2011-07-10T13:34:58Z</time>
      </trkpt>
      <trkpt lat="44.11947" lon="6.70021">
        <ele>2182.986</ele>
        <time>2011-07-10T13:35:05Z</time>
      </trkpt>
      <trkpt lat="44.11946" lon="6.70021">
        <ele>2186.797</ele>
        <time>2011-07-10T13:35:12Z</time>
      </trkpt>
      <trkpt lat="44.11953" lon="6.70027">
        <ele>2187.773</ele>
        <time>2011-07-10T13:35:43Z</time>
      </trkpt>
      <trkpt lat="44.11956" lon="6.70036">
        <ele>2188.406</ele>
        <time>2011-07-10T13:35:49Z</time>
      </trkpt>
      <trkpt lat="44.11956" lon="6.7004">
        <ele>2186.875</ele>
        <time>2011-07-10T13:35:52Z</time>
      </trkpt>
      <trkpt lat="44.11953" lon="6.70052">
        <ele>2185.967</ele>
        <time>2011-07-10T13:36:00Z</time>
      </trkpt>
      <trkpt lat="44.11951" lon="6.70061">
        <ele>2188.467</ele>
        <time>2011-07-10T13:36:07Z</time>
      </trkpt>
      <trkpt lat="44.11948" lon="6.70067">
        <ele>2189.185</ele>
        <time>2011-07-10T13:36:12Z</time>
      </trkpt>
      <trkpt lat="44.11942" lon="6.7008">
        <ele>2191.154</ele>
        <time>2011-07-10T13:36:22Z</time>
      </trkpt>
      <trkpt lat="44.11938" lon="6.70086">
        <ele>2192.212</ele>
        <time>2011-07-10T13:36:27Z</time>
      </trkpt>
      <trkpt lat="44.11935" lon="6.70097">
        <ele>2193.713</ele>
        <time>2011-07-10T13:36:36Z</time>
      </trkpt>
      <trkpt lat="44.11935" lon="6.70097">
        <ele>2193.89</ele>
        <time>2011-07-10T13:36:43Z</time>
      </trkpt>
      <trkpt lat="44.11935" lon="6.70097">
        <ele>2194.831</ele>
        <time>2011-07-10T13:36:47Z</time>
      </trkpt>
      <trkpt lat="44.11934" lon="6.70098">
        <ele>2195.421</ele>
        <time>2011-07-10T13:36:53Z</time>
      </trkpt>
      <trkpt lat="44.11938" lon="6.701">
        <ele>2197.238</ele>
        <time>2011-07-10T13:38:19Z</time>
      </trkpt>
      <trkpt lat="44.11935" lon="6.70114">
        <ele>2194.435</ele>
        <time>2011-07-10T13:38:24Z</time>
      </trkpt>
      <trkpt lat="44.11935" lon="6.70117">
        <ele>2194.176</ele>
        <time>2011-07-10T13:38:25Z</time>
      </trkpt>
      <trkpt lat="44.11937" lon="6.70127">
        <ele>2194.452</ele>
        <time>2011-07-10T13:38:33Z</time>
      </trkpt>
      <trkpt lat="44.11937" lon="6.70128">
        <ele>2194.482</ele>
        <time>2011-07-10T13:38:34Z</time>
      </trkpt>
      <trkpt lat="44.11937" lon="6.7013">
        <ele>2195.233</ele>
        <time>2011-07-10T13:38:36Z</time>
      </trkpt>
      <trkpt lat="44.11929" lon="6.70136">
        <ele>2197.494</ele>
        <time>2011-07-10T13:38:44Z</time>
      </trkpt>
      <trkpt lat="44.1192" lon="6.70142">
        <ele>2198.233</ele>
        <time>2011-07-10T13:38:52Z</time>
      </trkpt>
      <trkpt lat="44.11914" lon="6.70148">
        <ele>2198.874</ele>
        <time>2011-07-10T13:38:59Z</time>
      </trkpt>
      <trkpt lat="44.11911" lon="6.7015">
        <ele>2203.195</ele>
        <time>2011-07-10T13:39:06Z</time>
      </trkpt>
      <trkpt lat="44.11905" lon="6.70157">
        <ele>2205.462</ele>
        <time>2011-07-10T13:39:15Z</time>
      </trkpt>
      <trkpt lat="44.11898" lon="6.70162">
        <ele>2205.363</ele>
        <time>2011-07-10T13:39:24Z</time>
      </trkpt>
      <trkpt lat="44.11892" lon="6.70165">
        <ele>2204.993</ele>
        <time>2011-07-10T13:39:32Z</time>
      </trkpt>
      <trkpt lat="44.11887" lon="6.70171">
        <ele>2203.692</ele>
        <time>2011-07-10T13:39:41Z</time>
      </trkpt>
      <trkpt lat="44.11884" lon="6.70176">
        <ele>2204.584</ele>
        <time>2011-07-10T13:39:46Z</time>
      </trkpt>
      <trkpt lat="44.11879" lon="6.70188">
        <ele>2206.043</ele>
        <time>2011-07-10T13:39:56Z</time>
      </trkpt>
      <trkpt lat="44.11871" lon="6.70197">
        <ele>2209.184</ele>
        <time>2011-07-10T13:40:05Z</time>
      </trkpt>
      <trkpt lat="44.11865" lon="6.70203">
        <ele>2210.344</ele>
        <time>2011-07-10T13:40:12Z</time>
      </trkpt>
      <trkpt lat="44.11863" lon="6.70205">
        <ele>2210.732</ele>
        <time>2011-07-10T13:40:17Z</time>
      </trkpt>
      <trkpt lat="44.11859" lon="6.70205">
        <ele>2214.769</ele>
        <time>2011-07-10T13:40:43Z</time>
      </trkpt>
      <trkpt lat="44.11856" lon="6.70212">
        <ele>2212.801</ele>
        <time>2011-07-10T13:40:51Z</time>
      </trkpt>
      <trkpt lat="44.11846" lon="6.70241">
        <ele>2212.013</ele>
        <time>2011-07-10T13:41:02Z</time>
      </trkpt>
      <trkpt lat="44.11839" lon="6.70256">
        <ele>2212.973</ele>
        <time>2011-07-10T13:41:09Z</time>
      </trkpt>
      <trkpt lat="44.11825" lon="6.70281">
        <ele>2217.894</ele>
        <time>2011-07-10T13:41:20Z</time>
      </trkpt>
      <trkpt lat="44.11815" lon="6.70303">
        <ele>2220.684</ele>
        <time>2011-07-10T13:41:30Z</time>
      </trkpt>
      <trkpt lat="44.11807" lon="6.70316">
        <ele>2219.052</ele>
        <time>2011-07-10T13:41:38Z</time>
      </trkpt>
      <trkpt lat="44.11801" lon="6.7033">
        <ele>2219.123</ele>
        <time>2011-07-10T13:41:46Z</time>
      </trkpt>
      <trkpt lat="44.11797" lon="6.70342">
        <ele>2220.704</ele>
        <time>2011-07-10T13:41:52Z</time>
      </trkpt>
      <trkpt lat="44.11785" lon="6.70359">
        <ele>2225.673</ele>
        <time>2011-07-10T13:42:01Z</time>
      </trkpt>
      <trkpt lat="44.11773" lon="6.70371">
        <ele>2227.622</ele>
        <time>2011-07-10T13:42:09Z</time>
      </trkpt>
      <trkpt lat="44.11764" lon="6.70378">
        <ele>2228.052</ele>
        <time>2011-07-10T13:42:15Z</time>
      </trkpt>
      <trkpt lat="44.11751" lon="6.70386">
        <ele>2229.451</ele>
        <time>2011-07-10T13:42:22Z</time>
      </trkpt>
      <trkpt lat="44.11733" lon="6.70398">
        <ele>2229.312</ele>
        <time>2011-07-10T13:42:30Z</time>
      </trkpt>
      <trkpt lat="44.11713" lon="6.70407">
        <ele>2230.073</ele>
        <time>2011-07-10T13:42:39Z</time>
      </trkpt>
      <trkpt lat="44.11696" lon="6.70414">
        <ele>2231.492</ele>
        <time>2011-07-10T13:42:48Z</time>
      </trkpt>
      <trkpt lat="44.11683" lon="6.7042">
        <ele>2232.031</ele>
        <time>2011-07-10T13:42:56Z</time>
      </trkpt>
      <trkpt lat="44.11671" lon="6.70424">
        <ele>2232.781</ele>
        <time>2011-07-10T13:43:04Z</time>
      </trkpt>
      <trkpt lat="44.11663" lon="6.70425">
        <ele>2233.162</ele>
        <time>2011-07-10T13:43:09Z</time>
      </trkpt>
      <trkpt lat="44.11654" lon="6.70431">
        <ele>2234.434</ele>
        <time>2011-07-10T13:43:15Z</time>
      </trkpt>
      <trkpt lat="44.11642" lon="6.70435">
        <ele>2237.174</ele>
        <time>2011-07-10T13:43:23Z</time>
      </trkpt>
      <trkpt lat="44.11642" lon="6.70435">
        <ele>2237.351</ele>
        <time>2011-07-10T13:43:29Z</time>
      </trkpt>
      <trkpt lat="44.11642" lon="6.70437">
        <ele>2230.64</ele>
        <time>2011-07-10T13:44:28Z</time>
      </trkpt>
      <trkpt lat="44.11633" lon="6.70443">
        <ele>2234.46</ele>
        <time>2011-07-10T13:44:37Z</time>
      </trkpt>
      <trkpt lat="44.11625" lon="6.70449">
        <ele>2237.085</ele>
        <time>2011-07-10T13:44:46Z</time>
      </trkpt>
      <trkpt lat="44.11619" lon="6.70453">
        <ele>2238.634</ele>
        <time>2011-07-10T13:44:53Z</time>
      </trkpt>
      <trkpt lat="44.11613" lon="6.70457">
        <ele>2239.145</ele>
        <time>2011-07-10T13:45:01Z</time>
      </trkpt>
      <trkpt lat="44.11607" lon="6.70459">
        <ele>2239.486</ele>
        <time>2011-07-10T13:45:10Z</time>
      </trkpt>
      <trkpt lat="44.11592" lon="6.70458">
        <ele>2238.707</ele>
        <time>2011-07-10T13:45:17Z</time>
      </trkpt>
      <trkpt lat="44.11583" lon="6.70462">
        <ele>2236.812</ele>
        <time>2011-07-10T13:45:23Z</time>
      </trkpt>
      <trkpt lat="44.11573" lon="6.70475">
        <ele>2236.866</ele>
        <time>2011-07-10T13:45:31Z</time>
      </trkpt>
      <trkpt lat="44.11564" lon="6.70483">
        <ele>2236.639</ele>
        <time>2011-07-10T13:45:38Z</time>
      </trkpt>
      <trkpt lat="44.11555" lon="6.70491">
        <ele>2237.322</ele>
        <time>2011-07-10T13:45:46Z</time>
      </trkpt>
      <trkpt lat="44.11545" lon="6.70499">
        <ele>2239.851</ele>
        <time>2011-07-10T13:45:54Z</time>
      </trkpt>
      <trkpt lat="44.1154" lon="6.70504">
        <ele>2241.664</ele>
        <time>2011-07-10T13:45:59Z</time>
      </trkpt>
      <trkpt lat="44.11537" lon="6.70506">
        <ele>2241.956</ele>
        <time>2011-07-10T13:46:04Z</time>
      </trkpt>
      <trkpt lat="44.11534" lon="6.70507">
        <ele>2242.469</ele>
        <time>2011-07-10T13:46:08Z</time>
      </trkpt>
      <trkpt lat="44.1153" lon="6.70503">
        <ele>2243.625</ele>
        <time>2011-07-10T13:46:14Z</time>
      </trkpt>
      <trkpt lat="44.11521" lon="6.705">
        <ele>2244.961</ele>
        <time>2011-07-10T13:46:23Z</time>
      </trkpt>
      <trkpt lat="44.11516" lon="6.70498">
        <ele>2244.265</ele>
        <time>2011-07-10T13:46:31Z</time>
      </trkpt>
      <trkpt lat="44.11511" lon="6.70498">
        <ele>2245.184</ele>
        <time>2011-07-10T13:46:39Z</time>
      </trkpt>
      <trkpt lat="44.11502" lon="6.70502">
        <ele>2245.345</ele>
        <time>2011-07-10T13:46:45Z</time>
      </trkpt>
      <trkpt lat="44.11498" lon="6.70504">
        <ele>2244.648</ele>
        <time>2011-07-10T13:46:50Z</time>
      </trkpt>
      <trkpt lat="44.11494" lon="6.70507">
        <ele>2244.744</ele>
        <time>2011-07-10T13:46:57Z</time>
      </trkpt>
      <trkpt lat="44.11482" lon="6.70517">
        <ele>2244.056</ele>
        <time>2011-07-10T13:47:04Z</time>
      </trkpt>
      <trkpt lat="44.11475" lon="6.70525">
        <ele>2246.336</ele>
        <time>2011-07-10T13:47:09Z</time>
      </trkpt>
      <trkpt lat="44.11472" lon="6.70526">
        <ele>2247.971</ele>
        <time>2011-07-10T13:47:16Z</time>
      </trkpt>
      <trkpt lat="44.1146" lon="6.70528">
        <ele>2247.835</ele>
        <time>2011-07-10T13:47:22Z</time>
      </trkpt>
      <trkpt lat="44.11445" lon="6.70528">
        <ele>2248.22</ele>
        <time>2011-07-10T13:47:30Z</time>
      </trkpt>
      <trkpt lat="44.11435" lon="6.70528">
        <ele>2249.012</ele>
        <time>2011-07-10T13:47:36Z</time>
      </trkpt>
      <trkpt lat="44.11434" lon="6.70527">
        <ele>2249.013</ele>
        <time>2011-07-10T13:47:37Z</time>
      </trkpt>
      <trkpt lat="44.11424" lon="6.70531">
        <ele>2250.404</ele>
        <time>2011-07-10T13:47:44Z</time>
      </trkpt>
      <trkpt lat="44.11412" lon="6.70537">
        <ele>2250.975</ele>
        <time>2011-07-10T13:47:53Z</time>
      </trkpt>
      <trkpt lat="44.11399" lon="6.70544">
        <ele>2252.188</ele>
        <time>2011-07-10T13:48:02Z</time>
      </trkpt>
      <trkpt lat="44.11387" lon="6.70546">
        <ele>2250.771</ele>
        <time>2011-07-10T13:48:11Z</time>
      </trkpt>
      <trkpt lat="44.11378" lon="6.70547">
        <ele>2250.32</ele>
        <time>2011-07-10T13:48:18Z</time>
      </trkpt>
      <trkpt lat="44.11377" lon="6.70547">
        <ele>2250.134</ele>
        <time>2011-07-10T13:48:26Z</time>
      </trkpt>
      <trkpt lat="44.11367" lon="6.70548">
        <ele>2251.189</ele>
        <time>2011-07-10T13:48:36Z</time>
      </trkpt>
      <trkpt lat="44.11358" lon="6.70547">
        <ele>2253.807</ele>
        <time>2011-07-10T13:48:44Z</time>
      </trkpt>
      <trkpt lat="44.11348" lon="6.70543">
        <ele>2252.81</ele>
        <time>2011-07-10T13:48:54Z</time>
      </trkpt>
      <trkpt lat="44.11336" lon="6.70538">
        <ele>2255.814</ele>
        <time>2011-07-10T13:49:04Z</time>
      </trkpt>
      <trkpt lat="44.11327" lon="6.70538">
        <ele>2257.045</ele>
        <time>2011-07-10T13:49:12Z</time>
      </trkpt>
      <trkpt lat="44.11315" lon="6.70541">
        <ele>2260.158</ele>
        <time>2011-07-10T13:49:23Z</time>
      </trkpt>
      <trkpt lat="44.11307" lon="6.70546">
        <ele>2261.842</ele>
        <time>2011-07-10T13:49:32Z</time>
      </trkpt>
      <trkpt lat="44.11297" lon="6.7055">
        <ele>2262.741</ele>
        <time>2011-07-10T13:49:42Z</time>
      </trkpt>
      <trkpt lat="44.11295" lon="6.7055">
        <ele>2262.852</ele>
        <time>2011-07-10T13:49:45Z</time>
      </trkpt>
      <trkpt lat="44.11286" lon="6.70555">
        <ele>2263.143</ele>
        <time>2011-07-10T13:49:55Z</time>
      </trkpt>
      <trkpt lat="44.11279" lon="6.70557">
        <ele>2263.543</ele>
        <time>2011-07-10T13:50:05Z</time>
      </trkpt>
      <trkpt lat="44.1127" lon="6.70562">
        <ele>2264.524</ele>
        <time>2011-07-10T13:50:16Z</time>
      </trkpt>
      <trkpt lat="44.11267" lon="6.70563">
        <ele>2265.72</ele>
        <time>2011-07-10T13:50:20Z</time>
      </trkpt>
      <trkpt lat="44.1126" lon="6.70566">
        <ele>2267.179</ele>
        <time>2011-07-10T13:50:29Z</time>
      </trkpt>
      <trkpt lat="44.11253" lon="6.70567">
        <ele>2268.471</ele>
        <time>2011-07-10T13:50:40Z</time>
      </trkpt>
      <trkpt lat="44.1125" lon="6.70568">
        <ele>2268.83</ele>
        <time>2011-07-10T13:50:47Z</time>
      </trkpt>
      <trkpt lat="44.11246" lon="6.70569">
        <ele>2270.855</ele>
        <time>2011-07-10T13:51:29Z</time>
      </trkpt>
      <trkpt lat="44.11239" lon="6.70572">
        <ele>2274.937</ele>
        <time>2011-07-10T13:51:37Z</time>
      </trkpt>
      <trkpt lat="44.11236" lon="6.7057">
        <ele>2278.717</ele>
        <time>2011-07-10T13:51:45Z</time>
      </trkpt>
      <trkpt lat="44.11231" lon="6.70574">
        <ele>2279.293</ele>
        <time>2011-07-10T13:51:52Z</time>
      </trkpt>
      <trkpt lat="44.11224" lon="6.70576">
        <ele>2281.065</ele>
        <time>2011-07-10T13:52:01Z</time>
      </trkpt>
      <trkpt lat="44.11221" lon="6.70576">
        <ele>2281.334</ele>
        <time>2011-07-10T13:52:04Z</time>
      </trkpt>
      <trkpt lat="44.11216" lon="6.70579">
        <ele>2281.876</ele>
        <time>2011-07-10T13:52:11Z</time>
      </trkpt>
      <trkpt lat="44.11213" lon="6.70581">
        <ele>2282.252</ele>
        <time>2011-07-10T13:52:16Z</time>
      </trkpt>
      <trkpt lat="44.11209" lon="6.70583">
        <ele>2282.83</ele>
        <time>2011-07-10T13:52:23Z</time>
      </trkpt>
      <trkpt lat="44.11201" lon="6.70587">
        <ele>2283.403</ele>
        <time>2011-07-10T13:52:28Z</time>
      </trkpt>
      <trkpt lat="44.11185" lon="6.70597">
        <ele>2284.176</ele>
        <time>2011-07-10T13:52:37Z</time>
      </trkpt>
      <trkpt lat="44.11171" lon="6.70604">
        <ele>2285.291</ele>
        <time>2011-07-10T13:52:45Z</time>
      </trkpt>
      <trkpt lat="44.11158" lon="6.70604">
        <ele>2285.605</ele>
        <time>2011-07-10T13:52:52Z</time>
      </trkpt>
      <trkpt lat="44.11145" lon="6.70602">
        <ele>2285.076</ele>
        <time>2011-07-10T13:52:58Z</time>
      </trkpt>
      <trkpt lat="44.11131" lon="6.7061">
        <ele>2283.624</ele>
        <time>2011-07-10T13:53:03Z</time>
      </trkpt>
      <trkpt lat="44.11118" lon="6.70617">
        <ele>2281.379</ele>
        <time>2011-07-10T13:53:07Z</time>
      </trkpt>
      <trkpt lat="44.11109" lon="6.70622">
        <ele>2279.634</ele>
        <time>2011-07-10T13:53:09Z</time>
      </trkpt>
      <trkpt lat="44.11086" lon="6.70618">
        <ele>2277.81</ele>
        <time>2011-07-10T13:53:13Z</time>
      </trkpt>
      <trkpt lat="44.11069" lon="6.70613">
        <ele>2277.583</ele>
        <time>2011-07-10T13:53:16Z</time>
      </trkpt>
      <trkpt lat="44.11064" lon="6.70614">
        <ele>2277.678</ele>
        <time>2011-07-10T13:53:17Z</time>
      </trkpt>
      <trkpt lat="44.11036" lon="6.7062">
        <ele>2278.412</ele>
        <time>2011-07-10T13:53:24Z</time>
      </trkpt>
      <trkpt lat="44.11017" lon="6.70622">
        <ele>2279.553</ele>
        <time>2011-07-10T13:53:30Z</time>
      </trkpt>
      <trkpt lat="44.11011" lon="6.70623">
        <ele>2279.62</ele>
        <time>2011-07-10T13:53:32Z</time>
      </trkpt>
      <trkpt lat="44.11001" lon="6.70617">
        <ele>2279.215</ele>
        <time>2011-07-10T13:53:36Z</time>
      </trkpt>
      <trkpt lat="44.10993" lon="6.70616">
        <ele>2278.628</ele>
        <time>2011-07-10T13:53:38Z</time>
      </trkpt>
      <trkpt lat="44.10977" lon="6.70618">
        <ele>2277.99</ele>
        <time>2011-07-10T13:53:42Z</time>
      </trkpt>
      <trkpt lat="44.10969" lon="6.70618">
        <ele>2277.587</ele>
        <time>2011-07-10T13:53:44Z</time>
      </trkpt>
      <trkpt lat="44.10943" lon="6.70627">
        <ele>2275.241</ele>
        <time>2011-07-10T13:53:50Z</time>
      </trkpt>
      <trkpt lat="44.1092" lon="6.70636">
        <ele>2274.548</ele>
        <time>2011-07-10T13:53:56Z</time>
      </trkpt>
      <trkpt lat="44.10897" lon="6.70643">
        <ele>2274.485</ele>
        <time>2011-07-10T13:54:03Z</time>
      </trkpt>
      <trkpt lat="44.10874" lon="6.70653">
        <ele>2276.161</ele>
        <time>2011-07-10T13:54:11Z</time>
      </trkpt>
      <trkpt lat="44.10855" lon="6.70659">
        <ele>2277.772</ele>
        <time>2011-07-10T13:54:19Z</time>
      </trkpt>
      <trkpt lat="44.10841" lon="6.70658">
        <ele>2278.813</ele>
        <time>2011-07-10T13:54:26Z</time>
      </trkpt>
      <trkpt lat="44.10828" lon="6.70659">
        <ele>2279.677</ele>
        <time>2011-07-10T13:54:33Z</time>
      </trkpt>
      <trkpt lat="44.1081" lon="6.70659">
        <ele>2280.184</ele>
        <time>2011-07-10T13:54:41Z</time>
      </trkpt>
      <trkpt lat="44.10791" lon="6.70661">
        <ele>2280.673</ele>
        <time>2011-07-10T13:54:49Z</time>
      </trkpt>
      <trkpt lat="44.10779" lon="6.70665">
        <ele>2281.388</ele>
        <time>2011-07-10T13:54:55Z</time>
      </trkpt>
      <trkpt lat="44.10768" lon="6.70666">
        <ele>2282.452</ele>
        <time>2011-07-10T13:55:01Z</time>
      </trkpt>
      <trkpt lat="44.10758" lon="6.70662">
        <ele>2282.879</ele>
        <time>2011-07-10T13:55:07Z</time>
      </trkpt>
      <trkpt lat="44.10744" lon="6.70662">
        <ele>2283.836</ele>
        <time>2011-07-10T13:55:14Z</time>
      </trkpt>
      <trkpt lat="44.10732" lon="6.70662">
        <ele>2284.746</ele>
        <time>2011-07-10T13:55:21Z</time>
      </trkpt>
      <trkpt lat="44.10721" lon="6.70659">
        <ele>2285.521</ele>
        <time>2011-07-10T13:55:28Z</time>
      </trkpt>
      <trkpt lat="44.10709" lon="6.70658">
        <ele>2286</ele>
        <time>2011-07-10T13:55:36Z</time>
      </trkpt>
      <trkpt lat="44.10694" lon="6.70648">
        <ele>2286.17</ele>
        <time>2011-07-10T13:55:45Z</time>
      </trkpt>
      <trkpt lat="44.10685" lon="6.7064">
        <ele>2287.162</ele>
        <time>2011-07-10T13:55:51Z</time>
      </trkpt>
      <trkpt lat="44.10676" lon="6.70639">
        <ele>2287.7</ele>
        <time>2011-07-10T13:55:56Z</time>
      </trkpt>
      <trkpt lat="44.10663" lon="6.70633">
        <ele>2287.77</ele>
        <time>2011-07-10T13:56:04Z</time>
      </trkpt>
      <trkpt lat="44.1065" lon="6.7063">
        <ele>2287.389</ele>
        <time>2011-07-10T13:56:11Z</time>
      </trkpt>
      <trkpt lat="44.10637" lon="6.70626">
        <ele>2287.159</ele>
        <time>2011-07-10T13:56:18Z</time>
      </trkpt>
      <trkpt lat="44.10626" lon="6.70623">
        <ele>2287.679</ele>
        <time>2011-07-10T13:56:24Z</time>
      </trkpt>
      <trkpt lat="44.10622" lon="6.70621">
        <ele>2287.789</ele>
        <time>2011-07-10T13:56:26Z</time>
      </trkpt>
      <trkpt lat="44.10607" lon="6.70625">
        <ele>2287.888</ele>
        <time>2011-07-10T13:56:32Z</time>
      </trkpt>
      <trkpt lat="44.10602" lon="6.70627">
        <ele>2287.999</ele>
        <time>2011-07-10T13:56:34Z</time>
      </trkpt>
      <trkpt lat="44.10601" lon="6.70642">
        <ele>2288.097</ele>
        <time>2011-07-10T13:56:38Z</time>
      </trkpt>
      <trkpt lat="44.10595" lon="6.70646">
        <ele>2286.706</ele>
        <time>2011-07-10T13:56:41Z</time>
      </trkpt>
      <trkpt lat="44.10592" lon="6.70647">
        <ele>2285.905</ele>
        <time>2011-07-10T13:56:42Z</time>
      </trkpt>
      <trkpt lat="44.10573" lon="6.7065">
        <ele>2283.964</ele>
        <time>2011-07-10T13:56:47Z</time>
      </trkpt>
      <trkpt lat="44.1056" lon="6.70652">
        <ele>2283.246</ele>
        <time>2011-07-10T13:56:51Z</time>
      </trkpt>
      <trkpt lat="44.10544" lon="6.7066">
        <ele>2282.716</ele>
        <time>2011-07-10T13:56:57Z</time>
      </trkpt>
      <trkpt lat="44.10532" lon="6.70661">
        <ele>2281.805</ele>
        <time>2011-07-10T13:57:00Z</time>
      </trkpt>
      <trkpt lat="44.10512" lon="6.7067">
        <ele>2282.618</ele>
        <time>2011-07-10T13:57:05Z</time>
      </trkpt>
      <trkpt lat="44.10505" lon="6.70673">
        <ele>2282.077</ele>
        <time>2011-07-10T13:57:09Z</time>
      </trkpt>
      <trkpt lat="44.105" lon="6.70676">
        <ele>2281.708</ele>
        <time>2011-07-10T13:57:14Z</time>
      </trkpt>
      <trkpt lat="44.10498" lon="6.70675">
        <ele>2277.959</ele>
        <time>2011-07-10T14:25:45Z</time>
      </trkpt>
      <trkpt lat="44.10499" lon="6.70675">
        <ele>2279.529</ele>
        <time>2011-07-10T14:25:56Z</time>
      </trkpt>
      <trkpt lat="44.105" lon="6.70661">
        <ele>2278.587</ele>
        <time>2011-07-10T14:26:02Z</time>
      </trkpt>
      <trkpt lat="44.105" lon="6.70658">
        <ele>2278.377</ele>
        <time>2011-07-10T14:26:03Z</time>
      </trkpt>
      <trkpt lat="44.10497" lon="6.70634">
        <ele>2277.578</ele>
        <time>2011-07-10T14:26:09Z</time>
      </trkpt>
      <trkpt lat="44.10494" lon="6.70621">
        <ele>2278.239</ele>
        <time>2011-07-10T14:26:13Z</time>
      </trkpt>
      <trkpt lat="44.10495" lon="6.70613">
        <ele>2279.222</ele>
        <time>2011-07-10T14:26:15Z</time>
      </trkpt>
      <trkpt lat="44.10499" lon="6.70583">
        <ele>2281.392</ele>
        <time>2011-07-10T14:26:24Z</time>
      </trkpt>
      <trkpt lat="44.10503" lon="6.7057">
        <ele>2282.931</ele>
        <time>2011-07-10T14:26:29Z</time>
      </trkpt>
      <trkpt lat="44.10502" lon="6.70558">
        <ele>2284.662</ele>
        <time>2011-07-10T14:26:34Z</time>
      </trkpt>
      <trkpt lat="44.10507" lon="6.70538">
        <ele>2286.24</ele>
        <time>2011-07-10T14:26:42Z</time>
      </trkpt>
      <trkpt lat="44.10508" lon="6.70533">
        <ele>2285.968</ele>
        <time>2011-07-10T14:26:46Z</time>
      </trkpt>
      <trkpt lat="44.10509" lon="6.70535">
        <ele>2283.479</ele>
        <time>2011-07-10T14:27:43Z</time>
      </trkpt>
      <trkpt lat="44.10507" lon="6.7053">
        <ele>2284.039</ele>
        <time>2011-07-10T14:27:48Z</time>
      </trkpt>
      <trkpt lat="44.10507" lon="6.70527">
        <ele>2284.049</ele>
        <time>2011-07-10T14:27:49Z</time>
      </trkpt>
      <trkpt lat="44.10508" lon="6.70504">
        <ele>2285.562</ele>
        <time>2011-07-10T14:27:55Z</time>
      </trkpt>
      <trkpt lat="44.10512" lon="6.70479">
        <ele>2286.752</ele>
        <time>2011-07-10T14:28:01Z</time>
      </trkpt>
      <trkpt lat="44.10519" lon="6.70458">
        <ele>2288.273</ele>
        <time>2011-07-10T14:28:07Z</time>
      </trkpt>
      <trkpt lat="44.10525" lon="6.7044">
        <ele>2289.92</ele>
        <time>2011-07-10T14:28:14Z</time>
      </trkpt>
      <trkpt lat="44.10526" lon="6.70425">
        <ele>2290.762</ele>
        <time>2011-07-10T14:28:20Z</time>
      </trkpt>
      <trkpt lat="44.10523" lon="6.70408">
        <ele>2291.66</ele>
        <time>2011-07-10T14:28:27Z</time>
      </trkpt>
      <trkpt lat="44.10525" lon="6.70391">
        <ele>2291.96</ele>
        <time>2011-07-10T14:28:34Z</time>
      </trkpt>
      <trkpt lat="44.10525" lon="6.70376">
        <ele>2292.18</ele>
        <time>2011-07-10T14:28:40Z</time>
      </trkpt>
      <trkpt lat="44.10525" lon="6.70357">
        <ele>2293.091</ele>
        <time>2011-07-10T14:28:47Z</time>
      </trkpt>
      <trkpt lat="44.10526" lon="6.70344">
        <ele>2294.061</ele>
        <time>2011-07-10T14:28:53Z</time>
      </trkpt>
      <trkpt lat="44.10527" lon="6.70338">
        <ele>2295.122</ele>
        <time>2011-07-10T14:28:58Z</time>
      </trkpt>
      <trkpt lat="44.10529" lon="6.70331">
        <ele>2296.541</ele>
        <time>2011-07-10T14:29:05Z</time>
      </trkpt>
      <trkpt lat="44.10531" lon="6.7032">
        <ele>2298.39</ele>
        <time>2011-07-10T14:29:12Z</time>
      </trkpt>
      <trkpt lat="44.10531" lon="6.70316">
        <ele>2300.079</ele>
        <time>2011-07-10T14:29:18Z</time>
      </trkpt>
      <trkpt lat="44.10531" lon="6.70317">
        <ele>2299.777</ele>
        <time>2011-07-10T14:30:06Z</time>
      </trkpt>
      <trkpt lat="44.10538" lon="6.7031">
        <ele>2299.688</ele>
        <time>2011-07-10T14:30:14Z</time>
      </trkpt>
      <trkpt lat="44.1055" lon="6.70297">
        <ele>2298.855</ele>
        <time>2011-07-10T14:30:20Z</time>
      </trkpt>
      <trkpt lat="44.10562" lon="6.70275">
        <ele>2296.211</ele>
        <time>2011-07-10T14:30:25Z</time>
      </trkpt>
      <trkpt lat="44.10568" lon="6.70256">
        <ele>2292.956</ele>
        <time>2011-07-10T14:30:29Z</time>
      </trkpt>
      <trkpt lat="44.10573" lon="6.70246">
        <ele>2290.893</ele>
        <time>2011-07-10T14:30:31Z</time>
      </trkpt>
      <trkpt lat="44.10577" lon="6.7023">
        <ele>2287.911</ele>
        <time>2011-07-10T14:30:34Z</time>
      </trkpt>
      <trkpt lat="44.10581" lon="6.70219">
        <ele>2286.673</ele>
        <time>2011-07-10T14:30:36Z</time>
      </trkpt>
      <trkpt lat="44.10585" lon="6.70202">
        <ele>2285.298</ele>
        <time>2011-07-10T14:30:39Z</time>
      </trkpt>
      <trkpt lat="44.10586" lon="6.70187">
        <ele>2284.11</ele>
        <time>2011-07-10T14:30:41Z</time>
      </trkpt>
      <trkpt lat="44.1059" lon="6.70163">
        <ele>2283.104</ele>
        <time>2011-07-10T14:30:45Z</time>
      </trkpt>
      <trkpt lat="44.10592" lon="6.70149">
        <ele>2283.437</ele>
        <time>2011-07-10T14:30:50Z</time>
      </trkpt>
      <trkpt lat="44.10595" lon="6.70123">
        <ele>2283.708</ele>
        <time>2011-07-10T14:30:58Z</time>
      </trkpt>
      <trkpt lat="44.10595" lon="6.70113">
        <ele>2284.299</ele>
        <time>2011-07-10T14:31:02Z</time>
      </trkpt>
      <trkpt lat="44.10592" lon="6.70103">
        <ele>2285.38</ele>
        <time>2011-07-10T14:31:08Z</time>
      </trkpt>
      <trkpt lat="44.10587" lon="6.70095">
        <ele>2285.499</ele>
        <time>2011-07-10T14:31:13Z</time>
      </trkpt>
      <trkpt lat="44.10584" lon="6.70079">
        <ele>2286.049</ele>
        <time>2011-07-10T14:31:21Z</time>
      </trkpt>
      <trkpt lat="44.10581" lon="6.70059">
        <ele>2286.296</ele>
        <time>2011-07-10T14:31:29Z</time>
      </trkpt>
      <trkpt lat="44.10579" lon="6.70049">
        <ele>2286.066</ele>
        <time>2011-07-10T14:31:34Z</time>
      </trkpt>
      <trkpt lat="44.10584" lon="6.70043">
        <ele>2287.01</ele>
        <time>2011-07-10T14:31:40Z</time>
      </trkpt>
      <trkpt lat="44.10588" lon="6.70033">
        <ele>2287.859</ele>
        <time>2011-07-10T14:31:47Z</time>
      </trkpt>
      <trkpt lat="44.10591" lon="6.70017">
        <ele>2288.729</ele>
        <time>2011-07-10T14:31:57Z</time>
      </trkpt>
      <trkpt lat="44.10592" lon="6.7">
        <ele>2290.341</ele>
        <time>2011-07-10T14:32:08Z</time>
      </trkpt>
      <trkpt lat="44.10591" lon="6.69988">
        <ele>2292.061</ele>
        <time>2011-07-10T14:32:17Z</time>
      </trkpt>
      <trkpt lat="44.10592" lon="6.69984">
        <ele>2292.408</ele>
        <time>2011-07-10T14:32:23Z</time>
      </trkpt>
      <trkpt lat="44.10593" lon="6.69979">
        <ele>2292.481</ele>
        <time>2011-07-10T14:32:53Z</time>
      </trkpt>
      <trkpt lat="44.10593" lon="6.69979">
        <ele>2293.003</ele>
        <time>2011-07-10T14:32:54Z</time>
      </trkpt>
      <trkpt lat="44.10589" lon="6.69965">
        <ele>2296.797</ele>
        <time>2011-07-10T14:33:06Z</time>
      </trkpt>
      <trkpt lat="44.1059" lon="6.69964">
        <ele>2297.212</ele>
        <time>2011-07-10T14:33:07Z</time>
      </trkpt>
      <trkpt lat="44.10593" lon="6.69957">
        <ele>2299.25</ele>
        <time>2011-07-10T14:33:14Z</time>
      </trkpt>
      <trkpt lat="44.10592" lon="6.69944">
        <ele>2301.311</ele>
        <time>2011-07-10T14:33:24Z</time>
      </trkpt>
      <trkpt lat="44.10594" lon="6.69929">
        <ele>2304.021</ele>
        <time>2011-07-10T14:33:37Z</time>
      </trkpt>
      <trkpt lat="44.10598" lon="6.69923">
        <ele>2306.191</ele>
        <time>2011-07-10T14:33:47Z</time>
      </trkpt>
      <trkpt lat="44.106" lon="6.69913">
        <ele>2307.761</ele>
        <time>2011-07-10T14:33:58Z</time>
      </trkpt>
      <trkpt lat="44.10601" lon="6.69909">
        <ele>2308.731</ele>
        <time>2011-07-10T14:34:03Z</time>
      </trkpt>
      <trkpt lat="44.10601" lon="6.69906">
        <ele>2310.279</ele>
        <time>2011-07-10T14:34:10Z</time>
      </trkpt>
      <trkpt lat="44.106" lon="6.69898">
        <ele>2311.221</ele>
        <time>2011-07-10T14:34:16Z</time>
      </trkpt>
      <trkpt lat="44.10602" lon="6.69886">
        <ele>2314.25</ele>
        <time>2011-07-10T14:34:24Z</time>
      </trkpt>
      <trkpt lat="44.10604" lon="6.69879">
        <ele>2316.268</ele>
        <time>2011-07-10T14:34:31Z</time>
      </trkpt>
      <trkpt lat="44.1061" lon="6.69884">
        <ele>2319.96</ele>
        <time>2011-07-10T14:35:34Z</time>
      </trkpt>
      <trkpt lat="44.10615" lon="6.69876">
        <ele>2319.999</ele>
        <time>2011-07-10T14:35:40Z</time>
      </trkpt>
      <trkpt lat="44.10618" lon="6.69869">
        <ele>2318.298</ele>
        <time>2011-07-10T14:35:46Z</time>
      </trkpt>
      <trkpt lat="44.10614" lon="6.69862">
        <ele>2318.09</ele>
        <time>2011-07-10T14:35:52Z</time>
      </trkpt>
      <trkpt lat="44.10611" lon="6.69854">
        <ele>2318.819</ele>
        <time>2011-07-10T14:35:58Z</time>
      </trkpt>
      <trkpt lat="44.10612" lon="6.69849">
        <ele>2319.34</ele>
        <time>2011-07-10T14:36:02Z</time>
      </trkpt>
      <trkpt lat="44.10612" lon="6.69843">
        <ele>2318.958</ele>
        <time>2011-07-10T14:36:07Z</time>
      </trkpt>
      <trkpt lat="44.10615" lon="6.69833">
        <ele>2320.157</ele>
        <time>2011-07-10T14:36:12Z</time>
      </trkpt>
      <trkpt lat="44.10622" lon="6.6981">
        <ele>2321.308</ele>
        <time>2011-07-10T14:36:21Z</time>
      </trkpt>
      <trkpt lat="44.1062" lon="6.69794">
        <ele>2322.029</ele>
        <time>2011-07-10T14:36:27Z</time>
      </trkpt>
      <trkpt lat="44.10615" lon="6.69767">
        <ele>2322.778</ele>
        <time>2011-07-10T14:36:37Z</time>
      </trkpt>
      <trkpt lat="44.10618" lon="6.69752">
        <ele>2323.419</ele>
        <time>2011-07-10T14:36:43Z</time>
      </trkpt>
      <trkpt lat="44.10624" lon="6.69732">
        <ele>2323.757</ele>
        <time>2011-07-10T14:36:52Z</time>
      </trkpt>
      <trkpt lat="44.10628" lon="6.69719">
        <ele>2323.746</ele>
        <time>2011-07-10T14:36:58Z</time>
      </trkpt>
      <trkpt lat="44.10633" lon="6.69699">
        <ele>2323.537</ele>
        <time>2011-07-10T14:37:06Z</time>
      </trkpt>
      <trkpt lat="44.10637" lon="6.69677">
        <ele>2323.818</ele>
        <time>2011-07-10T14:37:15Z</time>
      </trkpt>
      <trkpt lat="44.10643" lon="6.69656">
        <ele>2324.328</ele>
        <time>2011-07-10T14:37:24Z</time>
      </trkpt>
      <trkpt lat="44.10646" lon="6.69638">
        <ele>2325.22</ele>
        <time>2011-07-10T14:37:32Z</time>
      </trkpt>
      <trkpt lat="44.10646" lon="6.69635">
        <ele>2325.52</ele>
        <time>2011-07-10T14:37:33Z</time>
      </trkpt>
      <trkpt lat="44.10646" lon="6.69626">
        <ele>2325.818</ele>
        <time>2011-07-10T14:37:37Z</time>
      </trkpt>
      <trkpt lat="44.10646" lon="6.69603">
        <ele>2325.385</ele>
        <time>2011-07-10T14:37:45Z</time>
      </trkpt>
      <trkpt lat="44.10647" lon="6.69582">
        <ele>2324.445</ele>
        <time>2011-07-10T14:37:50Z</time>
      </trkpt>
      <trkpt lat="44.10649" lon="6.69558">
        <ele>2322.132</ele>
        <time>2011-07-10T14:37:56Z</time>
      </trkpt>
      <trkpt lat="44.10649" lon="6.69548">
        <ele>2320.738</ele>
        <time>2011-07-10T14:37:58Z</time>
      </trkpt>
      <trkpt lat="44.10656" lon="6.69519">
        <ele>2316.633</ele>
        <time>2011-07-10T14:38:03Z</time>
      </trkpt>
      <trkpt lat="44.10656" lon="6.69514">
        <ele>2316.166</ele>
        <time>2011-07-10T14:38:04Z</time>
      </trkpt>
      <trkpt lat="44.10654" lon="6.69495">
        <ele>2314.904</ele>
        <time>2011-07-10T14:38:09Z</time>
      </trkpt>
      <trkpt lat="44.10654" lon="6.69475">
        <ele>2314.385</ele>
        <time>2011-07-10T14:38:14Z</time>
      </trkpt>
      <trkpt lat="44.10654" lon="6.69455">
        <ele>2314.576</ele>
        <time>2011-07-10T14:38:20Z</time>
      </trkpt>
      <trkpt lat="44.1065" lon="6.69428">
        <ele>2315.016</ele>
        <time>2011-07-10T14:38:28Z</time>
      </trkpt>
      <trkpt lat="44.10649" lon="6.69405">
        <ele>2315.176</ele>
        <time>2011-07-10T14:38:34Z</time>
      </trkpt>
      <trkpt lat="44.10651" lon="6.69381">
        <ele>2315.116</ele>
        <time>2011-07-10T14:38:40Z</time>
      </trkpt>
      <trkpt lat="44.10658" lon="6.69361">
        <ele>2314.736</ele>
        <time>2011-07-10T14:38:46Z</time>
      </trkpt>
      <trkpt lat="44.1067" lon="6.6934">
        <ele>2314.497</ele>
        <time>2011-07-10T14:38:54Z</time>
      </trkpt>
      <trkpt lat="44.10678" lon="6.69316">
        <ele>2315.077</ele>
        <time>2011-07-10T14:39:01Z</time>
      </trkpt>
      <trkpt lat="44.10685" lon="6.69292">
        <ele>2315.545</ele>
        <time>2011-07-10T14:39:09Z</time>
      </trkpt>
      <trkpt lat="44.10681" lon="6.69272">
        <ele>2315.587</ele>
        <time>2011-07-10T14:39:16Z</time>
      </trkpt>
      <trkpt lat="44.10671" lon="6.69253">
        <ele>2315.967</ele>
        <time>2011-07-10T14:39:25Z</time>
      </trkpt>
      <trkpt lat="44.10671" lon="6.69242">
        <ele>2316.426</ele>
        <time>2011-07-10T14:39:30Z</time>
      </trkpt>
      <trkpt lat="44.10673" lon="6.69224">
        <ele>2317.467</ele>
        <time>2011-07-10T14:39:36Z</time>
      </trkpt>
      <trkpt lat="44.10671" lon="6.6922">
        <ele>2317.377</ele>
        <time>2011-07-10T14:39:38Z</time>
      </trkpt>
      <trkpt lat="44.10667" lon="6.69218">
        <ele>2317.496</ele>
        <time>2011-07-10T14:39:44Z</time>
      </trkpt>
      <trkpt lat="44.10663" lon="6.69215">
        <ele>2317.597</ele>
        <time>2011-07-10T14:39:48Z</time>
      </trkpt>
      <trkpt lat="44.10661" lon="6.69215">
        <ele>2317.818</ele>
        <time>2011-07-10T14:39:51Z</time>
      </trkpt>
      <trkpt lat="44.10656" lon="6.69208">
        <ele>2318.198</ele>
        <time>2011-07-10T14:39:57Z</time>
      </trkpt>
      <trkpt lat="44.10654" lon="6.69198">
        <ele>2318.006</ele>
        <time>2011-07-10T14:40:00Z</time>
      </trkpt>
      <trkpt lat="44.10652" lon="6.69191">
        <ele>2317.927</ele>
        <time>2011-07-10T14:40:02Z</time>
      </trkpt>
      <trkpt lat="44.10652" lon="6.69183">
        <ele>2317.676</ele>
        <time>2011-07-10T14:40:05Z</time>
      </trkpt>
      <trkpt lat="44.10652" lon="6.69169">
        <ele>2317.636</ele>
        <time>2011-07-10T14:40:11Z</time>
      </trkpt>
      <trkpt lat="44.10658" lon="6.69158">
        <ele>2317.686</ele>
        <time>2011-07-10T14:40:16Z</time>
      </trkpt>
      <trkpt lat="44.10661" lon="6.69148">
        <ele>2317.937</ele>
        <time>2011-07-10T14:40:20Z</time>
      </trkpt>
      <trkpt lat="44.10661" lon="6.69132">
        <ele>2318.156</ele>
        <time>2011-07-10T14:40:27Z</time>
      </trkpt>
      <trkpt lat="44.1066" lon="6.69115">
        <ele>2317.456</ele>
        <time>2011-07-10T14:40:34Z</time>
      </trkpt>
      <trkpt lat="44.10661" lon="6.69102">
        <ele>2316.976</ele>
        <time>2011-07-10T14:40:40Z</time>
      </trkpt>
      <trkpt lat="44.10661" lon="6.69099">
        <ele>2316.674</ele>
        <time>2011-07-10T14:40:44Z</time>
      </trkpt>
      <trkpt lat="44.10661" lon="6.69097">
        <ele>2316.415</ele>
        <time>2011-07-10T14:40:48Z</time>
      </trkpt>
      <trkpt lat="44.1066" lon="6.69097">
        <ele>2316.115</ele>
        <time>2011-07-10T14:40:51Z</time>
      </trkpt>
      <trkpt lat="44.10663" lon="6.69087">
        <ele>2316.917</ele>
        <time>2011-07-10T14:40:57Z</time>
      </trkpt>
      <trkpt lat="44.10659" lon="6.69074">
        <ele>2317.479</ele>
        <time>2011-07-10T14:41:03Z</time>
      </trkpt>
      <trkpt lat="44.10657" lon="6.69068">
        <ele>2317.888</ele>
        <time>2011-07-10T14:41:06Z</time>
      </trkpt>
      <trkpt lat="44.10651" lon="6.69048">
        <ele>2318.317</ele>
        <time>2011-07-10T14:41:16Z</time>
      </trkpt>
      <trkpt lat="44.10649" lon="6.69028">
        <ele>2318.917</ele>
        <time>2011-07-10T14:41:26Z</time>
      </trkpt>
      <trkpt lat="44.10652" lon="6.69016">
        <ele>2319.657</ele>
        <time>2011-07-10T14:41:33Z</time>
      </trkpt>
      <trkpt lat="44.10655" lon="6.69013">
        <ele>2319.817</ele>
        <time>2011-07-10T14:41:35Z</time>
      </trkpt>
      <trkpt lat="44.10666" lon="6.69014">
        <ele>2319.734</ele>
        <time>2011-07-10T14:41:42Z</time>
      </trkpt>
      <trkpt lat="44.10671" lon="6.69011">
        <ele>2319.374</ele>
        <time>2011-07-10T14:41:45Z</time>
      </trkpt>
      <trkpt lat="44.10673" lon="6.69003">
        <ele>2320.436</ele>
        <time>2011-07-10T14:41:50Z</time>
      </trkpt>
      <trkpt lat="44.10679" lon="6.68991">
        <ele>2320.496</ele>
        <time>2011-07-10T14:41:56Z</time>
      </trkpt>
      <trkpt lat="44.10688" lon="6.68973">
        <ele>2320.837</ele>
        <time>2011-07-10T14:42:06Z</time>
      </trkpt>
      <trkpt lat="44.10694" lon="6.68966">
        <ele>2321.198</ele>
        <time>2011-07-10T14:42:11Z</time>
      </trkpt>
      <trkpt lat="44.10697" lon="6.68965">
        <ele>2321.507</ele>
        <time>2011-07-10T14:42:13Z</time>
      </trkpt>
      <trkpt lat="44.10701" lon="6.68968">
        <ele>2322.007</ele>
        <time>2011-07-10T14:42:16Z</time>
      </trkpt>
      <trkpt lat="44.10708" lon="6.68966">
        <ele>2323.839</ele>
        <time>2011-07-10T14:42:21Z</time>
      </trkpt>
      <trkpt lat="44.10709" lon="6.68964">
        <ele>2324.399</ele>
        <time>2011-07-10T14:42:22Z</time>
      </trkpt>
      <trkpt lat="44.10711" lon="6.68947">
        <ele>2327.178</ele>
        <time>2011-07-10T14:42:30Z</time>
      </trkpt>
      <trkpt lat="44.10711" lon="6.68927">
        <ele>2327.867</ele>
        <time>2011-07-10T14:42:39Z</time>
      </trkpt>
      <trkpt lat="44.10712" lon="6.68903">
        <ele>2328.847</ele>
        <time>2011-07-10T14:42:49Z</time>
      </trkpt>
      <trkpt lat="44.10711" lon="6.68885">
        <ele>2330.168</ele>
        <time>2011-07-10T14:42:57Z</time>
      </trkpt>
      <trkpt lat="44.10714" lon="6.68866">
        <ele>2331.268</ele>
        <time>2011-07-10T14:43:06Z</time>
      </trkpt>
      <trkpt lat="44.10714" lon="6.68852">
        <ele>2331.768</ele>
        <time>2011-07-10T14:43:13Z</time>
      </trkpt>
      <trkpt lat="44.10712" lon="6.68842">
        <ele>2332.457</ele>
        <time>2011-07-10T14:43:19Z</time>
      </trkpt>
      <trkpt lat="44.10711" lon="6.68843">
        <ele>2333.136</ele>
        <time>2011-07-10T14:43:25Z</time>
      </trkpt>
      <trkpt lat="44.1071" lon="6.68838">
        <ele>2333.937</ele>
        <time>2011-07-10T14:43:36Z</time>
      </trkpt>
      <trkpt lat="44.10709" lon="6.68836">
        <ele>2334.909</ele>
        <time>2011-07-10T14:43:43Z</time>
      </trkpt>
      <trkpt lat="44.10705" lon="6.68833">
        <ele>2337.628</ele>
        <time>2011-07-10T14:43:51Z</time>
      </trkpt>
      <trkpt lat="44.10702" lon="6.6883">
        <ele>2339.308</ele>
        <time>2011-07-10T14:43:56Z</time>
      </trkpt>
      <trkpt lat="44.10702" lon="6.68824">
        <ele>2339.957</ele>
        <time>2011-07-10T14:44:00Z</time>
      </trkpt>
      <trkpt lat="44.10699" lon="6.68815">
        <ele>2341.888</ele>
        <time>2011-07-10T14:44:08Z</time>
      </trkpt>
      <trkpt lat="44.10698" lon="6.68811">
        <ele>2343.227</ele>
        <time>2011-07-10T14:44:13Z</time>
      </trkpt>
      <trkpt lat="44.10699" lon="6.68808">
        <ele>2343.99</ele>
        <time>2011-07-10T14:44:15Z</time>
      </trkpt>
      <trkpt lat="44.107" lon="6.68804">
        <ele>2345.599</ele>
        <time>2011-07-10T14:44:19Z</time>
      </trkpt>
      <trkpt lat="44.10698" lon="6.68794">
        <ele>2345.957</ele>
        <time>2011-07-10T14:44:28Z</time>
      </trkpt>
      <trkpt lat="44.10696" lon="6.68781">
        <ele>2347.218</ele>
        <time>2011-07-10T14:44:37Z</time>
      </trkpt>
      <trkpt lat="44.10697" lon="6.68763">
        <ele>2347.456</ele>
        <time>2011-07-10T14:44:49Z</time>
      </trkpt>
      <trkpt lat="44.10701" lon="6.6875">
        <ele>2346.676</ele>
        <time>2011-07-10T14:44:58Z</time>
      </trkpt>
      <trkpt lat="44.10708" lon="6.68738">
        <ele>2346.825</ele>
        <time>2011-07-10T14:45:06Z</time>
      </trkpt>
      <trkpt lat="44.10713" lon="6.68724">
        <ele>2346.546</ele>
        <time>2011-07-10T14:45:14Z</time>
      </trkpt>
      <trkpt lat="44.1071" lon="6.68712">
        <ele>2347.128</ele>
        <time>2011-07-10T14:45:21Z</time>
      </trkpt>
      <trkpt lat="44.10708" lon="6.68702">
        <ele>2348.767</ele>
        <time>2011-07-10T14:45:28Z</time>
      </trkpt>
      <trkpt lat="44.10709" lon="6.68685">
        <ele>2350.537</ele>
        <time>2011-07-10T14:45:38Z</time>
      </trkpt>
      <trkpt lat="44.10709" lon="6.68667">
        <ele>2351.615</ele>
        <time>2011-07-10T14:45:48Z</time>
      </trkpt>
      <trkpt lat="44.1071" lon="6.68649">
        <ele>2353.331</ele>
        <time>2011-07-10T14:45:58Z</time>
      </trkpt>
      <trkpt lat="44.10709" lon="6.68635">
        <ele>2354.998</ele>
        <time>2011-07-10T14:46:08Z</time>
      </trkpt>
      <trkpt lat="44.10707" lon="6.68631">
        <ele>2355.469</ele>
        <time>2011-07-10T14:46:11Z</time>
      </trkpt>
      <trkpt lat="44.10709" lon="6.68626">
        <ele>2355.055</ele>
        <time>2011-07-10T14:46:15Z</time>
      </trkpt>
      <trkpt lat="44.10714" lon="6.68612">
        <ele>2354.156</ele>
        <time>2011-07-10T14:46:23Z</time>
      </trkpt>
      <trkpt lat="44.10714" lon="6.686">
        <ele>2354.366</ele>
        <time>2011-07-10T14:46:31Z</time>
      </trkpt>
      <trkpt lat="44.10713" lon="6.68583">
        <ele>2355.585</ele>
        <time>2011-07-10T14:46:40Z</time>
      </trkpt>
      <trkpt lat="44.10713" lon="6.68574">
        <ele>2357.598</ele>
        <time>2011-07-10T14:46:46Z</time>
      </trkpt>
      <trkpt lat="44.10715" lon="6.68559">
        <ele>2357.746</ele>
        <time>2011-07-10T14:46:55Z</time>
      </trkpt>
      <trkpt lat="44.10715" lon="6.68545">
        <ele>2359.736</ele>
        <time>2011-07-10T14:47:04Z</time>
      </trkpt>
      <trkpt lat="44.1071" lon="6.68534">
        <ele>2360.59</ele>
        <time>2011-07-10T14:47:12Z</time>
      </trkpt>
      <trkpt lat="44.10708" lon="6.68523">
        <ele>2362.415</ele>
        <time>2011-07-10T14:47:21Z</time>
      </trkpt>
      <trkpt lat="44.10706" lon="6.68519">
        <ele>2363.502</ele>
        <time>2011-07-10T14:47:42Z</time>
      </trkpt>
      <trkpt lat="44.10706" lon="6.68513">
        <ele>2363.844</ele>
        <time>2011-07-10T14:47:50Z</time>
      </trkpt>
      <trkpt lat="44.10705" lon="6.68506">
        <ele>2363.455</ele>
        <time>2011-07-10T14:48:00Z</time>
      </trkpt>
      <trkpt lat="44.10704" lon="6.68492">
        <ele>2363.224</ele>
        <time>2011-07-10T14:48:09Z</time>
      </trkpt>
      <trkpt lat="44.10703" lon="6.68488">
        <ele>2362.629</ele>
        <time>2011-07-10T14:48:15Z</time>
      </trkpt>
      <trkpt lat="44.10702" lon="6.68488">
        <ele>2361.464</ele>
        <time>2011-07-10T14:48:27Z</time>
      </trkpt>
      <trkpt lat="44.10697" lon="6.68486">
        <ele>2362.48</ele>
        <time>2011-07-10T14:48:33Z</time>
      </trkpt>
      <trkpt lat="44.10695" lon="6.68484">
        <ele>2362.742</ele>
        <time>2011-07-10T14:48:35Z</time>
      </trkpt>
      <trkpt lat="44.10691" lon="6.68473">
        <ele>2364.659</ele>
        <time>2011-07-10T14:48:44Z</time>
      </trkpt>
      <trkpt lat="44.10687" lon="6.68463">
        <ele>2365.698</ele>
        <time>2011-07-10T14:48:52Z</time>
      </trkpt>
      <trkpt lat="44.10686" lon="6.68452">
        <ele>2366.797</ele>
        <time>2011-07-10T14:49:01Z</time>
      </trkpt>
      <trkpt lat="44.10684" lon="6.68441">
        <ele>2368.2</ele>
        <time>2011-07-10T14:49:10Z</time>
      </trkpt>
      <trkpt lat="44.10683" lon="6.6844">
        <ele>2367.795</ele>
        <time>2011-07-10T14:49:16Z</time>
      </trkpt>
      <trkpt lat="44.10681" lon="6.68432">
        <ele>2368.125</ele>
        <time>2011-07-10T14:49:29Z</time>
      </trkpt>
      <trkpt lat="44.10675" lon="6.68422">
        <ele>2368.857</ele>
        <time>2011-07-10T14:49:38Z</time>
      </trkpt>
      <trkpt lat="44.10671" lon="6.68411">
        <ele>2371.025</ele>
        <time>2011-07-10T14:49:47Z</time>
      </trkpt>
      <trkpt lat="44.10668" lon="6.68399">
        <ele>2372.226</ele>
        <time>2011-07-10T14:49:56Z</time>
      </trkpt>
      <trkpt lat="44.10662" lon="6.68391">
        <ele>2373.817</ele>
        <time>2011-07-10T14:50:04Z</time>
      </trkpt>
      <trkpt lat="44.10662" lon="6.68389">
        <ele>2374.083</ele>
        <time>2011-07-10T14:50:11Z</time>
      </trkpt>
      <trkpt lat="44.10661" lon="6.68389">
        <ele>2376.074</ele>
        <time>2011-07-10T14:51:10Z</time>
      </trkpt>
      <trkpt lat="44.1067" lon="6.68379">
        <ele>2377.218</ele>
        <time>2011-07-10T14:51:19Z</time>
      </trkpt>
      <trkpt lat="44.10678" lon="6.68376">
        <ele>2379.71</ele>
        <time>2011-07-10T14:51:26Z</time>
      </trkpt>
      <trkpt lat="44.10682" lon="6.68373">
        <ele>2381.774</ele>
        <time>2011-07-10T14:51:31Z</time>
      </trkpt>
      <trkpt lat="44.10692" lon="6.68371">
        <ele>2384.317</ele>
        <time>2011-07-10T14:51:41Z</time>
      </trkpt>
      <trkpt lat="44.10698" lon="6.6837">
        <ele>2384.126</ele>
        <time>2011-07-10T14:51:45Z</time>
      </trkpt>
      <trkpt lat="44.10704" lon="6.68368">
        <ele>2385.195</ele>
        <time>2011-07-10T14:51:52Z</time>
      </trkpt>
      <trkpt lat="44.10706" lon="6.68362">
        <ele>2386.677</ele>
        <time>2011-07-10T14:51:58Z</time>
      </trkpt>
      <trkpt lat="44.10715" lon="6.68365">
        <ele>2387.591</ele>
        <time>2011-07-10T14:52:06Z</time>
      </trkpt>
      <trkpt lat="44.10724" lon="6.68363">
        <ele>2388.312</ele>
        <time>2011-07-10T14:52:14Z</time>
      </trkpt>
      <trkpt lat="44.10726" lon="6.68362">
        <ele>2388.667</ele>
        <time>2011-07-10T14:52:16Z</time>
      </trkpt>
      <trkpt lat="44.10727" lon="6.68354">
        <ele>2389.654</ele>
        <time>2011-07-10T14:52:23Z</time>
      </trkpt>
      <trkpt lat="44.10725" lon="6.68348">
        <ele>2390.643</ele>
        <time>2011-07-10T14:52:30Z</time>
      </trkpt>
      <trkpt lat="44.10722" lon="6.6834">
        <ele>2391.381</ele>
        <time>2011-07-10T14:52:38Z</time>
      </trkpt>
      <trkpt lat="44.10721" lon="6.68338">
        <ele>2391.665</ele>
        <time>2011-07-10T14:52:42Z</time>
      </trkpt>
      <trkpt lat="44.1072" lon="6.6833">
        <ele>2392.457</ele>
        <time>2011-07-10T14:52:50Z</time>
      </trkpt>
      <trkpt lat="44.1072" lon="6.68327">
        <ele>2393.237</ele>
        <time>2011-07-10T14:52:55Z</time>
      </trkpt>
      <trkpt lat="44.10722" lon="6.68313">
        <ele>2393.064</ele>
        <time>2011-07-10T14:53:04Z</time>
      </trkpt>
      <trkpt lat="44.10721" lon="6.68301">
        <ele>2394.365</ele>
        <time>2011-07-10T14:53:13Z</time>
      </trkpt>
      <trkpt lat="44.10718" lon="6.68293">
        <ele>2395.967</ele>
        <time>2011-07-10T14:53:20Z</time>
      </trkpt>
      <trkpt lat="44.10719" lon="6.68287">
        <ele>2397.508</ele>
        <time>2011-07-10T14:53:28Z</time>
      </trkpt>
      <trkpt lat="44.1072" lon="6.68285">
        <ele>2398.007</ele>
        <time>2011-07-10T14:53:30Z</time>
      </trkpt>
      <trkpt lat="44.1072" lon="6.68283">
        <ele>2398.237</ele>
        <time>2011-07-10T14:53:32Z</time>
      </trkpt>
      <trkpt lat="44.10725" lon="6.68276">
        <ele>2400.207</ele>
        <time>2011-07-10T14:53:41Z</time>
      </trkpt>
      <trkpt lat="44.10726" lon="6.68272">
        <ele>2400.617</ele>
        <time>2011-07-10T14:53:46Z</time>
      </trkpt>
      <trkpt lat="44.10728" lon="6.68264">
        <ele>2402.168</ele>
        <time>2011-07-10T14:53:54Z</time>
      </trkpt>
      <trkpt lat="44.10732" lon="6.68256">
        <ele>2403.175</ele>
        <time>2011-07-10T14:54:02Z</time>
      </trkpt>
      <trkpt lat="44.10735" lon="6.68253">
        <ele>2403.515</ele>
        <time>2011-07-10T14:54:09Z</time>
      </trkpt>
      <trkpt lat="44.10737" lon="6.68248">
        <ele>2403.716</ele>
        <time>2011-07-10T14:54:15Z</time>
      </trkpt>
      <trkpt lat="44.10738" lon="6.68248">
        <ele>2403.906</ele>
        <time>2011-07-10T14:54:16Z</time>
      </trkpt>
      <trkpt lat="44.10745" lon="6.68239">
        <ele>2404.955</ele>
        <time>2011-07-10T14:54:25Z</time>
      </trkpt>
      <trkpt lat="44.10751" lon="6.6823">
        <ele>2405.365</ele>
        <time>2011-07-10T14:54:32Z</time>
      </trkpt>
      <trkpt lat="44.10757" lon="6.6822">
        <ele>2406.456</ele>
        <time>2011-07-10T14:54:41Z</time>
      </trkpt>
      <trkpt lat="44.10761" lon="6.6821">
        <ele>2407.876</ele>
        <time>2011-07-10T14:54:49Z</time>
      </trkpt>
      <trkpt lat="44.10767" lon="6.68201">
        <ele>2408.125</ele>
        <time>2011-07-10T14:54:57Z</time>
      </trkpt>
      <trkpt lat="44.10772" lon="6.68191">
        <ele>2408.965</ele>
        <time>2011-07-10T14:55:06Z</time>
      </trkpt>
      <trkpt lat="44.10775" lon="6.6818">
        <ele>2409.615</ele>
        <time>2011-07-10T14:55:14Z</time>
      </trkpt>
      <trkpt lat="44.10778" lon="6.68175">
        <ele>2409.944</ele>
        <time>2011-07-10T14:55:21Z</time>
      </trkpt>
      <trkpt lat="44.10781" lon="6.6817">
        <ele>2409.321</ele>
        <time>2011-07-10T14:55:25Z</time>
      </trkpt>
      <trkpt lat="44.10786" lon="6.68165">
        <ele>2408.197</ele>
        <time>2011-07-10T14:55:27Z</time>
      </trkpt>
      <trkpt lat="44.10797" lon="6.68154">
        <ele>2407.541</ele>
        <time>2011-07-10T14:55:31Z</time>
      </trkpt>
      <trkpt lat="44.108" lon="6.68149">
        <ele>2407.504</ele>
        <time>2011-07-10T14:55:34Z</time>
      </trkpt>
      <trkpt lat="44.10804" lon="6.68146">
        <ele>2407.394</ele>
        <time>2011-07-10T14:55:38Z</time>
      </trkpt>
      <trkpt lat="44.10811" lon="6.68131">
        <ele>2408.854</ele>
        <time>2011-07-10T14:55:45Z</time>
      </trkpt>
      <trkpt lat="44.10815" lon="6.68125">
        <ele>2409.534</ele>
        <time>2011-07-10T14:55:49Z</time>
      </trkpt>
      <trkpt lat="44.10818" lon="6.68113">
        <ele>2410.931</ele>
        <time>2011-07-10T14:55:55Z</time>
      </trkpt>
      <trkpt lat="44.10821" lon="6.68101">
        <ele>2412.246</ele>
        <time>2011-07-10T14:56:02Z</time>
      </trkpt>
      <trkpt lat="44.10823" lon="6.68094">
        <ele>2412.926</ele>
        <time>2011-07-10T14:56:06Z</time>
      </trkpt>
      <trkpt lat="44.10824" lon="6.6809">
        <ele>2413.694</ele>
        <time>2011-07-10T14:56:13Z</time>
      </trkpt>
      <trkpt lat="44.10826" lon="6.68085">
        <ele>2414.197</ele>
        <time>2011-07-10T14:56:25Z</time>
      </trkpt>
      <trkpt lat="44.10826" lon="6.68084">
        <ele>2414.287</ele>
        <time>2011-07-10T14:56:26Z</time>
      </trkpt>
      <trkpt lat="44.10833" lon="6.68078">
        <ele>2417.058</ele>
        <time>2011-07-10T14:56:35Z</time>
      </trkpt>
      <trkpt lat="44.10834" lon="6.68078">
        <ele>2417.428</ele>
        <time>2011-07-10T14:56:36Z</time>
      </trkpt>
      <trkpt lat="44.10842" lon="6.68078">
        <ele>2418.846</ele>
        <time>2011-07-10T14:56:45Z</time>
      </trkpt>
      <trkpt lat="44.10845" lon="6.68075">
        <ele>2418.184</ele>
        <time>2011-07-10T14:56:51Z</time>
      </trkpt>
      <trkpt lat="44.10845" lon="6.68073">
        <ele>2416.914</ele>
        <time>2011-07-10T14:57:11Z</time>
      </trkpt>
      <trkpt lat="44.1085" lon="6.68063">
        <ele>2417.676</ele>
        <time>2011-07-10T14:57:20Z</time>
      </trkpt>
      <trkpt lat="44.10859" lon="6.68055">
        <ele>2419.736</ele>
        <time>2011-07-10T14:57:29Z</time>
      </trkpt>
      <trkpt lat="44.10867" lon="6.68048">
        <ele>2421.155</ele>
        <time>2011-07-10T14:57:38Z</time>
      </trkpt>
      <trkpt lat="44.10877" lon="6.68044">
        <ele>2422.948</ele>
        <time>2011-07-10T14:57:48Z</time>
      </trkpt>
      <trkpt lat="44.10885" lon="6.68048">
        <ele>2425.055</ele>
        <time>2011-07-10T14:57:56Z</time>
      </trkpt>
      <trkpt lat="44.10886" lon="6.68047">
        <ele>2425.195</ele>
        <time>2011-07-10T14:57:58Z</time>
      </trkpt>
      <trkpt lat="44.10884" lon="6.68036">
        <ele>2427.145</ele>
        <time>2011-07-10T14:58:08Z</time>
      </trkpt>
      <trkpt lat="44.10881" lon="6.68025">
        <ele>2428.796</ele>
        <time>2011-07-10T14:58:18Z</time>
      </trkpt>
      <trkpt lat="44.10876" lon="6.68018">
        <ele>2430.996</ele>
        <time>2011-07-10T14:58:26Z</time>
      </trkpt>
      <trkpt lat="44.10875" lon="6.68015">
        <ele>2430.133</ele>
        <time>2011-07-10T14:58:32Z</time>
      </trkpt>
      <trkpt lat="44.10872" lon="6.68012">
        <ele>2431.906</ele>
        <time>2011-07-10T14:58:40Z</time>
      </trkpt>
      <trkpt lat="44.10866" lon="6.68003">
        <ele>2432.266</ele>
        <time>2011-07-10T14:58:49Z</time>
      </trkpt>
      <trkpt lat="44.10859" lon="6.67995">
        <ele>2433.458</ele>
        <time>2011-07-10T14:58:58Z</time>
      </trkpt>
      <trkpt lat="44.10852" lon="6.67987">
        <ele>2434.978</ele>
        <time>2011-07-10T14:59:08Z</time>
      </trkpt>
      <trkpt lat="44.10851" lon="6.67986">
        <ele>2435.196</ele>
        <time>2011-07-10T14:59:10Z</time>
      </trkpt>
      <trkpt lat="44.10855" lon="6.67984">
        <ele>2436.845</ele>
        <time>2011-07-10T14:59:18Z</time>
      </trkpt>
      <trkpt lat="44.1086" lon="6.67984">
        <ele>2437.416</ele>
        <time>2011-07-10T14:59:29Z</time>
      </trkpt>
      <trkpt lat="44.10869" lon="6.67987">
        <ele>2440.067</ele>
        <time>2011-07-10T14:59:39Z</time>
      </trkpt>
      <trkpt lat="44.10872" lon="6.67986">
        <ele>2440.367</ele>
        <time>2011-07-10T14:59:42Z</time>
      </trkpt>
      <trkpt lat="44.10868" lon="6.67978">
        <ele>2440.676</ele>
        <time>2011-07-10T14:59:50Z</time>
      </trkpt>
      <trkpt lat="44.1086" lon="6.6797">
        <ele>2442.607</ele>
        <time>2011-07-10T15:00:02Z</time>
      </trkpt>
      <trkpt lat="44.10857" lon="6.67967">
        <ele>2443.566</ele>
        <time>2011-07-10T15:00:07Z</time>
      </trkpt>
      <trkpt lat="44.1086" lon="6.67967">
        <ele>2443.454</ele>
        <time>2011-07-10T15:00:13Z</time>
      </trkpt>
      <trkpt lat="44.10864" lon="6.67968">
        <ele>2444.786</ele>
        <time>2011-07-10T15:00:27Z</time>
      </trkpt>
      <trkpt lat="44.10871" lon="6.67967">
        <ele>2446.567</ele>
        <time>2011-07-10T15:00:34Z</time>
      </trkpt>
      <trkpt lat="44.10878" lon="6.67967">
        <ele>2448.437</ele>
        <time>2011-07-10T15:00:42Z</time>
      </trkpt>
      <trkpt lat="44.10884" lon="6.67968">
        <ele>2450.712</ele>
        <time>2011-07-10T15:00:50Z</time>
      </trkpt>
      <trkpt lat="44.10888" lon="6.67965">
        <ele>2452.437</ele>
        <time>2011-07-10T15:00:57Z</time>
      </trkpt>
      <trkpt lat="44.10885" lon="6.67962">
        <ele>2452.374</ele>
        <time>2011-07-10T15:01:04Z</time>
      </trkpt>
      <trkpt lat="44.10883" lon="6.67958">
        <ele>2452.656</ele>
        <time>2011-07-10T15:01:12Z</time>
      </trkpt>
      <trkpt lat="44.10877" lon="6.6795">
        <ele>2453.707</ele>
        <time>2011-07-10T15:01:21Z</time>
      </trkpt>
      <trkpt lat="44.1087" lon="6.67945">
        <ele>2455.487</ele>
        <time>2011-07-10T15:01:29Z</time>
      </trkpt>
      <trkpt lat="44.10867" lon="6.67939">
        <ele>2456.727</ele>
        <time>2011-07-10T15:01:37Z</time>
      </trkpt>
      <trkpt lat="44.10873" lon="6.67939">
        <ele>2458.167</ele>
        <time>2011-07-10T15:01:44Z</time>
      </trkpt>
      <trkpt lat="44.10876" lon="6.6794">
        <ele>2459.469</ele>
        <time>2011-07-10T15:01:47Z</time>
      </trkpt>
      <trkpt lat="44.10875" lon="6.67936">
        <ele>2460.647</ele>
        <time>2011-07-10T15:01:53Z</time>
      </trkpt>
      <trkpt lat="44.1087" lon="6.67929">
        <ele>2461.417</ele>
        <time>2011-07-10T15:02:00Z</time>
      </trkpt>
      <trkpt lat="44.10868" lon="6.67927">
        <ele>2462.545</ele>
        <time>2011-07-10T15:02:08Z</time>
      </trkpt>
      <trkpt lat="44.10863" lon="6.67922">
        <ele>2462.287</ele>
        <time>2011-07-10T15:02:24Z</time>
      </trkpt>
      <trkpt lat="44.10854" lon="6.67911">
        <ele>2465.307</ele>
        <time>2011-07-10T15:02:35Z</time>
      </trkpt>
      <trkpt lat="44.10845" lon="6.67906">
        <ele>2466.786</ele>
        <time>2011-07-10T15:02:44Z</time>
      </trkpt>
      <trkpt lat="44.10843" lon="6.67904">
        <ele>2466.984</ele>
        <time>2011-07-10T15:02:50Z</time>
      </trkpt>
      <trkpt lat="44.10835" lon="6.67897">
        <ele>2467.937</ele>
        <time>2011-07-10T15:02:58Z</time>
      </trkpt>
      <trkpt lat="44.10823" lon="6.67892">
        <ele>2468.437</ele>
        <time>2011-07-10T15:03:09Z</time>
      </trkpt>
      <trkpt lat="44.10819" lon="6.67888">
        <ele>2468.021</ele>
        <time>2011-07-10T15:03:16Z</time>
      </trkpt>
      <trkpt lat="44.10815" lon="6.67886">
        <ele>2465.325</ele>
        <time>2011-07-10T15:03:37Z</time>
      </trkpt>
      <trkpt lat="44.10801" lon="6.67877">
        <ele>2465.967</ele>
        <time>2011-07-10T15:03:45Z</time>
      </trkpt>
      <trkpt lat="44.10788" lon="6.67869">
        <ele>2466.456</ele>
        <time>2011-07-10T15:03:53Z</time>
      </trkpt>
      <trkpt lat="44.10773" lon="6.67861">
        <ele>2467.246</ele>
        <time>2011-07-10T15:04:02Z</time>
      </trkpt>
      <trkpt lat="44.10761" lon="6.67853">
        <ele>2468.376</ele>
        <time>2011-07-10T15:04:10Z</time>
      </trkpt>
      <trkpt lat="44.10758" lon="6.67849">
        <ele>2468.814</ele>
        <time>2011-07-10T15:04:16Z</time>
      </trkpt>
      <trkpt lat="44.1076" lon="6.67848">
        <ele>2471.223</ele>
        <time>2011-07-10T15:04:33Z</time>
      </trkpt>
      <trkpt lat="44.10755" lon="6.67842">
        <ele>2470.494</ele>
        <time>2011-07-10T15:18:28Z</time>
      </trkpt>
      <trkpt lat="44.10759" lon="6.67844">
        <ele>2468.093</ele>
        <time>2011-07-10T15:18:59Z</time>
      </trkpt>
      <trkpt lat="44.1076" lon="6.67845">
        <ele>2469.524</ele>
        <time>2011-07-10T15:19:09Z</time>
      </trkpt>
      <trkpt lat="44.10766" lon="6.67834">
        <ele>2470.102</ele>
        <time>2011-07-10T15:19:15Z</time>
      </trkpt>
      <trkpt lat="44.10777" lon="6.67822">
        <ele>2468.709</ele>
        <time>2011-07-10T15:19:20Z</time>
      </trkpt>
      <trkpt lat="44.10788" lon="6.67819">
        <ele>2467.92</ele>
        <time>2011-07-10T15:19:24Z</time>
      </trkpt>
      <trkpt lat="44.10797" lon="6.67816">
        <ele>2467.41</ele>
        <time>2011-07-10T15:19:29Z</time>
      </trkpt>
      <trkpt lat="44.10798" lon="6.67815">
        <ele>2466.181</ele>
        <time>2011-07-10T15:19:33Z</time>
      </trkpt>
      <trkpt lat="44.10805" lon="6.67811">
        <ele>2463.49</ele>
        <time>2011-07-10T15:19:40Z</time>
      </trkpt>
      <trkpt lat="44.10807" lon="6.67805">
        <ele>2461.201</ele>
        <time>2011-07-10T15:19:46Z</time>
      </trkpt>
      <trkpt lat="44.10809" lon="6.67803">
        <ele>2461.091</ele>
        <time>2011-07-10T15:19:48Z</time>
      </trkpt>
      <trkpt lat="44.10813" lon="6.67802">
        <ele>2461.223</ele>
        <time>2011-07-10T15:19:53Z</time>
      </trkpt>
      <trkpt lat="44.10815" lon="6.678">
        <ele>2462.114</ele>
        <time>2011-07-10T15:19:58Z</time>
      </trkpt>
      <trkpt lat="44.1082" lon="6.67795">
        <ele>2462.821</ele>
        <time>2011-07-10T15:20:05Z</time>
      </trkpt>
      <trkpt lat="44.10831" lon="6.67778">
        <ele>2460.639</ele>
        <time>2011-07-10T15:20:11Z</time>
      </trkpt>
      <trkpt lat="44.10842" lon="6.6776">
        <ele>2458.487</ele>
        <time>2011-07-10T15:20:17Z</time>
      </trkpt>
      <trkpt lat="44.10847" lon="6.67742">
        <ele>2455.705</ele>
        <time>2011-07-10T15:20:23Z</time>
      </trkpt>
      <trkpt lat="44.10848" lon="6.67733">
        <ele>2454.336</ele>
        <time>2011-07-10T15:20:26Z</time>
      </trkpt>
      <trkpt lat="44.10849" lon="6.67719">
        <ele>2452.127</ele>
        <time>2011-07-10T15:20:32Z</time>
      </trkpt>
      <trkpt lat="44.1085" lon="6.67709">
        <ele>2450.817</ele>
        <time>2011-07-10T15:20:35Z</time>
      </trkpt>
      <trkpt lat="44.10849" lon="6.67702">
        <ele>2449.675</ele>
        <time>2011-07-10T15:20:37Z</time>
      </trkpt>
      <trkpt lat="44.1085" lon="6.6769">
        <ele>2448.688</ele>
        <time>2011-07-10T15:20:41Z</time>
      </trkpt>
      <trkpt lat="44.10849" lon="6.67668">
        <ele>2443.983</ele>
        <time>2011-07-10T15:20:48Z</time>
      </trkpt>
      <trkpt lat="44.10849" lon="6.67651">
        <ele>2441.796</ele>
        <time>2011-07-10T15:20:54Z</time>
      </trkpt>
      <trkpt lat="44.10846" lon="6.67639">
        <ele>2439.327</ele>
        <time>2011-07-10T15:20:59Z</time>
      </trkpt>
      <trkpt lat="44.10846" lon="6.67635">
        <ele>2438.68</ele>
        <time>2011-07-10T15:21:04Z</time>
      </trkpt>
      <trkpt lat="44.10846" lon="6.67627">
        <ele>2439.032</ele>
        <time>2011-07-10T15:21:11Z</time>
      </trkpt>
      <trkpt lat="44.10846" lon="6.67625">
        <ele>2439.883</ele>
        <time>2011-07-10T15:21:17Z</time>
      </trkpt>
      <trkpt lat="44.10845" lon="6.67618">
        <ele>2439.349</ele>
        <time>2011-07-10T15:21:21Z</time>
      </trkpt>
      <trkpt lat="44.10845" lon="6.67604">
        <ele>2436.207</ele>
        <time>2011-07-10T15:21:26Z</time>
      </trkpt>
      <trkpt lat="44.10845" lon="6.67601">
        <ele>2435.591</ele>
        <time>2011-07-10T15:21:30Z</time>
      </trkpt>
      <trkpt lat="44.10844" lon="6.67599">
        <ele>2433.831</ele>
        <time>2011-07-10T15:21:38Z</time>
      </trkpt>
      <trkpt lat="44.10844" lon="6.67592">
        <ele>2433.122</ele>
        <time>2011-07-10T15:21:45Z</time>
      </trkpt>
      <trkpt lat="44.10843" lon="6.67582">
        <ele>2432.139</ele>
        <time>2011-07-10T15:21:57Z</time>
      </trkpt>
      <trkpt lat="44.10844" lon="6.67566">
        <ele>2430.428</ele>
        <time>2011-07-10T15:22:03Z</time>
      </trkpt>
      <trkpt lat="44.10842" lon="6.67561">
        <ele>2430.269</ele>
        <time>2011-07-10T15:22:09Z</time>
      </trkpt>
      <trkpt lat="44.10842" lon="6.67553">
        <ele>2429.16</ele>
        <time>2011-07-10T15:22:16Z</time>
      </trkpt>
      <trkpt lat="44.10842" lon="6.67546">
        <ele>2429.091</ele>
        <time>2011-07-10T15:22:22Z</time>
      </trkpt>
      <trkpt lat="44.10839" lon="6.67529">
        <ele>2426.727</ele>
        <time>2011-07-10T15:22:27Z</time>
      </trkpt>
      <trkpt lat="44.10838" lon="6.67515">
        <ele>2424.536</ele>
        <time>2011-07-10T15:22:31Z</time>
      </trkpt>
      <trkpt lat="44.10834" lon="6.675">
        <ele>2421.543</ele>
        <time>2011-07-10T15:22:35Z</time>
      </trkpt>
      <trkpt lat="44.10829" lon="6.67478">
        <ele>2417.674</ele>
        <time>2011-07-10T15:22:42Z</time>
      </trkpt>
      <trkpt lat="44.10826" lon="6.67469">
        <ele>2416.474</ele>
        <time>2011-07-10T15:22:45Z</time>
      </trkpt>
      <trkpt lat="44.10823" lon="6.67454">
        <ele>2414.596</ele>
        <time>2011-07-10T15:22:50Z</time>
      </trkpt>
      <trkpt lat="44.10814" lon="6.67433">
        <ele>2410.525</ele>
        <time>2011-07-10T15:22:57Z</time>
      </trkpt>
      <trkpt lat="44.10813" lon="6.67428">
        <ele>2409.117</ele>
        <time>2011-07-10T15:23:01Z</time>
      </trkpt>
      <trkpt lat="44.10812" lon="6.67427">
        <ele>2408.397</ele>
        <time>2011-07-10T15:23:04Z</time>
      </trkpt>
      <trkpt lat="44.10809" lon="6.67418">
        <ele>2406.5</ele>
        <time>2011-07-10T15:23:11Z</time>
      </trkpt>
      <trkpt lat="44.10808" lon="6.6742">
        <ele>2407.573</ele>
        <time>2011-07-10T15:23:19Z</time>
      </trkpt>
      <trkpt lat="44.10804" lon="6.67412">
        <ele>2407.52</ele>
        <time>2011-07-10T15:23:23Z</time>
      </trkpt>
      <trkpt lat="44.10799" lon="6.67394">
        <ele>2406.098</ele>
        <time>2011-07-10T15:23:28Z</time>
      </trkpt>
      <trkpt lat="44.10792" lon="6.6738">
        <ele>2402.344</ele>
        <time>2011-07-10T15:23:33Z</time>
      </trkpt>
      <trkpt lat="44.10791" lon="6.67368">
        <ele>2401.346</ele>
        <time>2011-07-10T15:23:36Z</time>
      </trkpt>
      <trkpt lat="44.10786" lon="6.67362">
        <ele>2401.287</ele>
        <time>2011-07-10T15:23:40Z</time>
      </trkpt>
      <trkpt lat="44.10776" lon="6.67344">
        <ele>2397.554</ele>
        <time>2011-07-10T15:23:47Z</time>
      </trkpt>
      <trkpt lat="44.10774" lon="6.67341">
        <ele>2396.016</ele>
        <time>2011-07-10T15:23:51Z</time>
      </trkpt>
      <trkpt lat="44.10774" lon="6.67338">
        <ele>2396.42</ele>
        <time>2011-07-10T15:23:55Z</time>
      </trkpt>
      <trkpt lat="44.10771" lon="6.67332">
        <ele>2396.148</ele>
        <time>2011-07-10T15:23:58Z</time>
      </trkpt>
      <trkpt lat="44.10764" lon="6.67316">
        <ele>2394.187</ele>
        <time>2011-07-10T15:24:04Z</time>
      </trkpt>
      <trkpt lat="44.10763" lon="6.67313">
        <ele>2393.496</ele>
        <time>2011-07-10T15:24:05Z</time>
      </trkpt>
      <trkpt lat="44.10757" lon="6.67291">
        <ele>2389.042</ele>
        <time>2011-07-10T15:24:11Z</time>
      </trkpt>
      <trkpt lat="44.10751" lon="6.6727">
        <ele>2385.162</ele>
        <time>2011-07-10T15:24:17Z</time>
      </trkpt>
      <trkpt lat="44.10745" lon="6.67251">
        <ele>2380.91</ele>
        <time>2011-07-10T15:24:23Z</time>
      </trkpt>
      <trkpt lat="44.1074" lon="6.67231">
        <ele>2377.09</ele>
        <time>2011-07-10T15:24:29Z</time>
      </trkpt>
      <trkpt lat="44.10733" lon="6.67214">
        <ele>2374.802</ele>
        <time>2011-07-10T15:24:34Z</time>
      </trkpt>
      <trkpt lat="44.10728" lon="6.67203">
        <ele>2374.067</ele>
        <time>2011-07-10T15:24:39Z</time>
      </trkpt>
      <trkpt lat="44.10725" lon="6.67194">
        <ele>2373.708</ele>
        <time>2011-07-10T15:24:48Z</time>
      </trkpt>
      <trkpt lat="44.10724" lon="6.67183">
        <ele>2372.507</ele>
        <time>2011-07-10T15:24:51Z</time>
      </trkpt>
      <trkpt lat="44.10716" lon="6.67167">
        <ele>2371.327</ele>
        <time>2011-07-10T15:24:56Z</time>
      </trkpt>
      <trkpt lat="44.10707" lon="6.67147">
        <ele>2368.795</ele>
        <time>2011-07-10T15:25:01Z</time>
      </trkpt>
      <trkpt lat="44.10698" lon="6.67133">
        <ele>2366.024</ele>
        <time>2011-07-10T15:25:06Z</time>
      </trkpt>
      <trkpt lat="44.10689" lon="6.67117">
        <ele>2362.392</ele>
        <time>2011-07-10T15:25:11Z</time>
      </trkpt>
      <trkpt lat="44.10685" lon="6.6711">
        <ele>2360.942</ele>
        <time>2011-07-10T15:25:13Z</time>
      </trkpt>
      <trkpt lat="44.10671" lon="6.67096">
        <ele>2355.842</ele>
        <time>2011-07-10T15:25:20Z</time>
      </trkpt>
      <trkpt lat="44.10664" lon="6.67085">
        <ele>2355.528</ele>
        <time>2011-07-10T15:25:25Z</time>
      </trkpt>
      <trkpt lat="44.10662" lon="6.67085">
        <ele>2355.05</ele>
        <time>2011-07-10T15:25:29Z</time>
      </trkpt>
      <trkpt lat="44.1066" lon="6.67085">
        <ele>2355.501</ele>
        <time>2011-07-10T15:25:34Z</time>
      </trkpt>
      <trkpt lat="44.10657" lon="6.6708">
        <ele>2354.842</ele>
        <time>2011-07-10T15:25:41Z</time>
      </trkpt>
      <trkpt lat="44.10657" lon="6.6708">
        <ele>2353.911</ele>
        <time>2011-07-10T15:25:47Z</time>
      </trkpt>
      <trkpt lat="44.10649" lon="6.67072">
        <ele>2352.708</ele>
        <time>2011-07-10T15:25:52Z</time>
      </trkpt>
      <trkpt lat="44.10634" lon="6.67051">
        <ele>2348.754</ele>
        <time>2011-07-10T15:25:59Z</time>
      </trkpt>
      <trkpt lat="44.10623" lon="6.67037">
        <ele>2345.493</ele>
        <time>2011-07-10T15:26:05Z</time>
      </trkpt>
      <trkpt lat="44.10619" lon="6.67032">
        <ele>2344.292</ele>
        <time>2011-07-10T15:26:09Z</time>
      </trkpt>
      <trkpt lat="44.10617" lon="6.67026">
        <ele>2342.158</ele>
        <time>2011-07-10T15:26:17Z</time>
      </trkpt>
      <trkpt lat="44.10615" lon="6.67021">
        <ele>2341.949</ele>
        <time>2011-07-10T15:26:23Z</time>
      </trkpt>
      <trkpt lat="44.10615" lon="6.6702">
        <ele>2342.751</ele>
        <time>2011-07-10T15:26:31Z</time>
      </trkpt>
      <trkpt lat="44.10614" lon="6.67021">
        <ele>2340.878</ele>
        <time>2011-07-10T15:26:36Z</time>
      </trkpt>
      <trkpt lat="44.10606" lon="6.67007">
        <ele>2337.926</ele>
        <time>2011-07-10T15:26:41Z</time>
      </trkpt>
      <trkpt lat="44.10599" lon="6.66992">
        <ele>2333.282</ele>
        <time>2011-07-10T15:26:46Z</time>
      </trkpt>
      <trkpt lat="44.10599" lon="6.6699">
        <ele>2332.988</ele>
        <time>2011-07-10T15:26:50Z</time>
      </trkpt>
      <trkpt lat="44.10601" lon="6.6698">
        <ele>2331.333</ele>
        <time>2011-07-10T15:27:21Z</time>
      </trkpt>
      <trkpt lat="44.10597" lon="6.66965">
        <ele>2331.539</ele>
        <time>2011-07-10T15:27:28Z</time>
      </trkpt>
      <trkpt lat="44.10598" lon="6.66953">
        <ele>2328.764</ele>
        <time>2011-07-10T15:27:33Z</time>
      </trkpt>
      <trkpt lat="44.10598" lon="6.66937">
        <ele>2326.424</ele>
        <time>2011-07-10T15:27:39Z</time>
      </trkpt>
      <trkpt lat="44.10599" lon="6.66934">
        <ele>2326.205</ele>
        <time>2011-07-10T15:27:40Z</time>
      </trkpt>
      <trkpt lat="44.10598" lon="6.66926">
        <ele>2325.638</ele>
        <time>2011-07-10T15:27:45Z</time>
      </trkpt>
      <trkpt lat="44.10597" lon="6.66917">
        <ele>2323.297</ele>
        <time>2011-07-10T15:27:55Z</time>
      </trkpt>
      <trkpt lat="44.10594" lon="6.66899">
        <ele>2320.707</ele>
        <time>2011-07-10T15:28:01Z</time>
      </trkpt>
      <trkpt lat="44.10594" lon="6.66892">
        <ele>2319.85</ele>
        <time>2011-07-10T15:28:06Z</time>
      </trkpt>
      <trkpt lat="44.10595" lon="6.6689">
        <ele>2320.001</ele>
        <time>2011-07-10T15:28:26Z</time>
      </trkpt>
      <trkpt lat="44.106" lon="6.66875">
        <ele>2318.738</ele>
        <time>2011-07-10T15:28:32Z</time>
      </trkpt>
      <trkpt lat="44.10601" lon="6.66875">
        <ele>2319.092</ele>
        <time>2011-07-10T15:28:41Z</time>
      </trkpt>
      <trkpt lat="44.10601" lon="6.66876">
        <ele>2320.493</ele>
        <time>2011-07-10T15:28:43Z</time>
      </trkpt>
      <trkpt lat="44.10599" lon="6.6687">
        <ele>2323.344</ele>
        <time>2011-07-10T15:28:48Z</time>
      </trkpt>
      <trkpt lat="44.10597" lon="6.66859">
        <ele>2322.34</ele>
        <time>2011-07-10T15:28:56Z</time>
      </trkpt>
      <trkpt lat="44.10595" lon="6.66855">
        <ele>2322.301</ele>
        <time>2011-07-10T15:29:02Z</time>
      </trkpt>
      <trkpt lat="44.1059" lon="6.6685">
        <ele>2322.561</ele>
        <time>2011-07-10T15:29:08Z</time>
      </trkpt>
      <trkpt lat="44.10577" lon="6.66839">
        <ele>2320.628</ele>
        <time>2011-07-10T15:29:14Z</time>
      </trkpt>
      <trkpt lat="44.10571" lon="6.66825">
        <ele>2319.447</ele>
        <time>2011-07-10T15:29:19Z</time>
      </trkpt>
      <trkpt lat="44.10557" lon="6.66809">
        <ele>2318.406</ele>
        <time>2011-07-10T15:29:23Z</time>
      </trkpt>
      <trkpt lat="44.10552" lon="6.66805">
        <ele>2317.744</ele>
        <time>2011-07-10T15:29:24Z</time>
      </trkpt>
      <trkpt lat="44.10527" lon="6.66786">
        <ele>2313.813</ele>
        <time>2011-07-10T15:29:29Z</time>
      </trkpt>
      <trkpt lat="44.10524" lon="6.66783">
        <ele>2313.176</ele>
        <time>2011-07-10T15:29:32Z</time>
      </trkpt>
      <trkpt lat="44.10524" lon="6.6678">
        <ele>2315.21</ele>
        <time>2011-07-10T15:29:48Z</time>
      </trkpt>
      <trkpt lat="44.10524" lon="6.66784">
        <ele>2310.14</ele>
        <time>2011-07-10T15:30:49Z</time>
      </trkpt>
      <trkpt lat="44.10526" lon="6.66782">
        <ele>2309.472</ele>
        <time>2011-07-10T15:34:19Z</time>
      </trkpt>
      <trkpt lat="44.10522" lon="6.66766">
        <ele>2307.071</ele>
        <time>2011-07-10T15:34:24Z</time>
      </trkpt>
      <trkpt lat="44.10513" lon="6.66734">
        <ele>2301.253</ele>
        <time>2011-07-10T15:34:29Z</time>
      </trkpt>
      <trkpt lat="44.10498" lon="6.66688">
        <ele>2296.369</ele>
        <time>2011-07-10T15:34:35Z</time>
      </trkpt>
      <trkpt lat="44.10496" lon="6.66682">
        <ele>2295.729</ele>
        <time>2011-07-10T15:34:36Z</time>
      </trkpt>
      <trkpt lat="44.10492" lon="6.66644">
        <ele>2294.235</ele>
        <time>2011-07-10T15:34:43Z</time>
      </trkpt>
      <trkpt lat="44.10491" lon="6.66626">
        <ele>2294.238</ele>
        <time>2011-07-10T15:34:46Z</time>
      </trkpt>
      <trkpt lat="44.10493" lon="6.66596">
        <ele>2295.219</ele>
        <time>2011-07-10T15:34:52Z</time>
      </trkpt>
      <trkpt lat="44.10498" lon="6.66572">
        <ele>2296.753</ele>
        <time>2011-07-10T15:34:57Z</time>
      </trkpt>
      <trkpt lat="44.10508" lon="6.66548">
        <ele>2297.651</ele>
        <time>2011-07-10T15:35:03Z</time>
      </trkpt>
      <trkpt lat="44.10512" lon="6.66524">
        <ele>2297.92</ele>
        <time>2011-07-10T15:35:09Z</time>
      </trkpt>
      <trkpt lat="44.10511" lon="6.66511">
        <ele>2297.979</ele>
        <time>2011-07-10T15:35:13Z</time>
      </trkpt>
      <trkpt lat="44.10496" lon="6.665">
        <ele>2296.516</ele>
        <time>2011-07-10T15:35:19Z</time>
      </trkpt>
      <trkpt lat="44.10484" lon="6.6649">
        <ele>2293.409</ele>
        <time>2011-07-10T15:35:25Z</time>
      </trkpt>
      <trkpt lat="44.10484" lon="6.6649">
        <ele>2293.086</ele>
        <time>2011-07-10T15:35:29Z</time>
      </trkpt>
      <trkpt lat="44.10479" lon="6.66486">
        <ele>2289.732</ele>
        <time>2011-07-10T15:35:41Z</time>
      </trkpt>
      <trkpt lat="44.10468" lon="6.6648">
        <ele>2287.434</ele>
        <time>2011-07-10T15:35:44Z</time>
      </trkpt>
      <trkpt lat="44.1046" lon="6.66476">
        <ele>2285.619</ele>
        <time>2011-07-10T15:35:46Z</time>
      </trkpt>
      <trkpt lat="44.10443" lon="6.66466">
        <ele>2281.859</ele>
        <time>2011-07-10T15:35:50Z</time>
      </trkpt>
      <trkpt lat="44.10428" lon="6.66457">
        <ele>2278.037</ele>
        <time>2011-07-10T15:35:53Z</time>
      </trkpt>
      <trkpt lat="44.10411" lon="6.66442">
        <ele>2273.507</ele>
        <time>2011-07-10T15:35:57Z</time>
      </trkpt>
      <trkpt lat="44.10396" lon="6.66439">
        <ele>2270.392</ele>
        <time>2011-07-10T15:36:01Z</time>
      </trkpt>
      <trkpt lat="44.10384" lon="6.66451">
        <ele>2268.411</ele>
        <time>2011-07-10T15:36:05Z</time>
      </trkpt>
      <trkpt lat="44.10378" lon="6.66442">
        <ele>2265.378</ele>
        <time>2011-07-10T15:36:09Z</time>
      </trkpt>
      <trkpt lat="44.10375" lon="6.664">
        <ele>2260.216</ele>
        <time>2011-07-10T15:36:14Z</time>
      </trkpt>
      <trkpt lat="44.10374" lon="6.66391">
        <ele>2259.267</ele>
        <time>2011-07-10T15:36:15Z</time>
      </trkpt>
      <trkpt lat="44.1036" lon="6.66356">
        <ele>2255.053</ele>
        <time>2011-07-10T15:36:19Z</time>
      </trkpt>
      <trkpt lat="44.10333" lon="6.66302">
        <ele>2249.17</ele>
        <time>2011-07-10T15:36:25Z</time>
      </trkpt>
      <trkpt lat="44.10325" lon="6.66284">
        <ele>2247.062</ele>
        <time>2011-07-10T15:36:27Z</time>
      </trkpt>
      <trkpt lat="44.10311" lon="6.66225">
        <ele>2239.53</ele>
        <time>2011-07-10T15:36:33Z</time>
      </trkpt>
      <trkpt lat="44.1032" lon="6.66199">
        <ele>2236.406</ele>
        <time>2011-07-10T15:36:37Z</time>
      </trkpt>
      <trkpt lat="44.10333" lon="6.66186">
        <ele>2233.47</ele>
        <time>2011-07-10T15:36:40Z</time>
      </trkpt>
      <trkpt lat="44.10345" lon="6.66181">
        <ele>2231.771</ele>
        <time>2011-07-10T15:36:42Z</time>
      </trkpt>
      <trkpt lat="44.10375" lon="6.66175">
        <ele>2225.949</ele>
        <time>2011-07-10T15:36:47Z</time>
      </trkpt>
      <trkpt lat="44.104" lon="6.66179">
        <ele>2220.083</ele>
        <time>2011-07-10T15:36:53Z</time>
      </trkpt>
      <trkpt lat="44.10407" lon="6.66182">
        <ele>2218.325</ele>
        <time>2011-07-10T15:36:55Z</time>
      </trkpt>
      <trkpt lat="44.10433" lon="6.66194">
        <ele>2214.874</ele>
        <time>2011-07-10T15:37:01Z</time>
      </trkpt>
      <trkpt lat="44.10437" lon="6.66196">
        <ele>2214.04</ele>
        <time>2011-07-10T15:37:02Z</time>
      </trkpt>
      <trkpt lat="44.10459" lon="6.6621">
        <ele>2210.278</ele>
        <time>2011-07-10T15:37:08Z</time>
      </trkpt>
      <trkpt lat="44.10479" lon="6.66228">
        <ele>2206.32</ele>
        <time>2011-07-10T15:37:14Z</time>
      </trkpt>
      <trkpt lat="44.10482" lon="6.6623">
        <ele>2205.789</ele>
        <time>2011-07-10T15:37:15Z</time>
      </trkpt>
      <trkpt lat="44.10494" lon="6.66245">
        <ele>2206.872</ele>
        <time>2011-07-10T15:37:21Z</time>
      </trkpt>
      <trkpt lat="44.10508" lon="6.6626">
        <ele>2208.261</ele>
        <time>2011-07-10T15:37:26Z</time>
      </trkpt>
      <trkpt lat="44.10521" lon="6.66274">
        <ele>2209.586</ele>
        <time>2011-07-10T15:37:31Z</time>
      </trkpt>
      <trkpt lat="44.10532" lon="6.66288">
        <ele>2208.33</ele>
        <time>2011-07-10T15:37:35Z</time>
      </trkpt>
      <trkpt lat="44.10552" lon="6.66305">
        <ele>2202.547</ele>
        <time>2011-07-10T15:37:41Z</time>
      </trkpt>
      <trkpt lat="44.10571" lon="6.66319">
        <ele>2195.59</ele>
        <time>2011-07-10T15:37:47Z</time>
      </trkpt>
      <trkpt lat="44.10591" lon="6.66329">
        <ele>2189.42</ele>
        <time>2011-07-10T15:37:53Z</time>
      </trkpt>
      <trkpt lat="44.1061" lon="6.66339">
        <ele>2185.671</ele>
        <time>2011-07-10T15:37:58Z</time>
      </trkpt>
      <trkpt lat="44.10629" lon="6.6635">
        <ele>2182.491</ele>
        <time>2011-07-10T15:38:04Z</time>
      </trkpt>
      <trkpt lat="44.10628" lon="6.66352">
        <ele>2182.101</ele>
        <time>2011-07-10T15:38:07Z</time>
      </trkpt>
      <trkpt lat="44.10635" lon="6.66355">
        <ele>2180.779</ele>
        <time>2011-07-10T15:38:11Z</time>
      </trkpt>
      <trkpt lat="44.10657" lon="6.66366">
        <ele>2181.584</ele>
        <time>2011-07-10T15:38:16Z</time>
      </trkpt>
      <trkpt lat="44.10669" lon="6.66372">
        <ele>2179.414</ele>
        <time>2011-07-10T15:38:21Z</time>
      </trkpt>
      <trkpt lat="44.10668" lon="6.66373">
        <ele>2176.903</ele>
        <time>2011-07-10T15:38:28Z</time>
      </trkpt>
      <trkpt lat="44.10665" lon="6.66361">
        <ele>2176.036</ele>
        <time>2011-07-10T15:38:32Z</time>
      </trkpt>
      <trkpt lat="44.10651" lon="6.6633">
        <ele>2173.983</ele>
        <time>2011-07-10T15:38:37Z</time>
      </trkpt>
      <trkpt lat="44.10647" lon="6.66323">
        <ele>2173.052</ele>
        <time>2011-07-10T15:38:38Z</time>
      </trkpt>
      <trkpt lat="44.10639" lon="6.66304">
        <ele>2176.548</ele>
        <time>2011-07-10T15:38:41Z</time>
      </trkpt>
      <trkpt lat="44.10616" lon="6.66278">
        <ele>2171.065</ele>
        <time>2011-07-10T15:38:46Z</time>
      </trkpt>
      <trkpt lat="44.10608" lon="6.66264">
        <ele>2167.604</ele>
        <time>2011-07-10T15:38:48Z</time>
      </trkpt>
      <trkpt lat="44.10598" lon="6.66247">
        <ele>2164.13</ele>
        <time>2011-07-10T15:38:50Z</time>
      </trkpt>
      <trkpt lat="44.10579" lon="6.66225">
        <ele>2159.974</ele>
        <time>2011-07-10T15:38:54Z</time>
      </trkpt>
      <trkpt lat="44.10578" lon="6.66206">
        <ele>2154.386</ele>
        <time>2011-07-10T15:38:57Z</time>
      </trkpt>
      <trkpt lat="44.1057" lon="6.66184">
        <ele>2147.681</ele>
        <time>2011-07-10T15:39:00Z</time>
      </trkpt>
      <trkpt lat="44.10561" lon="6.66166">
        <ele>2143.177</ele>
        <time>2011-07-10T15:39:02Z</time>
      </trkpt>
      <trkpt lat="44.10542" lon="6.6613">
        <ele>2133.439</ele>
        <time>2011-07-10T15:39:07Z</time>
      </trkpt>
      <trkpt lat="44.10526" lon="6.66105">
        <ele>2127.183</ele>
        <time>2011-07-10T15:39:12Z</time>
      </trkpt>
      <trkpt lat="44.10522" lon="6.66089">
        <ele>2123.404</ele>
        <time>2011-07-10T15:39:15Z</time>
      </trkpt>
      <trkpt lat="44.10523" lon="6.66061">
        <ele>2119.349</ele>
        <time>2011-07-10T15:39:20Z</time>
      </trkpt>
      <trkpt lat="44.10524" lon="6.66024">
        <ele>2113.459</ele>
        <time>2011-07-10T15:39:26Z</time>
      </trkpt>
      <trkpt lat="44.1052" lon="6.66011">
        <ele>2112.915</ele>
        <time>2011-07-10T15:39:30Z</time>
      </trkpt>
      <trkpt lat="44.10517" lon="6.66006">
        <ele>2113.085</ele>
        <time>2011-07-10T15:39:34Z</time>
      </trkpt>
      <trkpt lat="44.1051" lon="6.65999">
        <ele>2116.091</ele>
        <time>2011-07-10T15:40:26Z</time>
      </trkpt>
      <trkpt lat="44.1051" lon="6.65996">
        <ele>2115.359</ele>
        <time>2011-07-10T15:40:27Z</time>
      </trkpt>
      <trkpt lat="44.10516" lon="6.65981">
        <ele>2113.471</ele>
        <time>2011-07-10T15:40:31Z</time>
      </trkpt>
      <trkpt lat="44.10513" lon="6.65968">
        <ele>2111.3</ele>
        <time>2011-07-10T15:40:34Z</time>
      </trkpt>
      <trkpt lat="44.10507" lon="6.65929">
        <ele>2105.5</ele>
        <time>2011-07-10T15:40:41Z</time>
      </trkpt>
      <trkpt lat="44.10505" lon="6.65917">
        <ele>2104.24</ele>
        <time>2011-07-10T15:40:46Z</time>
      </trkpt>
      <trkpt lat="44.10504" lon="6.65914">
        <ele>2107.672</ele>
        <time>2011-07-10T15:40:59Z</time>
      </trkpt>
      <trkpt lat="44.10499" lon="6.65906">
        <ele>2107.87</ele>
        <time>2011-07-10T15:41:05Z</time>
      </trkpt>
      <trkpt lat="44.10488" lon="6.65893">
        <ele>2105.496</ele>
        <time>2011-07-10T15:41:09Z</time>
      </trkpt>
      <trkpt lat="44.10472" lon="6.65875">
        <ele>2097.813</ele>
        <time>2011-07-10T15:41:15Z</time>
      </trkpt>
      <trkpt lat="44.10469" lon="6.65871">
        <ele>2096.282</ele>
        <time>2011-07-10T15:41:16Z</time>
      </trkpt>
      <trkpt lat="44.10451" lon="6.65856">
        <ele>2089.154</ele>
        <time>2011-07-10T15:41:21Z</time>
      </trkpt>
      <trkpt lat="44.10438" lon="6.65843">
        <ele>2082.668</ele>
        <time>2011-07-10T15:41:25Z</time>
      </trkpt>
      <trkpt lat="44.10429" lon="6.65835">
        <ele>2079.43</ele>
        <time>2011-07-10T15:41:27Z</time>
      </trkpt>
      <trkpt lat="44.10412" lon="6.65823">
        <ele>2075.573</ele>
        <time>2011-07-10T15:41:32Z</time>
      </trkpt>
      <trkpt lat="44.10404" lon="6.65814">
        <ele>2073.577</ele>
        <time>2011-07-10T15:41:36Z</time>
      </trkpt>
      <trkpt lat="44.10395" lon="6.65805">
        <ele>2071.242</ele>
        <time>2011-07-10T15:41:38Z</time>
      </trkpt>
      <trkpt lat="44.10371" lon="6.65783">
        <ele>2074.376</ele>
        <time>2011-07-10T15:41:43Z</time>
      </trkpt>
      <trkpt lat="44.10363" lon="6.65772">
        <ele>2075.985</ele>
        <time>2011-07-10T15:41:45Z</time>
      </trkpt>
      <trkpt lat="44.10343" lon="6.65744">
        <ele>2075.846</ele>
        <time>2011-07-10T15:41:51Z</time>
      </trkpt>
      <trkpt lat="44.10328" lon="6.65722">
        <ele>2072.266</ele>
        <time>2011-07-10T15:41:56Z</time>
      </trkpt>
      <trkpt lat="44.10313" lon="6.65702">
        <ele>2067.685</ele>
        <time>2011-07-10T15:42:00Z</time>
      </trkpt>
      <trkpt lat="44.10303" lon="6.65687">
        <ele>2065.939</ele>
        <time>2011-07-10T15:42:04Z</time>
      </trkpt>
      <trkpt lat="44.103" lon="6.65681">
        <ele>2066.451</ele>
        <time>2011-07-10T15:42:05Z</time>
      </trkpt>
      <trkpt lat="44.10276" lon="6.65657">
        <ele>2064.834</ele>
        <time>2011-07-10T15:42:10Z</time>
      </trkpt>
      <trkpt lat="44.10257" lon="6.65633">
        <ele>2063.425</ele>
        <time>2011-07-10T15:42:15Z</time>
      </trkpt>
      <trkpt lat="44.10239" lon="6.65604">
        <ele>2062.85</ele>
        <time>2011-07-10T15:42:20Z</time>
      </trkpt>
      <trkpt lat="44.10214" lon="6.6558">
        <ele>2053.819</ele>
        <time>2011-07-10T15:42:25Z</time>
      </trkpt>
      <trkpt lat="44.10208" lon="6.65576">
        <ele>2052.232</ele>
        <time>2011-07-10T15:42:26Z</time>
      </trkpt>
      <trkpt lat="44.10197" lon="6.65566">
        <ele>2052.355</ele>
        <time>2011-07-10T15:42:28Z</time>
      </trkpt>
      <trkpt lat="44.10184" lon="6.65552">
        <ele>2052.046</ele>
        <time>2011-07-10T15:42:31Z</time>
      </trkpt>
      <trkpt lat="44.10172" lon="6.6554">
        <ele>2051.107</ele>
        <time>2011-07-10T15:42:33Z</time>
      </trkpt>
      <trkpt lat="44.10152" lon="6.65518">
        <ele>2051.678</ele>
        <time>2011-07-10T15:42:37Z</time>
      </trkpt>
      <trkpt lat="44.10131" lon="6.6549">
        <ele>2048.228</ele>
        <time>2011-07-10T15:42:42Z</time>
      </trkpt>
      <trkpt lat="44.10121" lon="6.65477">
        <ele>2046.601</ele>
        <time>2011-07-10T15:42:44Z</time>
      </trkpt>
      <trkpt lat="44.10086" lon="6.6544">
        <ele>2045.33</ele>
        <time>2011-07-10T15:42:50Z</time>
      </trkpt>
      <trkpt lat="44.1007" lon="6.65424">
        <ele>2038.954</ele>
        <time>2011-07-10T15:42:54Z</time>
      </trkpt>
      <trkpt lat="44.10042" lon="6.65407">
        <ele>2028.737</ele>
        <time>2011-07-10T15:42:59Z</time>
      </trkpt>
      <trkpt lat="44.10027" lon="6.65397">
        <ele>2025.668</ele>
        <time>2011-07-10T15:43:02Z</time>
      </trkpt>
      <trkpt lat="44.10005" lon="6.65385">
        <ele>2023.688</ele>
        <time>2011-07-10T15:43:08Z</time>
      </trkpt>
      <trkpt lat="44.09996" lon="6.65385">
        <ele>2022.098</ele>
        <time>2011-07-10T15:43:10Z</time>
      </trkpt>
      <trkpt lat="44.09983" lon="6.65408">
        <ele>2021.43</ele>
        <time>2011-07-10T15:43:15Z</time>
      </trkpt>
      <trkpt lat="44.09982" lon="6.65414">
        <ele>2021.006</ele>
        <time>2011-07-10T15:43:16Z</time>
      </trkpt>
      <trkpt lat="44.09981" lon="6.65427">
        <ele>2021.204</ele>
        <time>2011-07-10T15:43:18Z</time>
      </trkpt>
      <trkpt lat="44.09975" lon="6.65474">
        <ele>2020.085</ele>
        <time>2011-07-10T15:43:25Z</time>
      </trkpt>
      <trkpt lat="44.09974" lon="6.65499">
        <ele>2018.218</ele>
        <time>2011-07-10T15:43:29Z</time>
      </trkpt>
      <trkpt lat="44.0997" lon="6.65514">
        <ele>2018.684</ele>
        <time>2011-07-10T15:43:31Z</time>
      </trkpt>
      <trkpt lat="44.09967" lon="6.65538">
        <ele>2018.152</ele>
        <time>2011-07-10T15:43:34Z</time>
      </trkpt>
      <trkpt lat="44.09963" lon="6.65562">
        <ele>2016.182</ele>
        <time>2011-07-10T15:43:37Z</time>
      </trkpt>
      <trkpt lat="44.09955" lon="6.65599">
        <ele>2013.601</ele>
        <time>2011-07-10T15:43:42Z</time>
      </trkpt>
      <trkpt lat="44.09944" lon="6.65628">
        <ele>2014.174</ele>
        <time>2011-07-10T15:43:48Z</time>
      </trkpt>
      <trkpt lat="44.09938" lon="6.65647">
        <ele>2014.28</ele>
        <time>2011-07-10T15:43:51Z</time>
      </trkpt>
      <trkpt lat="44.09924" lon="6.65686">
        <ele>2013.318</ele>
        <time>2011-07-10T15:43:56Z</time>
      </trkpt>
      <trkpt lat="44.09909" lon="6.65715">
        <ele>2011.595</ele>
        <time>2011-07-10T15:44:00Z</time>
      </trkpt>
      <trkpt lat="44.09895" lon="6.65743">
        <ele>2010.114</ele>
        <time>2011-07-10T15:44:05Z</time>
      </trkpt>
      <trkpt lat="44.09893" lon="6.65747">
        <ele>2010.256</ele>
        <time>2011-07-10T15:44:08Z</time>
      </trkpt>
      <trkpt lat="44.09892" lon="6.65748">
        <ele>2009.769</ele>
        <time>2011-07-10T15:44:09Z</time>
      </trkpt>
      <trkpt lat="44.09886" lon="6.65766">
        <ele>2004.321</ele>
        <time>2011-07-10T15:44:14Z</time>
      </trkpt>
      <trkpt lat="44.09877" lon="6.65787">
        <ele>2000.89</ele>
        <time>2011-07-10T15:44:19Z</time>
      </trkpt>
      <trkpt lat="44.09876" lon="6.65788">
        <ele>2001.223</ele>
        <time>2011-07-10T15:44:20Z</time>
      </trkpt>
      <trkpt lat="44.0987" lon="6.65807">
        <ele>2002.566</ele>
        <time>2011-07-10T15:44:25Z</time>
      </trkpt>
      <trkpt lat="44.09862" lon="6.65837">
        <ele>2003.099</ele>
        <time>2011-07-10T15:44:30Z</time>
      </trkpt>
      <trkpt lat="44.09848" lon="6.65844">
        <ele>2001.547</ele>
        <time>2011-07-10T15:44:34Z</time>
      </trkpt>
      <trkpt lat="44.09842" lon="6.65862">
        <ele>2000.556</ele>
        <time>2011-07-10T15:44:40Z</time>
      </trkpt>
      <trkpt lat="44.09848" lon="6.65885">
        <ele>1999.325</ele>
        <time>2011-07-10T15:44:44Z</time>
      </trkpt>
      <trkpt lat="44.09846" lon="6.65899">
        <ele>1995.208</ele>
        <time>2011-07-10T15:44:47Z</time>
      </trkpt>
      <trkpt lat="44.09849" lon="6.65907">
        <ele>1992.003</ele>
        <time>2011-07-10T15:44:49Z</time>
      </trkpt>
      <trkpt lat="44.09857" lon="6.65925">
        <ele>1989.959</ele>
        <time>2011-07-10T15:44:55Z</time>
      </trkpt>
      <trkpt lat="44.09857" lon="6.65932">
        <ele>1988.995</ele>
        <time>2011-07-10T15:44:58Z</time>
      </trkpt>
      <trkpt lat="44.09855" lon="6.65936">
        <ele>1983.736</ele>
        <time>2011-07-10T15:45:02Z</time>
      </trkpt>
      <trkpt lat="44.09844" lon="6.65942">
        <ele>1980.136</ele>
        <time>2011-07-10T15:45:10Z</time>
      </trkpt>
      <trkpt lat="44.09838" lon="6.65942">
        <ele>1980.142</ele>
        <time>2011-07-10T15:45:15Z</time>
      </trkpt>
      <trkpt lat="44.09831" lon="6.65936">
        <ele>1982.322</ele>
        <time>2011-07-10T15:45:23Z</time>
      </trkpt>
      <trkpt lat="44.09825" lon="6.65933">
        <ele>1983.351</ele>
        <time>2011-07-10T15:45:31Z</time>
      </trkpt>
      <trkpt lat="44.09818" lon="6.65929">
        <ele>1985.054</ele>
        <time>2011-07-10T15:45:39Z</time>
      </trkpt>
      <trkpt lat="44.09812" lon="6.65922">
        <ele>1987.833</ele>
        <time>2011-07-10T15:45:47Z</time>
      </trkpt>
      <trkpt lat="44.09805" lon="6.65918">
        <ele>1989.333</ele>
        <time>2011-07-10T15:45:54Z</time>
      </trkpt>
      <trkpt lat="44.09804" lon="6.65919">
        <ele>1989.36</ele>
        <time>2011-07-10T15:45:55Z</time>
      </trkpt>
      <trkpt lat="44.09801" lon="6.65925">
        <ele>1989.621</ele>
        <time>2011-07-10T15:46:01Z</time>
      </trkpt>
      <trkpt lat="44.09799" lon="6.65929">
        <ele>1989.27</ele>
        <time>2011-07-10T15:46:08Z</time>
      </trkpt>
      <trkpt lat="44.09796" lon="6.65933">
        <ele>1988.818</ele>
        <time>2011-07-10T15:46:16Z</time>
      </trkpt>
      <trkpt lat="44.09792" lon="6.65942">
        <ele>1988.638</ele>
        <time>2011-07-10T15:46:24Z</time>
      </trkpt>
      <trkpt lat="44.09784" lon="6.65961">
        <ele>1988.052</ele>
        <time>2011-07-10T15:46:30Z</time>
      </trkpt>
      <trkpt lat="44.09775" lon="6.65982">
        <ele>1987.052</ele>
        <time>2011-07-10T15:46:36Z</time>
      </trkpt>
      <trkpt lat="44.09763" lon="6.65996">
        <ele>1986.17</ele>
        <time>2011-07-10T15:46:43Z</time>
      </trkpt>
      <trkpt lat="44.09756" lon="6.66008">
        <ele>1985.349</ele>
        <time>2011-07-10T15:46:49Z</time>
      </trkpt>
      <trkpt lat="44.09749" lon="6.66025">
        <ele>1981.427</ele>
        <time>2011-07-10T15:46:54Z</time>
      </trkpt>
      <trkpt lat="44.09747" lon="6.66028">
        <ele>1980.829</ele>
        <time>2011-07-10T15:46:55Z</time>
      </trkpt>
      <trkpt lat="44.09744" lon="6.66039">
        <ele>1978.905</ele>
        <time>2011-07-10T15:47:01Z</time>
      </trkpt>
      <trkpt lat="44.09743" lon="6.66042">
        <ele>1979.117</ele>
        <time>2011-07-10T15:47:05Z</time>
      </trkpt>
      <trkpt lat="44.09742" lon="6.66041">
        <ele>1979.088</ele>
        <time>2011-07-10T15:47:11Z</time>
      </trkpt>
      <trkpt lat="44.0974" lon="6.66036">
        <ele>1982.851</ele>
        <time>2011-07-10T15:47:25Z</time>
      </trkpt>
      <trkpt lat="44.09735" lon="6.66032">
        <ele>1985.352</ele>
        <time>2011-07-10T15:47:32Z</time>
      </trkpt>
      <trkpt lat="44.09734" lon="6.66031">
        <ele>1985.575</ele>
        <time>2011-07-10T15:47:34Z</time>
      </trkpt>
      <trkpt lat="44.09729" lon="6.66027">
        <ele>1986.927</ele>
        <time>2011-07-10T15:47:39Z</time>
      </trkpt>
      <trkpt lat="44.09716" lon="6.66021">
        <ele>1988.231</ele>
        <time>2011-07-10T15:47:49Z</time>
      </trkpt>
      <trkpt lat="44.09707" lon="6.66013">
        <ele>1989.044</ele>
        <time>2011-07-10T15:47:59Z</time>
      </trkpt>
      <trkpt lat="44.09699" lon="6.66006">
        <ele>1989.724</ele>
        <time>2011-07-10T15:48:08Z</time>
      </trkpt>
      <trkpt lat="44.09693" lon="6.65997">
        <ele>1991.708</ele>
        <time>2011-07-10T15:48:18Z</time>
      </trkpt>
      <trkpt lat="44.09688" lon="6.65988">
        <ele>1993.356</ele>
        <time>2011-07-10T15:48:27Z</time>
      </trkpt>
      <trkpt lat="44.09683" lon="6.65977">
        <ele>1994.636</ele>
        <time>2011-07-10T15:48:37Z</time>
      </trkpt>
      <trkpt lat="44.09677" lon="6.65968">
        <ele>1996.346</ele>
        <time>2011-07-10T15:48:47Z</time>
      </trkpt>
      <trkpt lat="44.09671" lon="6.65959">
        <ele>1998.638</ele>
        <time>2011-07-10T15:48:58Z</time>
      </trkpt>
      <trkpt lat="44.09667" lon="6.6595">
        <ele>2000.587</ele>
        <time>2011-07-10T15:49:08Z</time>
      </trkpt>
      <trkpt lat="44.09664" lon="6.65942">
        <ele>2002.331</ele>
        <time>2011-07-10T15:49:16Z</time>
      </trkpt>
      <trkpt lat="44.09659" lon="6.65934">
        <ele>2004.167</ele>
        <time>2011-07-10T15:49:26Z</time>
      </trkpt>
      <trkpt lat="44.09653" lon="6.65924">
        <ele>2006.601</ele>
        <time>2011-07-10T15:49:38Z</time>
      </trkpt>
      <trkpt lat="44.09649" lon="6.65919">
        <ele>2008.082</ele>
        <time>2011-07-10T15:49:46Z</time>
      </trkpt>
      <trkpt lat="44.09646" lon="6.65912">
        <ele>2009.245</ele>
        <time>2011-07-10T15:49:54Z</time>
      </trkpt>
      <trkpt lat="44.09645" lon="6.6591">
        <ele>2009.474</ele>
        <time>2011-07-10T15:49:56Z</time>
      </trkpt>
      <trkpt lat="44.09643" lon="6.65895">
        <ele>2010.522</ele>
        <time>2011-07-10T15:50:06Z</time>
      </trkpt>
      <trkpt lat="44.09643" lon="6.6589">
        <ele>2010.635</ele>
        <time>2011-07-10T15:50:09Z</time>
      </trkpt>
      <trkpt lat="44.0964" lon="6.65879">
        <ele>2011.851</ele>
        <time>2011-07-10T15:50:17Z</time>
      </trkpt>
      <trkpt lat="44.09637" lon="6.65871">
        <ele>2013.411</ele>
        <time>2011-07-10T15:50:25Z</time>
      </trkpt>
      <trkpt lat="44.09633" lon="6.6587">
        <ele>2014.831</ele>
        <time>2011-07-10T15:50:31Z</time>
      </trkpt>
      <trkpt lat="44.09632" lon="6.65869">
        <ele>2014.97</ele>
        <time>2011-07-10T15:50:32Z</time>
      </trkpt>
      <trkpt lat="44.09628" lon="6.65863">
        <ele>2016.407</ele>
        <time>2011-07-10T15:50:40Z</time>
      </trkpt>
      <trkpt lat="44.09627" lon="6.65859">
        <ele>2017.01</ele>
        <time>2011-07-10T15:50:44Z</time>
      </trkpt>
      <trkpt lat="44.09624" lon="6.65856">
        <ele>2017.63</ele>
        <time>2011-07-10T15:50:48Z</time>
      </trkpt>
      <trkpt lat="44.0962" lon="6.65852">
        <ele>2019.038</ele>
        <time>2011-07-10T15:50:55Z</time>
      </trkpt>
      <trkpt lat="44.09616" lon="6.65845">
        <ele>2020.815</ele>
        <time>2011-07-10T15:51:05Z</time>
      </trkpt>
      <trkpt lat="44.09613" lon="6.65836">
        <ele>2022.487</ele>
        <time>2011-07-10T15:51:14Z</time>
      </trkpt>
      <trkpt lat="44.09609" lon="6.65827">
        <ele>2024.08</ele>
        <time>2011-07-10T15:51:23Z</time>
      </trkpt>
      <trkpt lat="44.09605" lon="6.65819">
        <ele>2025.346</ele>
        <time>2011-07-10T15:51:32Z</time>
      </trkpt>
      <trkpt lat="44.09601" lon="6.65811">
        <ele>2027.28</ele>
        <time>2011-07-10T15:51:41Z</time>
      </trkpt>
      <trkpt lat="44.09599" lon="6.65804">
        <ele>2028.788</ele>
        <time>2011-07-10T15:51:49Z</time>
      </trkpt>
      <trkpt lat="44.09598" lon="6.65798">
        <ele>2029.888</ele>
        <time>2011-07-10T15:51:56Z</time>
      </trkpt>
      <trkpt lat="44.09595" lon="6.65797">
        <ele>2032.583</ele>
        <time>2011-07-10T15:52:02Z</time>
      </trkpt>
      <trkpt lat="44.09595" lon="6.65794">
        <ele>2033.541</ele>
        <time>2011-07-10T15:52:06Z</time>
      </trkpt>
      <trkpt lat="44.09596" lon="6.65793">
        <ele>2033.866</ele>
        <time>2011-07-10T15:52:12Z</time>
      </trkpt>
      <trkpt lat="44.09606" lon="6.65794">
        <ele>2042.911</ele>
        <time>2011-07-10T15:53:51Z</time>
      </trkpt>
      <trkpt lat="44.09603" lon="6.65777">
        <ele>2045.81</ele>
        <time>2011-07-10T15:54:00Z</time>
      </trkpt>
      <trkpt lat="44.09596" lon="6.65761">
        <ele>2047.462</ele>
        <time>2011-07-10T15:54:10Z</time>
      </trkpt>
      <trkpt lat="44.09591" lon="6.65747">
        <ele>2048.428</ele>
        <time>2011-07-10T15:54:18Z</time>
      </trkpt>
      <trkpt lat="44.0959" lon="6.65739">
        <ele>2052.874</ele>
        <time>2011-07-10T15:54:26Z</time>
      </trkpt>
      <trkpt lat="44.09586" lon="6.65724">
        <ele>2054.433</ele>
        <time>2011-07-10T15:54:36Z</time>
      </trkpt>
      <trkpt lat="44.09578" lon="6.65714">
        <ele>2052.771</ele>
        <time>2011-07-10T15:54:45Z</time>
      </trkpt>
      <trkpt lat="44.09576" lon="6.65709">
        <ele>2058.499</ele>
        <time>2011-07-10T15:54:52Z</time>
      </trkpt>
      <trkpt lat="44.09572" lon="6.65707">
        <ele>2043.99</ele>
        <time>2011-07-10T15:55:49Z</time>
      </trkpt>
      <trkpt lat="44.0957" lon="6.65701">
        <ele>2043.375</ele>
        <time>2011-07-10T15:55:53Z</time>
      </trkpt>
      <trkpt lat="44.09567" lon="6.65695">
        <ele>2042.334</ele>
        <time>2011-07-10T15:55:55Z</time>
      </trkpt>
      <trkpt lat="44.09555" lon="6.65672">
        <ele>2039.718</ele>
        <time>2011-07-10T15:55:59Z</time>
      </trkpt>
      <trkpt lat="44.09547" lon="6.65658">
        <ele>2038.822</ele>
        <time>2011-07-10T15:56:01Z</time>
      </trkpt>
      <trkpt lat="44.09529" lon="6.65634">
        <ele>2037.733</ele>
        <time>2011-07-10T15:56:06Z</time>
      </trkpt>
      <trkpt lat="44.09511" lon="6.65619">
        <ele>2038.027</ele>
        <time>2011-07-10T15:56:12Z</time>
      </trkpt>
      <trkpt lat="44.09503" lon="6.65616">
        <ele>2037.754</ele>
        <time>2011-07-10T15:56:14Z</time>
      </trkpt>
      <trkpt lat="44.09482" lon="6.65607">
        <ele>2039.089</ele>
        <time>2011-07-10T15:56:20Z</time>
      </trkpt>
      <trkpt lat="44.09465" lon="6.65599">
        <ele>2040.75</ele>
        <time>2011-07-10T15:56:27Z</time>
      </trkpt>
      <trkpt lat="44.09449" lon="6.65595">
        <ele>2041.158</ele>
        <time>2011-07-10T15:56:35Z</time>
      </trkpt>
      <trkpt lat="44.09436" lon="6.65591">
        <ele>2041.263</ele>
        <time>2011-07-10T15:56:41Z</time>
      </trkpt>
      <trkpt lat="44.09423" lon="6.65587">
        <ele>2042.269</ele>
        <time>2011-07-10T15:56:47Z</time>
      </trkpt>
      <trkpt lat="44.09415" lon="6.6558">
        <ele>2044.458</ele>
        <time>2011-07-10T15:56:52Z</time>
      </trkpt>
      <trkpt lat="44.09405" lon="6.65578">
        <ele>2045.101</ele>
        <time>2011-07-10T15:56:58Z</time>
      </trkpt>
      <trkpt lat="44.09397" lon="6.65572">
        <ele>2047.017</ele>
        <time>2011-07-10T15:57:04Z</time>
      </trkpt>
      <trkpt lat="44.09393" lon="6.6557">
        <ele>2047.356</ele>
        <time>2011-07-10T15:57:06Z</time>
      </trkpt>
      <trkpt lat="44.09381" lon="6.65562">
        <ele>2048.871</ele>
        <time>2011-07-10T15:57:13Z</time>
      </trkpt>
      <trkpt lat="44.09371" lon="6.65557">
        <ele>2049.956</ele>
        <time>2011-07-10T15:57:20Z</time>
      </trkpt>
      <trkpt lat="44.09368" lon="6.65554">
        <ele>2049.812</ele>
        <time>2011-07-10T15:57:23Z</time>
      </trkpt>
      <trkpt lat="44.09361" lon="6.65552">
        <ele>2049.336</ele>
        <time>2011-07-10T15:57:27Z</time>
      </trkpt>
      <trkpt lat="44.09352" lon="6.6555">
        <ele>2048.424</ele>
        <time>2011-07-10T15:57:33Z</time>
      </trkpt>
      <trkpt lat="44.09344" lon="6.65546">
        <ele>2048.842</ele>
        <time>2011-07-10T15:57:39Z</time>
      </trkpt>
      <trkpt lat="44.09335" lon="6.65541">
        <ele>2050.222</ele>
        <time>2011-07-10T15:57:45Z</time>
      </trkpt>
      <trkpt lat="44.09321" lon="6.65533">
        <ele>2052.14</ele>
        <time>2011-07-10T15:57:54Z</time>
      </trkpt>
      <trkpt lat="44.09311" lon="6.65525">
        <ele>2053.178</ele>
        <time>2011-07-10T15:58:00Z</time>
      </trkpt>
      <trkpt lat="44.09299" lon="6.65515">
        <ele>2053.77</ele>
        <time>2011-07-10T15:58:08Z</time>
      </trkpt>
      <trkpt lat="44.09288" lon="6.65512">
        <ele>2054.614</ele>
        <time>2011-07-10T15:58:14Z</time>
      </trkpt>
      <trkpt lat="44.09278" lon="6.65505">
        <ele>2055.45</ele>
        <time>2011-07-10T15:58:20Z</time>
      </trkpt>
      <trkpt lat="44.09265" lon="6.65501">
        <ele>2055.573</ele>
        <time>2011-07-10T15:58:26Z</time>
      </trkpt>
      <trkpt lat="44.09248" lon="6.65496">
        <ele>2055.412</ele>
        <time>2011-07-10T15:58:33Z</time>
      </trkpt>
      <trkpt lat="44.0923" lon="6.65485">
        <ele>2055.258</ele>
        <time>2011-07-10T15:58:41Z</time>
      </trkpt>
      <trkpt lat="44.0921" lon="6.65472">
        <ele>2055.834</ele>
        <time>2011-07-10T15:58:49Z</time>
      </trkpt>
      <trkpt lat="44.09195" lon="6.65462">
        <ele>2055.717</ele>
        <time>2011-07-10T15:58:56Z</time>
      </trkpt>
      <trkpt lat="44.09175" lon="6.6545">
        <ele>2054.917</ele>
        <time>2011-07-10T15:59:05Z</time>
      </trkpt>
      <trkpt lat="44.09165" lon="6.65441">
        <ele>2054.907</ele>
        <time>2011-07-10T15:59:11Z</time>
      </trkpt>
      <trkpt lat="44.0915" lon="6.65429">
        <ele>2053.586</ele>
        <time>2011-07-10T15:59:18Z</time>
      </trkpt>
      <trkpt lat="44.09148" lon="6.65422">
        <ele>2053.236</ele>
        <time>2011-07-10T15:59:22Z</time>
      </trkpt>
      <trkpt lat="44.09151" lon="6.65423">
        <ele>2050.948</ele>
        <time>2011-07-10T16:00:22Z</time>
      </trkpt>
      <trkpt lat="44.09144" lon="6.65418">
        <ele>2051.646</ele>
        <time>2011-07-10T16:00:28Z</time>
      </trkpt>
      <trkpt lat="44.09136" lon="6.65399">
        <ele>2053.369</ele>
        <time>2011-07-10T16:00:34Z</time>
      </trkpt>
      <trkpt lat="44.09131" lon="6.65392">
        <ele>2053.458</ele>
        <time>2011-07-10T16:00:39Z</time>
      </trkpt>
      <trkpt lat="44.09131" lon="6.65392">
        <ele>2053.537</ele>
        <time>2011-07-10T16:00:41Z</time>
      </trkpt>
      <trkpt lat="44.09138" lon="6.6539">
        <ele>2054.82</ele>
        <time>2011-07-10T16:00:47Z</time>
      </trkpt>
      <trkpt lat="44.0914" lon="6.65379">
        <ele>2055.691</ele>
        <time>2011-07-10T16:00:56Z</time>
      </trkpt>
      <trkpt lat="44.09141" lon="6.65372">
        <ele>2055.581</ele>
        <time>2011-07-10T16:01:00Z</time>
      </trkpt>
      <trkpt lat="44.09143" lon="6.65354">
        <ele>2055.808</ele>
        <time>2011-07-10T16:01:06Z</time>
      </trkpt>
      <trkpt lat="44.09141" lon="6.65332">
        <ele>2055.807</ele>
        <time>2011-07-10T16:01:13Z</time>
      </trkpt>
      <trkpt lat="44.09138" lon="6.65315">
        <ele>2056.432</ele>
        <time>2011-07-10T16:01:18Z</time>
      </trkpt>
      <trkpt lat="44.09135" lon="6.65297">
        <ele>2056.619</ele>
        <time>2011-07-10T16:01:24Z</time>
      </trkpt>
      <trkpt lat="44.09133" lon="6.6528">
        <ele>2055.86</ele>
        <time>2011-07-10T16:01:29Z</time>
      </trkpt>
      <trkpt lat="44.09133" lon="6.65266">
        <ele>2056.698</ele>
        <time>2011-07-10T16:01:35Z</time>
      </trkpt>
      <trkpt lat="44.09133" lon="6.65253">
        <ele>2056.117</ele>
        <time>2011-07-10T16:01:41Z</time>
      </trkpt>
      <trkpt lat="44.09137" lon="6.65239">
        <ele>2055.604</ele>
        <time>2011-07-10T16:01:47Z</time>
      </trkpt>
      <trkpt lat="44.09139" lon="6.65236">
        <ele>2055.587</ele>
        <time>2011-07-10T16:01:49Z</time>
      </trkpt>
      <trkpt lat="44.09144" lon="6.65229">
        <ele>2055.984</ele>
        <time>2011-07-10T16:01:55Z</time>
      </trkpt>
      <trkpt lat="44.09148" lon="6.65218">
        <ele>2055.454</ele>
        <time>2011-07-10T16:02:02Z</time>
      </trkpt>
      <trkpt lat="44.0915" lon="6.65216">
        <ele>2055.043</ele>
        <time>2011-07-10T16:02:03Z</time>
      </trkpt>
      <trkpt lat="44.09153" lon="6.652">
        <ele>2053.701</ele>
        <time>2011-07-10T16:02:07Z</time>
      </trkpt>
      <trkpt lat="44.09154" lon="6.65184">
        <ele>2053.373</ele>
        <time>2011-07-10T16:02:12Z</time>
      </trkpt>
      <trkpt lat="44.09157" lon="6.65166">
        <ele>2052.934</ele>
        <time>2011-07-10T16:02:17Z</time>
      </trkpt>
      <trkpt lat="44.09166" lon="6.65141">
        <ele>2053.566</ele>
        <time>2011-07-10T16:02:24Z</time>
      </trkpt>
      <trkpt lat="44.0917" lon="6.6512">
        <ele>2053.553</ele>
        <time>2011-07-10T16:02:30Z</time>
      </trkpt>
      <trkpt lat="44.0918" lon="6.65101">
        <ele>2053.555</ele>
        <time>2011-07-10T16:02:37Z</time>
      </trkpt>
      <trkpt lat="44.09189" lon="6.65086">
        <ele>2054.216</ele>
        <time>2011-07-10T16:02:43Z</time>
      </trkpt>
      <trkpt lat="44.0919" lon="6.65083">
        <ele>2053.872</ele>
        <time>2011-07-10T16:02:44Z</time>
      </trkpt>
      <trkpt lat="44.09186" lon="6.65071">
        <ele>2054.172</ele>
        <time>2011-07-10T16:02:48Z</time>
      </trkpt>
      <trkpt lat="44.09179" lon="6.65056">
        <ele>2057.606</ele>
        <time>2011-07-10T16:02:55Z</time>
      </trkpt>
      <trkpt lat="44.09173" lon="6.65044">
        <ele>2059.28</ele>
        <time>2011-07-10T16:03:01Z</time>
      </trkpt>
      <trkpt lat="44.09166" lon="6.65034">
        <ele>2061.096</ele>
        <time>2011-07-10T16:03:07Z</time>
      </trkpt>
      <trkpt lat="44.09159" lon="6.65018">
        <ele>2063.343</ele>
        <time>2011-07-10T16:03:14Z</time>
      </trkpt>
      <trkpt lat="44.09151" lon="6.65001">
        <ele>2064.609</ele>
        <time>2011-07-10T16:03:21Z</time>
      </trkpt>
      <trkpt lat="44.09145" lon="6.64986">
        <ele>2065.704</ele>
        <time>2011-07-10T16:03:28Z</time>
      </trkpt>
      <trkpt lat="44.0914" lon="6.64972">
        <ele>2066.528</ele>
        <time>2011-07-10T16:03:35Z</time>
      </trkpt>
      <trkpt lat="44.0914" lon="6.64966">
        <ele>2067.283</ele>
        <time>2011-07-10T16:03:38Z</time>
      </trkpt>
      <trkpt lat="44.09135" lon="6.64951">
        <ele>2068.832</ele>
        <time>2011-07-10T16:03:46Z</time>
      </trkpt>
      <trkpt lat="44.09127" lon="6.64942">
        <ele>2070.007</ele>
        <time>2011-07-10T16:03:52Z</time>
      </trkpt>
      <trkpt lat="44.0912" lon="6.64932">
        <ele>2070.869</ele>
        <time>2011-07-10T16:03:58Z</time>
      </trkpt>
      <trkpt lat="44.09109" lon="6.64916">
        <ele>2072.322</ele>
        <time>2011-07-10T16:04:08Z</time>
      </trkpt>
      <trkpt lat="44.09099" lon="6.64904">
        <ele>2072.286</ele>
        <time>2011-07-10T16:04:17Z</time>
      </trkpt>
      <trkpt lat="44.09089" lon="6.64896">
        <ele>2074.307</ele>
        <time>2011-07-10T16:04:23Z</time>
      </trkpt>
      <trkpt lat="44.0908" lon="6.6489">
        <ele>2076.831</ele>
        <time>2011-07-10T16:04:29Z</time>
      </trkpt>
      <trkpt lat="44.09067" lon="6.64878">
        <ele>2075.636</ele>
        <time>2011-07-10T16:04:38Z</time>
      </trkpt>
      <trkpt lat="44.09058" lon="6.6487">
        <ele>2075.906</ele>
        <time>2011-07-10T16:04:45Z</time>
      </trkpt>
      <trkpt lat="44.09045" lon="6.64859">
        <ele>2077.335</ele>
        <time>2011-07-10T16:04:54Z</time>
      </trkpt>
      <trkpt lat="44.09034" lon="6.64851">
        <ele>2078.477</ele>
        <time>2011-07-10T16:05:02Z</time>
      </trkpt>
      <trkpt lat="44.09025" lon="6.64839">
        <ele>2079.476</ele>
        <time>2011-07-10T16:05:10Z</time>
      </trkpt>
      <trkpt lat="44.09017" lon="6.64828">
        <ele>2080.217</ele>
        <time>2011-07-10T16:05:17Z</time>
      </trkpt>
      <trkpt lat="44.09008" lon="6.64814">
        <ele>2080.846</ele>
        <time>2011-07-10T16:05:25Z</time>
      </trkpt>
      <trkpt lat="44.09001" lon="6.64802">
        <ele>2081.456</ele>
        <time>2011-07-10T16:05:31Z</time>
      </trkpt>
      <trkpt lat="44.08991" lon="6.64787">
        <ele>2081.825</ele>
        <time>2011-07-10T16:05:38Z</time>
      </trkpt>
      <trkpt lat="44.0898" lon="6.6477">
        <ele>2081.084</ele>
        <time>2011-07-10T16:05:45Z</time>
      </trkpt>
      <trkpt lat="44.08975" lon="6.64755">
        <ele>2080.644</ele>
        <time>2011-07-10T16:05:50Z</time>
      </trkpt>
      <trkpt lat="44.08967" lon="6.64734">
        <ele>2079.663</ele>
        <time>2011-07-10T16:05:56Z</time>
      </trkpt>
      <trkpt lat="44.08958" lon="6.64719">
        <ele>2077.86</ele>
        <time>2011-07-10T16:06:01Z</time>
      </trkpt>
      <trkpt lat="44.08946" lon="6.64697">
        <ele>2076.403</ele>
        <time>2011-07-10T16:06:07Z</time>
      </trkpt>
      <trkpt lat="44.08942" lon="6.64685">
        <ele>2075.692</ele>
        <time>2011-07-10T16:06:11Z</time>
      </trkpt>
      <trkpt lat="44.08943" lon="6.64679">
        <ele>2074.511</ele>
        <time>2011-07-10T16:06:15Z</time>
      </trkpt>
      <trkpt lat="44.08947" lon="6.64682">
        <ele>2076.234</ele>
        <time>2011-07-10T16:07:11Z</time>
      </trkpt>
      <trkpt lat="44.08943" lon="6.64676">
        <ele>2075.764</ele>
        <time>2011-07-10T16:07:16Z</time>
      </trkpt>
      <trkpt lat="44.0893" lon="6.6465">
        <ele>2073.462</ele>
        <time>2011-07-10T16:07:24Z</time>
      </trkpt>
      <trkpt lat="44.08918" lon="6.64631">
        <ele>2072.835</ele>
        <time>2011-07-10T16:07:30Z</time>
      </trkpt>
      <trkpt lat="44.08905" lon="6.64608">
        <ele>2073.055</ele>
        <time>2011-07-10T16:07:36Z</time>
      </trkpt>
      <trkpt lat="44.08889" lon="6.64579">
        <ele>2073.205</ele>
        <time>2011-07-10T16:07:43Z</time>
      </trkpt>
      <trkpt lat="44.08876" lon="6.64558">
        <ele>2072.833</ele>
        <time>2011-07-10T16:07:49Z</time>
      </trkpt>
      <trkpt lat="44.08872" lon="6.64549">
        <ele>2072.023</ele>
        <time>2011-07-10T16:07:54Z</time>
      </trkpt>
      <trkpt lat="44.08872" lon="6.64548">
        <ele>2071.664</ele>
        <time>2011-07-10T16:07:59Z</time>
      </trkpt>
      <trkpt lat="44.0887" lon="6.64541">
        <ele>2071.225</ele>
        <time>2011-07-10T16:08:05Z</time>
      </trkpt>
      <trkpt lat="44.08868" lon="6.64537">
        <ele>2070.915</ele>
        <time>2011-07-10T16:08:10Z</time>
      </trkpt>
      <trkpt lat="44.08869" lon="6.64537">
        <ele>2069.885</ele>
        <time>2011-07-10T16:08:21Z</time>
      </trkpt>
      <trkpt lat="44.08867" lon="6.64533">
        <ele>2066.504</ele>
        <time>2011-07-10T16:09:57Z</time>
      </trkpt>
      <trkpt lat="44.08866" lon="6.6453">
        <ele>2067.144</ele>
        <time>2011-07-10T16:10:02Z</time>
      </trkpt>
      <trkpt lat="44.0886" lon="6.64521">
        <ele>2068.184</ele>
        <time>2011-07-10T16:10:06Z</time>
      </trkpt>
      <trkpt lat="44.0884" lon="6.64493">
        <ele>2067.442</ele>
        <time>2011-07-10T16:10:13Z</time>
      </trkpt>
      <trkpt lat="44.08819" lon="6.64465">
        <ele>2066.031</ele>
        <time>2011-07-10T16:10:20Z</time>
      </trkpt>
      <trkpt lat="44.08805" lon="6.64448">
        <ele>2064.839</ele>
        <time>2011-07-10T16:10:24Z</time>
      </trkpt>
      <trkpt lat="44.08778" lon="6.64406">
        <ele>2062.2</ele>
        <time>2011-07-10T16:10:32Z</time>
      </trkpt>
      <trkpt lat="44.08764" lon="6.64395">
        <ele>2060.458</ele>
        <time>2011-07-10T16:10:35Z</time>
      </trkpt>
      <trkpt lat="44.08747" lon="6.64373">
        <ele>2057.657</ele>
        <time>2011-07-10T16:10:39Z</time>
      </trkpt>
      <trkpt lat="44.08748" lon="6.64363">
        <ele>2056.788</ele>
        <time>2011-07-10T16:10:42Z</time>
      </trkpt>
      <trkpt lat="44.08747" lon="6.64362">
        <ele>2056.172</ele>
        <time>2011-07-10T16:10:46Z</time>
      </trkpt>
      <trkpt lat="44.08744" lon="6.64363">
        <ele>2059.125</ele>
        <time>2011-07-10T16:11:03Z</time>
      </trkpt>
      <trkpt lat="44.08744" lon="6.64363">
        <ele>2059.214</ele>
        <time>2011-07-10T16:11:11Z</time>
      </trkpt>
      <trkpt lat="44.08748" lon="6.64363">
        <ele>2063.473</ele>
        <time>2011-07-10T16:11:49Z</time>
      </trkpt>
      <trkpt lat="44.08748" lon="6.64364">
        <ele>2061.673</ele>
        <time>2011-07-10T16:11:57Z</time>
      </trkpt>
      <trkpt lat="44.08749" lon="6.64365">
        <ele>2058.344</ele>
        <time>2011-07-10T16:12:20Z</time>
      </trkpt>
      <trkpt lat="44.08747" lon="6.64365">
        <ele>2059.024</ele>
        <time>2011-07-10T16:12:46Z</time>
      </trkpt>
      <trkpt lat="44.08746" lon="6.64365">
        <ele>2064.634</ele>
        <time>2011-07-10T16:13:27Z</time>
      </trkpt>
      <trkpt lat="44.08738" lon="6.6436">
        <ele>2063.629</ele>
        <time>2011-07-10T16:13:30Z</time>
      </trkpt>
      <trkpt lat="44.08723" lon="6.64355">
        <ele>2061.995</ele>
        <time>2011-07-10T16:13:33Z</time>
      </trkpt>
      <trkpt lat="44.08699" lon="6.64339">
        <ele>2059.563</ele>
        <time>2011-07-10T16:13:37Z</time>
      </trkpt>
      <trkpt lat="44.08686" lon="6.64328">
        <ele>2057.581</ele>
        <time>2011-07-10T16:13:39Z</time>
      </trkpt>
      <trkpt lat="44.08673" lon="6.64321">
        <ele>2056.385</ele>
        <time>2011-07-10T16:13:41Z</time>
      </trkpt>
      <trkpt lat="44.08655" lon="6.64321">
        <ele>2054.795</ele>
        <time>2011-07-10T16:13:44Z</time>
      </trkpt>
      <trkpt lat="44.08633" lon="6.64313">
        <ele>2052.897</ele>
        <time>2011-07-10T16:13:48Z</time>
      </trkpt>
      <trkpt lat="44.08613" lon="6.64298">
        <ele>2050.436</ele>
        <time>2011-07-10T16:13:52Z</time>
      </trkpt>
      <trkpt lat="44.08599" lon="6.64291">
        <ele>2048.135</ele>
        <time>2011-07-10T16:13:55Z</time>
      </trkpt>
      <trkpt lat="44.08586" lon="6.64284">
        <ele>2046.494</ele>
        <time>2011-07-10T16:13:58Z</time>
      </trkpt>
      <trkpt lat="44.08576" lon="6.64271">
        <ele>2044.514</ele>
        <time>2011-07-10T16:14:01Z</time>
      </trkpt>
      <trkpt lat="44.08564" lon="6.64264">
        <ele>2042.746</ele>
        <time>2011-07-10T16:14:04Z</time>
      </trkpt>
      <trkpt lat="44.08544" lon="6.64244">
        <ele>2039.723</ele>
        <time>2011-07-10T16:14:09Z</time>
      </trkpt>
      <trkpt lat="44.0853" lon="6.64238">
        <ele>2038.198</ele>
        <time>2011-07-10T16:14:13Z</time>
      </trkpt>
      <trkpt lat="44.08523" lon="6.64236">
        <ele>2037.329</ele>
        <time>2011-07-10T16:14:17Z</time>
      </trkpt>
      <trkpt lat="44.08519" lon="6.64228">
        <ele>2036.127</ele>
        <time>2011-07-10T16:14:20Z</time>
      </trkpt>
      <trkpt lat="44.08519" lon="6.6422">
        <ele>2034.377</ele>
        <time>2011-07-10T16:14:24Z</time>
      </trkpt>
      <trkpt lat="44.08512" lon="6.64214">
        <ele>2033.308</ele>
        <time>2011-07-10T16:14:29Z</time>
      </trkpt>
      <trkpt lat="44.0851" lon="6.64211">
        <ele>2032.798</ele>
        <time>2011-07-10T16:14:30Z</time>
      </trkpt>
      <trkpt lat="44.08511" lon="6.6419">
        <ele>2031.601</ele>
        <time>2011-07-10T16:14:37Z</time>
      </trkpt>
      <trkpt lat="44.08512" lon="6.64189">
        <ele>2031.27</ele>
        <time>2011-07-10T16:14:39Z</time>
      </trkpt>
      <trkpt lat="44.08509" lon="6.64185">
        <ele>2029.89</ele>
        <time>2011-07-10T16:14:44Z</time>
      </trkpt>
      <trkpt lat="44.08507" lon="6.6418">
        <ele>2029.04</ele>
        <time>2011-07-10T16:14:50Z</time>
      </trkpt>
      <trkpt lat="44.08503" lon="6.64169">
        <ele>2028</ele>
        <time>2011-07-10T16:14:55Z</time>
      </trkpt>
      <trkpt lat="44.08502" lon="6.64167">
        <ele>2027.65</ele>
        <time>2011-07-10T16:14:56Z</time>
      </trkpt>
      <trkpt lat="44.08495" lon="6.64166">
        <ele>2027.521</ele>
        <time>2011-07-10T16:15:00Z</time>
      </trkpt>
      <trkpt lat="44.08491" lon="6.64168">
        <ele>2029.704</ele>
        <time>2011-07-10T16:15:10Z</time>
      </trkpt>
      <trkpt lat="44.08478" lon="6.64181">
        <ele>2031.626</ele>
        <time>2011-07-10T16:15:16Z</time>
      </trkpt>
      <trkpt lat="44.08467" lon="6.64187">
        <ele>2032.161</ele>
        <time>2011-07-10T16:15:20Z</time>
      </trkpt>
      <trkpt lat="44.08457" lon="6.64178">
        <ele>2030.277</ele>
        <time>2011-07-10T16:15:24Z</time>
      </trkpt>
      <trkpt lat="44.08455" lon="6.64178">
        <ele>2030.189</ele>
        <time>2011-07-10T16:15:25Z</time>
      </trkpt>
      <trkpt lat="44.08438" lon="6.64188">
        <ele>2029.48</ele>
        <time>2011-07-10T16:15:31Z</time>
      </trkpt>
      <trkpt lat="44.08431" lon="6.64187">
        <ele>2029.009</ele>
        <time>2011-07-10T16:15:33Z</time>
      </trkpt>
      <trkpt lat="44.0841" lon="6.6419">
        <ele>2027.798</ele>
        <time>2011-07-10T16:15:38Z</time>
      </trkpt>
      <trkpt lat="44.08398" lon="6.64181">
        <ele>2026.118</ele>
        <time>2011-07-10T16:15:41Z</time>
      </trkpt>
      <trkpt lat="44.08391" lon="6.64173">
        <ele>2024.616</ele>
        <time>2011-07-10T16:15:43Z</time>
      </trkpt>
      <trkpt lat="44.08379" lon="6.64176">
        <ele>2022.679</ele>
        <time>2011-07-10T16:15:47Z</time>
      </trkpt>
      <trkpt lat="44.08356" lon="6.64173">
        <ele>2024.036</ele>
        <time>2011-07-10T16:15:55Z</time>
      </trkpt>
      <trkpt lat="44.08348" lon="6.64174">
        <ele>2024.375</ele>
        <time>2011-07-10T16:15:58Z</time>
      </trkpt>
      <trkpt lat="44.08336" lon="6.64183">
        <ele>2024.304</ele>
        <time>2011-07-10T16:16:02Z</time>
      </trkpt>
      <trkpt lat="44.08333" lon="6.64184">
        <ele>2025.035</ele>
        <time>2011-07-10T16:16:03Z</time>
      </trkpt>
      <trkpt lat="44.08325" lon="6.64184">
        <ele>2025.896</ele>
        <time>2011-07-10T16:16:06Z</time>
      </trkpt>
      <trkpt lat="44.08313" lon="6.64188">
        <ele>2027.517</ele>
        <time>2011-07-10T16:16:11Z</time>
      </trkpt>
      <trkpt lat="44.083" lon="6.64188">
        <ele>2028.476</ele>
        <time>2011-07-10T16:16:16Z</time>
      </trkpt>
      <trkpt lat="44.08278" lon="6.64188">
        <ele>2029.004</ele>
        <time>2011-07-10T16:16:24Z</time>
      </trkpt>
      <trkpt lat="44.08261" lon="6.64182">
        <ele>2029.194</ele>
        <time>2011-07-10T16:16:30Z</time>
      </trkpt>
      <trkpt lat="44.08242" lon="6.64176">
        <ele>2027.973</ele>
        <time>2011-07-10T16:16:36Z</time>
      </trkpt>
      <trkpt lat="44.08228" lon="6.6417">
        <ele>2028.426</ele>
        <time>2011-07-10T16:16:42Z</time>
      </trkpt>
      <trkpt lat="44.08219" lon="6.64159">
        <ele>2030.088</ele>
        <time>2011-07-10T16:16:48Z</time>
      </trkpt>
      <trkpt lat="44.08221" lon="6.64158">
        <ele>2032.669</ele>
        <time>2011-07-10T16:16:53Z</time>
      </trkpt>
      <trkpt lat="44.08218" lon="6.64145">
        <ele>2032.804</ele>
        <time>2011-07-10T16:17:02Z</time>
      </trkpt>
      <trkpt lat="44.08212" lon="6.64138">
        <ele>2033.515</ele>
        <time>2011-07-10T16:17:09Z</time>
      </trkpt>
      <trkpt lat="44.08208" lon="6.64133">
        <ele>2033.56</ele>
        <time>2011-07-10T16:17:16Z</time>
      </trkpt>
      <trkpt lat="44.08207" lon="6.64133">
        <ele>2034.273</ele>
        <time>2011-07-10T16:17:22Z</time>
      </trkpt>
      <trkpt lat="44.08206" lon="6.64131">
        <ele>2035.606</ele>
        <time>2011-07-10T16:17:27Z</time>
      </trkpt>
      <trkpt lat="44.08198" lon="6.6413">
        <ele>2037.924</ele>
        <time>2011-07-10T16:17:34Z</time>
      </trkpt>
      <trkpt lat="44.08195" lon="6.6413">
        <ele>2037.604</ele>
        <time>2011-07-10T16:17:37Z</time>
      </trkpt>
      <trkpt lat="44.0819" lon="6.64126">
        <ele>2038.586</ele>
        <time>2011-07-10T16:17:41Z</time>
      </trkpt>
      <trkpt lat="44.08183" lon="6.64126">
        <ele>2042.616</ele>
        <time>2011-07-10T16:17:48Z</time>
      </trkpt>
      <trkpt lat="44.08175" lon="6.64125">
        <ele>2043.805</ele>
        <time>2011-07-10T16:17:53Z</time>
      </trkpt>
      <trkpt lat="44.08167" lon="6.64128">
        <ele>2045.265</ele>
        <time>2011-07-10T16:18:00Z</time>
      </trkpt>
      <trkpt lat="44.08159" lon="6.64131">
        <ele>2046.625</ele>
        <time>2011-07-10T16:18:08Z</time>
      </trkpt>
      <trkpt lat="44.08151" lon="6.64134">
        <ele>2047.686</ele>
        <time>2011-07-10T16:18:17Z</time>
      </trkpt>
      <trkpt lat="44.08141" lon="6.64133">
        <ele>2047.944</ele>
        <time>2011-07-10T16:18:26Z</time>
      </trkpt>
      <trkpt lat="44.0814" lon="6.64132">
        <ele>2047.353</ele>
        <time>2011-07-10T16:18:28Z</time>
      </trkpt>
      <trkpt lat="44.08135" lon="6.64132">
        <ele>2047.485</ele>
        <time>2011-07-10T16:18:33Z</time>
      </trkpt>
      <trkpt lat="44.0813" lon="6.64131">
        <ele>2049.194</ele>
        <time>2011-07-10T16:18:40Z</time>
      </trkpt>
      <trkpt lat="44.08129" lon="6.64131">
        <ele>2049.855</ele>
        <time>2011-07-10T16:18:42Z</time>
      </trkpt>
      <trkpt lat="44.08125" lon="6.64131">
        <ele>2048.082</ele>
        <time>2011-07-10T16:18:50Z</time>
      </trkpt>
      <trkpt lat="44.08119" lon="6.64133">
        <ele>2048.143</ele>
        <time>2011-07-10T16:18:56Z</time>
      </trkpt>
      <trkpt lat="44.08117" lon="6.64132">
        <ele>2048.966</ele>
        <time>2011-07-10T16:19:03Z</time>
      </trkpt>
      <trkpt lat="44.08114" lon="6.64132">
        <ele>2049.056</ele>
        <time>2011-07-10T16:19:07Z</time>
      </trkpt>
      <trkpt lat="44.08108" lon="6.64134">
        <ele>2048.515</ele>
        <time>2011-07-10T16:19:14Z</time>
      </trkpt>
      <trkpt lat="44.08107" lon="6.64134">
        <ele>2048.515</ele>
        <time>2011-07-10T16:19:15Z</time>
      </trkpt>
      <trkpt lat="44.08099" lon="6.64132">
        <ele>2048.955</ele>
        <time>2011-07-10T16:19:24Z</time>
      </trkpt>
      <trkpt lat="44.08091" lon="6.6413">
        <ele>2051.285</ele>
        <time>2011-07-10T16:19:32Z</time>
      </trkpt>
      <trkpt lat="44.08082" lon="6.64128">
        <ele>2052.764</ele>
        <time>2011-07-10T16:19:40Z</time>
      </trkpt>
      <trkpt lat="44.08077" lon="6.64127">
        <ele>2053.313</ele>
        <time>2011-07-10T16:19:45Z</time>
      </trkpt>
      <trkpt lat="44.08075" lon="6.64125">
        <ele>2053.904</ele>
        <time>2011-07-10T16:19:48Z</time>
      </trkpt>
      <trkpt lat="44.08072" lon="6.64122">
        <ele>2053.321</ele>
        <time>2011-07-10T16:19:54Z</time>
      </trkpt>
      <trkpt lat="44.08062" lon="6.64116">
        <ele>2058.212</ele>
        <time>2011-07-10T16:22:04Z</time>
      </trkpt>
      <trkpt lat="44.08056" lon="6.64106">
        <ele>2055.397</ele>
        <time>2011-07-10T16:22:09Z</time>
      </trkpt>
      <trkpt lat="44.08056" lon="6.64088">
        <ele>2053.366</ele>
        <time>2011-07-10T16:22:12Z</time>
      </trkpt>
      <trkpt lat="44.08047" lon="6.64048">
        <ele>2048.695</ele>
        <time>2011-07-10T16:22:18Z</time>
      </trkpt>
      <trkpt lat="44.08044" lon="6.64044">
        <ele>2048.296</ele>
        <time>2011-07-10T16:22:19Z</time>
      </trkpt>
      <trkpt lat="44.08032" lon="6.64027">
        <ele>2046.898</ele>
        <time>2011-07-10T16:22:23Z</time>
      </trkpt>
      <trkpt lat="44.08016" lon="6.64005">
        <ele>2045.809</ele>
        <time>2011-07-10T16:22:29Z</time>
      </trkpt>
      <trkpt lat="44.08012" lon="6.64002">
        <ele>2045.579</ele>
        <time>2011-07-10T16:22:30Z</time>
      </trkpt>
      <trkpt lat="44.07998" lon="6.63987">
        <ele>2045.352</ele>
        <time>2011-07-10T16:22:35Z</time>
      </trkpt>
      <trkpt lat="44.07996" lon="6.63984">
        <ele>2045.523</ele>
        <time>2011-07-10T16:22:38Z</time>
      </trkpt>
      <trkpt lat="44.07994" lon="6.63981">
        <ele>2045.984</ele>
        <time>2011-07-10T16:22:40Z</time>
      </trkpt>
      <trkpt lat="44.07985" lon="6.63973">
        <ele>2045.791</ele>
        <time>2011-07-10T16:22:49Z</time>
      </trkpt>
      <trkpt lat="44.07984" lon="6.63972">
        <ele>2046.001</ele>
        <time>2011-07-10T16:22:53Z</time>
      </trkpt>
      <trkpt lat="44.0798" lon="6.63958">
        <ele>2045.361</ele>
        <time>2011-07-10T16:22:59Z</time>
      </trkpt>
      <trkpt lat="44.07978" lon="6.63955">
        <ele>2045.09</ele>
        <time>2011-07-10T16:23:00Z</time>
      </trkpt>
      <trkpt lat="44.0797" lon="6.6394">
        <ele>2043.547</ele>
        <time>2011-07-10T16:23:04Z</time>
      </trkpt>
      <trkpt lat="44.07955" lon="6.63932">
        <ele>2040.641</ele>
        <time>2011-07-10T16:23:09Z</time>
      </trkpt>
      <trkpt lat="44.07944" lon="6.63929">
        <ele>2038.632</ele>
        <time>2011-07-10T16:23:12Z</time>
      </trkpt>
      <trkpt lat="44.07922" lon="6.63922">
        <ele>2035.011</ele>
        <time>2011-07-10T16:23:17Z</time>
      </trkpt>
      <trkpt lat="44.07899" lon="6.63916">
        <ele>2031.31</ele>
        <time>2011-07-10T16:23:22Z</time>
      </trkpt>
      <trkpt lat="44.07889" lon="6.63912">
        <ele>2029.76</ele>
        <time>2011-07-10T16:23:24Z</time>
      </trkpt>
      <trkpt lat="44.07878" lon="6.63909">
        <ele>2028.079</ele>
        <time>2011-07-10T16:23:26Z</time>
      </trkpt>
      <trkpt lat="44.07858" lon="6.63893">
        <ele>2023.828</ele>
        <time>2011-07-10T16:23:31Z</time>
      </trkpt>
      <trkpt lat="44.07854" lon="6.6389">
        <ele>2022.737</ele>
        <time>2011-07-10T16:23:32Z</time>
      </trkpt>
      <trkpt lat="44.0783" lon="6.63878">
        <ele>2017.75</ele>
        <time>2011-07-10T16:23:38Z</time>
      </trkpt>
      <trkpt lat="44.07818" lon="6.63876">
        <ele>2015.301</ele>
        <time>2011-07-10T16:23:42Z</time>
      </trkpt>
      <trkpt lat="44.07798" lon="6.63866">
        <ele>2010.596</ele>
        <time>2011-07-10T16:23:47Z</time>
      </trkpt>
      <trkpt lat="44.07787" lon="6.63862">
        <ele>2008.506</ele>
        <time>2011-07-10T16:23:49Z</time>
      </trkpt>
      <trkpt lat="44.07765" lon="6.63852">
        <ele>2002.304</ele>
        <time>2011-07-10T16:23:54Z</time>
      </trkpt>
      <trkpt lat="44.07755" lon="6.63847">
        <ele>1999.406</ele>
        <time>2011-07-10T16:23:57Z</time>
      </trkpt>
      <trkpt lat="44.07748" lon="6.63835">
        <ele>1995.067</ele>
        <time>2011-07-10T16:24:01Z</time>
      </trkpt>
      <trkpt lat="44.07732" lon="6.6383">
        <ele>1991.388</ele>
        <time>2011-07-10T16:24:05Z</time>
      </trkpt>
      <trkpt lat="44.07715" lon="6.63825">
        <ele>1987.794</ele>
        <time>2011-07-10T16:24:09Z</time>
      </trkpt>
      <trkpt lat="44.07705" lon="6.63822">
        <ele>1984.738</ele>
        <time>2011-07-10T16:24:12Z</time>
      </trkpt>
      <trkpt lat="44.07707" lon="6.6381">
        <ele>1981.95</ele>
        <time>2011-07-10T16:24:16Z</time>
      </trkpt>
      <trkpt lat="44.07712" lon="6.63786">
        <ele>1980.021</ele>
        <time>2011-07-10T16:24:20Z</time>
      </trkpt>
      <trkpt lat="44.07714" lon="6.63772">
        <ele>1978.372</ele>
        <time>2011-07-10T16:24:23Z</time>
      </trkpt>
      <trkpt lat="44.07706" lon="6.63767">
        <ele>1976.361</ele>
        <time>2011-07-10T16:24:26Z</time>
      </trkpt>
      <trkpt lat="44.07692" lon="6.63757">
        <ele>1974.241</ele>
        <time>2011-07-10T16:24:29Z</time>
      </trkpt>
      <trkpt lat="44.07669" lon="6.63741">
        <ele>1970.809</ele>
        <time>2011-07-10T16:24:34Z</time>
      </trkpt>
      <trkpt lat="44.07666" lon="6.63736">
        <ele>1970.48</ele>
        <time>2011-07-10T16:24:35Z</time>
      </trkpt>
      <trkpt lat="44.07649" lon="6.63719">
        <ele>1969.091</ele>
        <time>2011-07-10T16:24:40Z</time>
      </trkpt>
      <trkpt lat="44.07652" lon="6.63708">
        <ele>1965.82</ele>
        <time>2011-07-10T16:24:43Z</time>
      </trkpt>
      <trkpt lat="44.07658" lon="6.63696">
        <ele>1963.5</ele>
        <time>2011-07-10T16:24:46Z</time>
      </trkpt>
      <trkpt lat="44.07665" lon="6.63688">
        <ele>1961.908</ele>
        <time>2011-07-10T16:24:48Z</time>
      </trkpt>
      <trkpt lat="44.07668" lon="6.63661">
        <ele>1959.722</ele>
        <time>2011-07-10T16:24:52Z</time>
      </trkpt>
      <trkpt lat="44.07662" lon="6.63647">
        <ele>1958.913</ele>
        <time>2011-07-10T16:24:55Z</time>
      </trkpt>
      <trkpt lat="44.07659" lon="6.63644">
        <ele>1958.092</ele>
        <time>2011-07-10T16:24:56Z</time>
      </trkpt>
      <trkpt lat="44.07647" lon="6.63635">
        <ele>1955.941</ele>
        <time>2011-07-10T16:24:59Z</time>
      </trkpt>
      <trkpt lat="44.07628" lon="6.63619">
        <ele>1954.404</ele>
        <time>2011-07-10T16:25:04Z</time>
      </trkpt>
      <trkpt lat="44.07625" lon="6.63616">
        <ele>1954.054</ele>
        <time>2011-07-10T16:25:05Z</time>
      </trkpt>
      <trkpt lat="44.07618" lon="6.63609">
        <ele>1953.515</ele>
        <time>2011-07-10T16:25:07Z</time>
      </trkpt>
      <trkpt lat="44.07597" lon="6.63595">
        <ele>1953.477</ele>
        <time>2011-07-10T16:25:13Z</time>
      </trkpt>
      <trkpt lat="44.07584" lon="6.63589">
        <ele>1954.671</ele>
        <time>2011-07-10T16:25:17Z</time>
      </trkpt>
      <trkpt lat="44.07569" lon="6.63588">
        <ele>1955.811</ele>
        <time>2011-07-10T16:25:21Z</time>
      </trkpt>
      <trkpt lat="44.07559" lon="6.63583">
        <ele>1956.782</ele>
        <time>2011-07-10T16:25:25Z</time>
      </trkpt>
      <trkpt lat="44.07551" lon="6.63581">
        <ele>1957.911</ele>
        <time>2011-07-10T16:25:30Z</time>
      </trkpt>
      <trkpt lat="44.07545" lon="6.6358">
        <ele>1958.271</ele>
        <time>2011-07-10T16:25:33Z</time>
      </trkpt>
      <trkpt lat="44.07542" lon="6.63576">
        <ele>1958.209</ele>
        <time>2011-07-10T16:25:37Z</time>
      </trkpt>
      <trkpt lat="44.07541" lon="6.63575">
        <ele>1958.41</ele>
        <time>2011-07-10T16:25:43Z</time>
      </trkpt>
      <trkpt lat="44.07535" lon="6.63573">
        <ele>1958.642</ele>
        <time>2011-07-10T16:26:06Z</time>
      </trkpt>
      <trkpt lat="44.07533" lon="6.6357">
        <ele>1958.8</ele>
        <time>2011-07-10T16:26:13Z</time>
      </trkpt>
      <trkpt lat="44.07531" lon="6.63569">
        <ele>1958.739</ele>
        <time>2011-07-10T16:26:19Z</time>
      </trkpt>
      <trkpt lat="44.07529" lon="6.63559">
        <ele>1957.848</ele>
        <time>2011-07-10T16:26:23Z</time>
      </trkpt>
      <trkpt lat="44.07526" lon="6.63536">
        <ele>1955.062</ele>
        <time>2011-07-10T16:26:28Z</time>
      </trkpt>
      <trkpt lat="44.07514" lon="6.63531">
        <ele>1952.36</ele>
        <time>2011-07-10T16:26:32Z</time>
      </trkpt>
      <trkpt lat="44.07506" lon="6.63517">
        <ele>1948.71</ele>
        <time>2011-07-10T16:26:37Z</time>
      </trkpt>
      <trkpt lat="44.07501" lon="6.63508">
        <ele>1946.008</ele>
        <time>2011-07-10T16:26:40Z</time>
      </trkpt>
      <trkpt lat="44.07492" lon="6.63503">
        <ele>1944.351</ele>
        <time>2011-07-10T16:26:44Z</time>
      </trkpt>
      <trkpt lat="44.0749" lon="6.6349">
        <ele>1941.348</ele>
        <time>2011-07-10T16:26:48Z</time>
      </trkpt>
      <trkpt lat="44.0749" lon="6.63486">
        <ele>1939.548</ele>
        <time>2011-07-10T16:26:50Z</time>
      </trkpt>
      <trkpt lat="44.07476" lon="6.6348">
        <ele>1936.66</ele>
        <time>2011-07-10T16:26:55Z</time>
      </trkpt>
      <trkpt lat="44.07467" lon="6.63475">
        <ele>1933.187</ele>
        <time>2011-07-10T16:26:58Z</time>
      </trkpt>
      <trkpt lat="44.07462" lon="6.63473">
        <ele>1931.876</ele>
        <time>2011-07-10T16:27:00Z</time>
      </trkpt>
      <trkpt lat="44.07447" lon="6.63473">
        <ele>1928.04</ele>
        <time>2011-07-10T16:27:05Z</time>
      </trkpt>
      <trkpt lat="44.07441" lon="6.63475">
        <ele>1926.41</ele>
        <time>2011-07-10T16:27:07Z</time>
      </trkpt>
      <trkpt lat="44.07424" lon="6.63465">
        <ele>1923.13</ele>
        <time>2011-07-10T16:27:12Z</time>
      </trkpt>
      <trkpt lat="44.07414" lon="6.63456">
        <ele>1921.382</ele>
        <time>2011-07-10T16:27:16Z</time>
      </trkpt>
      <trkpt lat="44.07411" lon="6.63448">
        <ele>1918.169</ele>
        <time>2011-07-10T16:27:19Z</time>
      </trkpt>
      <trkpt lat="44.07408" lon="6.63446">
        <ele>1916.757</ele>
        <time>2011-07-10T16:27:20Z</time>
      </trkpt>
      <trkpt lat="44.07391" lon="6.63441">
        <ele>1910.537</ele>
        <time>2011-07-10T16:27:26Z</time>
      </trkpt>
      <trkpt lat="44.07389" lon="6.63432">
        <ele>1907.403</ele>
        <time>2011-07-10T16:27:30Z</time>
      </trkpt>
      <trkpt lat="44.07394" lon="6.63419">
        <ele>1901.551</ele>
        <time>2011-07-10T16:27:34Z</time>
      </trkpt>
      <trkpt lat="44.07387" lon="6.63418">
        <ele>1898.323</ele>
        <time>2011-07-10T16:27:37Z</time>
      </trkpt>
      <trkpt lat="44.0738" lon="6.63417">
        <ele>1899.207</ele>
        <time>2011-07-10T16:27:39Z</time>
      </trkpt>
      <trkpt lat="44.07356" lon="6.63406">
        <ele>1894.869</ele>
        <time>2011-07-10T16:27:45Z</time>
      </trkpt>
      <trkpt lat="44.07343" lon="6.63404">
        <ele>1893.19</ele>
        <time>2011-07-10T16:27:49Z</time>
      </trkpt>
      <trkpt lat="44.07334" lon="6.63402">
        <ele>1891.571</ele>
        <time>2011-07-10T16:27:52Z</time>
      </trkpt>
      <trkpt lat="44.07333" lon="6.63393">
        <ele>1888.742</ele>
        <time>2011-07-10T16:27:56Z</time>
      </trkpt>
      <trkpt lat="44.07338" lon="6.63382">
        <ele>1884.79</ele>
        <time>2011-07-10T16:28:00Z</time>
      </trkpt>
      <trkpt lat="44.07329" lon="6.63378">
        <ele>1882.68</ele>
        <time>2011-07-10T16:28:04Z</time>
      </trkpt>
      <trkpt lat="44.07322" lon="6.63375">
        <ele>1879.451</ele>
        <time>2011-07-10T16:28:08Z</time>
      </trkpt>
      <trkpt lat="44.07325" lon="6.63366">
        <ele>1876.529</ele>
        <time>2011-07-10T16:28:11Z</time>
      </trkpt>
      <trkpt lat="44.07333" lon="6.63348">
        <ele>1872.627</ele>
        <time>2011-07-10T16:28:17Z</time>
      </trkpt>
      <trkpt lat="44.07338" lon="6.63334">
        <ele>1869.678</ele>
        <time>2011-07-10T16:28:22Z</time>
      </trkpt>
      <trkpt lat="44.07343" lon="6.63317">
        <ele>1868.58</ele>
        <time>2011-07-10T16:28:27Z</time>
      </trkpt>
      <trkpt lat="44.07343" lon="6.63315">
        <ele>1869.702</ele>
        <time>2011-07-10T16:28:28Z</time>
      </trkpt>
      <trkpt lat="44.07331" lon="6.63311">
        <ele>1871.155</ele>
        <time>2011-07-10T16:28:33Z</time>
      </trkpt>
      <trkpt lat="44.07315" lon="6.63304">
        <ele>1870.264</ele>
        <time>2011-07-10T16:28:38Z</time>
      </trkpt>
      <trkpt lat="44.0731" lon="6.63303">
        <ele>1870.954</ele>
        <time>2011-07-10T16:28:39Z</time>
      </trkpt>
      <trkpt lat="44.07293" lon="6.63303">
        <ele>1867.092</ele>
        <time>2011-07-10T16:28:44Z</time>
      </trkpt>
      <trkpt lat="44.0729" lon="6.63302">
        <ele>1867.062</ele>
        <time>2011-07-10T16:28:45Z</time>
      </trkpt>
      <trkpt lat="44.07283" lon="6.63289">
        <ele>1862.658</ele>
        <time>2011-07-10T16:28:49Z</time>
      </trkpt>
      <trkpt lat="44.07281" lon="6.63269">
        <ele>1858.037</ele>
        <time>2011-07-10T16:28:53Z</time>
      </trkpt>
      <trkpt lat="44.07279" lon="6.63243">
        <ele>1851.154</ele>
        <time>2011-07-10T16:28:58Z</time>
      </trkpt>
      <trkpt lat="44.07279" lon="6.63223">
        <ele>1846.853</ele>
        <time>2011-07-10T16:29:02Z</time>
      </trkpt>
      <trkpt lat="44.07271" lon="6.6322">
        <ele>1844.825</ele>
        <time>2011-07-10T16:29:05Z</time>
      </trkpt>
      <trkpt lat="44.07262" lon="6.63214">
        <ele>1842.425</ele>
        <time>2011-07-10T16:29:09Z</time>
      </trkpt>
      <trkpt lat="44.07269" lon="6.63205">
        <ele>1839.31</ele>
        <time>2011-07-10T16:29:13Z</time>
      </trkpt>
      <trkpt lat="44.0727" lon="6.63189">
        <ele>1835.729</ele>
        <time>2011-07-10T16:29:17Z</time>
      </trkpt>
      <trkpt lat="44.07262" lon="6.6319">
        <ele>1834.59</ele>
        <time>2011-07-10T16:29:19Z</time>
      </trkpt>
      <trkpt lat="44.07238" lon="6.6319">
        <ele>1834.753</ele>
        <time>2011-07-10T16:29:24Z</time>
      </trkpt>
      <trkpt lat="44.07212" lon="6.63176">
        <ele>1835.416</ele>
        <time>2011-07-10T16:29:30Z</time>
      </trkpt>
      <trkpt lat="44.07204" lon="6.63165">
        <ele>1834.925</ele>
        <time>2011-07-10T16:29:33Z</time>
      </trkpt>
      <trkpt lat="44.0721" lon="6.63145">
        <ele>1832.714</ele>
        <time>2011-07-10T16:29:37Z</time>
      </trkpt>
      <trkpt lat="44.07209" lon="6.63124">
        <ele>1827.841</ele>
        <time>2011-07-10T16:29:42Z</time>
      </trkpt>
      <trkpt lat="44.07206" lon="6.6312">
        <ele>1827.422</ele>
        <time>2011-07-10T16:29:43Z</time>
      </trkpt>
      <trkpt lat="44.07204" lon="6.63115">
        <ele>1820.606</ele>
        <time>2011-07-10T16:29:47Z</time>
      </trkpt>
      <trkpt lat="44.07203" lon="6.63097">
        <ele>1819.099</ele>
        <time>2011-07-10T16:29:51Z</time>
      </trkpt>
      <trkpt lat="44.07204" lon="6.63091">
        <ele>1818.109</ele>
        <time>2011-07-10T16:29:52Z</time>
      </trkpt>
      <trkpt lat="44.07205" lon="6.63082">
        <ele>1818.34</ele>
        <time>2011-07-10T16:29:54Z</time>
      </trkpt>
      <trkpt lat="44.07195" lon="6.63072">
        <ele>1813.767</ele>
        <time>2011-07-10T16:29:58Z</time>
      </trkpt>
      <trkpt lat="44.07175" lon="6.63065">
        <ele>1811.371</ele>
        <time>2011-07-10T16:30:03Z</time>
      </trkpt>
      <trkpt lat="44.07163" lon="6.63058">
        <ele>1812.205</ele>
        <time>2011-07-10T16:30:08Z</time>
      </trkpt>
      <trkpt lat="44.07159" lon="6.63054">
        <ele>1810.153</ele>
        <time>2011-07-10T16:30:12Z</time>
      </trkpt>
      <trkpt lat="44.07153" lon="6.63035">
        <ele>1806.901</ele>
        <time>2011-07-10T16:30:17Z</time>
      </trkpt>
      <trkpt lat="44.07144" lon="6.6302">
        <ele>1803.268</ele>
        <time>2011-07-10T16:30:21Z</time>
      </trkpt>
      <trkpt lat="44.07123" lon="6.63008">
        <ele>1799.247</ele>
        <time>2011-07-10T16:30:27Z</time>
      </trkpt>
      <trkpt lat="44.07121" lon="6.63005">
        <ele>1797.506</ele>
        <time>2011-07-10T16:30:28Z</time>
      </trkpt>
      <trkpt lat="44.07104" lon="6.63">
        <ele>1794.136</ele>
        <time>2011-07-10T16:30:33Z</time>
      </trkpt>
      <trkpt lat="44.07091" lon="6.62996">
        <ele>1792.476</ele>
        <time>2011-07-10T16:30:36Z</time>
      </trkpt>
      <trkpt lat="44.0707" lon="6.6299">
        <ele>1787.293</ele>
        <time>2011-07-10T16:30:41Z</time>
      </trkpt>
      <trkpt lat="44.0706" lon="6.62977">
        <ele>1782.912</ele>
        <time>2011-07-10T16:30:45Z</time>
      </trkpt>
      <trkpt lat="44.07061" lon="6.62964">
        <ele>1777.199</ele>
        <time>2011-07-10T16:30:48Z</time>
      </trkpt>
      <trkpt lat="44.07061" lon="6.62957">
        <ele>1778.756</ele>
        <time>2011-07-10T16:30:50Z</time>
      </trkpt>
      <trkpt lat="44.07057" lon="6.62947">
        <ele>1776.076</ele>
        <time>2011-07-10T16:30:55Z</time>
      </trkpt>
      <trkpt lat="44.07054" lon="6.62947">
        <ele>1775.877</ele>
        <time>2011-07-10T16:30:56Z</time>
      </trkpt>
      <trkpt lat="44.07047" lon="6.62948">
        <ele>1774.337</ele>
        <time>2011-07-10T16:30:58Z</time>
      </trkpt>
      <trkpt lat="44.07033" lon="6.62943">
        <ele>1766.591</ele>
        <time>2011-07-10T16:31:02Z</time>
      </trkpt>
      <trkpt lat="44.07014" lon="6.6292">
        <ele>1759.8</ele>
        <time>2011-07-10T16:31:08Z</time>
      </trkpt>
      <trkpt lat="44.07004" lon="6.62914">
        <ele>1759.91</ele>
        <time>2011-07-10T16:31:10Z</time>
      </trkpt>
      <trkpt lat="44.06991" lon="6.62899">
        <ele>1755.268</ele>
        <time>2011-07-10T16:31:14Z</time>
      </trkpt>
      <trkpt lat="44.0698" lon="6.62891">
        <ele>1752.12</ele>
        <time>2011-07-10T16:31:18Z</time>
      </trkpt>
      <trkpt lat="44.06965" lon="6.62873">
        <ele>1752.265</ele>
        <time>2011-07-10T16:31:24Z</time>
      </trkpt>
      <trkpt lat="44.06955" lon="6.62867">
        <ele>1752.169</ele>
        <time>2011-07-10T16:31:27Z</time>
      </trkpt>
      <trkpt lat="44.06948" lon="6.62863">
        <ele>1754.342</ele>
        <time>2011-07-10T16:31:29Z</time>
      </trkpt>
      <trkpt lat="44.06944" lon="6.62855">
        <ele>1756.265</ele>
        <time>2011-07-10T16:31:32Z</time>
      </trkpt>
      <trkpt lat="44.06948" lon="6.62849">
        <ele>1756.685</ele>
        <time>2011-07-10T16:31:37Z</time>
      </trkpt>
      <trkpt lat="44.06946" lon="6.62843">
        <ele>1757.375</ele>
        <time>2011-07-10T16:31:51Z</time>
      </trkpt>
      <trkpt lat="44.06945" lon="6.62842">
        <ele>1755.624</ele>
        <time>2011-07-10T16:31:56Z</time>
      </trkpt>
      <trkpt lat="44.06946" lon="6.62843">
        <ele>1761.54</ele>
        <time>2011-07-10T16:32:01Z</time>
      </trkpt>
      <trkpt lat="44.0693" lon="6.62846">
        <ele>1768.722</ele>
        <time>2011-07-10T16:33:06Z</time>
      </trkpt>
      <trkpt lat="44.06931" lon="6.62846">
        <ele>1764.992</ele>
        <time>2011-07-10T16:33:11Z</time>
      </trkpt>
      <trkpt lat="44.06963" lon="6.62848">
        <ele>1738.358</ele>
        <time>2011-07-10T16:35:53Z</time>
      </trkpt>
      <trkpt lat="44.06942" lon="6.62848">
        <ele>1756.91</ele>
        <time>2011-07-10T16:36:55Z</time>
      </trkpt>
      <trkpt lat="44.06942" lon="6.62842">
        <ele>1753.062</ele>
        <time>2011-07-10T16:36:58Z</time>
      </trkpt>
      <trkpt lat="44.06933" lon="6.62832">
        <ele>1750.788</ele>
        <time>2011-07-10T16:37:03Z</time>
      </trkpt>
      <trkpt lat="44.06926" lon="6.62825">
        <ele>1746.375</ele>
        <time>2011-07-10T16:37:07Z</time>
      </trkpt>
      <trkpt lat="44.06922" lon="6.62813">
        <ele>1744.066</ele>
        <time>2011-07-10T16:37:11Z</time>
      </trkpt>
      <trkpt lat="44.06909" lon="6.62798">
        <ele>1742.473</ele>
        <time>2011-07-10T16:37:15Z</time>
      </trkpt>
      <trkpt lat="44.06901" lon="6.62793">
        <ele>1744.265</ele>
        <time>2011-07-10T16:37:17Z</time>
      </trkpt>
      <trkpt lat="44.06882" lon="6.62764">
        <ele>1737.068</ele>
        <time>2011-07-10T16:37:22Z</time>
      </trkpt>
      <trkpt lat="44.06862" lon="6.62754">
        <ele>1737.161</ele>
        <time>2011-07-10T16:37:26Z</time>
      </trkpt>
      <trkpt lat="44.0685" lon="6.62748">
        <ele>1736.391</ele>
        <time>2011-07-10T16:37:28Z</time>
      </trkpt>
      <trkpt lat="44.06831" lon="6.62728">
        <ele>1728.125</ele>
        <time>2011-07-10T16:37:32Z</time>
      </trkpt>
      <trkpt lat="44.06811" lon="6.62709">
        <ele>1724.015</ele>
        <time>2011-07-10T16:37:37Z</time>
      </trkpt>
      <trkpt lat="44.0681" lon="6.6269">
        <ele>1715.03</ele>
        <time>2011-07-10T16:37:41Z</time>
      </trkpt>
      <trkpt lat="44.06808" lon="6.62684">
        <ele>1715.992</ele>
        <time>2011-07-10T16:37:42Z</time>
      </trkpt>
      <trkpt lat="44.06791" lon="6.62662">
        <ele>1719.969</ele>
        <time>2011-07-10T16:37:47Z</time>
      </trkpt>
      <trkpt lat="44.06768" lon="6.6264">
        <ele>1715.247</ele>
        <time>2011-07-10T16:37:52Z</time>
      </trkpt>
      <trkpt lat="44.06753" lon="6.62624">
        <ele>1706.83</ele>
        <time>2011-07-10T16:37:56Z</time>
      </trkpt>
      <trkpt lat="44.06752" lon="6.62618">
        <ele>1703.538</ele>
        <time>2011-07-10T16:37:57Z</time>
      </trkpt>
      <trkpt lat="44.0675" lon="6.62604">
        <ele>1697.066</ele>
        <time>2011-07-10T16:37:59Z</time>
      </trkpt>
      <trkpt lat="44.06744" lon="6.62571">
        <ele>1697.613</ele>
        <time>2011-07-10T16:38:04Z</time>
      </trkpt>
      <trkpt lat="44.06754" lon="6.62552">
        <ele>1692.53</ele>
        <time>2011-07-10T16:38:07Z</time>
      </trkpt>
      <trkpt lat="44.06762" lon="6.62517">
        <ele>1683.649</ele>
        <time>2011-07-10T16:38:13Z</time>
      </trkpt>
      <trkpt lat="44.06769" lon="6.6251">
        <ele>1680.808</ele>
        <time>2011-07-10T16:38:15Z</time>
      </trkpt>
      <trkpt lat="44.06787" lon="6.62493">
        <ele>1673.726</ele>
        <time>2011-07-10T16:38:20Z</time>
      </trkpt>
      <trkpt lat="44.0679" lon="6.62473">
        <ele>1675.031</ele>
        <time>2011-07-10T16:38:25Z</time>
      </trkpt>
      <trkpt lat="44.06786" lon="6.62464">
        <ele>1676.024</ele>
        <time>2011-07-10T16:38:27Z</time>
      </trkpt>
      <trkpt lat="44.06787" lon="6.62445">
        <ele>1677.029</ele>
        <time>2011-07-10T16:38:32Z</time>
      </trkpt>
      <trkpt lat="44.06782" lon="6.62431">
        <ele>1677.42</ele>
        <time>2011-07-10T16:38:37Z</time>
      </trkpt>
      <trkpt lat="44.06778" lon="6.62413">
        <ele>1671.856</ele>
        <time>2011-07-10T16:38:41Z</time>
      </trkpt>
      <trkpt lat="44.06763" lon="6.62405">
        <ele>1671.668</ele>
        <time>2011-07-10T16:38:44Z</time>
      </trkpt>
      <trkpt lat="44.06746" lon="6.62399">
        <ele>1664.043</ele>
        <time>2011-07-10T16:38:48Z</time>
      </trkpt>
      <trkpt lat="44.06744" lon="6.62386">
        <ele>1656.368</ele>
        <time>2011-07-10T16:38:51Z</time>
      </trkpt>
      <trkpt lat="44.06743" lon="6.62383">
        <ele>1654.457</ele>
        <time>2011-07-10T16:38:52Z</time>
      </trkpt>
      <trkpt lat="44.06738" lon="6.62363">
        <ele>1647.126</ele>
        <time>2011-07-10T16:38:57Z</time>
      </trkpt>
      <trkpt lat="44.06741" lon="6.62346">
        <ele>1641.738</ele>
        <time>2011-07-10T16:39:01Z</time>
      </trkpt>
      <trkpt lat="44.06735" lon="6.62322">
        <ele>1635.898</ele>
        <time>2011-07-10T16:39:06Z</time>
      </trkpt>
      <trkpt lat="44.06733" lon="6.62317">
        <ele>1634.707</ele>
        <time>2011-07-10T16:39:07Z</time>
      </trkpt>
      <trkpt lat="44.06726" lon="6.62297">
        <ele>1630.94</ele>
        <time>2011-07-10T16:39:11Z</time>
      </trkpt>
      <trkpt lat="44.0672" lon="6.62281">
        <ele>1627.769</ele>
        <time>2011-07-10T16:39:15Z</time>
      </trkpt>
      <trkpt lat="44.06721" lon="6.62276">
        <ele>1625.458</ele>
        <time>2011-07-10T16:39:16Z</time>
      </trkpt>
      <trkpt lat="44.06722" lon="6.62255">
        <ele>1620.022</ele>
        <time>2011-07-10T16:39:22Z</time>
      </trkpt>
      <trkpt lat="44.06728" lon="6.62244">
        <ele>1613.331</ele>
        <time>2011-07-10T16:39:26Z</time>
      </trkpt>
      <trkpt lat="44.06722" lon="6.62233">
        <ele>1611.46</ele>
        <time>2011-07-10T16:39:29Z</time>
      </trkpt>
      <trkpt lat="44.0672" lon="6.62224">
        <ele>1610.868</ele>
        <time>2011-07-10T16:39:31Z</time>
      </trkpt>
      <trkpt lat="44.06721" lon="6.62215">
        <ele>1610.103</ele>
        <time>2011-07-10T16:39:33Z</time>
      </trkpt>
      <trkpt lat="44.06733" lon="6.62206">
        <ele>1612.559</ele>
        <time>2011-07-10T16:39:38Z</time>
      </trkpt>
      <trkpt lat="44.06726" lon="6.62196">
        <ele>1619.717</ele>
        <time>2011-07-10T16:39:42Z</time>
      </trkpt>
      <trkpt lat="44.06728" lon="6.62189">
        <ele>1622.318</ele>
        <time>2011-07-10T16:39:46Z</time>
      </trkpt>
      <trkpt lat="44.06727" lon="6.62184">
        <ele>1622.037</ele>
        <time>2011-07-10T16:39:49Z</time>
      </trkpt>
      <trkpt lat="44.06722" lon="6.62178">
        <ele>1621.226</ele>
        <time>2011-07-10T16:39:53Z</time>
      </trkpt>
      <trkpt lat="44.06717" lon="6.62171">
        <ele>1621.376</ele>
        <time>2011-07-10T16:39:58Z</time>
      </trkpt>
      <trkpt lat="44.06713" lon="6.62173">
        <ele>1621.566</ele>
        <time>2011-07-10T16:40:11Z</time>
      </trkpt>
      <trkpt lat="44.0671" lon="6.62179">
        <ele>1621.146</ele>
        <time>2011-07-10T16:40:20Z</time>
      </trkpt>
      <trkpt lat="44.06709" lon="6.62181">
        <ele>1621.016</ele>
        <time>2011-07-10T16:40:23Z</time>
      </trkpt>
      <trkpt lat="44.06706" lon="6.62183">
        <ele>1620.976</ele>
        <time>2011-07-10T16:40:30Z</time>
      </trkpt>
      <trkpt lat="44.06699" lon="6.62187">
        <ele>1622.596</ele>
        <time>2011-07-10T16:40:45Z</time>
      </trkpt>
      <trkpt lat="44.06694" lon="6.62202">
        <ele>1610.394</ele>
        <time>2011-07-10T16:40:51Z</time>
      </trkpt>
      <trkpt lat="44.06693" lon="6.62209">
        <ele>1605.923</ele>
        <time>2011-07-10T16:40:55Z</time>
      </trkpt>
      <trkpt lat="44.06691" lon="6.62211">
        <ele>1602.172</ele>
        <time>2011-07-10T16:41:00Z</time>
      </trkpt>
      <trkpt lat="44.0669" lon="6.62214">
        <ele>1600.502</ele>
        <time>2011-07-10T16:41:04Z</time>
      </trkpt>
      <trkpt lat="44.06683" lon="6.62215">
        <ele>1600.224</ele>
        <time>2011-07-10T16:41:08Z</time>
      </trkpt>
      <trkpt lat="44.06683" lon="6.62204">
        <ele>1600.864</ele>
        <time>2011-07-10T16:41:13Z</time>
      </trkpt>
      <trkpt lat="44.06685" lon="6.62201">
        <ele>1597.552</ele>
        <time>2011-07-10T16:41:18Z</time>
      </trkpt>
      <trkpt lat="44.06686" lon="6.62198">
        <ele>1595.212</ele>
        <time>2011-07-10T16:41:25Z</time>
      </trkpt>
      <trkpt lat="44.06689" lon="6.62192">
        <ele>1596.543</ele>
        <time>2011-07-10T16:41:56Z</time>
      </trkpt>
      <trkpt lat="44.06699" lon="6.62179">
        <ele>1590.649</ele>
        <time>2011-07-10T16:42:02Z</time>
      </trkpt>
      <trkpt lat="44.06704" lon="6.62167">
        <ele>1579.891</ele>
        <time>2011-07-10T16:42:06Z</time>
      </trkpt>
      <trkpt lat="44.06708" lon="6.6216">
        <ele>1577.18</ele>
        <time>2011-07-10T16:42:08Z</time>
      </trkpt>
      <trkpt lat="44.06716" lon="6.62145">
        <ele>1575.427</ele>
        <time>2011-07-10T16:42:14Z</time>
      </trkpt>
      <trkpt lat="44.06717" lon="6.62131">
        <ele>1574.74</ele>
        <time>2011-07-10T16:42:18Z</time>
      </trkpt>
      <trkpt lat="44.06724" lon="6.62106">
        <ele>1574.042</ele>
        <time>2011-07-10T16:42:24Z</time>
      </trkpt>
      <trkpt lat="44.06729" lon="6.62091">
        <ele>1573.604</ele>
        <time>2011-07-10T16:42:29Z</time>
      </trkpt>
      <trkpt lat="44.06732" lon="6.62084">
        <ele>1573.454</ele>
        <time>2011-07-10T16:42:31Z</time>
      </trkpt>
      <trkpt lat="44.06745" lon="6.62064">
        <ele>1572.704</ele>
        <time>2011-07-10T16:42:38Z</time>
      </trkpt>
      <trkpt lat="44.06756" lon="6.62052">
        <ele>1572.124</ele>
        <time>2011-07-10T16:42:43Z</time>
      </trkpt>
      <trkpt lat="44.06769" lon="6.62043">
        <ele>1571.244</ele>
        <time>2011-07-10T16:42:48Z</time>
      </trkpt>
      <trkpt lat="44.06776" lon="6.62034">
        <ele>1570.844</ele>
        <time>2011-07-10T16:42:53Z</time>
      </trkpt>
      <trkpt lat="44.06781" lon="6.62022">
        <ele>1571.564</ele>
        <time>2011-07-10T16:42:58Z</time>
      </trkpt>
      <trkpt lat="44.06781" lon="6.62011">
        <ele>1571.665</ele>
        <time>2011-07-10T16:43:03Z</time>
      </trkpt>
      <trkpt lat="44.06785" lon="6.62002">
        <ele>1571.044</ele>
        <time>2011-07-10T16:43:07Z</time>
      </trkpt>
      <trkpt lat="44.06784" lon="6.61996">
        <ele>1570.334</ele>
        <time>2011-07-10T16:43:09Z</time>
      </trkpt>
      <trkpt lat="44.06778" lon="6.61984">
        <ele>1569.804</ele>
        <time>2011-07-10T16:43:13Z</time>
      </trkpt>
      <trkpt lat="44.06759" lon="6.61964">
        <ele>1570.295</ele>
        <time>2011-07-10T16:43:19Z</time>
      </trkpt>
      <trkpt lat="44.06741" lon="6.61951">
        <ele>1565.383</ele>
        <time>2011-07-10T16:43:24Z</time>
      </trkpt>
      <trkpt lat="44.06738" lon="6.61942">
        <ele>1553.879</ele>
        <time>2011-07-10T16:43:28Z</time>
      </trkpt>
      <trkpt lat="44.06734" lon="6.6193">
        <ele>1542.305</ele>
        <time>2011-07-10T16:43:33Z</time>
      </trkpt>
      <trkpt lat="44.06732" lon="6.61911">
        <ele>1537.536</ele>
        <time>2011-07-10T16:43:37Z</time>
      </trkpt>
      <trkpt lat="44.0673" lon="6.61892">
        <ele>1532.614</ele>
        <time>2011-07-10T16:43:41Z</time>
      </trkpt>
      <trkpt lat="44.06732" lon="6.61868">
        <ele>1528.044</ele>
        <time>2011-07-10T16:43:45Z</time>
      </trkpt>
      <trkpt lat="44.06737" lon="6.61849">
        <ele>1523.943</ele>
        <time>2011-07-10T16:43:49Z</time>
      </trkpt>
      <trkpt lat="44.06737" lon="6.61851">
        <ele>1523.671</ele>
        <time>2011-07-10T16:43:50Z</time>
      </trkpt>
      <trkpt lat="44.06733" lon="6.61857">
        <ele>1531.115</ele>
        <time>2011-07-10T16:43:56Z</time>
      </trkpt>
      <trkpt lat="44.06732" lon="6.61858">
        <ele>1537.669</ele>
        <time>2011-07-10T16:44:01Z</time>
      </trkpt>
      <trkpt lat="44.06724" lon="6.61867">
        <ele>1544.402</ele>
        <time>2011-07-10T16:44:06Z</time>
      </trkpt>
      <trkpt lat="44.06723" lon="6.61864">
        <ele>1548.468</ele>
        <time>2011-07-10T16:44:09Z</time>
      </trkpt>
      <trkpt lat="44.06723" lon="6.61862">
        <ele>1545.649</ele>
        <time>2011-07-10T16:44:12Z</time>
      </trkpt>
      <trkpt lat="44.06724" lon="6.61864">
        <ele>1543.706</ele>
        <time>2011-07-10T16:44:19Z</time>
      </trkpt>
      <trkpt lat="44.0672" lon="6.61868">
        <ele>1546.322</ele>
        <time>2011-07-10T16:44:24Z</time>
      </trkpt>
      <trkpt lat="44.06719" lon="6.61867">
        <ele>1548</ele>
        <time>2011-07-10T16:44:26Z</time>
      </trkpt>
      <trkpt lat="44.06718" lon="6.61862">
        <ele>1546.527</ele>
        <time>2011-07-10T16:44:30Z</time>
      </trkpt>
      <trkpt lat="44.06721" lon="6.61857">
        <ele>1538.828</ele>
        <time>2011-07-10T16:44:37Z</time>
      </trkpt>
      <trkpt lat="44.06714" lon="6.61858">
        <ele>1548.113</ele>
        <time>2011-07-10T16:45:21Z</time>
      </trkpt>
      <trkpt lat="44.06719" lon="6.61855">
        <ele>1536.707</ele>
        <time>2011-07-10T16:55:18Z</time>
      </trkpt>
      <trkpt lat="44.06717" lon="6.61858">
        <ele>1538.684</ele>
        <time>2011-07-10T16:55:22Z</time>
      </trkpt>
      <trkpt lat="44.06715" lon="6.61855">
        <ele>1533.604</ele>
        <time>2011-07-10T16:55:28Z</time>
      </trkpt>
      <trkpt lat="44.06715" lon="6.61853">
        <ele>1531.813</ele>
        <time>2011-07-10T16:55:31Z</time>
      </trkpt>
      <trkpt lat="44.06716" lon="6.61846">
        <ele>1535.758</ele>
        <time>2011-07-10T16:55:39Z</time>
      </trkpt>
      <trkpt lat="44.06716" lon="6.61845">
        <ele>1538.349</ele>
        <time>2011-07-10T16:55:44Z</time>
      </trkpt>
      <trkpt lat="44.06719" lon="6.61836">
        <ele>1537.396</ele>
        <time>2011-07-10T16:55:50Z</time>
      </trkpt>
      <trkpt lat="44.06715" lon="6.61828">
        <ele>1536.594</ele>
        <time>2011-07-10T16:56:01Z</time>
      </trkpt>
      <trkpt lat="44.06717" lon="6.61815">
        <ele>1524.308</ele>
        <time>2011-07-10T16:56:12Z</time>
      </trkpt>
      <trkpt lat="44.06717" lon="6.61813">
        <ele>1523.617</ele>
        <time>2011-07-10T16:56:13Z</time>
      </trkpt>
      <trkpt lat="44.06715" lon="6.61799">
        <ele>1522.401</ele>
        <time>2011-07-10T16:56:18Z</time>
      </trkpt>
      <trkpt lat="44.06718" lon="6.61788">
        <ele>1521.631</ele>
        <time>2011-07-10T16:56:21Z</time>
      </trkpt>
      <trkpt lat="44.06724" lon="6.6177">
        <ele>1525.415</ele>
        <time>2011-07-10T16:56:27Z</time>
      </trkpt>
      <trkpt lat="44.06728" lon="6.61754">
        <ele>1527.426</ele>
        <time>2011-07-10T16:56:33Z</time>
      </trkpt>
      <trkpt lat="44.06731" lon="6.6175">
        <ele>1526.855</ele>
        <time>2011-07-10T16:56:35Z</time>
      </trkpt>
      <trkpt lat="44.06741" lon="6.61738">
        <ele>1527.299</ele>
        <time>2011-07-10T16:56:41Z</time>
      </trkpt>
      <trkpt lat="44.06748" lon="6.61728">
        <ele>1537.801</ele>
        <time>2011-07-10T16:56:46Z</time>
      </trkpt>
      <trkpt lat="44.06753" lon="6.61721">
        <ele>1560.218</ele>
        <time>2011-07-10T16:56:51Z</time>
      </trkpt>
      <trkpt lat="44.06765" lon="6.61708">
        <ele>1579.612</ele>
        <time>2011-07-10T16:56:58Z</time>
      </trkpt>
      <trkpt lat="44.06782" lon="6.61689">
        <ele>1586.527</ele>
        <time>2011-07-10T16:57:06Z</time>
      </trkpt>
      <trkpt lat="44.06794" lon="6.61676">
        <ele>1583.492</ele>
        <time>2011-07-10T16:57:12Z</time>
      </trkpt>
      <trkpt lat="44.06806" lon="6.61665">
        <ele>1582.65</ele>
        <time>2011-07-10T16:57:18Z</time>
      </trkpt>
      <trkpt lat="44.06818" lon="6.61653">
        <ele>1582.58</ele>
        <time>2011-07-10T16:57:24Z</time>
      </trkpt>
      <trkpt lat="44.06826" lon="6.61639">
        <ele>1583.22</ele>
        <time>2011-07-10T16:57:30Z</time>
      </trkpt>
      <trkpt lat="44.06834" lon="6.61622">
        <ele>1583.218</ele>
        <time>2011-07-10T16:57:36Z</time>
      </trkpt>
      <trkpt lat="44.06845" lon="6.61605">
        <ele>1587.551</ele>
        <time>2011-07-10T16:57:43Z</time>
      </trkpt>
      <trkpt lat="44.06855" lon="6.61585">
        <ele>1588.708</ele>
        <time>2011-07-10T16:57:50Z</time>
      </trkpt>
      <trkpt lat="44.06865" lon="6.61565">
        <ele>1589.076</ele>
        <time>2011-07-10T16:57:57Z</time>
      </trkpt>
      <trkpt lat="44.06871" lon="6.61548">
        <ele>1589.236</ele>
        <time>2011-07-10T16:58:02Z</time>
      </trkpt>
      <trkpt lat="44.06878" lon="6.61523">
        <ele>1589.165</ele>
        <time>2011-07-10T16:58:09Z</time>
      </trkpt>
      <trkpt lat="44.06883" lon="6.61497">
        <ele>1583.312</ele>
        <time>2011-07-10T16:58:17Z</time>
      </trkpt>
      <trkpt lat="44.06893" lon="6.6147">
        <ele>1558.177</ele>
        <time>2011-07-10T16:58:25Z</time>
      </trkpt>
      <trkpt lat="44.06892" lon="6.61467">
        <ele>1559.62</ele>
        <time>2011-07-10T16:58:28Z</time>
      </trkpt>
      <trkpt lat="44.06896" lon="6.61467">
        <ele>1546.222</ele>
        <time>2011-07-10T16:58:47Z</time>
      </trkpt>
      <trkpt lat="44.06899" lon="6.61465">
        <ele>1544.091</ele>
        <time>2011-07-10T16:58:50Z</time>
      </trkpt>
      <trkpt lat="44.06902" lon="6.61458">
        <ele>1540.141</ele>
        <time>2011-07-10T16:58:55Z</time>
      </trkpt>
      <trkpt lat="44.06909" lon="6.61439">
        <ele>1537.67</ele>
        <time>2011-07-10T16:58:59Z</time>
      </trkpt>
      <trkpt lat="44.06915" lon="6.61413">
        <ele>1534.679</ele>
        <time>2011-07-10T16:59:03Z</time>
      </trkpt>
      <trkpt lat="44.06914" lon="6.61376">
        <ele>1530.389</ele>
        <time>2011-07-10T16:59:09Z</time>
      </trkpt>
      <trkpt lat="44.06923" lon="6.61354">
        <ele>1529.452</ele>
        <time>2011-07-10T16:59:14Z</time>
      </trkpt>
      <trkpt lat="44.0693" lon="6.61349">
        <ele>1529.373</ele>
        <time>2011-07-10T16:59:16Z</time>
      </trkpt>
      <trkpt lat="44.06937" lon="6.61344">
        <ele>1528.842</ele>
        <time>2011-07-10T16:59:18Z</time>
      </trkpt>
      <trkpt lat="44.0696" lon="6.61337">
        <ele>1527.583</ele>
        <time>2011-07-10T16:59:23Z</time>
      </trkpt>
      <trkpt lat="44.06983" lon="6.61335">
        <ele>1527.143</ele>
        <time>2011-07-10T16:59:27Z</time>
      </trkpt>
      <trkpt lat="44.07016" lon="6.61346">
        <ele>1526.313</ele>
        <time>2011-07-10T16:59:32Z</time>
      </trkpt>
      <trkpt lat="44.07041" lon="6.61347">
        <ele>1526.013</ele>
        <time>2011-07-10T16:59:36Z</time>
      </trkpt>
      <trkpt lat="44.07043" lon="6.61336">
        <ele>1525.983</ele>
        <time>2011-07-10T16:59:37Z</time>
      </trkpt>
      <trkpt lat="44.07066" lon="6.61298">
        <ele>1525.613</ele>
        <time>2011-07-10T16:59:42Z</time>
      </trkpt>
      <trkpt lat="44.07116" lon="6.61261">
        <ele>1525.314</ele>
        <time>2011-07-10T16:59:49Z</time>
      </trkpt>
      <trkpt lat="44.07177" lon="6.61231">
        <ele>1522.733</ele>
        <time>2011-07-10T16:59:56Z</time>
      </trkpt>
      <trkpt lat="44.07254" lon="6.61192">
        <ele>1518.072</ele>
        <time>2011-07-10T17:00:05Z</time>
      </trkpt>
      <trkpt lat="44.07299" lon="6.61166">
        <ele>1515.102</ele>
        <time>2011-07-10T17:00:11Z</time>
      </trkpt>
      <trkpt lat="44.07324" lon="6.61129">
        <ele>1513.481</ele>
        <time>2011-07-10T17:00:16Z</time>
      </trkpt>
      <trkpt lat="44.07328" lon="6.611">
        <ele>1512.901</ele>
        <time>2011-07-10T17:00:19Z</time>
      </trkpt>
      <trkpt lat="44.07315" lon="6.6108">
        <ele>1512.432</ele>
        <time>2011-07-10T17:00:22Z</time>
      </trkpt>
      <trkpt lat="44.07292" lon="6.6108">
        <ele>1511.391</ele>
        <time>2011-07-10T17:00:25Z</time>
      </trkpt>
      <trkpt lat="44.07277" lon="6.61076">
        <ele>1510.281</ele>
        <time>2011-07-10T17:00:27Z</time>
      </trkpt>
      <trkpt lat="44.07225" lon="6.61051">
        <ele>1517.668</ele>
        <time>2011-07-10T17:00:34Z</time>
      </trkpt>
      <trkpt lat="44.07202" lon="6.61031">
        <ele>1519.008</ele>
        <time>2011-07-10T17:00:39Z</time>
      </trkpt>
      <trkpt lat="44.07181" lon="6.61013">
        <ele>1520.327</ele>
        <time>2011-07-10T17:00:45Z</time>
      </trkpt>
      <trkpt lat="44.07154" lon="6.60994">
        <ele>1525.678</ele>
        <time>2011-07-10T17:00:53Z</time>
      </trkpt>
      <trkpt lat="44.0713" lon="6.60985">
        <ele>1528.728</ele>
        <time>2011-07-10T17:01:00Z</time>
      </trkpt>
      <trkpt lat="44.07104" lon="6.60982">
        <ele>1532.349</ele>
        <time>2011-07-10T17:01:07Z</time>
      </trkpt>
      <trkpt lat="44.07077" lon="6.60974">
        <ele>1534.056</ele>
        <time>2011-07-10T17:01:15Z</time>
      </trkpt>
      <trkpt lat="44.07063" lon="6.6096">
        <ele>1533.175</ele>
        <time>2011-07-10T17:01:21Z</time>
      </trkpt>
      <trkpt lat="44.0706" lon="6.60939">
        <ele>1532.294</ele>
        <time>2011-07-10T17:01:26Z</time>
      </trkpt>
      <trkpt lat="44.07071" lon="6.60916">
        <ele>1531.704</ele>
        <time>2011-07-10T17:01:31Z</time>
      </trkpt>
      <trkpt lat="44.07085" lon="6.60894">
        <ele>1531.413</ele>
        <time>2011-07-10T17:01:36Z</time>
      </trkpt>
      <trkpt lat="44.07093" lon="6.60872">
        <ele>1528.921</ele>
        <time>2011-07-10T17:01:40Z</time>
      </trkpt>
      <trkpt lat="44.071" lon="6.60839">
        <ele>1526.699</ele>
        <time>2011-07-10T17:01:45Z</time>
      </trkpt>
      <trkpt lat="44.07094" lon="6.60798">
        <ele>1523.957</ele>
        <time>2011-07-10T17:01:50Z</time>
      </trkpt>
      <trkpt lat="44.07091" lon="6.6079">
        <ele>1523.336</ele>
        <time>2011-07-10T17:01:51Z</time>
      </trkpt>
      <trkpt lat="44.07073" lon="6.60755">
        <ele>1522.186</ele>
        <time>2011-07-10T17:01:55Z</time>
      </trkpt>
      <trkpt lat="44.07055" lon="6.60733">
        <ele>1521.136</ele>
        <time>2011-07-10T17:01:58Z</time>
      </trkpt>
      <trkpt lat="44.07034" lon="6.60696">
        <ele>1518.406</ele>
        <time>2011-07-10T17:02:02Z</time>
      </trkpt>
      <trkpt lat="44.07011" lon="6.60663">
        <ele>1515.966</ele>
        <time>2011-07-10T17:02:06Z</time>
      </trkpt>
      <trkpt lat="44.06983" lon="6.60665">
        <ele>1514.914</ele>
        <time>2011-07-10T17:02:09Z</time>
      </trkpt>
      <trkpt lat="44.06947" lon="6.60662">
        <ele>1514.759</ele>
        <time>2011-07-10T17:02:13Z</time>
      </trkpt>
      <trkpt lat="44.0693" lon="6.60635">
        <ele>1512.566</ele>
        <time>2011-07-10T17:02:16Z</time>
      </trkpt>
      <trkpt lat="44.06919" lon="6.60613">
        <ele>1511.097</ele>
        <time>2011-07-10T17:02:18Z</time>
      </trkpt>
      <trkpt lat="44.0689" lon="6.60578">
        <ele>1507.825</ele>
        <time>2011-07-10T17:02:22Z</time>
      </trkpt>
      <trkpt lat="44.06881" lon="6.60572">
        <ele>1506.995</ele>
        <time>2011-07-10T17:02:23Z</time>
      </trkpt>
      <trkpt lat="44.06805" lon="6.60526">
        <ele>1500.421</ele>
        <time>2011-07-10T17:02:31Z</time>
      </trkpt>
      <trkpt lat="44.06745" lon="6.60504">
        <ele>1497.408</ele>
        <time>2011-07-10T17:02:37Z</time>
      </trkpt>
      <trkpt lat="44.06684" lon="6.60493">
        <ele>1495.931</ele>
        <time>2011-07-10T17:02:43Z</time>
      </trkpt>
      <trkpt lat="44.06623" lon="6.60492">
        <ele>1493.39</ele>
        <time>2011-07-10T17:02:49Z</time>
      </trkpt>
      <trkpt lat="44.06571" lon="6.60485">
        <ele>1493.744</ele>
        <time>2011-07-10T17:02:54Z</time>
      </trkpt>
      <trkpt lat="44.06515" lon="6.60461">
        <ele>1491.973</ele>
        <time>2011-07-10T17:03:00Z</time>
      </trkpt>
      <trkpt lat="44.06487" lon="6.60455">
        <ele>1490.824</ele>
        <time>2011-07-10T17:03:03Z</time>
      </trkpt>
      <trkpt lat="44.06435" lon="6.60466">
        <ele>1490.822</ele>
        <time>2011-07-10T17:03:09Z</time>
      </trkpt>
      <trkpt lat="44.06394" lon="6.60486">
        <ele>1491.965</ele>
        <time>2011-07-10T17:03:14Z</time>
      </trkpt>
      <trkpt lat="44.06354" lon="6.60496">
        <ele>1491.575</ele>
        <time>2011-07-10T17:03:19Z</time>
      </trkpt>
      <trkpt lat="44.06301" lon="6.60498">
        <ele>1490.35</ele>
        <time>2011-07-10T17:03:25Z</time>
      </trkpt>
      <trkpt lat="44.06292" lon="6.60498">
        <ele>1489.817</ele>
        <time>2011-07-10T17:03:26Z</time>
      </trkpt>
      <trkpt lat="44.06273" lon="6.60501">
        <ele>1488.305</ele>
        <time>2011-07-10T17:03:28Z</time>
      </trkpt>
      <trkpt lat="44.0624" lon="6.60524">
        <ele>1487.355</ele>
        <time>2011-07-10T17:03:32Z</time>
      </trkpt>
      <trkpt lat="44.06232" lon="6.60533">
        <ele>1487.256</ele>
        <time>2011-07-10T17:03:33Z</time>
      </trkpt>
      <trkpt lat="44.06171" lon="6.60589">
        <ele>1487.161</ele>
        <time>2011-07-10T17:03:40Z</time>
      </trkpt>
      <trkpt lat="44.06123" lon="6.60648">
        <ele>1480.5</ele>
        <time>2011-07-10T17:03:46Z</time>
      </trkpt>
      <trkpt lat="44.06063" lon="6.60714">
        <ele>1472.462</ele>
        <time>2011-07-10T17:03:53Z</time>
      </trkpt>
      <trkpt lat="44.06033" lon="6.60735">
        <ele>1470.677</ele>
        <time>2011-07-10T17:03:56Z</time>
      </trkpt>
      <trkpt lat="44.05971" lon="6.6075">
        <ele>1463.9</ele>
        <time>2011-07-10T17:04:02Z</time>
      </trkpt>
      <trkpt lat="44.05887" lon="6.60767">
        <ele>1456.991</ele>
        <time>2011-07-10T17:04:10Z</time>
      </trkpt>
      <trkpt lat="44.05853" lon="6.60755">
        <ele>1453.712</ele>
        <time>2011-07-10T17:04:14Z</time>
      </trkpt>
      <trkpt lat="44.05847" lon="6.60745">
        <ele>1451.633</ele>
        <time>2011-07-10T17:04:15Z</time>
      </trkpt>
      <trkpt lat="44.05809" lon="6.6071">
        <ele>1446.014</ele>
        <time>2011-07-10T17:04:20Z</time>
      </trkpt>
      <trkpt lat="44.05793" lon="6.60708">
        <ele>1444.883</ele>
        <time>2011-07-10T17:04:22Z</time>
      </trkpt>
      <trkpt lat="44.05753" lon="6.60726">
        <ele>1447.917</ele>
        <time>2011-07-10T17:04:27Z</time>
      </trkpt>
      <trkpt lat="44.05745" lon="6.60733">
        <ele>1448.8</ele>
        <time>2011-07-10T17:04:28Z</time>
      </trkpt>
      <trkpt lat="44.05706" lon="6.60746">
        <ele>1449.255</ele>
        <time>2011-07-10T17:04:33Z</time>
      </trkpt>
      <trkpt lat="44.05661" lon="6.6075">
        <ele>1447.194</ele>
        <time>2011-07-10T17:04:39Z</time>
      </trkpt>
      <trkpt lat="44.05627" lon="6.60742">
        <ele>1448.354</ele>
        <time>2011-07-10T17:04:44Z</time>
      </trkpt>
      <trkpt lat="44.05615" lon="6.60734">
        <ele>1447.755</ele>
        <time>2011-07-10T17:04:46Z</time>
      </trkpt>
      <trkpt lat="44.05567" lon="6.60684">
        <ele>1440.993</ele>
        <time>2011-07-10T17:04:55Z</time>
      </trkpt>
      <trkpt lat="44.0554" lon="6.60658">
        <ele>1439.32</ele>
        <time>2011-07-10T17:05:00Z</time>
      </trkpt>
      <trkpt lat="44.05503" lon="6.60642">
        <ele>1438.524</ele>
        <time>2011-07-10T17:05:06Z</time>
      </trkpt>
      <trkpt lat="44.05498" lon="6.6064">
        <ele>1439.044</ele>
        <time>2011-07-10T17:05:07Z</time>
      </trkpt>
      <trkpt lat="44.05486" lon="6.60633">
        <ele>1437.972</ele>
        <time>2011-07-10T17:05:09Z</time>
      </trkpt>
      <trkpt lat="44.05453" lon="6.60601">
        <ele>1437.275</ele>
        <time>2011-07-10T17:05:15Z</time>
      </trkpt>
      <trkpt lat="44.05419" lon="6.60567">
        <ele>1436.184</ele>
        <time>2011-07-10T17:05:21Z</time>
      </trkpt>
      <trkpt lat="44.05392" lon="6.60531">
        <ele>1434.354</ele>
        <time>2011-07-10T17:05:26Z</time>
      </trkpt>
      <trkpt lat="44.05356" lon="6.60476">
        <ele>1432.136</ele>
        <time>2011-07-10T17:05:33Z</time>
      </trkpt>
      <trkpt lat="44.05311" lon="6.60439">
        <ele>1429.081</ele>
        <time>2011-07-10T17:05:40Z</time>
      </trkpt>
      <trkpt lat="44.05291" lon="6.60422">
        <ele>1427.398</ele>
        <time>2011-07-10T17:05:43Z</time>
      </trkpt>
      <trkpt lat="44.05275" lon="6.60387">
        <ele>1425.895</ele>
        <time>2011-07-10T17:05:47Z</time>
      </trkpt>
      <trkpt lat="44.05263" lon="6.60352">
        <ele>1424.349</ele>
        <time>2011-07-10T17:05:51Z</time>
      </trkpt>
      <trkpt lat="44.05241" lon="6.60344">
        <ele>1423.656</ele>
        <time>2011-07-10T17:05:54Z</time>
      </trkpt>
      <trkpt lat="44.05226" lon="6.60343">
        <ele>1424.782</ele>
        <time>2011-07-10T17:05:56Z</time>
      </trkpt>
      <trkpt lat="44.05204" lon="6.60334">
        <ele>1424.321</ele>
        <time>2011-07-10T17:05:59Z</time>
      </trkpt>
      <trkpt lat="44.05175" lon="6.60302">
        <ele>1422.051</ele>
        <time>2011-07-10T17:06:04Z</time>
      </trkpt>
      <trkpt lat="44.05138" lon="6.60246">
        <ele>1418.904</ele>
        <time>2011-07-10T17:06:11Z</time>
      </trkpt>
      <trkpt lat="44.05116" lon="6.60216">
        <ele>1418.007</ele>
        <time>2011-07-10T17:06:15Z</time>
      </trkpt>
      <trkpt lat="44.051" lon="6.60176">
        <ele>1418.234</ele>
        <time>2011-07-10T17:06:20Z</time>
      </trkpt>
      <trkpt lat="44.05084" lon="6.60165">
        <ele>1417.192</ele>
        <time>2011-07-10T17:06:23Z</time>
      </trkpt>
      <trkpt lat="44.05067" lon="6.60154">
        <ele>1417.667</ele>
        <time>2011-07-10T17:06:27Z</time>
      </trkpt>
      <trkpt lat="44.05062" lon="6.60143">
        <ele>1416.083</ele>
        <time>2011-07-10T17:06:29Z</time>
      </trkpt>
      <trkpt lat="44.05044" lon="6.60113">
        <ele>1417.199</ele>
        <time>2011-07-10T17:06:35Z</time>
      </trkpt>
      <trkpt lat="44.05026" lon="6.60082">
        <ele>1417.409</ele>
        <time>2011-07-10T17:06:41Z</time>
      </trkpt>
      <trkpt lat="44.05006" lon="6.60046">
        <ele>1418.591</ele>
        <time>2011-07-10T17:06:49Z</time>
      </trkpt>
      <trkpt lat="44.04995" lon="6.60011">
        <ele>1423.079</ele>
        <time>2011-07-10T17:06:56Z</time>
      </trkpt>
      <trkpt lat="44.04982" lon="6.59958">
        <ele>1428.237</ele>
        <time>2011-07-10T17:07:06Z</time>
      </trkpt>
      <trkpt lat="44.04972" lon="6.59915">
        <ele>1430.673</ele>
        <time>2011-07-10T17:07:14Z</time>
      </trkpt>
      <trkpt lat="44.0496" lon="6.59865">
        <ele>1431.57</ele>
        <time>2011-07-10T17:07:23Z</time>
      </trkpt>
      <trkpt lat="44.04946" lon="6.59808">
        <ele>1432.339</ele>
        <time>2011-07-10T17:07:33Z</time>
      </trkpt>
      <trkpt lat="44.04935" lon="6.59759">
        <ele>1436.483</ele>
        <time>2011-07-10T17:07:42Z</time>
      </trkpt>
      <trkpt lat="44.04924" lon="6.59717">
        <ele>1443.337</ele>
        <time>2011-07-10T17:07:50Z</time>
      </trkpt>
      <trkpt lat="44.0491" lon="6.59672">
        <ele>1442.63</ele>
        <time>2011-07-10T17:07:59Z</time>
      </trkpt>
      <trkpt lat="44.04897" lon="6.59627">
        <ele>1441.31</ele>
        <time>2011-07-10T17:08:08Z</time>
      </trkpt>
      <trkpt lat="44.04878" lon="6.5958">
        <ele>1437.465</ele>
        <time>2011-07-10T17:08:18Z</time>
      </trkpt>
      <trkpt lat="44.0485" lon="6.59541">
        <ele>1435.604</ele>
        <time>2011-07-10T17:08:28Z</time>
      </trkpt>
      <trkpt lat="44.04827" lon="6.59512">
        <ele>1432.037</ele>
        <time>2011-07-10T17:08:36Z</time>
      </trkpt>
      <trkpt lat="44.048" lon="6.5948">
        <ele>1432.602</ele>
        <time>2011-07-10T17:08:45Z</time>
      </trkpt>
      <trkpt lat="44.04775" lon="6.59448">
        <ele>1430.86</ele>
        <time>2011-07-10T17:08:54Z</time>
      </trkpt>
      <trkpt lat="44.04757" lon="6.59427">
        <ele>1430.863</ele>
        <time>2011-07-10T17:09:00Z</time>
      </trkpt>
      <trkpt lat="44.04728" lon="6.5939">
        <ele>1432.097</ele>
        <time>2011-07-10T17:09:09Z</time>
      </trkpt>
      <trkpt lat="44.04695" lon="6.59352">
        <ele>1439.726</ele>
        <time>2011-07-10T17:09:18Z</time>
      </trkpt>
      <trkpt lat="44.04688" lon="6.59341">
        <ele>1439.381</ele>
        <time>2011-07-10T17:09:20Z</time>
      </trkpt>
      <trkpt lat="44.04682" lon="6.59317">
        <ele>1439.711</ele>
        <time>2011-07-10T17:09:24Z</time>
      </trkpt>
      <trkpt lat="44.04681" lon="6.59306">
        <ele>1442.071</ele>
        <time>2011-07-10T17:09:26Z</time>
      </trkpt>
      <trkpt lat="44.0469" lon="6.59276">
        <ele>1444.025</ele>
        <time>2011-07-10T17:09:31Z</time>
      </trkpt>
      <trkpt lat="44.04717" lon="6.59221">
        <ele>1448.319</ele>
        <time>2011-07-10T17:09:40Z</time>
      </trkpt>
      <trkpt lat="44.04736" lon="6.59179">
        <ele>1449.245</ele>
        <time>2011-07-10T17:09:46Z</time>
      </trkpt>
      <trkpt lat="44.04743" lon="6.59167">
        <ele>1449.865</ele>
        <time>2011-07-10T17:09:48Z</time>
      </trkpt>
      <trkpt lat="44.04757" lon="6.59129">
        <ele>1448.815</ele>
        <time>2011-07-10T17:09:53Z</time>
      </trkpt>
      <trkpt lat="44.04761" lon="6.59103">
        <ele>1446.751</ele>
        <time>2011-07-10T17:09:56Z</time>
      </trkpt>
      <trkpt lat="44.04758" lon="6.59042">
        <ele>1443.341</ele>
        <time>2011-07-10T17:10:02Z</time>
      </trkpt>
      <trkpt lat="44.04755" lon="6.58992">
        <ele>1439.432</ele>
        <time>2011-07-10T17:10:07Z</time>
      </trkpt>
      <trkpt lat="44.04767" lon="6.5895">
        <ele>1436.668</ele>
        <time>2011-07-10T17:10:12Z</time>
      </trkpt>
      <trkpt lat="44.04781" lon="6.58917">
        <ele>1434.463</ele>
        <time>2011-07-10T17:10:16Z</time>
      </trkpt>
      <trkpt lat="44.04788" lon="6.58902">
        <ele>1433.433</ele>
        <time>2011-07-10T17:10:18Z</time>
      </trkpt>
      <trkpt lat="44.04804" lon="6.58882">
        <ele>1435.604</ele>
        <time>2011-07-10T17:10:22Z</time>
      </trkpt>
      <trkpt lat="44.04817" lon="6.5887">
        <ele>1436.547</ele>
        <time>2011-07-10T17:10:25Z</time>
      </trkpt>
      <trkpt lat="44.04833" lon="6.58861">
        <ele>1433.384</ele>
        <time>2011-07-10T17:10:30Z</time>
      </trkpt>
      <trkpt lat="44.04836" lon="6.58869">
        <ele>1439.29</ele>
        <time>2011-07-10T17:11:00Z</time>
      </trkpt>
      <trkpt lat="44.04839" lon="6.5887">
        <ele>1439.019</ele>
        <time>2011-07-10T17:11:01Z</time>
      </trkpt>
      <trkpt lat="44.04855" lon="6.58872">
        <ele>1437.638</ele>
        <time>2011-07-10T17:11:04Z</time>
      </trkpt>
      <trkpt lat="44.04895" lon="6.58871">
        <ele>1432.544</ele>
        <time>2011-07-10T17:11:10Z</time>
      </trkpt>
      <trkpt lat="44.04926" lon="6.58872">
        <ele>1428.51</ele>
        <time>2011-07-10T17:11:14Z</time>
      </trkpt>
      <trkpt lat="44.04958" lon="6.58888">
        <ele>1429.084</ele>
        <time>2011-07-10T17:11:18Z</time>
      </trkpt>
      <trkpt lat="44.05001" lon="6.58896">
        <ele>1425.428</ele>
        <time>2011-07-10T17:11:23Z</time>
      </trkpt>
      <trkpt lat="44.05046" lon="6.58893">
        <ele>1420.202</ele>
        <time>2011-07-10T17:11:28Z</time>
      </trkpt>
      <trkpt lat="44.0509" lon="6.58873">
        <ele>1420.61</ele>
        <time>2011-07-10T17:11:33Z</time>
      </trkpt>
      <trkpt lat="44.0513" lon="6.58838">
        <ele>1418.769</ele>
        <time>2011-07-10T17:11:38Z</time>
      </trkpt>
      <trkpt lat="44.05165" lon="6.5879">
        <ele>1413.059</ele>
        <time>2011-07-10T17:11:43Z</time>
      </trkpt>
      <trkpt lat="44.05183" lon="6.58761">
        <ele>1411.512</ele>
        <time>2011-07-10T17:11:46Z</time>
      </trkpt>
      <trkpt lat="44.05218" lon="6.58736">
        <ele>1408.44</ele>
        <time>2011-07-10T17:11:50Z</time>
      </trkpt>
      <trkpt lat="44.05243" lon="6.58755">
        <ele>1408.112</ele>
        <time>2011-07-10T17:11:53Z</time>
      </trkpt>
      <trkpt lat="44.05251" lon="6.58765">
        <ele>1409.067</ele>
        <time>2011-07-10T17:11:54Z</time>
      </trkpt>
      <trkpt lat="44.05277" lon="6.58801">
        <ele>1414.975</ele>
        <time>2011-07-10T17:11:58Z</time>
      </trkpt>
      <trkpt lat="44.05294" lon="6.58827">
        <ele>1421.729</ele>
        <time>2011-07-10T17:12:01Z</time>
      </trkpt>
      <trkpt lat="44.05326" lon="6.58856">
        <ele>1425.385</ele>
        <time>2011-07-10T17:12:06Z</time>
      </trkpt>
      <trkpt lat="44.05349" lon="6.5886">
        <ele>1425.133</ele>
        <time>2011-07-10T17:12:09Z</time>
      </trkpt>
      <trkpt lat="44.05374" lon="6.58845">
        <ele>1425.427</ele>
        <time>2011-07-10T17:12:12Z</time>
      </trkpt>
      <trkpt lat="44.05419" lon="6.58812">
        <ele>1421.697</ele>
        <time>2011-07-10T17:12:18Z</time>
      </trkpt>
      <trkpt lat="44.0546" lon="6.58784">
        <ele>1419.394</ele>
        <time>2011-07-10T17:12:23Z</time>
      </trkpt>
      <trkpt lat="44.05473" lon="6.58757">
        <ele>1419.016</ele>
        <time>2011-07-10T17:12:26Z</time>
      </trkpt>
      <trkpt lat="44.05465" lon="6.58739">
        <ele>1419.365</ele>
        <time>2011-07-10T17:12:28Z</time>
      </trkpt>
      <trkpt lat="44.05447" lon="6.58732">
        <ele>1420.216</ele>
        <time>2011-07-10T17:12:30Z</time>
      </trkpt>
      <trkpt lat="44.05415" lon="6.5874">
        <ele>1420.944</ele>
        <time>2011-07-10T17:12:34Z</time>
      </trkpt>
      <trkpt lat="44.054" lon="6.58746">
        <ele>1421.185</ele>
        <time>2011-07-10T17:12:36Z</time>
      </trkpt>
      <trkpt lat="44.05368" lon="6.58751">
        <ele>1419.625</ele>
        <time>2011-07-10T17:12:40Z</time>
      </trkpt>
      <trkpt lat="44.05343" lon="6.5873">
        <ele>1418.967</ele>
        <time>2011-07-10T17:12:44Z</time>
      </trkpt>
      <trkpt lat="44.0534" lon="6.5872">
        <ele>1419.548</ele>
        <time>2011-07-10T17:12:45Z</time>
      </trkpt>
      <trkpt lat="44.0533" lon="6.58669">
        <ele>1417.285</ele>
        <time>2011-07-10T17:12:50Z</time>
      </trkpt>
      <trkpt lat="44.05333" lon="6.58617">
        <ele>1414.882</ele>
        <time>2011-07-10T17:12:55Z</time>
      </trkpt>
      <trkpt lat="44.05334" lon="6.58564">
        <ele>1412.851</ele>
        <time>2011-07-10T17:13:00Z</time>
      </trkpt>
      <trkpt lat="44.05319" lon="6.58512">
        <ele>1412.902</ele>
        <time>2011-07-10T17:13:05Z</time>
      </trkpt>
      <trkpt lat="44.053" lon="6.58488">
        <ele>1412.391</ele>
        <time>2011-07-10T17:13:08Z</time>
      </trkpt>
      <trkpt lat="44.05278" lon="6.58472">
        <ele>1394.653</ele>
        <time>2011-07-10T17:13:11Z</time>
      </trkpt>
      <trkpt lat="44.05199" lon="6.5844">
        <ele>1367.771</ele>
        <time>2011-07-10T17:13:20Z</time>
      </trkpt>
      <trkpt lat="44.05164" lon="6.58439">
        <ele>1362.652</ele>
        <time>2011-07-10T17:13:24Z</time>
      </trkpt>
      <trkpt lat="44.05136" lon="6.58429">
        <ele>1358.595</ele>
        <time>2011-07-10T17:13:28Z</time>
      </trkpt>
      <trkpt lat="44.05126" lon="6.58402">
        <ele>1357.751</ele>
        <time>2011-07-10T17:13:31Z</time>
      </trkpt>
      <trkpt lat="44.05111" lon="6.58341">
        <ele>1358.842</ele>
        <time>2011-07-10T17:13:38Z</time>
      </trkpt>
      <trkpt lat="44.05109" lon="6.58333">
        <ele>1358.89</ele>
        <time>2011-07-10T17:13:39Z</time>
      </trkpt>
      <trkpt lat="44.05112" lon="6.5828">
        <ele>1358.792</ele>
        <time>2011-07-10T17:13:45Z</time>
      </trkpt>
      <trkpt lat="44.05114" lon="6.58227">
        <ele>1359.874</ele>
        <time>2011-07-10T17:13:51Z</time>
      </trkpt>
      <trkpt lat="44.0512" lon="6.5818">
        <ele>1360.936</ele>
        <time>2011-07-10T17:13:56Z</time>
      </trkpt>
      <trkpt lat="44.05146" lon="6.58118">
        <ele>1358.333</ele>
        <time>2011-07-10T17:14:03Z</time>
      </trkpt>
      <trkpt lat="44.05171" lon="6.58039">
        <ele>1356.745</ele>
        <time>2011-07-10T17:14:11Z</time>
      </trkpt>
      <trkpt lat="44.05176" lon="6.58018">
        <ele>1356.924</ele>
        <time>2011-07-10T17:14:13Z</time>
      </trkpt>
      <trkpt lat="44.05176" lon="6.57961">
        <ele>1352.654</ele>
        <time>2011-07-10T17:14:18Z</time>
      </trkpt>
      <trkpt lat="44.05171" lon="6.57938">
        <ele>1350.572</ele>
        <time>2011-07-10T17:14:20Z</time>
      </trkpt>
      <trkpt lat="44.05158" lon="6.57894">
        <ele>1346.127</ele>
        <time>2011-07-10T17:14:24Z</time>
      </trkpt>
      <trkpt lat="44.05158" lon="6.57846">
        <ele>1340.607</ele>
        <time>2011-07-10T17:14:28Z</time>
      </trkpt>
      <trkpt lat="44.0516" lon="6.57834">
        <ele>1339.478</ele>
        <time>2011-07-10T17:14:29Z</time>
      </trkpt>
      <trkpt lat="44.05172" lon="6.57786">
        <ele>1335.329</ele>
        <time>2011-07-10T17:14:33Z</time>
      </trkpt>
      <trkpt lat="44.05178" lon="6.57712">
        <ele>1329.545</ele>
        <time>2011-07-10T17:14:39Z</time>
      </trkpt>
      <trkpt lat="44.05195" lon="6.57689">
        <ele>1330.86</ele>
        <time>2011-07-10T17:14:43Z</time>
      </trkpt>
      <trkpt lat="44.05217" lon="6.57691">
        <ele>1330.86</ele>
        <time>2011-07-10T17:14:46Z</time>
      </trkpt>
      <trkpt lat="44.0525" lon="6.5771">
        <ele>1337.079</ele>
        <time>2011-07-10T17:14:51Z</time>
      </trkpt>
      <trkpt lat="44.05288" lon="6.57753">
        <ele>1337.854</ele>
        <time>2011-07-10T17:14:57Z</time>
      </trkpt>
      <trkpt lat="44.05313" lon="6.57789">
        <ele>1333.941</ele>
        <time>2011-07-10T17:15:01Z</time>
      </trkpt>
      <trkpt lat="44.05353" lon="6.57819">
        <ele>1329.896</ele>
        <time>2011-07-10T17:15:06Z</time>
      </trkpt>
      <trkpt lat="44.05361" lon="6.57823">
        <ele>1329.087</ele>
        <time>2011-07-10T17:15:07Z</time>
      </trkpt>
      <trkpt lat="44.05408" lon="6.57835">
        <ele>1326.76</ele>
        <time>2011-07-10T17:15:12Z</time>
      </trkpt>
      <trkpt lat="44.05435" lon="6.57849">
        <ele>1327.894</ele>
        <time>2011-07-10T17:15:15Z</time>
      </trkpt>
      <trkpt lat="44.05471" lon="6.57854">
        <ele>1328.178</ele>
        <time>2011-07-10T17:15:19Z</time>
      </trkpt>
      <trkpt lat="44.05499" lon="6.57839">
        <ele>1326.114</ele>
        <time>2011-07-10T17:15:22Z</time>
      </trkpt>
      <trkpt lat="44.05527" lon="6.57837">
        <ele>1328.191</ele>
        <time>2011-07-10T17:15:25Z</time>
      </trkpt>
      <trkpt lat="44.05554" lon="6.5784">
        <ele>1330.718</ele>
        <time>2011-07-10T17:15:28Z</time>
      </trkpt>
      <trkpt lat="44.05591" lon="6.57846">
        <ele>1330.367</ele>
        <time>2011-07-10T17:15:32Z</time>
      </trkpt>
      <trkpt lat="44.05599" lon="6.57853">
        <ele>1329.915</ele>
        <time>2011-07-10T17:15:33Z</time>
      </trkpt>
      <trkpt lat="44.05653" lon="6.579">
        <ele>1321.739</ele>
        <time>2011-07-10T17:15:40Z</time>
      </trkpt>
      <trkpt lat="44.0566" lon="6.57907">
        <ele>1320.369</ele>
        <time>2011-07-10T17:15:41Z</time>
      </trkpt>
      <trkpt lat="44.05692" lon="6.5791">
        <ele>1317.94</ele>
        <time>2011-07-10T17:15:45Z</time>
      </trkpt>
      <trkpt lat="44.0571" lon="6.57899">
        <ele>1316.779</ele>
        <time>2011-07-10T17:15:47Z</time>
      </trkpt>
      <trkpt lat="44.05735" lon="6.57884">
        <ele>1314.538</ele>
        <time>2011-07-10T17:15:50Z</time>
      </trkpt>
      <trkpt lat="44.05767" lon="6.5788">
        <ele>1316.235</ele>
        <time>2011-07-10T17:15:54Z</time>
      </trkpt>
      <trkpt lat="44.05807" lon="6.57879">
        <ele>1313.778</ele>
        <time>2011-07-10T17:15:59Z</time>
      </trkpt>
      <trkpt lat="44.05824" lon="6.57879">
        <ele>1312.223</ele>
        <time>2011-07-10T17:16:01Z</time>
      </trkpt>
      <trkpt lat="44.05841" lon="6.57882">
        <ele>1313.072</ele>
        <time>2011-07-10T17:16:03Z</time>
      </trkpt>
      <trkpt lat="44.05884" lon="6.57872">
        <ele>1312.928</ele>
        <time>2011-07-10T17:16:08Z</time>
      </trkpt>
      <trkpt lat="44.05915" lon="6.57878">
        <ele>1311.727</ele>
        <time>2011-07-10T17:16:12Z</time>
      </trkpt>
      <trkpt lat="44.05927" lon="6.57893">
        <ele>1311.459</ele>
        <time>2011-07-10T17:16:14Z</time>
      </trkpt>
      <trkpt lat="44.05959" lon="6.57923">
        <ele>1311.778</ele>
        <time>2011-07-10T17:16:19Z</time>
      </trkpt>
      <trkpt lat="44.05966" lon="6.57929">
        <ele>1313.181</ele>
        <time>2011-07-10T17:16:20Z</time>
      </trkpt>
      <trkpt lat="44.05979" lon="6.57968">
        <ele>1316.276</ele>
        <time>2011-07-10T17:16:24Z</time>
      </trkpt>
      <trkpt lat="44.06001" lon="6.57985">
        <ele>1313.148</ele>
        <time>2011-07-10T17:16:28Z</time>
      </trkpt>
      <trkpt lat="44.06008" lon="6.57987">
        <ele>1311.605</ele>
        <time>2011-07-10T17:16:29Z</time>
      </trkpt>
      <trkpt lat="44.06034" lon="6.57992">
        <ele>1305.224</ele>
        <time>2011-07-10T17:16:33Z</time>
      </trkpt>
      <trkpt lat="44.06066" lon="6.58012">
        <ele>1297.888</ele>
        <time>2011-07-10T17:16:38Z</time>
      </trkpt>
      <trkpt lat="44.06086" lon="6.58004">
        <ele>1295.518</ele>
        <time>2011-07-10T17:16:41Z</time>
      </trkpt>
      <trkpt lat="44.061" lon="6.57984">
        <ele>1293.006</ele>
        <time>2011-07-10T17:16:44Z</time>
      </trkpt>
      <trkpt lat="44.0612" lon="6.5797">
        <ele>1291.28</ele>
        <time>2011-07-10T17:16:47Z</time>
      </trkpt>
      <trkpt lat="44.06127" lon="6.5797">
        <ele>1290.349</ele>
        <time>2011-07-10T17:16:48Z</time>
      </trkpt>
      <trkpt lat="44.06166" lon="6.57971">
        <ele>1289.766</ele>
        <time>2011-07-10T17:16:53Z</time>
      </trkpt>
      <trkpt lat="44.06206" lon="6.57983">
        <ele>1288.91</ele>
        <time>2011-07-10T17:16:58Z</time>
      </trkpt>
      <trkpt lat="44.06237" lon="6.57981">
        <ele>1289.567</ele>
        <time>2011-07-10T17:17:02Z</time>
      </trkpt>
      <trkpt lat="44.06245" lon="6.57977">
        <ele>1291.021</ele>
        <time>2011-07-10T17:17:03Z</time>
      </trkpt>
      <trkpt lat="44.06295" lon="6.5795">
        <ele>1295.901</ele>
        <time>2011-07-10T17:17:10Z</time>
      </trkpt>
      <trkpt lat="44.06319" lon="6.57937">
        <ele>1293.12</ele>
        <time>2011-07-10T17:17:13Z</time>
      </trkpt>
      <trkpt lat="44.06346" lon="6.57929">
        <ele>1289.014</ele>
        <time>2011-07-10T17:17:16Z</time>
      </trkpt>
      <trkpt lat="44.06384" lon="6.57904">
        <ele>1285.398</ele>
        <time>2011-07-10T17:17:21Z</time>
      </trkpt>
      <trkpt lat="44.06412" lon="6.57895">
        <ele>1282.313</ele>
        <time>2011-07-10T17:17:24Z</time>
      </trkpt>
      <trkpt lat="44.06439" lon="6.57904">
        <ele>1283.404</ele>
        <time>2011-07-10T17:17:27Z</time>
      </trkpt>
      <trkpt lat="44.06458" lon="6.57932">
        <ele>1280.264</ele>
        <time>2011-07-10T17:17:30Z</time>
      </trkpt>
      <trkpt lat="44.06484" lon="6.57958">
        <ele>1276.031</ele>
        <time>2011-07-10T17:17:34Z</time>
      </trkpt>
      <trkpt lat="44.065" lon="6.57945">
        <ele>1274.55</ele>
        <time>2011-07-10T17:17:36Z</time>
      </trkpt>
      <trkpt lat="44.06513" lon="6.57933">
        <ele>1272.801</ele>
        <time>2011-07-10T17:17:38Z</time>
      </trkpt>
      <trkpt lat="44.06529" lon="6.57912">
        <ele>1269.681</ele>
        <time>2011-07-10T17:17:41Z</time>
      </trkpt>
      <trkpt lat="44.06564" lon="6.57898">
        <ele>1264.928</ele>
        <time>2011-07-10T17:17:46Z</time>
      </trkpt>
      <trkpt lat="44.06572" lon="6.57899">
        <ele>1265.933</ele>
        <time>2011-07-10T17:17:47Z</time>
      </trkpt>
      <trkpt lat="44.06622" lon="6.57902">
        <ele>1269.321</ele>
        <time>2011-07-10T17:17:53Z</time>
      </trkpt>
      <trkpt lat="44.0663" lon="6.579">
        <ele>1269.753</ele>
        <time>2011-07-10T17:17:54Z</time>
      </trkpt>
      <trkpt lat="44.06655" lon="6.57903">
        <ele>1271.125</ele>
        <time>2011-07-10T17:17:57Z</time>
      </trkpt>
      <trkpt lat="44.06685" lon="6.57896">
        <ele>1269.13</ele>
        <time>2011-07-10T17:18:01Z</time>
      </trkpt>
      <trkpt lat="44.067" lon="6.57886">
        <ele>1265.672</ele>
        <time>2011-07-10T17:18:03Z</time>
      </trkpt>
      <trkpt lat="44.06729" lon="6.57872">
        <ele>1263.077</ele>
        <time>2011-07-10T17:18:07Z</time>
      </trkpt>
      <trkpt lat="44.06788" lon="6.57855">
        <ele>1259.38</ele>
        <time>2011-07-10T17:18:14Z</time>
      </trkpt>
      <trkpt lat="44.06833" lon="6.57828">
        <ele>1260.928</ele>
        <time>2011-07-10T17:18:20Z</time>
      </trkpt>
      <trkpt lat="44.06892" lon="6.57799">
        <ele>1256.378</ele>
        <time>2011-07-10T17:18:27Z</time>
      </trkpt>
      <trkpt lat="44.0692" lon="6.57791">
        <ele>1255.089</ele>
        <time>2011-07-10T17:18:30Z</time>
      </trkpt>
      <trkpt lat="44.06955" lon="6.57796">
        <ele>1257.897</ele>
        <time>2011-07-10T17:18:34Z</time>
      </trkpt>
      <trkpt lat="44.0697" lon="6.5781">
        <ele>1259.779</ele>
        <time>2011-07-10T17:18:36Z</time>
      </trkpt>
      <trkpt lat="44.07001" lon="6.5784">
        <ele>1259.931</ele>
        <time>2011-07-10T17:18:40Z</time>
      </trkpt>
      <trkpt lat="44.07035" lon="6.57858">
        <ele>1256.843</ele>
        <time>2011-07-10T17:18:44Z</time>
      </trkpt>
      <trkpt lat="44.07044" lon="6.57858">
        <ele>1255.601</ele>
        <time>2011-07-10T17:18:45Z</time>
      </trkpt>
      <trkpt lat="44.07087" lon="6.57874">
        <ele>1252.166</ele>
        <time>2011-07-10T17:18:50Z</time>
      </trkpt>
      <trkpt lat="44.07098" lon="6.57896">
        <ele>1250.975</ele>
        <time>2011-07-10T17:18:52Z</time>
      </trkpt>
      <trkpt lat="44.0711" lon="6.57917">
        <ele>1250.623</ele>
        <time>2011-07-10T17:18:54Z</time>
      </trkpt>
      <trkpt lat="44.07124" lon="6.57966">
        <ele>1246.046</ele>
        <time>2011-07-10T17:18:58Z</time>
      </trkpt>
      <trkpt lat="44.07124" lon="6.57979">
        <ele>1245.458</ele>
        <time>2011-07-10T17:18:59Z</time>
      </trkpt>
      <trkpt lat="44.07127" lon="6.58031">
        <ele>1242.469</ele>
        <time>2011-07-10T17:19:03Z</time>
      </trkpt>
      <trkpt lat="44.0714" lon="6.58077">
        <ele>1238.957</ele>
        <time>2011-07-10T17:19:07Z</time>
      </trkpt>
      <trkpt lat="44.07144" lon="6.58087">
        <ele>1237.987</ele>
        <time>2011-07-10T17:19:08Z</time>
      </trkpt>
      <trkpt lat="44.07153" lon="6.58149">
        <ele>1229.37</ele>
        <time>2011-07-10T17:19:13Z</time>
      </trkpt>
      <trkpt lat="44.07151" lon="6.58162">
        <ele>1227.236</ele>
        <time>2011-07-10T17:19:14Z</time>
      </trkpt>
      <trkpt lat="44.07148" lon="6.58183">
        <ele>1226.333</ele>
        <time>2011-07-10T17:19:16Z</time>
      </trkpt>
      <trkpt lat="44.07148" lon="6.58213">
        <ele>1230.618</ele>
        <time>2011-07-10T17:19:19Z</time>
      </trkpt>
      <trkpt lat="44.07152" lon="6.58244">
        <ele>1230</ele>
        <time>2011-07-10T17:19:22Z</time>
      </trkpt>
      <trkpt lat="44.07179" lon="6.58255">
        <ele>1232.069</ele>
        <time>2011-07-10T17:19:26Z</time>
      </trkpt>
      <trkpt lat="44.0719" lon="6.58237">
        <ele>1230.528</ele>
        <time>2011-07-10T17:19:28Z</time>
      </trkpt>
      <trkpt lat="44.07194" lon="6.58211">
        <ele>1232.369</ele>
        <time>2011-07-10T17:19:30Z</time>
      </trkpt>
      <trkpt lat="44.07206" lon="6.58178">
        <ele>1226.618</ele>
        <time>2011-07-10T17:19:33Z</time>
      </trkpt>
      <trkpt lat="44.07214" lon="6.58157">
        <ele>1226.86</ele>
        <time>2011-07-10T17:19:35Z</time>
      </trkpt>
      <trkpt lat="44.07223" lon="6.58124">
        <ele>1225.745</ele>
        <time>2011-07-10T17:19:38Z</time>
      </trkpt>
      <trkpt lat="44.07225" lon="6.58078">
        <ele>1226.576</ele>
        <time>2011-07-10T17:19:42Z</time>
      </trkpt>
      <trkpt lat="44.0723" lon="6.58045">
        <ele>1226.637</ele>
        <time>2011-07-10T17:19:45Z</time>
      </trkpt>
      <trkpt lat="44.07233" lon="6.58035">
        <ele>1226.887</ele>
        <time>2011-07-10T17:19:46Z</time>
      </trkpt>
      <trkpt lat="44.07252" lon="6.57959">
        <ele>1225.363</ele>
        <time>2011-07-10T17:19:54Z</time>
      </trkpt>
      <trkpt lat="44.07255" lon="6.57939">
        <ele>1225.997</ele>
        <time>2011-07-10T17:19:56Z</time>
      </trkpt>
      <trkpt lat="44.07263" lon="6.579">
        <ele>1225.477</ele>
        <time>2011-07-10T17:20:00Z</time>
      </trkpt>
      <trkpt lat="44.07263" lon="6.5785">
        <ele>1226.566</ele>
        <time>2011-07-10T17:20:05Z</time>
      </trkpt>
      <trkpt lat="44.07248" lon="6.57825">
        <ele>1226.577</ele>
        <time>2011-07-10T17:20:08Z</time>
      </trkpt>
      <trkpt lat="44.07237" lon="6.57779">
        <ele>1224.687</ele>
        <time>2011-07-10T17:20:13Z</time>
      </trkpt>
      <trkpt lat="44.07237" lon="6.5772">
        <ele>1224.718</ele>
        <time>2011-07-10T17:20:19Z</time>
      </trkpt>
      <trkpt lat="44.07237" lon="6.577">
        <ele>1225.158</ele>
        <time>2011-07-10T17:20:21Z</time>
      </trkpt>
      <trkpt lat="44.07249" lon="6.57662">
        <ele>1219.965</ele>
        <time>2011-07-10T17:20:25Z</time>
      </trkpt>
      <trkpt lat="44.07255" lon="6.57655">
        <ele>1220.246</ele>
        <time>2011-07-10T17:20:26Z</time>
      </trkpt>
      <trkpt lat="44.0731" lon="6.57595">
        <ele>1219.055</ele>
        <time>2011-07-10T17:20:35Z</time>
      </trkpt>
      <trkpt lat="44.07364" lon="6.57556">
        <ele>1212.846</ele>
        <time>2011-07-10T17:20:42Z</time>
      </trkpt>
      <trkpt lat="44.07415" lon="6.57524">
        <ele>1210.692</ele>
        <time>2011-07-10T17:20:48Z</time>
      </trkpt>
      <trkpt lat="44.07433" lon="6.57514">
        <ele>1210.021</ele>
        <time>2011-07-10T17:20:50Z</time>
      </trkpt>
      <trkpt lat="44.07468" lon="6.57476">
        <ele>1207.721</ele>
        <time>2011-07-10T17:20:55Z</time>
      </trkpt>
      <trkpt lat="44.07506" lon="6.5743">
        <ele>1203.474</ele>
        <time>2011-07-10T17:21:01Z</time>
      </trkpt>
      <trkpt lat="44.07518" lon="6.57411">
        <ele>1200.271</ele>
        <time>2011-07-10T17:21:05Z</time>
      </trkpt>
      <trkpt lat="44.0752" lon="6.57409">
        <ele>1199.043</ele>
        <time>2011-07-10T17:21:09Z</time>
      </trkpt>
      <trkpt lat="44.07521" lon="6.57409">
        <ele>1195.456</ele>
        <time>2011-07-10T17:21:39Z</time>
      </trkpt>
      <trkpt lat="44.07527" lon="6.57395">
        <ele>1199.278</ele>
        <time>2011-07-10T17:21:46Z</time>
      </trkpt>
      <trkpt lat="44.07534" lon="6.57383">
        <ele>1198.325</ele>
        <time>2011-07-10T17:21:52Z</time>
      </trkpt>
      <trkpt lat="44.07537" lon="6.57379">
        <ele>1198.445</ele>
        <time>2011-07-10T17:21:57Z</time>
      </trkpt>
      <trkpt lat="44.07542" lon="6.57371">
        <ele>1195.218</ele>
        <time>2011-07-10T17:22:02Z</time>
      </trkpt>
      <trkpt lat="44.07551" lon="6.57354">
        <ele>1192.645</ele>
        <time>2011-07-10T17:22:07Z</time>
      </trkpt>
      <trkpt lat="44.07563" lon="6.57332">
        <ele>1190.826</ele>
        <time>2011-07-10T17:22:13Z</time>
      </trkpt>
      <trkpt lat="44.07571" lon="6.57322">
        <ele>1186.22</ele>
        <time>2011-07-10T17:22:17Z</time>
      </trkpt>
      <trkpt lat="44.07567" lon="6.57316">
        <ele>1184.121</ele>
        <time>2011-07-10T17:22:22Z</time>
      </trkpt>
      <trkpt lat="44.07564" lon="6.57317">
        <ele>1183.16</ele>
        <time>2011-07-10T17:22:23Z</time>
      </trkpt>
      <trkpt lat="44.07552" lon="6.5732">
        <ele>1179.248</ele>
        <time>2011-07-10T17:22:26Z</time>
      </trkpt>
      <trkpt lat="44.07536" lon="6.57331">
        <ele>1174.68</ele>
        <time>2011-07-10T17:22:30Z</time>
      </trkpt>
      <trkpt lat="44.07508" lon="6.57349">
        <ele>1166.315</ele>
        <time>2011-07-10T17:22:37Z</time>
      </trkpt>
      <trkpt lat="44.07489" lon="6.57358">
        <ele>1160.154</ele>
        <time>2011-07-10T17:22:42Z</time>
      </trkpt>
      <trkpt lat="44.07478" lon="6.57365">
        <ele>1156.415</ele>
        <time>2011-07-10T17:22:46Z</time>
      </trkpt>
      <trkpt lat="44.07476" lon="6.57366">
        <ele>1156.076</ele>
        <time>2011-07-10T17:22:47Z</time>
      </trkpt>
      <trkpt lat="44.07474" lon="6.57364">
        <ele>1154.667</ele>
        <time>2011-07-10T17:22:49Z</time>
      </trkpt>
      <trkpt lat="44.07484" lon="6.57351">
        <ele>1154.761</ele>
        <time>2011-07-10T17:22:55Z</time>
      </trkpt>
      <trkpt lat="44.07495" lon="6.5733">
        <ele>1154.102</ele>
        <time>2011-07-10T17:23:00Z</time>
      </trkpt>
      <trkpt lat="44.07498" lon="6.57325">
        <ele>1153.641</ele>
        <time>2011-07-10T17:23:01Z</time>
      </trkpt>
      <trkpt lat="44.07509" lon="6.57304">
        <ele>1152.831</ele>
        <time>2011-07-10T17:23:06Z</time>
      </trkpt>
      <trkpt lat="44.07519" lon="6.57288">
        <ele>1152.843</ele>
        <time>2011-07-10T17:23:11Z</time>
      </trkpt>
      <trkpt lat="44.07528" lon="6.57271">
        <ele>1148.879</ele>
        <time>2011-07-10T17:23:16Z</time>
      </trkpt>
      <trkpt lat="44.07538" lon="6.57259">
        <ele>1145.708</ele>
        <time>2011-07-10T17:23:20Z</time>
      </trkpt>
      <trkpt lat="44.0755" lon="6.57247">
        <ele>1141.367</ele>
        <time>2011-07-10T17:23:25Z</time>
      </trkpt>
      <trkpt lat="44.07561" lon="6.57233">
        <ele>1136.906</ele>
        <time>2011-07-10T17:23:30Z</time>
      </trkpt>
      <trkpt lat="44.07572" lon="6.57223">
        <ele>1131.714</ele>
        <time>2011-07-10T17:23:35Z</time>
      </trkpt>
      <trkpt lat="44.07573" lon="6.5722">
        <ele>1131.751</ele>
        <time>2011-07-10T17:23:38Z</time>
      </trkpt>
      <trkpt lat="44.07564" lon="6.5722">
        <ele>1128.108</ele>
        <time>2011-07-10T17:23:42Z</time>
      </trkpt>
      <trkpt lat="44.07563" lon="6.57217">
        <ele>1127.081</ele>
        <time>2011-07-10T17:23:45Z</time>
      </trkpt>
      <trkpt lat="44.07573" lon="6.57213">
        <ele>1124.583</ele>
        <time>2011-07-10T17:23:49Z</time>
      </trkpt>
      <trkpt lat="44.07577" lon="6.57212">
        <ele>1123.563</ele>
        <time>2011-07-10T17:23:50Z</time>
      </trkpt>
      <trkpt lat="44.07584" lon="6.57198">
        <ele>1124.094</ele>
        <time>2011-07-10T17:23:54Z</time>
      </trkpt>
      <trkpt lat="44.07594" lon="6.5718">
        <ele>1126.147</ele>
        <time>2011-07-10T17:24:00Z</time>
      </trkpt>
      <trkpt lat="44.07595" lon="6.57177">
        <ele>1124.676</ele>
        <time>2011-07-10T17:24:04Z</time>
      </trkpt>
      <trkpt lat="44.07597" lon="6.57171">
        <ele>1117.258</ele>
        <time>2011-07-10T17:24:57Z</time>
      </trkpt>
      <trkpt lat="44.07599" lon="6.57171">
        <ele>1125.177</ele>
        <time>2011-07-10T17:25:52Z</time>
      </trkpt>
      <trkpt lat="44.07609" lon="6.57157">
        <ele>1121.208</ele>
        <time>2011-07-10T17:25:57Z</time>
      </trkpt>
      <trkpt lat="44.07626" lon="6.57138">
        <ele>1118.062</ele>
        <time>2011-07-10T17:26:02Z</time>
      </trkpt>
      <trkpt lat="44.07641" lon="6.5712">
        <ele>1120.307</ele>
        <time>2011-07-10T17:26:07Z</time>
      </trkpt>
      <trkpt lat="44.07652" lon="6.57102">
        <ele>1116.294</ele>
        <time>2011-07-10T17:26:11Z</time>
      </trkpt>
      <trkpt lat="44.07654" lon="6.57098">
        <ele>1115.755</ele>
        <time>2011-07-10T17:26:12Z</time>
      </trkpt>
      <trkpt lat="44.07647" lon="6.57095">
        <ele>1116.985</ele>
        <time>2011-07-10T17:26:16Z</time>
      </trkpt>
      <trkpt lat="44.07642" lon="6.57096">
        <ele>1115.233</ele>
        <time>2011-07-10T17:26:17Z</time>
      </trkpt>
      <trkpt lat="44.07627" lon="6.57099">
        <ele>1109.705</ele>
        <time>2011-07-10T17:26:21Z</time>
      </trkpt>
      <trkpt lat="44.07623" lon="6.57094">
        <ele>1103.306</ele>
        <time>2011-07-10T17:26:25Z</time>
      </trkpt>
      <trkpt lat="44.07626" lon="6.5709">
        <ele>1103.237</ele>
        <time>2011-07-10T17:26:26Z</time>
      </trkpt>
      <trkpt lat="44.07636" lon="6.57072">
        <ele>1101.669</ele>
        <time>2011-07-10T17:26:31Z</time>
      </trkpt>
      <trkpt lat="44.07622" lon="6.57075">
        <ele>1094.495</ele>
        <time>2011-07-10T17:26:36Z</time>
      </trkpt>
      <trkpt lat="44.0761" lon="6.57078">
        <ele>1092.345</ele>
        <time>2011-07-10T17:26:39Z</time>
      </trkpt>
      <trkpt lat="44.07595" lon="6.57077">
        <ele>1090.995</ele>
        <time>2011-07-10T17:26:42Z</time>
      </trkpt>
      <trkpt lat="44.07584" lon="6.57075">
        <ele>1088.605</ele>
        <time>2011-07-10T17:26:44Z</time>
      </trkpt>
      <trkpt lat="44.07562" lon="6.57081">
        <ele>1083.524</ele>
        <time>2011-07-10T17:26:49Z</time>
      </trkpt>
      <trkpt lat="44.07556" lon="6.57093">
        <ele>1082.436</ele>
        <time>2011-07-10T17:26:52Z</time>
      </trkpt>
      <trkpt lat="44.07546" lon="6.57108">
        <ele>1077.174</ele>
        <time>2011-07-10T17:26:58Z</time>
      </trkpt>
      <trkpt lat="44.07544" lon="6.57107">
        <ele>1075.879</ele>
        <time>2011-07-10T17:27:02Z</time>
      </trkpt>
      <trkpt lat="44.07542" lon="6.57096">
        <ele>1076.513</ele>
        <time>2011-07-10T17:27:06Z</time>
      </trkpt>
      <trkpt lat="44.07543" lon="6.57082">
        <ele>1074.954</ele>
        <time>2011-07-10T17:27:11Z</time>
      </trkpt>
      <trkpt lat="44.07549" lon="6.57075">
        <ele>1076.957</ele>
        <time>2011-07-10T17:27:16Z</time>
      </trkpt>
      <trkpt lat="44.07552" lon="6.57063">
        <ele>1076.588</ele>
        <time>2011-07-10T17:27:23Z</time>
      </trkpt>
      <trkpt lat="44.07551" lon="6.57059">
        <ele>1078.57</ele>
        <time>2011-07-10T17:27:25Z</time>
      </trkpt>
      <trkpt lat="44.07552" lon="6.57043">
        <ele>1079.018</ele>
        <time>2011-07-10T17:27:31Z</time>
      </trkpt>
      <trkpt lat="44.07564" lon="6.57032">
        <ele>1079.489</ele>
        <time>2011-07-10T17:27:35Z</time>
      </trkpt>
      <trkpt lat="44.07574" lon="6.57019">
        <ele>1080.328</ele>
        <time>2011-07-10T17:27:38Z</time>
      </trkpt>
      <trkpt lat="44.07599" lon="6.56989">
        <ele>1077.012</ele>
        <time>2011-07-10T17:27:44Z</time>
      </trkpt>
      <trkpt lat="44.07619" lon="6.56962">
        <ele>1075.713</ele>
        <time>2011-07-10T17:27:48Z</time>
      </trkpt>
      <trkpt lat="44.07631" lon="6.5692">
        <ele>1076.306</ele>
        <time>2011-07-10T17:27:52Z</time>
      </trkpt>
      <trkpt lat="44.0763" lon="6.56909">
        <ele>1076.216</ele>
        <time>2011-07-10T17:27:53Z</time>
      </trkpt>
      <trkpt lat="44.07628" lon="6.5684">
        <ele>1075.517</ele>
        <time>2011-07-10T17:28:00Z</time>
      </trkpt>
      <trkpt lat="44.07637" lon="6.56802">
        <ele>1074.987</ele>
        <time>2011-07-10T17:28:05Z</time>
      </trkpt>
      <trkpt lat="44.07644" lon="6.56794">
        <ele>1073.786</ele>
        <time>2011-07-10T17:28:07Z</time>
      </trkpt>
      <trkpt lat="44.07671" lon="6.56771">
        <ele>1071.157</ele>
        <time>2011-07-10T17:28:15Z</time>
      </trkpt>
      <trkpt lat="44.07696" lon="6.56746">
        <ele>1071.5</ele>
        <time>2011-07-10T17:28:23Z</time>
      </trkpt>
      <trkpt lat="44.07711" lon="6.56721">
        <ele>1075.322</ele>
        <time>2011-07-10T17:28:29Z</time>
      </trkpt>
      <trkpt lat="44.07722" lon="6.56696">
        <ele>1082.116</ele>
        <time>2011-07-10T17:28:35Z</time>
      </trkpt>
      <trkpt lat="44.07733" lon="6.56671">
        <ele>1086.295</ele>
        <time>2011-07-10T17:28:42Z</time>
      </trkpt>
      <trkpt lat="44.07743" lon="6.56651">
        <ele>1091.234</ele>
        <time>2011-07-10T17:28:48Z</time>
      </trkpt>
      <trkpt lat="44.07753" lon="6.56633">
        <ele>1094.166</ele>
        <time>2011-07-10T17:28:54Z</time>
      </trkpt>
      <trkpt lat="44.07763" lon="6.56613">
        <ele>1097.105</ele>
        <time>2011-07-10T17:29:00Z</time>
      </trkpt>
      <trkpt lat="44.07773" lon="6.56593">
        <ele>1100.704</ele>
        <time>2011-07-10T17:29:07Z</time>
      </trkpt>
      <trkpt lat="44.07786" lon="6.56571">
        <ele>1102.043</ele>
        <time>2011-07-10T17:29:14Z</time>
      </trkpt>
      <trkpt lat="44.07802" lon="6.56554">
        <ele>1102.744</ele>
        <time>2011-07-10T17:29:21Z</time>
      </trkpt>
      <trkpt lat="44.07822" lon="6.56538">
        <ele>1101.501</ele>
        <time>2011-07-10T17:29:29Z</time>
      </trkpt>
      <trkpt lat="44.07842" lon="6.5652">
        <ele>1096.967</ele>
        <time>2011-07-10T17:29:36Z</time>
      </trkpt>
      <trkpt lat="44.07863" lon="6.56498">
        <ele>1086.952</ele>
        <time>2011-07-10T17:29:44Z</time>
      </trkpt>
      <trkpt lat="44.07877" lon="6.56487">
        <ele>1084.304</ele>
        <time>2011-07-10T17:29:49Z</time>
      </trkpt>
      <trkpt lat="44.07893" lon="6.56466">
        <ele>1086.496</ele>
        <time>2011-07-10T17:29:56Z</time>
      </trkpt>
      <trkpt lat="44.07909" lon="6.56435">
        <ele>1087.907</ele>
        <time>2011-07-10T17:30:04Z</time>
      </trkpt>
      <trkpt lat="44.07924" lon="6.56409">
        <ele>1092.251</ele>
        <time>2011-07-10T17:30:11Z</time>
      </trkpt>
      <trkpt lat="44.07938" lon="6.56384">
        <ele>1096.762</ele>
        <time>2011-07-10T17:30:18Z</time>
      </trkpt>
      <trkpt lat="44.07952" lon="6.5636">
        <ele>1096.439</ele>
        <time>2011-07-10T17:30:25Z</time>
      </trkpt>
      <trkpt lat="44.07967" lon="6.56335">
        <ele>1098.17</ele>
        <time>2011-07-10T17:30:33Z</time>
      </trkpt>
      <trkpt lat="44.07978" lon="6.56317">
        <ele>1108.937</ele>
        <time>2011-07-10T17:30:39Z</time>
      </trkpt>
      <trkpt lat="44.07993" lon="6.56292">
        <ele>1110.444</ele>
        <time>2011-07-10T17:30:47Z</time>
      </trkpt>
      <trkpt lat="44.0801" lon="6.56266">
        <ele>1117.228</ele>
        <time>2011-07-10T17:30:55Z</time>
      </trkpt>
      <trkpt lat="44.08025" lon="6.56249">
        <ele>1114.911</ele>
        <time>2011-07-10T17:31:01Z</time>
      </trkpt>
      <trkpt lat="44.08044" lon="6.56242">
        <ele>1107.104</ele>
        <time>2011-07-10T17:31:07Z</time>
      </trkpt>
      <trkpt lat="44.08066" lon="6.56235">
        <ele>1104.096</ele>
        <time>2011-07-10T17:31:15Z</time>
      </trkpt>
      <trkpt lat="44.08085" lon="6.56222">
        <ele>1103.298</ele>
        <time>2011-07-10T17:31:23Z</time>
      </trkpt>
      <trkpt lat="44.08099" lon="6.5621">
        <ele>1100.167</ele>
        <time>2011-07-10T17:31:29Z</time>
      </trkpt>
      <trkpt lat="44.08115" lon="6.56194">
        <ele>1099.007</ele>
        <time>2011-07-10T17:31:36Z</time>
      </trkpt>
      <trkpt lat="44.08136" lon="6.56173">
        <ele>1097.878</ele>
        <time>2011-07-10T17:31:44Z</time>
      </trkpt>
      <trkpt lat="44.08158" lon="6.56153">
        <ele>1097.291</ele>
        <time>2011-07-10T17:31:53Z</time>
      </trkpt>
      <trkpt lat="44.08177" lon="6.56134">
        <ele>1095.38</ele>
        <time>2011-07-10T17:32:01Z</time>
      </trkpt>
      <trkpt lat="44.08193" lon="6.56116">
        <ele>1107.067</ele>
        <time>2011-07-10T17:32:08Z</time>
      </trkpt>
      <trkpt lat="44.08208" lon="6.56087">
        <ele>1110.005</ele>
        <time>2011-07-10T17:32:14Z</time>
      </trkpt>
      <trkpt lat="44.08216" lon="6.56067">
        <ele>1108.412</ele>
        <time>2011-07-10T17:32:18Z</time>
      </trkpt>
      <trkpt lat="44.08227" lon="6.5605">
        <ele>1115.466</ele>
        <time>2011-07-10T17:32:22Z</time>
      </trkpt>
      <trkpt lat="44.08242" lon="6.56038">
        <ele>1116.113</ele>
        <time>2011-07-10T17:32:27Z</time>
      </trkpt>
      <trkpt lat="44.08261" lon="6.56027">
        <ele>1120.415</ele>
        <time>2011-07-10T17:32:33Z</time>
      </trkpt>
      <trkpt lat="44.08277" lon="6.56016">
        <ele>1118.531</ele>
        <time>2011-07-10T17:32:38Z</time>
      </trkpt>
      <trkpt lat="44.08296" lon="6.56005">
        <ele>1119.212</ele>
        <time>2011-07-10T17:32:44Z</time>
      </trkpt>
      <trkpt lat="44.0832" lon="6.55989">
        <ele>1120.833</ele>
        <time>2011-07-10T17:32:51Z</time>
      </trkpt>
      <trkpt lat="44.08351" lon="6.5597">
        <ele>1121.553</ele>
        <time>2011-07-10T17:33:00Z</time>
      </trkpt>
      <trkpt lat="44.0837" lon="6.55951">
        <ele>1121.051</ele>
        <time>2011-07-10T17:33:06Z</time>
      </trkpt>
      <trkpt lat="44.08385" lon="6.55919">
        <ele>1121.97</ele>
        <time>2011-07-10T17:33:12Z</time>
      </trkpt>
      <trkpt lat="44.08405" lon="6.55881">
        <ele>1121.047</ele>
        <time>2011-07-10T17:33:20Z</time>
      </trkpt>
      <trkpt lat="44.08419" lon="6.55861">
        <ele>1122.437</ele>
        <time>2011-07-10T17:33:25Z</time>
      </trkpt>
      <trkpt lat="44.08434" lon="6.55847">
        <ele>1121.677</ele>
        <time>2011-07-10T17:33:29Z</time>
      </trkpt>
      <trkpt lat="44.08466" lon="6.55834">
        <ele>1119.668</ele>
        <time>2011-07-10T17:33:36Z</time>
      </trkpt>
      <trkpt lat="44.08502" lon="6.55825">
        <ele>1117.438</ele>
        <time>2011-07-10T17:33:44Z</time>
      </trkpt>
      <trkpt lat="44.08539" lon="6.55823">
        <ele>1114.317</ele>
        <time>2011-07-10T17:33:52Z</time>
      </trkpt>
      <trkpt lat="44.08544" lon="6.55822">
        <ele>1114.197</ele>
        <time>2011-07-10T17:33:53Z</time>
      </trkpt>
      <trkpt lat="44.0856" lon="6.55816">
        <ele>1114.678</ele>
        <time>2011-07-10T17:33:57Z</time>
      </trkpt>
      <trkpt lat="44.08582" lon="6.55786">
        <ele>1123.283</ele>
        <time>2011-07-10T17:34:04Z</time>
      </trkpt>
      <trkpt lat="44.08584" lon="6.5578">
        <ele>1125.134</ele>
        <time>2011-07-10T17:34:05Z</time>
      </trkpt>
      <trkpt lat="44.08593" lon="6.55753">
        <ele>1130.224</ele>
        <time>2011-07-10T17:34:10Z</time>
      </trkpt>
      <trkpt lat="44.08612" lon="6.5574">
        <ele>1131.494</ele>
        <time>2011-07-10T17:34:15Z</time>
      </trkpt>
      <trkpt lat="44.0862" lon="6.5574">
        <ele>1129.43</ele>
        <time>2011-07-10T17:34:17Z</time>
      </trkpt>
      <trkpt lat="44.08655" lon="6.55742">
        <ele>1125.558</ele>
        <time>2011-07-10T17:34:25Z</time>
      </trkpt>
      <trkpt lat="44.08687" lon="6.55737">
        <ele>1126.049</ele>
        <time>2011-07-10T17:34:33Z</time>
      </trkpt>
      <trkpt lat="44.08715" lon="6.55725">
        <ele>1123.497</ele>
        <time>2011-07-10T17:34:40Z</time>
      </trkpt>
      <trkpt lat="44.08742" lon="6.55703">
        <ele>1121.917</ele>
        <time>2011-07-10T17:34:47Z</time>
      </trkpt>
      <trkpt lat="44.08768" lon="6.55674">
        <ele>1129.482</ele>
        <time>2011-07-10T17:34:54Z</time>
      </trkpt>
      <trkpt lat="44.08788" lon="6.55649">
        <ele>1124.85</ele>
        <time>2011-07-10T17:35:00Z</time>
      </trkpt>
      <trkpt lat="44.08803" lon="6.5562">
        <ele>1127.538</ele>
        <time>2011-07-10T17:35:06Z</time>
      </trkpt>
      <trkpt lat="44.08819" lon="6.55589">
        <ele>1127.956</ele>
        <time>2011-07-10T17:35:12Z</time>
      </trkpt>
      <trkpt lat="44.08842" lon="6.55567">
        <ele>1124.004</ele>
        <time>2011-07-10T17:35:18Z</time>
      </trkpt>
      <trkpt lat="44.08874" lon="6.55564">
        <ele>1118.66</ele>
        <time>2011-07-10T17:35:24Z</time>
      </trkpt>
      <trkpt lat="44.08908" lon="6.55563">
        <ele>1115.552</ele>
        <time>2011-07-10T17:35:29Z</time>
      </trkpt>
      <trkpt lat="44.08966" lon="6.55564">
        <ele>1111.48</ele>
        <time>2011-07-10T17:35:36Z</time>
      </trkpt>
      <trkpt lat="44.09013" lon="6.55563">
        <ele>1111.354</ele>
        <time>2011-07-10T17:35:42Z</time>
      </trkpt>
      <trkpt lat="44.09048" lon="6.55563">
        <ele>1112.448</ele>
        <time>2011-07-10T17:35:47Z</time>
      </trkpt>
      <trkpt lat="44.0908" lon="6.55563">
        <ele>1115.268</ele>
        <time>2011-07-10T17:35:52Z</time>
      </trkpt>
      <trkpt lat="44.09108" lon="6.55563">
        <ele>1117.842</ele>
        <time>2011-07-10T17:35:57Z</time>
      </trkpt>
      <trkpt lat="44.09145" lon="6.55563">
        <ele>1120.114</ele>
        <time>2011-07-10T17:36:05Z</time>
      </trkpt>
      <trkpt lat="44.09167" lon="6.55563">
        <ele>1122.223</ele>
        <time>2011-07-10T17:36:11Z</time>
      </trkpt>
      <trkpt lat="44.09191" lon="6.55563">
        <ele>1123.064</ele>
        <time>2011-07-10T17:36:18Z</time>
      </trkpt>
      <trkpt lat="44.09218" lon="6.55564">
        <ele>1124.356</ele>
        <time>2011-07-10T17:36:26Z</time>
      </trkpt>
      <trkpt lat="44.09243" lon="6.55564">
        <ele>1124.329</ele>
        <time>2011-07-10T17:36:34Z</time>
      </trkpt>
      <trkpt lat="44.09267" lon="6.55569">
        <ele>1126.921</ele>
        <time>2011-07-10T17:36:42Z</time>
      </trkpt>
      <trkpt lat="44.09292" lon="6.5558">
        <ele>1126.254</ele>
        <time>2011-07-10T17:36:50Z</time>
      </trkpt>
      <trkpt lat="44.09316" lon="6.55585">
        <ele>1130.395</ele>
        <time>2011-07-10T17:36:57Z</time>
      </trkpt>
      <trkpt lat="44.09342" lon="6.55577">
        <ele>1130.198</ele>
        <time>2011-07-10T17:37:05Z</time>
      </trkpt>
      <trkpt lat="44.0936" lon="6.55569">
        <ele>1129.827</ele>
        <time>2011-07-10T17:37:11Z</time>
      </trkpt>
      <trkpt lat="44.09384" lon="6.55564">
        <ele>1128.188</ele>
        <time>2011-07-10T17:37:19Z</time>
      </trkpt>
      <trkpt lat="44.09407" lon="6.55571">
        <ele>1133.04</ele>
        <time>2011-07-10T17:37:26Z</time>
      </trkpt>
      <trkpt lat="44.09425" lon="6.55583">
        <ele>1133.361</ele>
        <time>2011-07-10T17:37:32Z</time>
      </trkpt>
      <trkpt lat="44.09444" lon="6.55605">
        <ele>1135.491</ele>
        <time>2011-07-10T17:37:40Z</time>
      </trkpt>
      <trkpt lat="44.09469" lon="6.55623">
        <ele>1139.021</ele>
        <time>2011-07-10T17:37:49Z</time>
      </trkpt>
      <trkpt lat="44.0949" lon="6.55626">
        <ele>1140.402</ele>
        <time>2011-07-10T17:37:56Z</time>
      </trkpt>
      <trkpt lat="44.09506" lon="6.55621">
        <ele>1142.583</ele>
        <time>2011-07-10T17:38:02Z</time>
      </trkpt>
      <trkpt lat="44.09519" lon="6.55613">
        <ele>1142.671</ele>
        <time>2011-07-10T17:38:08Z</time>
      </trkpt>
      <trkpt lat="44.09534" lon="6.55604">
        <ele>1143.54</ele>
        <time>2011-07-10T17:38:14Z</time>
      </trkpt>
      <trkpt lat="44.09553" lon="6.55592">
        <ele>1148.885</ele>
        <time>2011-07-10T17:38:22Z</time>
      </trkpt>
      <trkpt lat="44.09568" lon="6.55584">
        <ele>1152.236</ele>
        <time>2011-07-10T17:38:27Z</time>
      </trkpt>
      <trkpt lat="44.09588" lon="6.55571">
        <ele>1153.914</ele>
        <time>2011-07-10T17:38:34Z</time>
      </trkpt>
      <trkpt lat="44.09609" lon="6.55557">
        <ele>1154.993</ele>
        <time>2011-07-10T17:38:42Z</time>
      </trkpt>
      <trkpt lat="44.09626" lon="6.55546">
        <ele>1153.872</ele>
        <time>2011-07-10T17:38:49Z</time>
      </trkpt>
      <trkpt lat="44.09637" lon="6.55538">
        <ele>1156.019</ele>
        <time>2011-07-10T17:38:53Z</time>
      </trkpt>
      <trkpt lat="44.09649" lon="6.55529">
        <ele>1157.478</ele>
        <time>2011-07-10T17:38:58Z</time>
      </trkpt>
      <trkpt lat="44.09658" lon="6.55537">
        <ele>1152.839</ele>
        <time>2011-07-10T17:39:04Z</time>
      </trkpt>
      <trkpt lat="44.09656" lon="6.55543">
        <ele>1156.093</ele>
        <time>2011-07-10T17:39:08Z</time>
      </trkpt>
      <trkpt lat="44.09647" lon="6.55546">
        <ele>1157.762</ele>
        <time>2011-07-10T17:39:13Z</time>
      </trkpt>
      <trkpt lat="44.09648" lon="6.55549">
        <ele>1154.769</ele>
        <time>2011-07-10T17:39:17Z</time>
      </trkpt>
      <trkpt lat="44.09648" lon="6.5555">
        <ele>1159.678</ele>
        <time>2011-07-10T17:40:22Z</time>
      </trkpt>
      <trkpt lat="44.0965" lon="6.55548">
        <ele>1167.309</ele>
        <time>2011-07-10T17:41:00Z</time>
      </trkpt>
      <trkpt lat="44.0966" lon="6.55552">
        <ele>1162.996</ele>
        <time>2011-07-10T17:41:06Z</time>
      </trkpt>
      <trkpt lat="44.09667" lon="6.55545">
        <ele>1160.885</ele>
        <time>2011-07-10T17:41:11Z</time>
      </trkpt>
      <trkpt lat="44.09677" lon="6.55554">
        <ele>1159.074</ele>
        <time>2011-07-10T17:41:15Z</time>
      </trkpt>
      <trkpt lat="44.09686" lon="6.55576">
        <ele>1158.936</ele>
        <time>2011-07-10T17:41:20Z</time>
      </trkpt>
      <trkpt lat="44.09699" lon="6.55599">
        <ele>1167.575</ele>
        <time>2011-07-10T17:41:26Z</time>
      </trkpt>
      <trkpt lat="44.09699" lon="6.55606">
        <ele>1165.111</ele>
        <time>2011-07-10T17:41:27Z</time>
      </trkpt>
      <trkpt lat="44.09701" lon="6.55636">
        <ele>1161.267</ele>
        <time>2011-07-10T17:41:31Z</time>
      </trkpt>
      <trkpt lat="44.09703" lon="6.55667">
        <ele>1160.356</ele>
        <time>2011-07-10T17:41:35Z</time>
      </trkpt>
      <trkpt lat="44.09695" lon="6.55697">
        <ele>1153.809</ele>
        <time>2011-07-10T17:41:39Z</time>
      </trkpt>
      <trkpt lat="44.09695" lon="6.55697">
        <ele>1152.612</ele>
        <time>2011-07-10T17:41:42Z</time>
      </trkpt>
      <trkpt lat="44.09702" lon="6.55694">
        <ele>1148.807</ele>
        <time>2011-07-10T17:42:49Z</time>
      </trkpt>
    </trkseg>
  </trk>
</gpx>